# Wetter Temperatur Luftdruck Luftfeuchtigkeit Sichtweite Windgeschwindigkeit Windrichtung Zeit
1 Clouds 14 1026 71 10000 1.54 100 12:37 07.10.2022
2 Clouds 8 1027 87 10000 1.03 0 09:37 07.10.2022
3 Clouds 8 1027 84 10000 1.03 0 09:19 07.10.2022
4 Clouds 6 1027 88 10000 0.51 0 06:58 07.10.2022
5 Clear 6 1030 89 10000 1.03 360 01:37 07.10.2022
6 Clear 7 1031 88 10000 0 0 22:51 06.10.2022
7 Clear 9 1031 84 10000 1.54 90 21:48 06.10.2022
8 Clear 9 1031 81 10000 2.06 100 21:25 06.10.2022
9 Clear 11 1031 80 10000 0.51 0 20:30 06.10.2022
10 Clear 15 1030 67 10000 1.03 360 18:39 06.10.2022
11 Clear 16 1030 59 10000 2.06 290 18:19 06.10.2022
12 Clouds 18 1030 58 10000 2.57 300 15:33 06.10.2022
13 Clouds 15 1031 81 10000 2.57 240 11:45 06.10.2022
14 Clouds 11 1027 86 10000 1.54 170 07:35 06.10.2022
15 Clouds 12 1025 83 10000 2.06 150 03:38 06.10.2022
16 Clear 13 1023 87 10000 1.54 150 00:39 06.10.2022
17 Clear 13 1021 86 10000 3.09 130 21:41 05.10.2022
18 Clear 16 1021 76 10000 3.09 140 19:30 05.10.2022
19 Clear 20 1021 69 10000 2.57 190 17:36 05.10.2022
20 Clear 20 1021 65 10000 2.57 200 16:20 05.10.2022
21 Clear 19 1021 66 10000 4.12 170 14:47 05.10.2022
22 Clear 19 1022 69 10000 4.12 160 14:19 05.10.2022
23 Clear 16 1023 75 10000 2.57 150 12:25 05.10.2022
24 Clear 10 1023 82 10000 3.09 130 09:39 05.10.2022
25 Fog 6 1022 85 1000 2.57 110 07:44 05.10.2022
26 Clear 6 1022 87 10000 4.12 120 06:19 05.10.2022
27 Clear 6 1022 89 10000 3.09 110 04:21 05.10.2022
28 Clear 7 1024 89 10000 2.06 120 00:50 05.10.2022
29 Clear 7 1024 89 10000 4.12 100 00:27 05.10.2022
30 Clear 9 1023 86 10000 3.09 100 22:38 04.10.2022
31 Clear 11 1023 79 10000 3.6 100 20:39 04.10.2022
32 Clear 14 1023 69 10000 2.06 140 18:59 04.10.2022
33 Clear 15 1023 67 10000 3.6 160 18:38 04.10.2022
34 Clear 16 1023 64 10000 3.6 180 17:48 04.10.2022
35 Clear 17 1023 60 10000 2.57 130 16:35 04.10.2022
36 Clear 15 1024 72 10000 1.54 200 12:58 04.10.2022
37 Clear 7 1024 93 10000 2.06 130 09:46 04.10.2022
38 Mist 5 1024 87 3900 2.06 100 07:24 04.10.2022
39 Clear 6 1025 90 10000 2.06 90 02:27 04.10.2022
40 Fog 8 1025 89 6000 2.57 90 23:41 03.10.2022
41 Clear 9 1026 88 10000 0.51 0 21:53 03.10.2022
42 Clear 11 1026 84 10000 0.51 200 21:23 03.10.2022
43 Clear 12 1026 81 10000 1.54 290 20:19 03.10.2022
44 Clouds 13 1026 76 10000 2.57 290 18:28 03.10.2022
45 Clouds 14 1026 70 10000 3.09 280 17:25 03.10.2022
46 Clouds 14 1026 70 10000 3.6 290 15:47 03.10.2022
47 Clouds 13 1027 78 10000 4.12 300 13:51 03.10.2022
48 Clouds 13 1027 81 10000 3.6 300 12:30 03.10.2022
49 Clouds 11 1027 88 10000 2.57 280 10:39 03.10.2022
50 Clouds 10 1026 86 10000 1.54 240 09:38 03.10.2022
51 Clouds 9 1025 87 8000 1.54 280 06:35 03.10.2022
52 Fog 10 1024 89 5000 0.51 0 02:53 03.10.2022
53 Clouds 11 1021 88 10000 2.06 260 22:39 02.10.2022
54 Clouds 12 1020 87 10000 1.54 260 20:52 02.10.2022
55 Rain 12 1018 88 10000 3.6 270 18:47 02.10.2022
56 Rain 13 1018 88 10000 3.6 260 17:53 02.10.2022
57 Rain 13 1018 85 10000 3.09 260 16:44 02.10.2022
58 Rain 13 1018 87 10000 3.09 250 16:18 02.10.2022
59 Rain 13 1018 87 8000 2.57 220 14:52 02.10.2022
60 Rain 13 1018 87 10000 2.06 210 13:45 02.10.2022
61 Rain 12 1019 88 10000 2.57 230 12:30 02.10.2022
62 Rain 13 1019 87 10000 3.09 220 11:40 02.10.2022
63 Rain 13 1019 87 10000 3.09 220 11:21 02.10.2022
64 Rain 12 1019 89 10000 3.09 230 09:29 02.10.2022
65 Rain 12 1019 86 10000 4.12 230 07:41 02.10.2022
66 Clouds 12 1018 87 10000 2.06 260 02:55 02.10.2022
67 Clouds 12 1017 88 10000 4.12 260 00:50 02.10.2022
68 Clouds 12 1016 86 10000 4.63 270 00:22 02.10.2022
69 Clouds 13 1015 85 10000 4.63 250 22:53 01.10.2022
70 Clouds 12 1013 86 10000 4.63 230 20:53 01.10.2022
71 Clouds 12 1012 86 10000 4.63 230 18:50 01.10.2022
72 Clouds 12 1011 87 10000 5.66 220 16:36 01.10.2022
73 Rain 11 1010 86 10000 4.12 210 14:42 01.10.2022
74 Rain 10 1011 84 10000 5.14 200 13:32 01.10.2022
75 Rain 10 1011 84 10000 5.14 200 13:32 01.10.2022
76 Rain 9 1011 87 10000 5.14 190 12:33 01.10.2022
77 Rain 9 1012 85 10000 4.12 160 11:21 01.10.2022
78 Rain 8 1012 84 10000 3.6 160 10:32 01.10.2022
79 Rain 8 1012 86 10000 3.6 160 09:55 01.10.2022
80 Rain 7 1012 91 7000 3.09 130 08:58 01.10.2022
81 Rain 7 1012 91 7000 3.09 130 08:58 01.10.2022
82 Clouds 5 1013 85 6000 3.6 110 05:47 01.10.2022
83 Clouds 5 1014 88 7000 4.12 100 03:34 01.10.2022
84 Clear 6 1013 90 10000 3.09 110 00:29 01.10.2022
85 Clear 7 1013 85 10000 2.57 90 22:55 30.09.2022
86 Clear 7 1013 85 10000 2.57 90 21:31 30.09.2022
87 Clear 9 1013 82 10000 2.06 100 20:44 30.09.2022
88 Clear 9 1013 81 10000 1.03 120 20:18 30.09.2022
89 Clear 14 1012 64 10000 2.06 290 17:38 30.09.2022
90 Clear 14 1012 66 10000 2.06 250 15:58 30.09.2022
91 Clear 13 1012 76 10000 1.03 0 13:40 30.09.2022
92 Fog 7 1012 93 6000 0.51 0 11:59 30.09.2022
93 Fog 6 1012 100 450 0.51 0 11:31 30.09.2022
94 Fog 4 1011 96 250 0.51 0 08:37 30.09.2022
95 Fog 4 1009 88 500 0 0 06:27 30.09.2022
96 Clouds 6 1008 88 7000 1.03 360 02:42 30.09.2022
97 Mist 6 1007 89 1900 1.03 10 23:35 29.09.2022
98 Clear 7 1006 89 10000 1.54 130 21:29 29.09.2022
99 Clear 8 1005 86 10000 1.03 0 20:57 29.09.2022
100 Rain 10 1005 85 10000 3.09 100 18:45 29.09.2022
101 Clouds 11 1004 77 10000 0.59 318 17:32 29.09.2022
102 Clouds 11 1003 81 10000 1.03 0 16:28 29.09.2022
103 Clouds 12 1003 72 10000 1.03 0 15:36 29.09.2022
104 Rain 12 1003 72 10000 1.54 0 14:35 29.09.2022
105 Clouds 7 1002 84 10000 1.54 140 10:33 29.09.2022
106 Clouds 5 1002 87 7000 3.09 110 07:26 29.09.2022
107 Clear 5 1001 89 10000 3.09 100 02:52 29.09.2022
108 Clouds 6 1001 89 10000 1.03 0 23:56 28.09.2022
109 Clouds 6 1001 89 10000 1.03 0 23:56 28.09.2022
110 Clear 7 1001 87 10000 1.54 200 22:58 28.09.2022
111 Clouds 8 1000 86 10000 1.54 200 21:30 28.09.2022
112 Clouds 10 1000 82 10000 1.54 170 20:25 28.09.2022
113 Clouds 11 999 72 10000 2.57 260 18:42 28.09.2022
114 Clouds 12 998 64 10000 6.69 280 15:32 28.09.2022
115 Clouds 11 998 73 10000 5.66 280 13:27 28.09.2022
116 Clouds 9 997 88 10000 4.63 270 11:18 28.09.2022
117 Rain 8 996 86 10000 3.6 230 09:18 28.09.2022
118 Rain 7 996 89 10000 2.57 130 07:20 28.09.2022
119 Rain 7 998 88 10000 3.6 150 04:34 28.09.2022
120 Clear 7 1001 88 10000 2.06 210 01:36 28.09.2022
121 Clouds 8 1001 86 10000 4.12 230 23:27 27.09.2022
122 Clouds 8 1001 86 10000 2.57 190 21:47 27.09.2022
123 Rain 8 1001 84 10000 5.14 250 20:39 27.09.2022
124 Clouds 9 1001 83 10000 2.06 210 19:48 27.09.2022
125 Clouds 10 1000 81 10000 3.6 230 18:45 27.09.2022
126 Clouds 10 1000 79 10000 5.14 230 17:45 27.09.2022
127 Rain 10 1000 84 10000 6.69 280 15:58 27.09.2022
128 Rain 11 1000 83 10000 5.66 260 14:58 27.09.2022
129 Clouds 10 1000 82 10000 5.14 240 12:53 27.09.2022
130 Clouds 10 1000 83 10000 6.17 240 12:21 27.09.2022
131 Clouds 9 999 87 10000 7.2 270 09:34 27.09.2022
132 Clouds 9 997 86 10000 3.6 200 06:56 27.09.2022
133 Rain 11 999 83 10000 4.63 180 02:41 27.09.2022
134 Rain 11 1000 81 10000 5 211 01:35 27.09.2022
135 Clear 12 1001 73 10000 4.63 160 23:26 26.09.2022
136 Clear 12 1002 74 10000 3.6 170 22:38 26.09.2022
137 Clear 12 1003 78 10000 2.06 120 20:46 26.09.2022
138 Clear 13 1004 73 10000 2.06 310 19:32 26.09.2022
139 Clear 14 1004 66 10000 3.09 220 18:32 26.09.2022
140 Clouds 15 1005 62 10000 5.14 230 16:36 26.09.2022
141 Clouds 15 1006 66 10000 4.63 200 14:37 26.09.2022
142 Clear 13 1008 78 10000 2.06 200 11:30 26.09.2022
143 Clouds 12 1009 82 10000 2.06 190 10:39 26.09.2022
144 Clouds 12 1009 85 10000 2.57 230 10:20 26.09.2022
145 Clouds 11 1009 88 10000 3.09 220 09:55 26.09.2022
146 Clouds 10 1009 87 10000 2.57 240 09:24 26.09.2022
147 Clear 9 1009 87 10000 1.54 200 07:56 26.09.2022
148 Clouds 11 1010 87 10000 2.06 280 02:57 26.09.2022
149 Clouds 11 1011 89 10000 2.57 260 23:57 25.09.2022
150 Clouds 12 1011 87 10000 2.06 250 22:45 25.09.2022
151 Clouds 12 1011 88 10000 2.06 260 21:35 25.09.2022
152 Clouds 12 1011 86 10000 2.06 340 20:48 25.09.2022
153 Clouds 13 1010 88 7000 0.51 80 19:43 25.09.2022
154 Clouds 13 1010 87 10000 1.03 60 18:43 25.09.2022
155 Clouds 13 1010 87 10000 1.03 50 18:20 25.09.2022
156 Clouds 14 1011 86 10000 1.54 110 16:45 25.09.2022
157 Rain 14 1011 87 10000 3.09 330 15:45 25.09.2022
158 Rain 14 1011 83 10000 6.17 300 14:22 25.09.2022
159 Clouds 15 1011 85 10000 2.57 150 12:55 25.09.2022
160 Clouds 13 1012 86 10000 3.09 150 10:36 25.09.2022
161 Mist 12 1012 88 5000 2.06 110 08:24 25.09.2022
162 Clouds 12 1012 87 6000 2.57 130 05:47 25.09.2022
163 Mist 12 1013 90 4600 1.03 0 01:55 25.09.2022
164 Clouds 13 1013 87 9000 2.06 100 22:35 24.09.2022
165 Rain 14 1013 86 10000 3.09 180 20:55 24.09.2022
166 Rain 15 1012 73 10000 0.51 0 19:23 24.09.2022
167 Rain 17 1012 63 10000 1.03 0 17:49 24.09.2022
168 Clear 17 1013 65 10000 1.54 200 16:25 24.09.2022
169 Rain 17 1013 63 10000 1.03 0 15:20 24.09.2022
170 Rain 16 1013 68 10000 1.03 0 13:25 24.09.2022
171 Rain 16 1013 70 10000 1.03 0 12:50 24.09.2022
172 Clear 14 1013 76 10000 1.54 160 10:54 24.09.2022
173 Clear 11 1013 80 10000 1.54 120 09:40 24.09.2022
174 Clear 8 1013 88 10000 1.03 110 08:43 24.09.2022
175 Clear 8 1013 88 10000 1.03 110 08:43 24.09.2022
176 Clear 8 1013 87 10000 1.54 100 06:53 24.09.2022
177 Clear 8 1014 86 10000 2.57 110 04:40 24.09.2022
178 Clear 9 1015 86 10000 3.09 110 02:19 24.09.2022
179 Clouds 10 1015 83 10000 1.54 120 22:28 23.09.2022
180 Clear 11 1015 78 10000 4.12 100 21:28 23.09.2022
181 Clear 11 1015 76 10000 1.54 110 20:55 23.09.2022
182 Clear 12 1015 73 10000 1.54 100 20:19 23.09.2022
183 Clear 17 1016 53 10000 1.03 0 18:26 23.09.2022
184 Clear 17 1018 53 10000 4.12 130 13:45 23.09.2022
185 Clear 11 1020 79 10000 2.06 140 10:27 23.09.2022
186 Clear 6 1020 88 10000 1.54 110 08:57 23.09.2022
187 Clear 4 1020 90 10000 1.03 110 04:59 23.09.2022
188 Clear 7 1021 86 10000 2.57 100 23:31 22.09.2022
189 Clear 8 1021 82 10000 2.57 90 22:41 22.09.2022
190 Clear 8 1022 82 10000 3.09 110 22:19 22.09.2022
191 Clear 10 1021 74 10000 1.03 0 20:45 22.09.2022
192 Clear 14 1021 59 10000 1.54 80 19:23 22.09.2022
193 Clear 17 1022 49 10000 1.03 0 16:53 22.09.2022
194 Clear 13 1024 73 10000 1.03 0 11:36 22.09.2022
195 Clear 9 1024 81 10000 0.51 0 10:20 22.09.2022
196 Clear 4 1025 81 10000 0.94 93 08:22 22.09.2022
197 Mist 3 1024 89 9000 1.03 120 06:27 22.09.2022
198 Clear 5 1025 91 10000 0.51 0 02:39 22.09.2022
199 Clear 8 1025 83 10000 2.06 70 22:32 21.09.2022
200 Clear 9 1025 79 10000 2.06 70 21:38 21.09.2022
201 Clear 12 1025 65 10000 1.54 40 19:30 21.09.2022
202 Clear 15 1025 59 10000 1.54 10 17:46 21.09.2022
203 Clouds 16 1025 54 10000 2.06 0 16:22 21.09.2022
204 Clear 14 1026 66 10000 1.54 280 13:57 21.09.2022
205 Clouds 11 1027 81 10000 1.03 0 12:19 21.09.2022
206 Mist 8 1027 100 4100 1.03 0 11:28 21.09.2022
207 Fog 6 1027 100 400 0.51 0 09:47 21.09.2022
208 Fog 5 1026 88 600 1.03 0 08:53 21.09.2022
209 Fog 5 1025 89 450 0.51 100 06:20 21.09.2022
210 Clear 4 1025 91 10000 2.57 110 02:44 21.09.2022
211 Clear 4 1025 91 10000 2.06 90 02:20 21.09.2022
212 Mist 6 1025 91 7000 1.03 0 00:26 21.09.2022
213 Fog 7 1024 90 1500 0.51 0 22:30 20.09.2022
214 Clouds 9 1023 87 10000 0.51 0 20:37 20.09.2022
215 Rain 11 1022 81 10000 2.06 60 19:24 20.09.2022
216 Clouds 14 1021 69 10000 5.14 280 15:58 20.09.2022
217 Clouds 13 1022 73 10000 4.12 310 14:34 20.09.2022
218 Clouds 11 1022 82 10000 5.14 300 12:41 20.09.2022
219 Clouds 9 1021 87 10000 2.06 250 08:51 20.09.2022
220 Clouds 8 1021 89 10000 2.06 250 08:25 20.09.2022
221 Clouds 9 1020 89 10000 1.54 280 04:44 20.09.2022
222 Clouds 9 1020 88 10000 1.03 240 02:37 20.09.2022
223 Clouds 9 1020 88 10000 0.51 0 22:50 19.09.2022
224 Clouds 9 1020 87 7000 4.12 300 21:38 19.09.2022
225 Rain 10 1019 88 10000 2.06 230 20:45 19.09.2022
226 Clouds 11 1019 85 10000 2.57 230 19:27 19.09.2022
227 Rain 12 1019 84 10000 5.14 250 17:37 19.09.2022
228 Clouds 13 1019 81 10000 5.66 260 13:53 19.09.2022
229 Clouds 12 1019 80 10000 5.66 270 12:48 19.09.2022
230 Clouds 10 1017 87 10000 5.66 280 10:31 19.09.2022
231 Clouds 8 1016 88 10000 6.69 270 08:42 19.09.2022
232 Clouds 7 1014 86 10000 6.17 270 04:39 19.09.2022
233 Clouds 7 1013 87 10000 3.6 260 01:18 19.09.2022
234 Rain 8 1013 89 10000 7.72 280 22:49 18.09.2022
235 Rain 9 1013 86 10000 5.66 260 21:32 18.09.2022
236 Rain 10 1013 87 10000 4.12 250 19:58 18.09.2022
237 Rain 10 1014 85 10000 6.17 260 17:53 18.09.2022
238 Rain 11 1013 81 10000 7.72 260 16:59 18.09.2022
239 Rain 12 1014 82 10000 7.2 250 14:52 18.09.2022
240 Rain 11 1015 85 10000 6.17 260 13:46 18.09.2022
241 Rain 11 1015 85 10000 7.72 260 12:28 18.09.2022
242 Rain 9 1015 88 10000 5.66 260 10:44 18.09.2022
243 Clouds 8 1014 87 10000 6.17 260 03:37 18.09.2022
244 Clouds 8 1014 84 10000 6.69 270 01:23 18.09.2022
245 Clear 8 1014 84 10000 5.14 270 23:59 17.09.2022
246 Clear 8 1013 87 10000 3.09 280 21:35 17.09.2022
247 Rain 10 1012 82 10000 6.17 280 19:40 17.09.2022
248 Clear 12 1012 72 10000 7.2 280 18:43 17.09.2022
249 Rain 12 1012 67 10000 7.72 280 15:51 17.09.2022
250 Clouds 12 1012 74 10000 8.23 280 13:38 17.09.2022
251 Rain 9 1012 86 10000 6.17 270 10:56 17.09.2022
252 Drizzle 8 1011 86 10000 6.69 280 08:33 17.09.2022
253 Clouds 9 1011 84 10000 4.63 260 06:21 17.09.2022
254 Clouds 10 1011 83 10000 3.6 280 23:56 16.09.2022
255 Clear 10 1010 85 10000 3.09 290 22:42 16.09.2022
256 Clear 12 1010 80 10000 4.12 280 20:54 16.09.2022
257 Clear 13 1009 76 10000 4.12 260 19:41 16.09.2022
258 Mist 14 1009 85 10000 4.12 310 16:26 16.09.2022
259 Clouds 15 1009 71 10000 4.63 240 14:53 16.09.2022
260 Clouds 14 1010 70 10000 5.14 260 13:26 16.09.2022
261 Clear 13 1010 80 10000 4.63 280 10:27 16.09.2022
262 Clear 12 1010 86 10000 2.06 250 07:52 16.09.2022
263 Clear 12 1010 87 10000 1.54 260 06:48 16.09.2022
264 Clear 12 1010 85 10000 2.57 260 05:58 16.09.2022
265 Clouds 13 1010 84 10000 1.54 260 02:35 16.09.2022
266 Clear 12 1010 84 10000 2.57 220 22:20 15.09.2022
267 Clear 14 1009 82 10000 2.06 270 20:39 15.09.2022
268 Clouds 15 1009 76 10000 4.12 280 19:42 15.09.2022
269 Clouds 16 1008 75 10000 4.63 290 18:26 15.09.2022
270 Clouds 17 1007 74 10000 4.12 300 17:29 15.09.2022
271 Rain 16 1007 79 10000 5.14 310 15:49 15.09.2022
272 Rain 16 1007 88 10000 4.12 300 12:51 15.09.2022
273 Rain 16 1007 86 10000 3.09 330 11:48 15.09.2022
274 Clouds 16 1005 86 8000 6.17 340 09:46 15.09.2022
275 Clouds 17 1004 85 10000 4.12 230 07:44 15.09.2022
276 Rain 17 1005 86 10000 2.06 180 03:48 15.09.2022
277 Clouds 16 1005 87 7000 1.54 110 23:22 14.09.2022
278 Rain 18 1005 84 10000 1.54 190 20:37 14.09.2022
279 Clouds 18 1005 85 10000 2.06 220 19:33 14.09.2022
280 Rain 19 1005 86 10000 3.6 300 17:48 14.09.2022
281 Rain 20 1005 86 2400 2.06 330 16:37 14.09.2022
282 Clouds 21 1006 87 10000 3.09 260 14:56 14.09.2022
283 Clouds 18 1007 84 10000 3.09 250 12:40 14.09.2022
284 Clouds 17 1006 85 10000 2.57 130 09:53 14.09.2022
285 Rain 16 1006 85 10000 2.06 100 08:38 14.09.2022
286 Rain 16 1006 85 10000 2.06 100 08:38 14.09.2022
287 Rain 16 1008 86 6000 2.57 100 06:50 14.09.2022
288 Rain 16 1008 86 10000 0.51 0 06:29 14.09.2022
289 Clouds 16 1009 88 10000 1.03 0 02:58 14.09.2022
290 Clear 16 1010 88 10000 1.54 120 01:36 14.09.2022
291 Rain 16 1010 88 10000 3.09 100 00:53 14.09.2022
292 Clear 17 1010 88 10000 1.03 0 23:55 13.09.2022
293 Clear 17 1010 88 10000 1.03 0 23:36 13.09.2022
294 Clear 17 1010 86 10000 1.03 0 23:18 13.09.2022
295 Clear 18 1010 84 10000 2.06 100 22:28 13.09.2022
296 Clear 19 1010 82 10000 1.03 0 21:38 13.09.2022
297 Rain 21 1010 76 10000 1.03 120 18:56 13.09.2022
298 Clear 22 1012 64 10000 1.54 230 16:39 13.09.2022
299 Clouds 20 1012 68 10000 1.54 200 15:19 13.09.2022
300 Clear 21 1012 70 10000 1.54 0 13:37 13.09.2022
301 Clear 16 1013 83 10000 2.57 150 10:20 13.09.2022
302 Clear 11 1013 86 10000 2.57 110 07:54 13.09.2022
303 Clear 13 1014 87 10000 2.57 100 02:21 13.09.2022
304 Clear 14 1015 86 10000 3.09 100 23:22 12.09.2022
305 Clear 14 1015 84 10000 3.6 100 22:37 12.09.2022
306 Clear 17 1015 73 10000 3.09 80 20:54 12.09.2022
307 Clear 20 1015 63 10000 1.03 60 19:31 12.09.2022
308 Clear 22 1016 57 10000 1.03 0 18:22 12.09.2022
309 Clear 22 1016 56 10000 1.03 0 15:48 12.09.2022
310 Clouds 19 1018 75 10000 1.03 0 12:26 12.09.2022
311 Fog 14 1018 93 1100 1.54 100 10:27 12.09.2022
312 Fog 10 1018 86 10000 1.54 100 07:33 12.09.2022
313 Mist 11 1018 87 7000 2.57 100 04:35 12.09.2022
314 Clear 11 1019 88 6000 2.06 100 01:53 12.09.2022
315 Mist 14 1019 88 6000 1.03 90 22:46 11.09.2022
316 Clear 14 1019 86 10000 0.51 0 21:25 11.09.2022
317 Clear 16 1019 81 10000 0.51 100 20:43 11.09.2022
318 Clear 18 1018 76 10000 1.54 290 19:27 11.09.2022
319 Clear 19 1018 74 10000 2.57 290 18:58 11.09.2022
320 Clouds 19 1019 74 10000 3.09 270 17:26 11.09.2022
321 Rain 18 1019 77 10000 5.66 280 15:46 11.09.2022
322 Clouds 18 1019 80 10000 3.6 340 13:19 11.09.2022
323 Clouds 15 1018 86 10000 3.09 310 10:51 11.09.2022
324 Clouds 14 1016 86 10000 3.09 300 07:49 11.09.2022
325 Rain 14 1015 87 10000 2.57 220 05:19 11.09.2022
326 Rain 14 1016 87 8000 2.57 230 23:50 10.09.2022
327 Clouds 15 1015 83 10000 3.09 220 22:21 10.09.2022
328 Clouds 15 1015 81 10000 2.45 248 20:24 10.09.2022
329 Clouds 16 1015 79 10000 4.63 240 19:43 10.09.2022
330 Clouds 16 1015 79 10000 6.69 260 19:24 10.09.2022
331 Clear 18 1014 70 10000 5.66 250 17:19 10.09.2022
332 Clouds 18 1014 71 10000 4.12 250 15:35 10.09.2022
333 Rain 15 1016 85 10000 3.6 240 13:36 10.09.2022
334 Rain 16 1016 82 10000 3.6 220 12:29 10.09.2022
335 Rain 15 1015 82 10000 3.6 210 10:28 10.09.2022
336 Rain 14 1015 84 10000 2.06 210 08:41 10.09.2022
337 Rain 14 1015 84 10000 2.06 220 08:20 10.09.2022
338 Clouds 13 1015 85 10000 2.06 150 03:43 10.09.2022
339 Clouds 14 1015 85 10000 3.09 140 23:36 09.09.2022
340 Rain 14 1015 82 10000 2.06 110 22:36 09.09.2022
341 Rain 17 1014 68 10000 2.57 290 20:50 09.09.2022
342 Clear 18 1013 61 10000 2.57 240 19:58 09.09.2022
343 Clear 18 1013 58 10000 2.57 190 19:22 09.09.2022
344 Clear 19 1013 69 10000 2.06 170 17:19 09.09.2022
345 Rain 21 1013 54 10000 5.14 190 14:47 09.09.2022
346 Clouds 22 1013 52 10000 3.09 170 13:19 09.09.2022
347 Clear 19 1014 69 10000 3.09 170 10:41 09.09.2022
348 Clear 13 1013 87 10000 2.57 120 07:25 09.09.2022
349 Clear 12 1013 89 10000 4.12 100 03:31 09.09.2022
350 Clear 14 1013 81 10000 0.51 0 22:33 08.09.2022
351 Clear 16 1013 71 10000 2.06 200 21:51 08.09.2022
352 Clear 18 1012 63 10000 1.54 210 20:46 08.09.2022
353 Clear 18 1012 63 10000 1.54 230 20:24 08.09.2022
354 Clear 21 1012 55 10000 4.12 240 18:34 08.09.2022
355 Clouds 22 1012 54 10000 5.14 240 16:49 08.09.2022
356 Clouds 20 1012 66 10000 5.66 270 14:50 08.09.2022
357 Clouds 18 1012 76 10000 6.17 240 13:27 08.09.2022
358 Clouds 18 1012 81 10000 5.14 250 12:35 08.09.2022
359 Rain 17 1012 86 10000 3.09 190 10:58 08.09.2022
360 Rain 17 1011 86 10000 2.57 170 09:26 08.09.2022
361 Clear 16 1010 86 10000 1.54 270 06:43 08.09.2022
362 Rain 18 1012 85 10000 6.69 180 03:18 08.09.2022
363 Rain 19 1011 78 10000 3.6 120 02:36 08.09.2022
364 Rain 18 1011 78 10000 0.51 0 02:18 08.09.2022
365 Clear 19 1013 70 10000 0.51 0 22:55 07.09.2022
366 Clear 21 1013 63 10000 0 0 21:43 07.09.2022
367 Clear 21 1013 63 10000 1.54 360 21:20 07.09.2022
368 Clear 23 1012 55 10000 1.54 260 20:19 07.09.2022
369 Clear 27 1012 42 10000 2.06 260 18:40 07.09.2022
370 Clouds 28 1014 50 10000 1.54 0 15:21 07.09.2022
371 Clear 23 1016 70 10000 3.09 150 10:51 07.09.2022
372 Clear 22 1015 75 10000 2.06 140 10:30 07.09.2022
373 Clouds 15 1015 88 10000 1.03 0 07:43 07.09.2022
374 Clear 15 1015 86 10000 3.09 100 04:46 07.09.2022
375 Clear 17 1016 80 10000 3.6 100 00:26 07.09.2022
376 Clear 20 1016 70 10000 2.57 100 21:47 06.09.2022
377 Clear 21 1016 65 10000 1.03 0 21:27 06.09.2022
378 Clear 27 1016 44 10000 1.54 280 18:55 06.09.2022
379 Clear 27 1016 47 10000 2.57 270 18:27 06.09.2022
380 Clear 28 1016 46 10000 3.09 260 17:23 06.09.2022
381 Clear 28 1017 46 10000 2.06 260 16:40 06.09.2022
382 Clear 27 1017 51 10000 3.09 290 15:23 06.09.2022
383 Clear 27 1018 51 10000 2.06 0 13:46 06.09.2022
384 Clear 25 1018 57 10000 3.09 240 13:25 06.09.2022
385 Clear 25 1018 61 10000 3.09 190 12:37 06.09.2022
386 Clear 21 1019 75 10000 2.57 140 10:46 06.09.2022
387 Clear 18 1019 84 10000 2.06 110 08:53 06.09.2022
388 Clear 16 1019 88 10000 1.54 130 07:49 06.09.2022
389 Clear 15 1019 85 10000 2.57 100 04:48 06.09.2022
390 Clear 18 1019 76 10000 3.09 110 23:42 05.09.2022
391 Clear 19 1019 73 10000 2.06 100 22:30 05.09.2022
392 Clear 22 1019 61 10000 2.06 80 20:52 05.09.2022
393 Clear 24 1019 54 10000 2.57 90 19:50 05.09.2022
394 Clear 25 1020 51 10000 3.09 90 18:49 05.09.2022
395 Clear 26 1020 48 10000 2.57 120 18:22 05.09.2022
396 Clear 28 1020 42 10000 1.54 0 16:53 05.09.2022
397 Clear 27 1021 46 10000 1.03 0 15:50 05.09.2022
398 Clouds 25 1022 54 10000 1.54 0 13:26 05.09.2022
399 Clear 24 1023 62 10000 1.54 0 12:28 05.09.2022
400 Clear 20 1023 77 10000 1.54 120 10:18 05.09.2022
401 Clear 13 1022 94 10000 2.06 100 06:42 05.09.2022
402 Clear 15 1022 88 10000 2.57 100 02:42 05.09.2022
403 Clear 17 1022 81 10000 1.54 120 23:26 04.09.2022
404 Clear 18 1022 80 10000 1.03 0 22:27 04.09.2022
405 Clear 19 1021 77 10000 2.06 90 21:31 04.09.2022
406 Clear 23 1021 61 10000 1.03 0 19:38 04.09.2022
407 Clear 25 1021 54 10000 2.06 270 18:19 04.09.2022
408 Clear 25 1020 52 10000 2.06 260 16:56 04.09.2022
409 Clear 24 1020 57 10000 2.06 250 14:33 04.09.2022
410 Clear 24 1020 61 10000 1.54 250 13:49 04.09.2022
411 Clouds 21 1021 80 10000 1.54 0 11:54 04.09.2022
412 Clouds 19 1021 78 10000 1.03 0 10:47 04.09.2022
413 Clear 14 1019 85 10000 2.06 90 08:20 04.09.2022
414 Fog 13 1018 89 4500 2.57 90 05:35 04.09.2022
415 Clouds 15 1017 87 6000 2.57 100 00:50 04.09.2022
416 Clear 16 1016 87 10000 2.57 90 22:24 03.09.2022
417 Rain 16 1015 87 10000 1.54 80 21:23 03.09.2022
418 Rain 17 1015 85 10000 3.09 100 19:42 03.09.2022
419 Clear 22 1014 59 10000 3.09 170 17:28 03.09.2022
420 Clouds 23 1014 56 10000 3.6 180 16:31 03.09.2022
421 Clear 24 1014 52 10000 3.6 140 14:45 03.09.2022
422 Clear 23 1014 53 10000 4.12 160 14:22 03.09.2022
423 Clear 20 1015 52 10000 5.14 110 12:24 03.09.2022
424 Clear 18 1015 60 10000 4.12 100 10:41 03.09.2022
425 Clear 12 1015 79 10000 2.57 120 08:29 03.09.2022
426 Clear 12 1015 78 10000 2.57 120 08:29 03.09.2022
427 Clear 10 1015 80 10000 2.57 100 06:58 03.09.2022
428 Clear 11 1015 77 10000 2.57 120 04:34 03.09.2022
429 Clear 15 1015 64 10000 4.63 90 00:29 03.09.2022
430 Clear 16 1015 58 10000 4.12 90 22:57 02.09.2022
431 Clear 17 1015 52 10000 3.09 70 20:59 02.09.2022
432 Clear 18 1015 48 10000 3.6 70 20:28 02.09.2022
433 Clear 21 1015 41 10000 4.63 80 19:22 02.09.2022
434 Clear 21 1015 40 10000 4.12 90 18:36 02.09.2022
435 Clear 22 1015 39 10000 5.14 70 17:53 02.09.2022
436 Clear 22 1016 41 10000 3.09 80 16:47 02.09.2022
437 Clear 22 1017 41 10000 3.09 0 14:33 02.09.2022
438 Clear 21 1018 44 10000 5.14 80 12:36 02.09.2022
439 Clear 17 1018 65 10000 5.14 100 10:19 02.09.2022
440 Clear 15 1018 71 10000 2.06 80 09:39 02.09.2022
441 Clear 10 1018 85 10000 1.03 0 07:30 02.09.2022
442 Clear 10 1018 85 10000 1.03 0 07:30 02.09.2022
443 Clear 9 1018 86 10000 1.03 0 06:36 02.09.2022
444 Clear 12 1019 76 10000 3.6 90 02:37 02.09.2022
445 Clear 16 1020 66 10000 3.09 80 22:30 01.09.2022
446 Clear 17 1019 64 10000 2.57 90 21:43 01.09.2022
447 Clear 17 1019 64 10000 2.06 80 21:23 01.09.2022
448 Clear 18 1019 61 10000 1.54 80 20:43 01.09.2022
449 Clear 20 1019 55 10000 3.09 60 18:54 01.09.2022
450 Clear 22 1019 48 10000 3.09 130 17:21 01.09.2022
451 Clouds 22 1020 52 10000 2.57 130 15:47 01.09.2022
452 Clear 21 1020 52 10000 3.09 80 13:55 01.09.2022
453 Clouds 21 1020 57 10000 4.63 100 12:57 01.09.2022
454 Clear 21 1021 59 10000 5.66 100 11:52 01.09.2022
455 Clear 20 1020 60 10000 5.66 90 11:31 01.09.2022
456 Clear 18 1020 69 10000 3.6 90 10:19 01.09.2022
457 Clear 13 1020 87 10000 1.54 60 07:51 01.09.2022
458 Clouds 13 1020 85 9000 2.06 60 06:21 01.09.2022
459 Clouds 16 1021 79 10000 2.06 60 01:31 01.09.2022
460 Clouds 15 1021 80 10000 0.51 0 23:19 31.08.2022
461 Clear 17 1021 72 10000 2.57 80 21:20 31.08.2022
462 Clear 19 1020 67 10000 4.63 90 19:23 31.08.2022
463 Clouds 21 1019 59 10000 5.14 70 17:25 31.08.2022
464 Clouds 21 1020 62 10000 2.57 50 15:44 31.08.2022
465 Clouds 21 1020 59 10000 3.09 30 13:56 31.08.2022
466 Clear 21 1020 61 10000 4.12 60 12:19 31.08.2022
467 Clear 18 1020 72 10000 1.54 10 09:39 31.08.2022
468 Clear 16 1019 80 10000 1.03 340 08:32 31.08.2022
469 Clear 16 1019 79 10000 1.03 330 03:41 31.08.2022
470 Clear 20 1019 59 10000 3.6 50 22:42 30.08.2022
471 Clear 21 1019 55 10000 1.54 40 21:31 30.08.2022
472 Clear 23 1018 50 10000 3.09 30 20:35 30.08.2022
473 Clear 27 1018 38 10000 1.03 0 17:25 30.08.2022
474 Clear 26 1019 41 10000 3.6 330 14:19 30.08.2022
475 Clear 24 1020 53 10000 2.06 290 12:25 30.08.2022
476 Clear 22 1020 63 10000 1.54 0 11:20 30.08.2022
477 Clear 19 1020 77 10000 2.06 120 09:58 30.08.2022
478 Clear 12 1020 89 10000 0.51 340 06:49 30.08.2022
479 Clear 15 1020 82 10000 1.03 0 01:26 30.08.2022
480 Clear 17 1019 76 10000 1.03 340 22:39 29.08.2022
481 Clear 18 1019 72 10000 1.54 30 21:54 29.08.2022
482 Clear 20 1019 62 10000 1.54 20 20:47 29.08.2022
483 Clear 24 1018 46 10000 1.03 300 19:35 29.08.2022
484 Clear 25 1019 46 10000 2.06 330 17:33 29.08.2022
485 Clear 26 1019 45 10000 3.09 0 16:59 29.08.2022
486 Clear 26 1020 48 10000 2.57 0 15:20 29.08.2022
487 Clouds 24 1020 54 10000 2.06 280 13:55 29.08.2022
488 Clear 23 1021 62 10000 1.54 290 12:24 29.08.2022
489 Clear 20 1021 70 10000 2.06 310 10:48 29.08.2022
490 Clear 17 1020 78 10000 1.54 10 09:20 29.08.2022
491 Mist 13 1020 88 5000 1.03 330 07:20 29.08.2022
492 Clear 15 1019 89 10000 1.03 310 02:33 29.08.2022
493 Clouds 17 1019 85 10000 1.54 70 23:36 28.08.2022
494 Clear 19 1018 78 10000 0.51 110 21:48 28.08.2022
495 Clear 20 1018 77 10000 0.51 220 21:27 28.08.2022
496 Clear 21 1017 69 10000 1.03 290 20:19 28.08.2022
497 Clear 22 1017 64 10000 1.54 340 18:22 28.08.2022
498 Clear 23 1017 63 10000 2.57 320 17:59 28.08.2022
499 Clear 23 1017 62 10000 1.54 0 16:44 28.08.2022
500 Clouds 23 1018 62 10000 2.06 320 15:33 28.08.2022
501 Clouds 22 1018 71 10000 2.06 0 13:19 28.08.2022
502 Clouds 21 1018 75 10000 1.54 0 11:59 28.08.2022
503 Clouds 19 1017 83 10000 2.57 350 10:20 28.08.2022
504 Clouds 18 1017 87 10000 2.06 320 08:52 28.08.2022
505 Clouds 17 1016 89 10000 2.57 330 07:53 28.08.2022
506 Clouds 17 1016 89 10000 2.06 320 07:23 28.08.2022
507 Clouds 19 1016 88 10000 2.06 320 00:36 28.08.2022
508 Clear 19 1015 88 10000 1.54 340 23:20 27.08.2022
509 Rain 19 1015 88 10000 1.03 350 22:27 27.08.2022
510 Rain 19 1015 88 10000 2.57 340 20:35 27.08.2022
511 Rain 21 1014 82 10000 3.09 40 18:57 27.08.2022
512 Rain 23 1014 70 10000 4.12 290 16:26 27.08.2022
513 Clouds 23 1014 71 10000 3.09 300 15:31 27.08.2022
514 Clouds 21 1015 83 10000 3.09 310 13:19 27.08.2022
515 Clouds 20 1015 87 10000 0.51 0 11:58 27.08.2022
516 Clouds 19 1014 87 10000 1.03 0 10:27 27.08.2022
517 Clouds 18 1014 87 10000 1.54 330 09:31 27.08.2022
518 Clear 18 1013 86 10000 1.03 0 05:59 27.08.2022
519 Rain 18 1014 86 10000 1.54 250 00:52 27.08.2022
520 Rain 18 1014 86 10000 1.54 250 00:52 27.08.2022
521 Rain 18 1014 86 10000 3.6 270 23:36 26.08.2022
522 Rain 19 1013 86 9000 1.54 90 21:46 26.08.2022
523 Rain 19 1012 87 10000 4.63 120 19:50 26.08.2022
524 Rain 19 1013 88 10000 4.12 0 17:53 26.08.2022
525 Rain 28 1011 50 10000 3.6 350 15:45 26.08.2022
526 Clouds 29 1012 48 10000 4.12 120 14:59 26.08.2022
527 Clouds 28 1013 52 10000 2.06 360 12:59 26.08.2022
528 Clear 26 1014 63 10000 2.06 220 11:47 26.08.2022
529 Clear 26 1014 65 10000 1.54 270 11:21 26.08.2022
530 Clear 19 1014 84 10000 0.51 0 08:21 26.08.2022
531 Clear 18 1014 85 10000 1.03 0 03:51 26.08.2022
532 Clear 21 1015 76 10000 3.6 90 23:47 25.08.2022
533 Clear 22 1015 66 10000 2.06 90 22:20 25.08.2022
534 Clear 25 1014 59 10000 1.54 60 20:54 25.08.2022
535 Clear 28 1014 47 10000 2.06 100 19:35 25.08.2022
536 Clear 29 1015 46 10000 4.12 60 18:29 25.08.2022
537 Clear 29 1015 43 10000 2.57 0 17:31 25.08.2022
538 Clear 29 1015 47 10000 3.6 90 16:40 25.08.2022
539 Clear 28 1016 50 10000 3.6 100 15:29 25.08.2022
540 Clouds 27 1016 53 10000 4.63 110 13:51 25.08.2022
541 Clear 24 1018 69 10000 1.54 0 10:49 25.08.2022
542 Clear 21 1018 80 10000 1.54 50 09:52 25.08.2022
543 Clouds 16 1018 81 10000 1.2 63 07:35 25.08.2022
544 Clear 17 1019 86 10000 1.03 0 02:41 25.08.2022
545 Clear 19 1020 79 10000 1.54 30 23:30 24.08.2022
546 Clear 19 1020 76 10000 0.51 0 22:54 24.08.2022
547 Clear 21 1020 70 10000 0.51 0 21:39 24.08.2022
548 Clear 21 1019 68 10000 1.54 60 21:20 24.08.2022
549 Clear 25 1019 55 10000 5.14 90 19:43 24.08.2022
550 Clear 28 1019 46 10000 3.6 90 16:50 24.08.2022
551 Clear 27 1019 49 10000 3.09 50 15:52 24.08.2022
552 Clouds 27 1020 51 10000 1.54 0 13:49 24.08.2022
553 Clouds 25 1020 55 10000 2.57 0 12:28 24.08.2022
554 Clear 23 1020 65 10000 2.06 300 11:18 24.08.2022
555 Clear 18 1020 84 10000 0.51 0 08:38 24.08.2022
556 Clear 14 1019 85 10000 0.51 0 03:54 24.08.2022
557 Clear 18 1019 70 10000 3.6 70 23:53 23.08.2022
558 Clear 19 1019 65 10000 3.09 70 22:35 23.08.2022
559 Clear 21 1019 56 10000 3.09 60 21:46 23.08.2022
560 Clear 24 1018 47 10000 3.09 80 20:33 23.08.2022
561 Clear 26 1017 39 10000 2.57 10 18:53 23.08.2022
562 Clear 27 1017 35 10000 1.54 0 17:51 23.08.2022
563 Clear 28 1017 34 10000 3.09 0 17:18 23.08.2022
564 Clear 27 1017 34 10000 3.6 340 15:49 23.08.2022
565 Clear 26 1018 39 10000 3.6 320 13:36 23.08.2022
566 Clear 24 1018 46 10000 2.06 0 12:30 23.08.2022
567 Clear 21 1018 60 10000 1.54 0 10:51 23.08.2022
568 Clear 21 1018 62 10000 1.54 0 10:32 23.08.2022
569 Clear 16 1018 82 10000 1.54 100 08:54 23.08.2022
570 Clear 14 1018 83 10000 2.06 90 08:22 23.08.2022
571 Clear 13 1018 84 9000 0.51 0 07:48 23.08.2022
572 Mist 11 1017 89 10000 2.57 90 06:58 23.08.2022
573 Clear 12 1017 89 8000 1.03 40 05:52 23.08.2022
574 Clear 14 1017 82 10000 0.51 0 01:42 23.08.2022
575 Clear 16 1017 75 10000 1.54 90 00:26 23.08.2022
576 Clear 17 1016 70 10000 2.57 100 23:29 22.08.2022
577 Clear 19 1016 60 10000 3.09 90 21:51 22.08.2022
578 Clear 23 1015 45 10000 3.09 60 19:49 22.08.2022
579 Clear 24 1015 44 10000 3.6 80 19:27 22.08.2022
580 Clouds 25 1014 43 10000 2.33 54 17:59 22.08.2022
581 Clear 26 1015 39 10000 3.6 30 15:40 22.08.2022
582 Clear 25 1016 41 10000 5.14 30 14:32 22.08.2022
583 Clear 23 1017 51 10000 4.12 130 11:20 22.08.2022
584 Clear 17 1017 84 10000 1.54 100 08:54 22.08.2022
585 Clear 14 1016 89 10000 1.03 70 04:42 22.08.2022
586 Clear 16 1015 81 10000 0.51 0 00:53 22.08.2022
587 Clear 16 1015 81 10000 0.51 0 00:34 22.08.2022
588 Clear 17 1015 72 10000 0.51 0 22:56 21.08.2022
589 Clear 19 1015 66 10000 0.51 0 21:45 21.08.2022
590 Clear 21 1015 58 10000 0.51 0 20:58 21.08.2022
591 Clear 25 1015 45 10000 3.09 300 19:28 21.08.2022
592 Clear 26 1015 42 10000 3.6 300 18:21 21.08.2022
593 Clouds 25 1016 50 10000 3.09 300 16:21 21.08.2022
594 Clouds 25 1016 55 10000 3.09 340 15:43 21.08.2022
595 Clouds 24 1017 68 10000 1.03 0 13:58 21.08.2022
596 Clouds 23 1017 71 10000 1.03 0 13:40 21.08.2022
597 Clear 23 1016 80 10000 2.43 314 12:37 21.08.2022
598 Fog 16 1018 95 600 1.54 320 09:32 21.08.2022
599 Fog 16 1017 87 300 1.03 0 08:56 21.08.2022
600 Fog 16 1017 87 300 1.03 0 08:38 21.08.2022
601 Fog 15 1017 87 150 0.51 0 07:28 21.08.2022
602 Clouds 16 1017 85 6000 1.03 0 04:26 21.08.2022
603 Mist 17 1017 87 10000 1.54 90 00:53 21.08.2022
604 Clear 18 1017 89 10000 1.54 100 22:59 20.08.2022
605 Clear 19 1017 85 10000 1.54 90 21:43 20.08.2022
606 Clear 19 1017 85 10000 0.51 0 20:44 20.08.2022
607 Clouds 21 1017 82 10000 2.06 350 19:41 20.08.2022
608 Rain 21 1016 78 10000 4.63 260 18:35 20.08.2022
609 Clouds 22 1016 77 10000 4.12 250 17:58 20.08.2022
610 Clouds 22 1016 78 10000 4.12 250 17:18 20.08.2022
611 Rain 21 1016 78 10000 4.63 250 15:50 20.08.2022
612 Clear 21 1017 80 10000 3.09 320 13:36 20.08.2022
613 Clouds 20 1017 85 10000 2.06 290 11:53 20.08.2022
614 Clouds 18 1016 83 10000 2.57 280 09:43 20.08.2022
615 Clouds 17 1016 85 6000 1.03 0 08:50 20.08.2022
616 Rain 17 1015 85 7000 1.03 150 05:57 20.08.2022
617 Rain 17 1015 85 7000 2.57 100 01:46 20.08.2022
618 Rain 17 1015 85 8000 1.03 0 00:51 20.08.2022
619 Rain 17 1015 85 10000 1.54 240 23:19 19.08.2022
620 Rain 17 1015 86 10000 1.54 230 22:35 19.08.2022
621 Rain 17 1014 87 5000 3.6 300 20:28 19.08.2022
622 Mist 18 1013 87 5000 4.63 280 18:28 19.08.2022
623 Rain 20 1012 84 7000 3.6 330 15:21 19.08.2022
624 Clouds 21 1013 81 10000 4.12 330 13:26 19.08.2022
625 Clouds 20 1012 84 10000 3.09 340 10:55 19.08.2022
626 Clouds 20 1013 84 10000 2.57 20 10:24 19.08.2022
627 Clouds 19 1011 89 9000 3.09 300 06:37 19.08.2022
628 Rain 20 1011 85 10000 3.6 350 00:58 19.08.2022
629 Rain 20 1011 83 10000 2.57 350 00:30 19.08.2022
630 Rain 21 1011 76 10000 4.63 350 23:44 18.08.2022
631 Rain 24 1010 57 10000 4.12 340 22:50 18.08.2022
632 Rain 24 1009 60 10000 6.17 310 21:57 18.08.2022
633 Rain 24 1009 60 10000 6.17 310 21:34 18.08.2022
634 Clear 27 1009 47 10000 5.14 290 19:56 18.08.2022
635 Clear 27 1009 51 10000 4.63 310 19:28 18.08.2022
636 Clear 28 1009 48 10000 2.57 340 17:50 18.08.2022
637 Clear 28 1010 49 10000 2.57 300 16:58 18.08.2022
638 Clear 26 1011 55 10000 1.54 320 14:45 18.08.2022
639 Clear 26 1011 54 10000 2.57 330 14:19 18.08.2022
640 Clear 25 1012 58 10000 3.09 340 12:55 18.08.2022
641 Clear 23 1012 65 10000 3.09 340 11:34 18.08.2022
642 Clear 21 1012 76 10000 1.54 300 09:43 18.08.2022
643 Clear 20 1013 84 10000 1.03 0 08:40 18.08.2022
644 Clear 18 1012 86 10000 2.06 100 07:19 18.08.2022
645 Rain 21 1012 65 10000 4.63 250 03:57 18.08.2022
646 Clear 22 1011 58 10000 0 0 23:34 17.08.2022
647 Clear 23 1011 54 10000 1.54 330 21:40 17.08.2022
648 Clear 26 1011 46 10000 3.09 350 20:18 17.08.2022
649 Clear 27 1011 43 10000 3.6 320 19:28 17.08.2022
650 Clear 29 1011 36 10000 6.69 290 17:32 17.08.2022
651 Clear 30 1012 32 10000 3.6 240 16:22 17.08.2022
652 Clear 30 1012 32 10000 3.6 240 16:22 17.08.2022
653 Clear 31 1012 30 10000 2.06 280 15:22 17.08.2022
654 Clear 30 1012 33 10000 2.06 0 12:54 17.08.2022
655 Clear 28 1012 42 10000 2.06 130 11:36 17.08.2022
656 Clear 23 1012 54 10000 0.51 0 09:31 17.08.2022
657 Clear 17 1012 76 10000 0.51 0 07:55 17.08.2022
658 Clear 17 1012 75 10000 0.51 0 02:24 17.08.2022
659 Clear 19 1012 65 10000 2.57 80 23:49 16.08.2022
660 Clear 23 1011 52 10000 2.57 50 21:59 16.08.2022
661 Clear 25 1011 41 10000 1.03 70 20:51 16.08.2022
662 Clear 27 1010 40 10000 1.54 340 19:53 16.08.2022
663 Clear 28 1011 40 10000 2.06 340 18:34 16.08.2022
664 Clear 28 1011 40 10000 2.06 0 17:41 16.08.2022
665 Clear 27 1011 42 10000 2.57 230 15:47 16.08.2022
666 Clear 26 1012 45 10000 3.09 0 14:55 16.08.2022
667 Clear 27 1011 47 10000 3.09 0 14:37 16.08.2022
668 Clouds 25 1012 50 10000 1.54 0 12:43 16.08.2022
669 Clear 22 1012 61 10000 2.06 0 10:35 16.08.2022
670 Clear 20 1012 71 10000 2.06 160 09:43 16.08.2022
671 Clear 18 1011 81 10000 2.57 120 08:43 16.08.2022
672 Clear 16 1011 87 10000 3.09 100 07:33 16.08.2022
673 Clear 18 1010 81 10000 2.06 130 01:41 16.08.2022
674 Rain 21 1009 65 10000 4.12 170 22:29 15.08.2022
675 Rain 22 1009 59 10000 6.69 210 21:53 15.08.2022
676 Rain 24 1007 47 10000 3.09 300 20:48 15.08.2022
677 Clear 25 1006 44 10000 3.09 300 20:19 15.08.2022
678 Clear 28 1006 39 10000 5.14 280 18:36 15.08.2022
679 Clear 29 1006 37 10000 3.6 240 16:47 15.08.2022
680 Clear 28 1006 39 10000 4.63 240 16:21 15.08.2022
681 Clear 27 1007 45 10000 4.63 210 13:55 15.08.2022
682 Clouds 25 1007 52 10000 4.12 230 12:29 15.08.2022
683 Clear 22 1007 64 10000 3.6 240 09:59 15.08.2022
684 Clear 21 1007 68 10000 2.57 230 08:22 15.08.2022
685 Clear 19 1006 69 10000 1.54 120 04:55 15.08.2022
686 Clear 20 1006 68 10000 1.03 0 01:35 15.08.2022
687 Clear 23 1007 58 10000 3.09 100 22:39 14.08.2022
688 Clear 24 1007 52 10000 2.06 70 21:38 14.08.2022
689 Clear 28 1006 40 10000 4.63 90 19:58 14.08.2022
690 Clear 30 1007 37 10000 4.63 90 18:59 14.08.2022
691 Clear 29 1008 40 10000 3.09 80 18:19 14.08.2022
692 Clear 29 1007 37 10000 5.14 90 16:53 14.08.2022
693 Clear 31 1008 38 10000 5.14 130 15:49 14.08.2022
694 Clear 30 1010 42 10000 4.63 120 14:33 14.08.2022
695 Clear 29 1010 44 10000 4.12 110 13:50 14.08.2022
696 Clear 28 1010 44 10000 4.63 120 13:20 14.08.2022
697 Clouds 28 1011 48 10000 3.6 90 12:28 14.08.2022
698 Clear 25 1011 59 10000 3.6 110 10:50 14.08.2022
699 Clear 21 1012 74 10000 3.6 90 08:51 14.08.2022
700 Clear 15 1013 87 10000 1.03 60 06:22 14.08.2022
701 Clear 17 1014 80 10000 1.03 20 02:49 14.08.2022
702 Clear 19 1015 69 10000 1.03 0 23:53 13.08.2022
703 Clear 21 1015 63 10000 1.54 10 22:52 13.08.2022
704 Clear 25 1014 46 10000 3.09 30 20:58 13.08.2022
705 Clear 25 1014 48 10000 4.12 20 20:33 13.08.2022
706 Clear 26 1014 45 10000 5.14 30 19:37 13.08.2022
707 Clear 29 1015 31 10000 2.57 40 17:42 13.08.2022
708 Clear 30 1015 28 10000 2.57 0 15:26 13.08.2022
709 Clear 29 1016 29 10000 4.12 80 14:28 13.08.2022
710 Clear 27 1016 33 10000 3.6 80 13:40 13.08.2022
711 Clear 26 1017 38 10000 3.09 60 11:52 13.08.2022
712 Clear 23 1017 49 10000 1.54 340 10:31 13.08.2022
713 Clear 17 1017 67 10000 0.51 0 08:45 13.08.2022
714 Clear 12 1017 79 10000 1.03 0 05:34 13.08.2022
715 Clear 18 1018 57 10000 1.54 70 23:58 12.08.2022
716 Clear 22 1018 37 10000 3.09 80 21:46 12.08.2022
717 Clear 24 1018 33 10000 4.63 90 20:53 12.08.2022
718 Rain 25 1018 35 10000 4.63 80 19:40 12.08.2022
719 Clear 25 1018 34 10000 5.14 60 18:46 12.08.2022
720 Clear 27 1018 32 10000 6.17 70 17:21 12.08.2022
721 Clear 27 1018 32 10000 3.09 50 15:49 12.08.2022
722 Clear 27 1019 31 10000 3.6 60 14:29 12.08.2022
723 Clear 26 1019 33 10000 3.6 0 12:55 12.08.2022
724 Clear 24 1020 40 10000 4.63 60 10:35 12.08.2022
725 Clear 16 1020 68 10000 1.03 0 07:47 12.08.2022
726 Clear 13 1020 71 10000 0.51 0 06:39 12.08.2022
727 Clear 16 1020 67 10000 1.03 340 02:39 12.08.2022
728 Clear 19 1021 53 10000 1.54 100 00:26 12.08.2022
729 Clear 20 1020 47 10000 2.57 80 23:35 11.08.2022
730 Clear 22 1020 43 10000 2.57 80 22:26 11.08.2022
731 Clear 24 1019 36 10000 2.57 90 21:40 11.08.2022
732 Clear 26 1019 27 10000 4.12 90 20:45 11.08.2022
733 Clear 27 1019 26 10000 4.12 80 20:18 11.08.2022
734 Clear 28 1019 25 10000 2.57 60 19:32 11.08.2022
735 Clear 28 1020 25 10000 4.12 100 17:48 11.08.2022
736 Clear 29 1020 25 10000 4.63 50 16:35 11.08.2022
737 Clear 28 1021 25 10000 6.69 100 15:21 11.08.2022
738 Clear 27 1022 31 10000 5.66 100 12:44 11.08.2022
739 Clear 24 1023 39 10000 5.14 80 10:18 11.08.2022
740 Clear 16 1023 66 10000 1.03 0 07:38 11.08.2022
741 Clear 15 1023 64 10000 1.54 60 03:52 11.08.2022
742 Clear 18 1023 53 10000 3.09 60 00:37 11.08.2022
743 Clear 20 1023 46 10000 2.57 60 22:32 10.08.2022
744 Clear 23 1023 39 10000 2.06 60 21:25 10.08.2022
745 Clear 24 1023 35 10000 4.12 80 20:54 10.08.2022
746 Clear 27 1023 28 10000 5.14 70 19:27 10.08.2022
747 Clear 28 1023 26 10000 5.14 110 17:55 10.08.2022
748 Clear 28 1023 25 10000 5.66 110 16:35 10.08.2022
749 Clear 27 1025 29 10000 5.14 80 13:35 10.08.2022
750 Clear 26 1025 32 10000 5.14 80 12:41 10.08.2022
751 Clear 22 1026 50 10000 1.54 0 09:25 10.08.2022
752 Clear 19 1026 56 10000 1.54 20 08:33 10.08.2022
753 Clear 14 1025 71 10000 0.51 0 07:18 10.08.2022
754 Clear 15 1025 66 10000 0.51 0 03:25 10.08.2022
755 Clear 19 1025 53 10000 2.06 70 23:34 09.08.2022
756 Clear 20 1025 47 10000 2.06 80 22:56 09.08.2022
757 Clear 23 1025 40 10000 3.09 80 21:35 09.08.2022
758 Clear 26 1024 32 10000 3.6 70 20:26 09.08.2022
759 Clear 28 1024 28 10000 3.6 60 18:42 09.08.2022
760 Clear 29 1024 28 10000 2.57 30 17:28 09.08.2022
761 Clear 29 1024 28 10000 2.57 30 17:28 09.08.2022
762 Clear 28 1024 28 10000 3.09 0 16:40 09.08.2022
763 Clear 28 1024 28 10000 4.12 20 15:58 09.08.2022
764 Clear 27 1025 31 10000 5.14 90 12:51 09.08.2022
765 Clear 21 1026 49 10000 2.06 60 09:36 09.08.2022
766 Clear 19 1026 52 10000 1.54 330 08:39 09.08.2022
767 Clear 17 1025 67 10000 0.51 0 07:52 09.08.2022
768 Clear 14 1024 64 10000 1.03 350 03:34 09.08.2022
769 Clear 21 1023 39 10000 3.6 60 23:27 08.08.2022
770 Clear 21 1023 39 10000 3.09 40 22:54 08.08.2022
771 Clear 23 1023 33 10000 3.09 40 21:58 08.08.2022
772 Clear 25 1022 29 10000 2.06 30 20:59 08.08.2022
773 Clear 27 1022 24 10000 3.6 20 19:50 08.08.2022
774 Clear 27 1022 26 10000 2.57 360 18:38 08.08.2022
775 Clear 28 1022 26 10000 4.12 30 16:37 08.08.2022
776 Clear 28 1022 27 10000 2.57 0 15:39 08.08.2022
777 Clear 26 1023 31 10000 1.54 0 12:51 08.08.2022
778 Clear 25 1023 33 10000 5.14 120 11:53 08.08.2022
779 Clear 22 1023 46 10000 1.03 0 09:36 08.08.2022
780 Clear 11 1022 76 10000 0.51 320 05:37 08.08.2022
781 Clear 14 1022 65 10000 0.51 0 02:24 08.08.2022
782 Clear 19 1021 47 10000 3.09 90 22:20 07.08.2022
783 Clear 20 1021 43 10000 2.06 80 21:38 07.08.2022
784 Clear 25 1020 31 10000 2.06 100 20:25 07.08.2022
785 Clear 25 1020 27 10000 2.57 40 19:54 07.08.2022
786 Clear 25 1020 27 10000 2.57 40 19:33 07.08.2022
787 Clear 27 1020 28 10000 3.09 60 18:22 07.08.2022
788 Clear 27 1021 30 10000 3.09 10 16:54 07.08.2022
789 Clear 25 1021 31 10000 3.6 60 15:54 07.08.2022
790 Clear 25 1022 31 10000 4.63 70 15:19 07.08.2022
791 Clear 24 1022 32 10000 5.14 30 13:22 07.08.2022
792 Clear 22 1024 40 10000 4.63 100 10:59 07.08.2022
793 Clear 20 1024 47 10000 5.14 90 10:28 07.08.2022
794 Clear 11 1024 73 10000 1.03 0 05:48 07.08.2022
795 Clear 14 1024 62 10000 0.51 0 03:19 07.08.2022
796 Clear 17 1024 49 10000 3.6 60 23:37 06.08.2022
797 Clear 18 1024 45 10000 3.09 40 22:20 06.08.2022
798 Clear 22 1023 36 10000 4.63 360 20:24 06.08.2022
799 Clear 23 1023 33 10000 2.06 40 19:39 06.08.2022
800 Clear 24 1023 30 10000 3.6 40 18:22 06.08.2022
801 Clear 24 1024 32 10000 4.63 30 16:40 06.08.2022
802 Clear 23 1024 37 10000 3.6 340 14:31 06.08.2022
803 Clear 23 1025 38 10000 3.09 0 13:39 06.08.2022
804 Clear 19 1025 54 10000 5.66 350 11:24 06.08.2022
805 Clear 17 1025 57 10000 5.14 20 09:50 06.08.2022
806 Clear 15 1024 76 10000 3.6 340 07:51 06.08.2022
807 Clouds 16 1022 78 10000 4.12 350 03:24 06.08.2022
808 Rain 19 1019 78 10000 5.66 320 23:32 05.08.2022
809 Clouds 25 1017 53 10000 6.17 320 21:54 05.08.2022
810 Clear 28 1015 46 10000 6.69 320 19:32 05.08.2022
811 Clear 29 1015 41 10000 7.2 320 18:44 05.08.2022
812 Clear 32 1015 32 10000 4.63 300 17:27 05.08.2022
813 Clear 33 1015 31 10000 5.14 290 16:48 05.08.2022
814 Clear 32 1015 33 10000 3.6 280 15:21 05.08.2022
815 Clear 32 1015 34 10000 4.63 310 13:53 05.08.2022
816 Clear 32 1016 35 10000 5.66 320 13:22 05.08.2022
817 Clear 30 1016 40 10000 4.12 320 12:24 05.08.2022
818 Clear 30 1016 40 10000 4.12 320 12:24 05.08.2022
819 Clear 27 1016 50 10000 6.17 300 10:44 05.08.2022
820 Clear 23 1014 60 10000 2.06 270 07:58 05.08.2022
821 Clear 22 1013 60 10000 2.57 110 05:32 05.08.2022
822 Clear 24 1013 51 10000 3.09 110 00:30 05.08.2022
823 Clear 27 1013 44 10000 2.57 100 22:26 04.08.2022
824 Clear 30 1013 37 10000 2.57 90 21:26 04.08.2022
825 Clear 32 1013 31 10000 3.09 80 20:42 04.08.2022
826 Clear 35 1013 20 10000 2.06 120 19:37 04.08.2022
827 Clear 35 1013 24 10000 2.57 220 18:36 04.08.2022
828 Clear 36 1013 24 10000 1.54 310 17:37 04.08.2022
829 Clear 34 1015 26 10000 3.6 130 13:57 04.08.2022
830 Clear 33 1015 29 10000 4.63 120 12:43 04.08.2022
831 Clear 30 1016 37 10000 4.12 130 10:50 04.08.2022
832 Clear 22 1016 58 10000 0.51 0 07:53 04.08.2022
833 Clear 18 1016 68 10000 2.57 100 04:43 04.08.2022
834 Clear 21 1016 61 10000 2.57 100 02:27 04.08.2022
835 Clear 23 1015 53 10000 4.12 100 23:44 03.08.2022
836 Clear 26 1015 45 10000 2.06 80 22:30 03.08.2022
837 Clear 30 1015 32 10000 2.06 30 20:45 03.08.2022
838 Clear 33 1015 23 10000 0.51 0 19:35 03.08.2022
839 Clear 32 1015 26 10000 2.06 280 18:23 03.08.2022
840 Clear 34 1016 26 10000 2.57 360 16:24 03.08.2022
841 Clear 33 1016 28 10000 2.06 0 14:45 03.08.2022
842 Clear 31 1018 36 10000 1.54 0 12:30 03.08.2022
843 Clear 22 1018 64 10000 1.54 110 08:50 03.08.2022
844 Clear 15 1018 84 10000 1.03 360 04:47 03.08.2022
845 Clear 16 1018 79 10000 1.03 350 03:30 03.08.2022
846 Clear 18 1018 72 10000 1.03 100 01:35 03.08.2022
847 Clear 21 1017 62 10000 0.51 0 23:18 02.08.2022
848 Clear 24 1017 48 10000 1.03 360 21:55 02.08.2022
849 Clear 25 1017 47 10000 1.54 360 21:21 02.08.2022
850 Clear 29 1017 37 10000 3.6 340 18:52 02.08.2022
851 Clear 30 1017 38 10000 2.06 0 16:27 02.08.2022
852 Clear 27 1019 48 10000 1.54 0 12:53 02.08.2022
853 Clear 20 1019 74 10000 1.03 0 09:40 02.08.2022
854 Clear 17 1019 85 10000 1.54 110 07:56 02.08.2022
855 Clear 16 1019 88 10000 2.57 90 07:25 02.08.2022
856 Clear 15 1018 87 10000 1.54 350 04:55 02.08.2022
857 Clear 19 1018 74 10000 0.51 340 23:52 01.08.2022
858 Clear 20 1017 69 10000 1.03 10 22:50 01.08.2022
859 Clear 24 1017 56 10000 1.54 20 20:53 01.08.2022
860 Clear 25 1016 53 10000 3.09 360 19:41 01.08.2022
861 Clear 26 1016 52 10000 4.12 360 18:43 01.08.2022
862 Clear 27 1016 44 10000 4.12 280 16:54 01.08.2022
863 Clear 27 1016 47 10000 2.57 310 16:28 01.08.2022
864 Clear 27 1017 48 10000 3.09 290 15:31 01.08.2022
865 Clouds 27 1017 51 10000 3.6 310 14:43 01.08.2022
866 Clouds 25 1017 51 10000 4.63 260 12:52 01.08.2022
867 Clear 22 1017 65 10000 4.12 290 10:29 01.08.2022
868 Clear 21 1017 69 10000 1.03 0 08:41 01.08.2022
869 Clear 18 1016 76 10000 0.51 0 06:50 01.08.2022
870 Clear 17 1016 76 10000 1.03 0 04:24 01.08.2022
871 Clear 20 1015 63 10000 3.09 100 00:55 01.08.2022
872 Clear 22 1015 57 10000 0.51 0 22:42 31.07.2022
873 Clear 24 1015 50 10000 1.03 0 21:35 31.07.2022
874 Clear 27 1015 38 10000 1.03 0 20:18 31.07.2022
875 Clear 27 1016 37 10000 2.57 290 18:38 31.07.2022
876 Clear 27 1017 39 10000 5.14 280 16:18 31.07.2022
877 Clear 27 1018 41 10000 5.14 300 13:53 31.07.2022
878 Clear 27 1018 43 10000 1.54 0 12:43 31.07.2022
879 Clear 21 1019 69 10000 1.54 150 10:22 31.07.2022
880 Clear 15 1020 84 10000 2.06 90 08:19 31.07.2022
881 Clouds 13 1020 89 9000 1.03 0 04:30 31.07.2022
882 Clear 15 1019 84 10000 1.03 360 00:23 31.07.2022
883 Clear 18 1019 74 10000 0.51 0 22:19 30.07.2022
884 Clear 18 1019 72 10000 0.51 0 21:50 30.07.2022
885 Clear 20 1019 68 10000 1.54 340 21:20 30.07.2022
886 Clear 21 1018 63 10000 3.6 360 19:59 30.07.2022
887 Clear 21 1018 62 10000 4.12 360 19:20 30.07.2022
888 Clouds 24 1018 56 10000 5.14 310 17:48 30.07.2022
889 Clear 26 1018 45 10000 6.69 290 16:21 30.07.2022
890 Clouds 24 1018 53 10000 4.63 280 15:27 30.07.2022
891 Clear 23 1018 64 10000 5.66 300 13:21 30.07.2022
892 Clouds 21 1018 71 10000 4.63 300 12:20 30.07.2022
893 Clouds 19 1018 79 10000 3.09 250 10:36 30.07.2022
894 Clouds 18 1018 87 10000 3.09 260 09:57 30.07.2022
895 Fog 16 1017 85 400 2.57 280 07:55 30.07.2022
896 Fog 16 1016 83 1000 0.51 280 05:29 30.07.2022
897 Clouds 16 1016 85 10000 1.03 0 02:31 30.07.2022
898 Rain 18 1017 85 10000 1.54 250 22:54 29.07.2022
899 Rain 18 1016 84 10000 2.57 120 21:28 29.07.2022
900 Rain 18 1016 84 10000 1.03 60 20:50 29.07.2022
901 Rain 19 1015 80 10000 3.6 360 18:27 29.07.2022
902 Rain 22 1014 64 10000 9.26 100 16:43 29.07.2022
903 Clear 28 1015 40 10000 1.54 290 13:46 29.07.2022
904 Clear 26 1015 45 10000 2.06 0 11:34 29.07.2022
905 Clear 21 1015 51 10000 3.6 100 08:51 29.07.2022
906 Clear 19 1015 55 10000 3.6 110 08:21 29.07.2022
907 Rain 20 1015 48 10000 4.63 110 03:55 29.07.2022
908 Clear 21 1015 50 10000 2.57 60 23:30 28.07.2022
909 Clear 24 1014 35 10000 2.06 40 21:31 28.07.2022
910 Clear 26 1014 31 10000 2.06 40 20:50 28.07.2022
911 Clear 27 1014 33 10000 4.12 20 19:58 28.07.2022
912 Clear 27 1014 33 10000 4.63 40 19:26 28.07.2022
913 Clear 27 1015 32 10000 2.06 0 17:45 28.07.2022
914 Clear 27 1015 32 10000 3.6 40 17:19 28.07.2022
915 Clear 27 1015 33 10000 1.54 0 16:39 28.07.2022
916 Clear 27 1016 35 10000 4.63 0 13:47 28.07.2022
917 Clear 25 1016 38 10000 4.12 110 12:33 28.07.2022
918 Clear 15 1017 73 10000 1.03 0 07:33 28.07.2022
919 Clear 13 1017 76 10000 1.03 330 05:37 28.07.2022
920 Clear 13 1017 76 10000 1.03 340 05:18 28.07.2022
921 Clear 17 1017 59 10000 2.06 40 23:19 27.07.2022
922 Clear 20 1016 47 10000 2.57 20 21:29 27.07.2022
923 Clear 23 1016 38 10000 4.63 20 19:46 27.07.2022
924 Clear 23 1016 42 10000 4.63 10 18:49 27.07.2022
925 Clouds 24 1016 44 10000 3.6 350 16:31 27.07.2022
926 Clouds 24 1017 48 10000 5.14 340 15:41 27.07.2022
927 Clouds 24 1017 50 10000 4.63 340 14:41 27.07.2022
928 Clouds 23 1017 55 10000 5.66 350 13:29 27.07.2022
929 Clear 19 1017 68 10000 1.54 10 09:27 27.07.2022
930 Clear 16 1016 75 10000 2.06 340 07:40 27.07.2022
931 Clear 15 1016 73 10000 2.06 30 02:52 27.07.2022
932 Clear 20 1016 54 10000 0 0 22:47 26.07.2022
933 Clear 22 1015 49 10000 3.09 300 21:25 26.07.2022
934 Clear 23 1015 45 10000 5.14 310 20:47 26.07.2022
935 Clear 26 1015 38 10000 6.17 290 18:46 26.07.2022
936 Clear 26 1015 38 10000 6.17 290 18:46 26.07.2022
937 Clear 26 1015 34 10000 5.66 290 18:20 26.07.2022
938 Clear 27 1015 32 10000 6.17 290 16:46 26.07.2022
939 Clear 27 1016 39 10000 7.2 290 15:42 26.07.2022
940 Clear 26 1015 38 10000 6.69 280 13:59 26.07.2022
941 Clear 25 1015 45 10000 6.69 270 11:40 26.07.2022
942 Clear 22 1015 60 10000 1.54 240 09:32 26.07.2022
943 Clear 20 1015 67 10000 2.06 250 07:56 26.07.2022
944 Clear 23 1014 62 10000 5.14 300 01:21 26.07.2022
945 Clear 26 1012 41 10000 8.23 280 23:33 25.07.2022
946 Clear 28 1010 46 10000 4.12 260 22:33 25.07.2022
947 Clear 29 1010 42 10000 4.12 240 21:43 25.07.2022
948 Clear 30 1010 39 10000 5.14 270 20:42 25.07.2022
949 Rain 32 1010 35 10000 4.63 260 19:51 25.07.2022
950 Rain 33 1010 32 10000 7.2 270 18:23 25.07.2022
951 Clear 33 1011 31 10000 7.72 270 17:33 25.07.2022
952 Clear 36 1010 27 10000 6.17 240 15:30 25.07.2022
953 Clear 33 1012 35 10000 4.12 170 12:33 25.07.2022
954 Clear 29 1014 43 10000 4.63 170 10:38 25.07.2022
955 Clear 18 1014 74 10000 3.09 100 06:51 25.07.2022
956 Clear 22 1016 62 10000 4.12 90 23:56 24.07.2022
957 Clear 23 1016 59 10000 2.57 90 23:19 24.07.2022
958 Clear 24 1016 55 10000 2.06 90 22:35 24.07.2022
959 Clear 27 1016 47 10000 2.06 50 21:28 24.07.2022
960 Clear 29 1016 45 10000 0.51 60 20:53 24.07.2022
961 Clear 30 1016 37 10000 0.51 0 20:27 24.07.2022
962 Clear 31 1017 35 10000 2.57 270 18:56 24.07.2022
963 Clear 31 1019 34 10000 1.54 0 16:48 24.07.2022
964 Clear 30 1019 36 10000 2.06 290 15:51 24.07.2022
965 Clear 30 1019 38 10000 3.6 250 14:40 24.07.2022
966 Clear 29 1020 41 10000 1.54 0 12:55 24.07.2022
967 Clear 28 1020 42 10000 1.54 0 12:18 24.07.2022
968 Clear 27 1021 49 10000 1.03 0 11:26 24.07.2022
969 Clear 23 1021 63 10000 1.03 0 09:23 24.07.2022
970 Clear 18 1021 80 10000 0 0 07:53 24.07.2022
971 Clear 16 1021 85 9000 1.03 20 06:34 24.07.2022
972 Clear 17 1020 76 10000 1.03 0 01:50 24.07.2022
973 Clear 22 1019 61 10000 1.03 330 22:25 23.07.2022
974 Clear 26 1018 48 10000 4.12 290 20:35 23.07.2022
975 Clear 27 1018 44 10000 5.14 320 18:52 23.07.2022
976 Clear 27 1027 46 10000 4.12 300 17:48 23.07.2022
977 Clear 28 1028 48 10000 2.06 0 17:23 23.07.2022
978 Clear 26 1028 56 10000 2.06 200 15:42 23.07.2022
979 Clear 25 1018 63 10000 2.57 200 15:20 23.07.2022
980 Clouds 26 1017 66 10000 4.08 306 14:36 23.07.2022
981 Clouds 22 1019 82 10000 2.57 180 13:50 23.07.2022
982 Rain 21 1018 73 10000 2.06 300 11:19 23.07.2022
983 Clouds 24 1018 60 10000 6.17 280 10:28 23.07.2022
984 Clear 25 1017 57 10000 3.6 230 09:26 23.07.2022
985 Clear 18 1016 86 10000 1.54 100 04:59 23.07.2022
986 Clouds 20 1016 72 10000 3.6 90 02:30 23.07.2022
987 Clear 23 1017 56 10000 1.03 350 23:39 22.07.2022
988 Clouds 29 1015 34 10000 2.57 20 20:57 22.07.2022
989 Clouds 31 1016 29 10000 1.54 0 19:55 22.07.2022
990 Clear 30 1015 39 10000 3.13 19 18:36 22.07.2022
991 Clear 31 1017 34 10000 3.09 350 17:37 22.07.2022
992 Clear 31 1018 38 10000 1.54 330 15:26 22.07.2022
993 Clear 27 1020 50 10000 2.06 0 12:23 22.07.2022
994 Clear 22 1020 66 10000 1.54 0 09:43 22.07.2022
995 Clear 21 1021 68 10000 1.54 340 09:18 22.07.2022
996 Clear 16 1020 82 10000 1.03 0 07:21 22.07.2022
997 Clear 16 1020 78 10000 0.51 0 03:59 22.07.2022
998 Clear 22 1020 57 10000 1.54 260 22:56 21.07.2022
999 Clear 25 1020 45 10000 3.6 250 21:35 21.07.2022
1000 Clear 27 1020 37 10000 5.14 260 19:31 21.07.2022
1001 Clear 28 1020 39 10000 6.17 280 18:28 21.07.2022
1002 Clear 28 1020 40 10000 5.66 260 17:20 21.07.2022
1003 Clear 28 1020 42 10000 4.12 250 15:39 21.07.2022
1004 Clear 27 1021 46 10000 3.09 250 14:39 21.07.2022
1005 Clouds 24 1022 57 10000 3.6 230 12:54 21.07.2022
1006 Clouds 22 1022 74 10000 3.6 280 11:23 21.07.2022
1007 Clouds 20 1021 82 10000 3.6 250 09:42 21.07.2022
1008 Clouds 20 1022 81 10000 2.57 230 08:52 21.07.2022
1009 Rain 19 1021 83 10000 1.54 230 07:50 21.07.2022
1010 Rain 19 1020 83 10000 3.09 240 06:25 21.07.2022
1011 Clouds 24 1020 57 10000 4.12 250 01:54 21.07.2022
1012 Clear 31 1016 33 10000 4.12 220 22:22 20.07.2022
1013 Clear 31 1015 33 10000 4.12 200 21:42 20.07.2022
1014 Clear 34 1014 27 10000 1.54 360 20:39 20.07.2022
1015 Clear 37 1014 16 10000 1.54 290 19:43 20.07.2022
1016 Clouds 37 1014 21 10000 1.54 280 18:52 20.07.2022
1017 Clear 37 1015 23 10000 2.06 70 18:29 20.07.2022
1018 Clear 37 1015 20 10000 3.09 230 16:46 20.07.2022
1019 Clear 38 1016 22 10000 5.66 120 15:32 20.07.2022
1020 Clear 36 1017 24 10000 3.09 0 14:26 20.07.2022
1021 Clear 34 1017 29 10000 4.12 160 12:34 20.07.2022
1022 Clear 28 1018 40 10000 1.54 130 10:24 20.07.2022
1023 Clear 18 1018 70 10000 0.51 0 04:50 20.07.2022
1024 Clear 23 1019 52 10000 3.09 100 00:54 20.07.2022
1025 Clear 23 1019 51 10000 3.6 100 00:25 20.07.2022
1026 Clear 27 1018 38 10000 2.57 100 22:33 19.07.2022
1027 Clear 29 1018 28 10000 2.06 110 21:53 19.07.2022
1028 Clear 33 1018 21 10000 4.12 130 20:48 19.07.2022
1029 Clear 34 1018 23 10000 4.12 140 19:21 19.07.2022
1030 Clear 35 1018 21 10000 4.63 130 18:34 19.07.2022
1031 Clear 35 1018 21 10000 5.14 140 17:49 19.07.2022
1032 Clear 34 1020 22 10000 4.63 160 14:58 19.07.2022
1033 Clear 31 1021 29 10000 4.12 160 11:58 19.07.2022
1034 Clear 30 1021 34 10000 3.6 140 11:18 19.07.2022
1035 Clear 24 1022 47 10000 2.57 120 09:26 19.07.2022
1036 Clear 24 1022 46 10000 3.09 120 08:39 19.07.2022
1037 Clear 17 1022 67 10000 1.54 100 07:19 19.07.2022
1038 Clear 15 1022 72 10000 1.54 120 05:48 19.07.2022
1039 Clear 16 1022 68 10000 4.12 100 04:58 19.07.2022
1040 Clear 18 1022 60 10000 2.06 110 01:58 19.07.2022
1041 Clear 21 1022 53 10000 2.57 100 23:50 18.07.2022
1042 Clear 21 1022 49 10000 1.54 100 23:19 18.07.2022
1043 Clear 24 1022 42 10000 2.57 70 22:22 18.07.2022
1044 Clear 29 1022 26 10000 2.06 40 20:52 18.07.2022
1045 Clear 31 1022 20 10000 2.06 30 19:52 18.07.2022
1046 Clear 31 1023 22 10000 1.54 0 17:53 18.07.2022
1047 Clear 32 1023 22 10000 2.57 230 16:28 18.07.2022
1048 Clear 31 1024 24 10000 2.06 340 15:19 18.07.2022
1049 Clear 29 1025 25 10000 2.06 250 13:26 18.07.2022
1050 Clear 26 1025 30 10000 1.54 0 11:31 18.07.2022
1051 Clear 22 1025 40 10000 2.06 0 09:53 18.07.2022
1052 Clear 16 1025 58 10000 0.51 0 07:48 18.07.2022
1053 Clear 13 1025 60 10000 0.51 0 02:34 18.07.2022
1054 Clear 19 1025 40 10000 1.03 0 22:52 17.07.2022
1055 Clear 20 1025 41 10000 1.03 20 22:25 17.07.2022
1056 Clear 23 1024 29 10000 1.54 10 21:26 17.07.2022
1057 Clear 25 1024 23 10000 1.54 10 20:44 17.07.2022
1058 Clear 27 1024 17 10000 2.06 350 19:49 17.07.2022
1059 Clear 27 1024 23 10000 2.57 350 19:20 17.07.2022
1060 Clear 28 1025 20 10000 3.09 320 17:39 17.07.2022
1061 Clear 28 1025 22 10000 2.06 0 16:53 17.07.2022
1062 Clear 28 1025 22 10000 4.12 330 16:27 17.07.2022
1063 Clear 27 1026 25 10000 2.57 360 15:34 17.07.2022
1064 Clear 25 1026 31 10000 2.06 0 13:47 17.07.2022
1065 Clear 24 1026 38 10000 2.06 0 12:40 17.07.2022
1066 Clear 21 1027 45 10000 1.54 0 10:18 17.07.2022
1067 Clear 11 1026 79 10000 1.03 0 06:58 17.07.2022
1068 Clear 13 1026 67 10000 0.51 0 02:34 17.07.2022
1069 Clear 16 1024 59 10000 1.54 360 23:23 16.07.2022
1070 Clear 20 1023 49 10000 1.54 350 21:57 16.07.2022
1071 Clear 23 1022 39 10000 5.14 300 20:28 16.07.2022
1072 Clear 24 1022 36 10000 4.63 300 18:43 16.07.2022
1073 Clear 25 1022 36 10000 7.72 290 17:24 16.07.2022
1074 Clear 23 1022 38 10000 5.66 280 15:50 16.07.2022
1075 Clear 22 1022 40 10000 4.63 270 11:55 16.07.2022
1076 Clear 19 1022 52 10000 1.54 0 09:41 16.07.2022
1077 Clear 18 1022 55 10000 1.03 0 09:22 16.07.2022
1078 Clear 16 1022 61 10000 1.54 10 08:35 16.07.2022
1079 Clear 10 1022 84 10000 1.03 330 06:47 16.07.2022
1080 Clear 11 1021 75 10000 0.51 180 03:32 16.07.2022
1081 Clear 15 1021 64 10000 1.03 340 23:54 15.07.2022
1082 Clear 17 1020 59 10000 2.06 350 22:46 15.07.2022
1083 Clear 19 1020 48 10000 1.54 10 21:52 15.07.2022
1084 Clear 21 1020 40 10000 4.12 350 20:35 15.07.2022
1085 Clear 23 1020 39 10000 2.57 320 18:46 15.07.2022
1086 Clear 23 1020 39 10000 3.09 320 17:51 15.07.2022
1087 Clear 24 1020 39 10000 4.12 330 16:23 15.07.2022
1088 Clear 22 1021 42 10000 3.09 330 13:48 15.07.2022
1089 Clear 21 1021 44 10000 2.06 0 12:22 15.07.2022
1090 Clouds 21 1021 49 10000 2.06 260 10:51 15.07.2022
1091 Clear 14 1021 76 10000 1.54 90 07:47 15.07.2022
1092 Clear 15 1020 64 10000 1.54 340 02:39 15.07.2022
1093 Clear 18 1019 55 10000 3.6 350 00:39 15.07.2022
1094 Clear 20 1018 64 10000 0.51 0 22:54 14.07.2022
1095 Clouds 22 1017 53 10000 3.09 330 21:57 14.07.2022
1096 Clouds 22 1017 53 10000 3.09 330 21:32 14.07.2022
1097 Clouds 23 1016 53 10000 5.66 320 20:46 14.07.2022
1098 Clear 23 1015 56 10000 7.72 340 20:28 14.07.2022
1099 Clear 24 1015 57 10000 9.26 350 19:58 14.07.2022
1100 Clear 31 1015 34 10000 8.75 280 16:23 14.07.2022
1101 Clear 32 1015 31 10000 8.23 280 15:54 14.07.2022
1102 Clear 33 1015 29 10000 8.23 270 14:44 14.07.2022
1103 Clear 32 1016 29 10000 7.2 250 13:33 14.07.2022
1104 Clear 30 1017 35 10000 3.09 220 12:19 14.07.2022
1105 Clear 28 1018 40 10000 2.57 140 11:25 14.07.2022
1106 Clear 27 1018 43 10000 2.57 130 10:39 14.07.2022
1107 Clear 21 1019 59 10000 2.57 110 08:22 14.07.2022
1108 Clear 18 1019 62 10000 1.03 0 03:36 14.07.2022
1109 Clear 22 1020 47 10000 1.54 120 00:54 14.07.2022
1110 Clear 23 1020 39 10000 1.03 170 23:38 13.07.2022
1111 Clear 25 1019 33 10000 2.57 230 22:26 13.07.2022
1112 Clear 27 1019 28 10000 2.06 270 21:30 13.07.2022
1113 Clear 28 1019 26 10000 3.6 280 20:26 13.07.2022
1114 Clear 31 1020 26 10000 4.12 280 17:56 13.07.2022
1115 Clouds 30 1021 29 10000 3.6 290 16:59 13.07.2022
1116 Clear 30 1021 30 10000 3.09 190 15:51 13.07.2022
1117 Clear 29 1022 33 10000 4.12 280 13:44 13.07.2022
1118 Clear 23 1023 53 10000 2.06 0 10:47 13.07.2022
1119 Clear 22 1023 56 10000 2.06 170 10:28 13.07.2022
1120 Clear 20 1024 63 10000 1.03 0 09:28 13.07.2022
1121 Clear 16 1023 77 10000 2.57 100 07:53 13.07.2022
1122 Clear 14 1024 80 10000 1.54 90 03:34 13.07.2022
1123 Clear 16 1024 70 10000 0.51 0 00:24 13.07.2022
1124 Clear 20 1024 56 10000 0.51 0 22:28 12.07.2022
1125 Clear 23 1024 43 10000 0 0 21:45 12.07.2022
1126 Clear 26 1024 36 10000 1.03 0 20:44 12.07.2022
1127 Clear 25 1024 38 10000 2.06 350 19:44 12.07.2022
1128 Clear 26 1024 38 10000 3.09 340 18:25 12.07.2022
1129 Clear 26 1024 41 10000 3.6 10 16:20 12.07.2022
1130 Clouds 24 1025 45 10000 3.6 290 14:31 12.07.2022
1131 Clouds 23 1025 48 10000 2.57 0 13:24 12.07.2022
1132 Clouds 22 1025 58 10000 3.6 0 11:48 12.07.2022
1133 Clouds 19 1025 72 10000 2.57 330 10:25 12.07.2022
1134 Clear 16 1025 80 10000 2.06 340 08:40 12.07.2022
1135 Clear 13 1025 85 10000 2.06 350 07:47 12.07.2022
1136 Clear 10 1024 90 10000 1.03 330 05:45 12.07.2022
1137 Clear 11 1024 90 10000 0 0 04:18 12.07.2022
1138 Clear 15 1024 81 10000 1.03 360 00:20 12.07.2022
1139 Clear 17 1023 74 10000 2.06 280 22:39 11.07.2022
1140 Clouds 19 1023 70 10000 3.6 350 20:56 11.07.2022
1141 Clouds 19 1023 68 10000 4.12 340 20:32 11.07.2022
1142 Clear 20 1023 65 10000 3.09 340 18:50 11.07.2022
1143 Clouds 20 1023 65 10000 3.6 310 18:23 11.07.2022
1144 Clouds 20 1023 65 10000 3.09 280 16:26 11.07.2022
1145 Clouds 20 1023 65 10000 2.06 250 15:23 11.07.2022
1146 Clouds 16 1023 81 10000 2.57 360 12:42 11.07.2022
1147 Haze 16 1023 78 10000 3.09 10 11:23 11.07.2022
1148 Clouds 16 1023 79 10000 2.57 290 09:55 11.07.2022
1149 Clouds 15 1023 81 10000 1.54 280 09:25 11.07.2022
1150 Clouds 15 1023 84 10000 1.03 0 08:30 11.07.2022
1151 Clear 16 1023 63 10000 2.57 300 00:56 11.07.2022
1152 Clear 16 1023 60 10000 2.57 310 23:53 10.07.2022
1153 Clear 17 1023 55 10000 3.09 310 22:37 10.07.2022
1154 Clear 18 1023 51 10000 5.66 310 20:55 10.07.2022
1155 Clear 18 1022 51 10000 4.12 290 20:34 10.07.2022
1156 Clear 19 1023 50 10000 5.14 300 19:29 10.07.2022
1157 Clear 19 1023 49 10000 5.14 310 18:23 10.07.2022
1158 Clouds 19 1023 51 10000 6.17 310 17:20 10.07.2022
1159 Clear 18 1023 50 10000 5.14 300 16:21 10.07.2022
1160 Clouds 17 1023 52 10000 5.14 330 14:44 10.07.2022
1161 Clouds 16 1023 57 10000 5.14 310 13:29 10.07.2022
1162 Clouds 16 1023 55 10000 5.66 310 11:39 10.07.2022
1163 Clouds 15 1023 60 10000 5.14 350 09:45 10.07.2022
1164 Clouds 14 1023 69 10000 6.17 310 08:43 10.07.2022
1165 Clear 13 1023 77 10000 5.14 310 07:19 10.07.2022
1166 Clouds 17 1023 82 10000 1.54 290 23:50 09.07.2022
1167 Rain 18 1023 75 10000 3.6 350 22:26 09.07.2022
1168 Rain 18 1023 75 10000 3.6 350 22:26 09.07.2022
1169 Rain 19 1022 63 10000 3.09 350 21:41 09.07.2022
1170 Clouds 21 1022 57 10000 3.09 350 19:44 09.07.2022
1171 Clouds 23 1023 46 10000 5.14 310 18:28 09.07.2022
1172 Rain 23 1023 51 10000 4.12 310 17:32 09.07.2022
1173 Clouds 23 1024 48 10000 5.66 270 16:36 09.07.2022
1174 Clouds 23 1024 49 10000 3.09 250 15:39 09.07.2022
1175 Clouds 21 1025 59 10000 4.63 290 14:24 09.07.2022
1176 Clear 21 1026 60 10000 4.12 300 13:48 09.07.2022
1177 Clouds 21 1026 59 10000 4.12 310 12:22 09.07.2022
1178 Clouds 20 1027 64 10000 1.03 0 10:27 09.07.2022
1179 Clouds 20 1027 68 10000 1.03 0 09:57 09.07.2022
1180 Clear 15 1027 77 10000 2.06 100 07:44 09.07.2022
1181 Clear 14 1027 81 10000 1.03 30 04:50 09.07.2022
1182 Clear 17 1028 67 10000 0.51 0 00:38 09.07.2022
1183 Clear 18 1028 58 10000 1.54 250 22:41 08.07.2022
1184 Clouds 19 1028 55 10000 1.39 351 21:27 08.07.2022
1185 Clear 21 1028 43 10000 3.6 280 20:40 08.07.2022
1186 Clear 21 1028 46 10000 4.63 310 19:48 08.07.2022
1187 Clear 22 1028 47 10000 2.57 280 17:57 08.07.2022
1188 Clouds 21 1029 51 10000 3.6 330 16:37 08.07.2022
1189 Clouds 20 1029 55 10000 4.12 320 14:51 08.07.2022
1190 Clouds 18 1030 58 10000 3.6 280 12:42 08.07.2022
1191 Clouds 17 1029 60 10000 2.57 310 11:24 08.07.2022
1192 Clouds 15 1029 70 10000 4.12 310 10:26 08.07.2022
1193 Clouds 13 1029 78 10000 2.57 310 08:24 08.07.2022
1194 Clouds 12 1028 82 10000 1.54 270 06:47 08.07.2022
1195 Clouds 14 1025 79 10000 5.66 350 01:19 08.07.2022
1196 Clouds 16 1024 83 10000 6.69 310 22:57 07.07.2022
1197 Clouds 16 1023 80 10000 5.14 290 21:57 07.07.2022
1198 Rain 17 1022 82 10000 7.2 290 19:47 07.07.2022
1199 Rain 17 1021 84 10000 5.14 280 17:56 07.07.2022
1200 Clouds 18 1021 78 10000 5.14 260 16:43 07.07.2022
1201 Rain 17 1020 79 10000 2.06 170 14:32 07.07.2022
1202 Clouds 16 1021 81 10000 3.09 230 12:46 07.07.2022
1203 Clouds 16 1021 79 10000 3.09 220 12:23 07.07.2022
1204 Clouds 15 1021 78 10000 2.06 210 11:34 07.07.2022
1205 Rain 16 1021 74 10000 1.03 250 10:46 07.07.2022
1206 Rain 16 1021 73 10000 1.03 0 10:28 07.07.2022
1207 Rain 16 1021 66 10000 1.54 210 09:32 07.07.2022
1208 Clear 15 1021 64 10000 1.03 240 06:32 07.07.2022
1209 Clouds 16 1023 57 10000 2.22 298 00:31 07.07.2022
1210 Clouds 16 1023 54 10000 2.2 298 23:36 06.07.2022
1211 Clear 19 1022 42 10000 3.6 300 23:18 06.07.2022
1212 Clear 18 1022 46 10000 3.6 300 22:52 06.07.2022
1213 Clear 19 1022 46 10000 3.6 300 22:33 06.07.2022
1214 Clear 21 1021 41 10000 5.14 290 20:23 06.07.2022
1215 Clear 23 1021 34 10000 5.66 300 19:22 06.07.2022
1216 Clear 25 1021 35 10000 5.14 290 17:21 06.07.2022
1217 Clear 24 1022 39 10000 6.17 290 15:57 06.07.2022
1218 Clear 23 1023 45 10000 4.63 290 12:44 06.07.2022
1219 Clear 22 1023 46 10000 4.12 310 11:52 06.07.2022
1220 Clear 21 1023 49 10000 3.6 290 10:54 06.07.2022
1221 Clear 20 1023 56 10000 2.57 310 09:25 06.07.2022
1222 Clear 16 1022 71 10000 1.03 0 07:44 06.07.2022
1223 Clear 16 1022 71 10000 1.03 0 07:44 06.07.2022
1224 Clear 15 1022 73 10000 1.54 270 06:44 06.07.2022
1225 Clear 18 1021 56 10000 1.03 330 00:24 06.07.2022
1226 Clear 20 1020 46 10000 1.54 330 22:43 05.07.2022
1227 Clear 25 1019 31 10000 4.63 300 20:49 05.07.2022
1228 Clear 25 1019 34 10000 3.6 310 20:31 05.07.2022
1229 Clear 26 1019 33 10000 3.6 300 19:38 05.07.2022
1230 Clear 27 1019 30 10000 3.6 280 17:51 05.07.2022
1231 Clear 27 1019 31 10000 3.6 0 17:19 05.07.2022
1232 Clear 28 1020 32 10000 3.09 290 16:25 05.07.2022
1233 Clear 27 1020 35 10000 4.63 340 14:54 05.07.2022
1234 Clear 27 1020 35 10000 4.63 280 13:34 05.07.2022
1235 Clear 25 1020 38 10000 4.12 290 12:24 05.07.2022
1236 Clear 24 1020 45 10000 2.06 280 10:46 05.07.2022
1237 Clear 22 1020 50 10000 1.54 270 09:57 05.07.2022
1238 Clear 18 1020 64 10000 1.54 290 08:21 05.07.2022
1239 Clear 14 1020 75 10000 0 0 06:51 05.07.2022
1240 Clear 15 1019 66 10000 1.54 340 04:35 05.07.2022
1241 Clear 18 1019 57 10000 2.57 290 01:26 05.07.2022
1242 Clear 19 1019 53 10000 1.54 350 23:37 04.07.2022
1243 Clear 21 1018 50 10000 1.54 320 22:55 04.07.2022
1244 Clear 24 1017 38 10000 2.06 320 21:56 04.07.2022
1245 Clear 26 1017 29 10000 4.12 320 20:56 04.07.2022
1246 Clear 25 1017 36 10000 3.6 310 20:35 04.07.2022
1247 Clear 27 1017 28 10000 4.12 310 19:56 04.07.2022
1248 Clear 27 1017 28 10000 4.12 310 19:37 04.07.2022
1249 Clear 28 1017 33 10000 3.6 310 18:35 04.07.2022
1250 Clear 28 1018 37 10000 2.06 0 16:51 04.07.2022
1251 Clear 28 1018 40 10000 4.12 280 15:35 04.07.2022
1252 Clear 25 1020 48 10000 2.06 0 13:44 04.07.2022
1253 Clear 24 1019 57 10000 2.06 310 12:38 04.07.2022
1254 Clear 22 1019 58 10000 2.06 290 10:39 04.07.2022
1255 Clear 22 1019 59 10000 1.54 260 10:20 04.07.2022
1256 Clear 18 1019 68 10000 2.06 320 08:31 04.07.2022
1257 Clear 17 1018 73 10000 0.51 0 05:57 04.07.2022
1258 Clear 19 1017 64 10000 1.03 0 00:44 04.07.2022
1259 Clear 19 1017 64 10000 1.03 0 00:44 04.07.2022
1260 Clear 20 1017 62 10000 0.51 0 23:38 03.07.2022
1261 Clear 23 1017 52 10000 1.54 310 22:27 03.07.2022
1262 Clear 28 1017 32 10000 3.6 290 20:45 03.07.2022
1263 Clear 30 1017 28 10000 4.12 260 19:42 03.07.2022
1264 Clear 30 1017 30 10000 4.12 280 19:23 03.07.2022
1265 Clear 31 1017 23 10000 4.63 250 17:46 03.07.2022
1266 Clear 31 1017 28 10000 3.09 240 17:18 03.07.2022
1267 Clear 30 1018 30 10000 3.6 0 15:26 03.07.2022
1268 Clear 30 1018 32 10000 4.63 260 14:37 03.07.2022
1269 Clear 30 1018 33 10000 3.09 0 13:49 03.07.2022
1270 Clear 28 1019 38 10000 5.66 280 12:42 03.07.2022
1271 Clear 27 1019 44 10000 1.54 0 11:46 03.07.2022
1272 Clear 24 1020 54 10000 2.06 220 10:40 03.07.2022
1273 Clear 24 1020 56 10000 2.06 220 10:20 03.07.2022
1274 Clear 17 1019 77 10000 3.09 130 07:37 03.07.2022
1275 Clear 13 1019 83 10000 2.57 110 05:26 03.07.2022
1276 Clear 16 1020 71 10000 2.57 100 00:25 03.07.2022
1277 Clear 20 1020 59 10000 2.06 120 22:37 02.07.2022
1278 Clear 20 1019 54 10000 2.57 160 22:18 02.07.2022
1279 Clear 24 1020 42 10000 4.63 150 20:21 02.07.2022
1280 Clear 25 1020 39 10000 4.12 150 19:49 02.07.2022
1281 Clear 26 1021 37 10000 3.6 120 17:59 02.07.2022
1282 Clear 26 1021 38 10000 4.12 120 17:37 02.07.2022
1283 Clear 25 1022 38 10000 4.63 150 15:37 02.07.2022
1284 Clear 23 1024 45 10000 3.6 120 12:49 02.07.2022
1285 Clouds 21 1025 55 10000 4.12 160 11:28 02.07.2022
1286 Clouds 21 1025 61 10000 2.57 120 10:48 02.07.2022
1287 Clear 18 1025 72 10000 2.06 110 09:49 02.07.2022
1288 Clear 16 1025 83 10000 2.57 130 08:37 02.07.2022
1289 Clear 15 1025 82 10000 2.06 120 08:18 02.07.2022
1290 Clear 11 1024 90 10000 4.12 100 02:53 02.07.2022
1291 Clear 13 1024 88 10000 2.57 100 00:27 02.07.2022
1292 Clear 14 1023 83 10000 3.09 100 22:59 01.07.2022
1293 Clear 14 1023 81 10000 2.06 120 22:26 01.07.2022
1294 Clear 16 1022 78 10000 1.54 190 21:37 01.07.2022
1295 Clear 16 1022 76 10000 2.06 190 20:58 01.07.2022
1296 Clouds 18 1022 70 10000 2.57 220 19:48 01.07.2022
1297 Clouds 18 1022 67 10000 2.57 260 19:22 01.07.2022
1298 Rain 14 1021 84 10000 3.6 260 16:38 01.07.2022
1299 Rain 14 1020 87 10000 3.6 260 14:21 01.07.2022
1300 Rain 15 1020 86 10000 5.14 280 13:22 01.07.2022
1301 Rain 14 1019 88 10000 5.14 280 10:46 01.07.2022
1302 Rain 14 1018 88 10000 5.66 250 10:18 01.07.2022
1303 Rain 16 1016 83 10000 4.12 280 06:20 01.07.2022
1304 Clear 22 1013 66 10000 4.12 260 01:57 01.07.2022
1305 Clear 24 1011 60 10000 2.57 190 23:33 30.06.2022
1306 Rain 26 1011 55 10000 3.6 200 22:47 30.06.2022
1307 Rain 26 1011 52 10000 4.63 140 22:27 30.06.2022
1308 Rain 28 1011 42 10000 5.14 140 21:51 30.06.2022
1309 Rain 29 1010 39 10000 3.6 150 20:41 30.06.2022
1310 Clear 30 1010 41 10000 3.09 140 19:55 30.06.2022
1311 Clear 31 1010 35 10000 3.09 140 19:35 30.06.2022
1312 Clear 31 1010 37 10000 2.57 110 18:43 30.06.2022
1313 Clear 31 1010 40 10000 1.54 0 17:49 30.06.2022
1314 Clear 32 1010 40 10000 3.6 90 16:55 30.06.2022
1315 Clear 31 1011 43 10000 2.57 0 15:52 30.06.2022
1316 Clear 30 1012 46 10000 1.54 0 13:51 30.06.2022
1317 Clear 29 1012 46 10000 2.06 0 13:18 30.06.2022
1318 Clouds 28 1012 50 10000 1.54 0 12:32 30.06.2022
1319 Clear 25 1013 69 10000 2.06 160 10:19 30.06.2022
1320 Clear 24 1013 73 10000 2.06 140 09:40 30.06.2022
1321 Clear 20 1013 84 10000 2.57 120 08:22 30.06.2022
1322 Clear 19 1013 86 10000 2.06 130 07:40 30.06.2022
1323 Clear 18 1013 85 10000 1.54 110 03:35 30.06.2022
1324 Clouds 20 1013 80 10000 0.51 0 23:39 29.06.2022
1325 Clear 21 1013 74 10000 2.06 350 22:41 29.06.2022
1326 Clouds 22 1013 73 10000 3.09 320 22:19 29.06.2022
1327 Clear 25 1012 60 10000 2.57 200 20:35 29.06.2022
1328 Clear 26 1012 58 10000 1.54 170 19:56 29.06.2022
1329 Clouds 26 1013 56 10000 3.6 140 17:55 29.06.2022
1330 Clouds 27 1013 55 10000 5.14 120 17:32 29.06.2022
1331 Clear 27 1013 54 10000 4.12 110 16:23 29.06.2022
1332 Clouds 25 1014 64 10000 1.54 0 13:45 29.06.2022
1333 Clouds 24 1014 67 10000 3.09 110 12:38 29.06.2022
1334 Clouds 22 1015 73 10000 1.54 80 09:50 29.06.2022
1335 Clouds 21 1015 76 10000 2.57 90 09:26 29.06.2022
1336 Clear 19 1015 83 10000 1.54 70 06:29 29.06.2022
1337 Clear 20 1015 75 10000 1.03 0 04:42 29.06.2022
1338 Rain 21 1016 68 10000 3.09 80 00:53 29.06.2022
1339 Clear 21 1017 68 10000 2.57 90 00:33 29.06.2022
1340 Clear 22 1017 62 10000 2.57 70 22:50 28.06.2022
1341 Clear 23 1017 60 10000 2.06 80 21:58 28.06.2022
1342 Clear 23 1017 56 10000 4.12 80 21:39 28.06.2022
1343 Clear 24 1017 57 10000 4.12 80 21:19 28.06.2022
1344 Clear 25 1017 51 10000 3.09 90 19:54 28.06.2022
1345 Clear 26 1018 51 10000 4.12 90 19:30 28.06.2022
1346 Clear 26 1028 47 10000 5.66 110 18:40 28.06.2022
1347 Clear 26 1019 45 10000 2.57 70 16:58 28.06.2022
1348 Clear 26 1019 46 10000 2.57 0 15:55 28.06.2022
1349 Clear 25 1020 46 10000 3.09 10 14:52 28.06.2022
1350 Clear 24 1020 47 10000 3.6 40 14:19 28.06.2022
1351 Clouds 25 1021 46 10000 3.09 50 13:45 28.06.2022
1352 Clear 23 1021 55 10000 3.09 40 12:30 28.06.2022
1353 Clear 21 1022 65 10000 3.09 290 10:23 28.06.2022
1354 Clouds 19 1022 80 10000 3.09 320 08:55 28.06.2022
1355 Clouds 18 1022 81 10000 3.09 320 08:33 28.06.2022
1356 Clear 16 1022 85 10000 2.57 300 07:20 28.06.2022
1357 Clear 17 1021 85 10000 2.57 300 03:39 28.06.2022
1358 Rain 18 1021 84 10000 4.63 240 23:51 27.06.2022
1359 Rain 18 1020 85 10000 1.03 0 23:26 27.06.2022
1360 Rain 20 1019 74 10000 5.66 300 21:53 27.06.2022
1361 Rain 20 1019 72 10000 6.17 290 21:22 27.06.2022
1362 Rain 22 1018 66 10000 6.17 280 20:21 27.06.2022
1363 Clouds 24 1017 64 10000 6.69 300 18:51 27.06.2022
1364 Clouds 25 1017 62 10000 7.2 290 17:38 27.06.2022
1365 Clouds 25 1017 63 10000 6.69 280 15:50 27.06.2022
1366 Clouds 26 1016 62 10000 5.66 290 14:18 27.06.2022
1367 Clouds 24 1016 68 10000 6.17 290 12:58 27.06.2022
1368 Clouds 24 1016 67 10000 6.69 290 11:40 27.06.2022
1369 Clear 24 1014 72 10000 2.06 220 09:45 27.06.2022
1370 Clear 22 1014 74 10000 2.57 150 08:43 27.06.2022
1371 Clear 20 1013 82 10000 2.06 310 07:39 27.06.2022
1372 Rain 19 1016 76 10000 8.75 250 05:22 27.06.2022
1373 Clear 20 1012 69 10000 4.12 110 01:24 27.06.2022
1374 Rain 24 1013 58 10000 2.57 110 22:59 26.06.2022
1375 Clear 27 1013 41 10000 3.09 130 21:38 26.06.2022
1376 Clear 29 1013 42 10000 1.03 0 20:28 26.06.2022
1377 Clear 31 1013 37 10000 2.57 360 18:33 26.06.2022
1378 Clear 30 1014 39 10000 2.57 10 17:40 26.06.2022
1379 Clear 30 1014 38 10000 2.06 0 15:37 26.06.2022
1380 Clear 30 1015 39 10000 3.09 0 14:23 26.06.2022
1381 Clear 29 1015 44 10000 2.57 40 13:24 26.06.2022
1382 Clear 27 1015 48 10000 3.09 100 11:41 26.06.2022
1383 Clear 26 1016 54 10000 2.57 170 10:42 26.06.2022
1384 Clear 24 1016 59 10000 1.54 140 09:58 26.06.2022
1385 Clear 21 1015 71 10000 1.54 120 08:27 26.06.2022
1386 Clear 15 1015 87 10000 3.09 110 06:19 26.06.2022
1387 Clear 18 1014 75 10000 2.06 110 00:37 26.06.2022
1388 Clear 18 1014 75 10000 2.06 110 00:37 26.06.2022
1389 Clear 18 1014 74 10000 2.57 110 00:18 26.06.2022
1390 Clear 19 1013 70 10000 2.57 90 23:31 25.06.2022
1391 Clear 21 1013 64 10000 2.06 90 22:46 25.06.2022
1392 Clear 21 1013 64 10000 2.06 100 22:24 25.06.2022
1393 Clear 24 1013 54 10000 2.06 70 21:21 25.06.2022
1394 Clear 26 1013 41 10000 2.57 80 20:39 25.06.2022
1395 Clear 27 1013 39 10000 2.06 140 19:59 25.06.2022
1396 Clear 27 1013 43 10000 1.54 0 18:23 25.06.2022
1397 Clear 26 1013 45 10000 1.54 280 17:26 25.06.2022
1398 Clear 26 1014 49 10000 2.06 20 16:26 25.06.2022
1399 Clouds 25 1014 51 10000 2.06 300 14:29 25.06.2022
1400 Clouds 24 1015 56 10000 2.06 0 12:45 25.06.2022
1401 Clouds 23 1015 63 10000 2.06 0 11:55 25.06.2022
1402 Clouds 18 1015 82 10000 4.63 290 09:24 25.06.2022
1403 Clouds 17 1015 86 10000 4.12 270 08:49 25.06.2022
1404 Clouds 17 1015 87 10000 2.57 260 08:20 25.06.2022
1405 Clouds 16 1014 87 10000 2.06 230 06:34 25.06.2022
1406 Rain 17 1012 87 10000 3.6 280 00:44 25.06.2022
1407 Rain 17 1012 87 10000 3.6 280 00:44 25.06.2022
1408 Rain 17 1012 85 10000 2.57 280 23:46 24.06.2022
1409 Rain 18 1011 87 10000 5.14 230 22:22 24.06.2022
1410 Clouds 18 1010 82 10000 7.41 262 21:22 24.06.2022
1411 Clear 19 1009 85 10000 3.09 200 20:23 24.06.2022
1412 Rain 19 1009 94 10000 1.03 140 19:24 24.06.2022
1413 Rain 19 1009 94 10000 2.06 90 18:50 24.06.2022
1414 Rain 19 1009 94 10000 2.06 10 18:31 24.06.2022
1415 Rain 20 1010 88 10000 4.63 340 17:47 24.06.2022
1416 Rain 24 1008 59 10000 4.12 170 16:34 24.06.2022
1417 Clouds 25 1009 57 10000 3.6 110 14:30 24.06.2022
1418 Clouds 25 1009 53 10000 3.09 140 13:58 24.06.2022
1419 Clouds 24 1010 61 10000 2.06 200 12:28 24.06.2022
1420 Clouds 23 1010 68 10000 2.57 190 11:40 24.06.2022
1421 Clouds 20 1010 82 10000 2.06 120 10:26 24.06.2022
1422 Rain 20 1011 80 10000 2.57 130 09:41 24.06.2022
1423 Clouds 20 1011 83 10000 1.54 140 08:53 24.06.2022
1424 Rain 18 1011 86 10000 1.03 0 07:33 24.06.2022
1425 Rain 19 1011 80 10000 0.51 50 06:42 24.06.2022
1426 Rain 19 1011 80 10000 1.54 320 06:18 24.06.2022
1427 Clear 19 1011 79 10000 4.12 100 03:33 24.06.2022
1428 Clear 24 1010 54 10000 2.57 90 22:58 23.06.2022
1429 Clear 24 1010 53 10000 2.57 90 22:40 23.06.2022
1430 Clear 28 1010 42 10000 5.14 130 20:58 23.06.2022
1431 Clear 28 1010 46 10000 3.6 140 20:35 23.06.2022
1432 Clear 29 1010 39 10000 4.63 120 19:34 23.06.2022
1433 Clear 30 1011 44 10000 4.12 120 17:52 23.06.2022
1434 Clear 30 1012 45 10000 4.12 130 16:58 23.06.2022
1435 Clear 29 1012 47 10000 5.14 160 15:50 23.06.2022
1436 Clear 29 1013 46 10000 4.12 140 15:24 23.06.2022
1437 Clouds 28 1014 53 10000 3.6 140 13:40 23.06.2022
1438 Clouds 25 1015 60 10000 2.57 150 11:27 23.06.2022
1439 Clear 24 1015 67 10000 2.57 0 10:35 23.06.2022
1440 Clouds 20 1015 85 10000 1.54 130 08:53 23.06.2022
1441 Fog 16 1014 90 550 2.06 110 03:35 23.06.2022
1442 Clear 19 1013 85 10000 1.03 150 00:26 23.06.2022
1443 Clouds 20 1013 85 10000 0.51 0 23:30 22.06.2022
1444 Rain 20 1012 83 10000 1.03 160 22:39 22.06.2022
1445 Rain 20 1012 83 10000 1.03 0 21:22 22.06.2022
1446 Rain 21 1012 82 10000 1.54 170 20:34 22.06.2022
1447 Rain 21 1012 81 10000 3.09 210 19:52 22.06.2022
1448 Rain 22 1011 71 10000 3.6 180 18:40 22.06.2022
1449 Rain 24 1011 66 10000 6.69 220 17:27 22.06.2022
1450 Rain 27 1011 45 10000 2.57 230 16:18 22.06.2022
1451 Clouds 27 1011 43 10000 2.57 200 15:26 22.06.2022
1452 Clear 28 1021 41 10000 1.03 0 14:19 22.06.2022
1453 Clear 27 1012 45 10000 1.54 280 13:37 22.06.2022
1454 Clear 27 1012 44 10000 1.54 280 13:18 22.06.2022
1455 Clear 26 1012 46 10000 1.54 0 11:49 22.06.2022
1456 Clouds 25 1011 48 10000 1.54 0 10:55 22.06.2022
1457 Clear 23 1011 51 10000 1.03 230 09:59 22.06.2022
1458 Clear 19 1011 59 10000 2.06 80 07:59 22.06.2022
1459 Clear 15 1011 68 10000 3.09 100 03:50 22.06.2022
1460 Clear 17 1012 61 10000 2.57 90 01:23 22.06.2022
1461 Clear 19 1012 53 10000 3.09 100 23:42 21.06.2022
1462 Clear 23 1011 35 10000 2.57 80 21:49 21.06.2022
1463 Clear 27 1011 28 10000 1.03 0 19:55 21.06.2022
1464 Clear 27 1012 28 10000 1.03 0 18:35 21.06.2022
1465 Clear 26 1022 26 10000 2.57 90 17:31 21.06.2022
1466 Clear 24 1015 36 10000 2.57 80 13:45 21.06.2022
1467 Clear 20 1016 50 10000 2.06 330 11:31 21.06.2022
1468 Clear 17 1017 61 10000 1.54 330 09:54 21.06.2022
1469 Clear 15 1016 65 10000 1.54 120 08:47 21.06.2022
1470 Clear 9 1017 84 10000 2.06 110 06:35 21.06.2022
1471 Clear 10 1017 78 10000 0.51 0 01:30 21.06.2022
1472 Clear 13 1016 67 10000 0.51 0 23:24 20.06.2022
1473 Clear 15 1016 55 10000 3.6 320 21:54 20.06.2022
1474 Clouds 16 1015 62 10000 5.66 330 20:50 20.06.2022
1475 Clouds 19 1014 64 10000 5.66 330 19:40 20.06.2022
1476 Clouds 20 1014 64 10000 5.66 330 18:46 20.06.2022
1477 Clouds 21 1013 66 10000 7.2 310 17:59 20.06.2022
1478 Clear 21 1013 66 10000 6.17 320 17:32 20.06.2022
1479 Clouds 22 1013 65 10000 8.23 300 15:56 20.06.2022
1480 Clouds 26 1011 54 10000 5.14 270 12:54 20.06.2022
1481 Clear 23 1011 67 10000 2.57 250 11:18 20.06.2022
1482 Rain 19 1010 88 10000 3.6 360 09:41 20.06.2022
1483 Rain 20 1011 77 10000 4.12 270 08:44 20.06.2022
1484 Clear 19 1008 78 10000 1.54 130 06:19 20.06.2022
1485 Clear 21 1008 69 10000 0.51 0 02:29 20.06.2022
1486 Clear 24 1009 59 10000 1.54 110 00:32 20.06.2022
1487 Clear 25 1009 58 10000 0.51 0 23:18 19.06.2022
1488 Clear 30 1008 42 10000 1.54 300 21:58 19.06.2022
1489 Clear 30 1008 42 10000 1.54 300 21:40 19.06.2022
1490 Clear 33 1008 31 10000 4.12 270 20:39 19.06.2022
1491 Clear 34 1008 27 10000 5.14 280 19:48 19.06.2022
1492 Clear 35 1008 29 10000 5.14 260 18:57 19.06.2022
1493 Clear 35 1008 28 10000 5.66 260 18:30 19.06.2022
1494 Clear 36 1008 26 10000 7.2 280 17:22 19.06.2022
1495 Clear 36 1008 26 10000 5.66 230 16:36 19.06.2022
1496 Clear 36 1009 24 10000 6.17 240 15:43 19.06.2022
1497 Clear 36 1009 26 10000 5.66 250 15:24 19.06.2022
1498 Clear 35 1009 25 10000 7.72 250 14:20 19.06.2022
1499 Clear 35 1009 25 10000 7.72 250 14:20 19.06.2022
1500 Clear 35 1010 26 10000 6.69 240 13:37 19.06.2022
1501 Clear 32 1010 36 10000 3.09 240 11:40 19.06.2022
1502 Clear 30 1011 41 10000 2.06 0 10:47 19.06.2022
1503 Clear 26 1011 50 10000 4.12 140 08:54 19.06.2022
1504 Clear 25 1011 52 10000 3.6 120 08:22 19.06.2022
1505 Clear 19 1012 67 10000 2.06 110 05:44 19.06.2022
1506 Clear 21 1014 64 10000 4.63 100 02:32 19.06.2022
1507 Clear 22 1015 60 10000 3.6 100 00:26 19.06.2022
1508 Clear 23 1015 57 10000 3.6 90 23:36 18.06.2022
1509 Clear 25 1015 52 10000 2.06 110 22:45 18.06.2022
1510 Clear 29 1015 34 10000 1.54 180 21:43 18.06.2022
1511 Clear 31 1016 30 10000 2.57 200 20:49 18.06.2022
1512 Clear 33 1016 25 10000 3.09 210 19:40 18.06.2022
1513 Clear 34 1016 22 10000 2.06 210 18:54 18.06.2022
1514 Clear 35 1017 25 10000 2.06 0 17:35 18.06.2022
1515 Clear 35 1017 24 10000 2.06 0 17:35 18.06.2022
1516 Clear 34 1017 25 10000 3.09 0 16:59 18.06.2022
1517 Clear 34 1019 25 10000 3.09 230 15:37 18.06.2022
1518 Clear 34 1019 25 10000 3.09 0 14:46 18.06.2022
1519 Clear 32 1020 27 10000 3.09 180 13:42 18.06.2022
1520 Clear 30 1021 32 10000 3.09 240 11:58 18.06.2022
1521 Clear 28 1021 39 10000 1.54 0 10:56 18.06.2022
1522 Clear 28 1021 39 10000 1.54 0 10:56 18.06.2022
1523 Clear 23 1022 49 10000 1.54 150 09:28 18.06.2022
1524 Clear 20 1022 59 10000 2.57 120 08:32 18.06.2022
1525 Clear 16 1022 70 10000 3.09 100 07:23 18.06.2022
1526 Clear 15 1023 72 10000 4.12 110 03:58 18.06.2022
1527 Clear 17 1023 63 10000 3.6 100 01:27 18.06.2022
1528 Clear 18 1023 61 10000 3.6 100 00:49 18.06.2022
1529 Clear 18 1023 57 10000 3.09 100 23:59 17.06.2022
1530 Clear 19 1023 55 10000 1.03 120 23:29 17.06.2022
1531 Clear 22 1023 53 10000 1.54 360 21:33 17.06.2022
1532 Clear 25 1023 33 10000 0.51 0 20:26 17.06.2022
1533 Clear 26 1023 30 10000 3.09 310 18:59 17.06.2022
1534 Clear 27 1024 26 10000 3.6 320 17:46 17.06.2022
1535 Clear 27 1024 28 10000 3.6 310 16:43 17.06.2022
1536 Clear 27 1024 28 10000 2.57 0 16:19 17.06.2022
1537 Clear 27 1024 30 10000 2.57 0 15:37 17.06.2022
1538 Clear 26 1025 34 10000 2.06 0 14:22 17.06.2022
1539 Clear 26 1025 34 10000 2.57 320 13:51 17.06.2022
1540 Clear 25 1025 35 10000 1.54 0 13:31 17.06.2022
1541 Clear 23 1025 44 10000 2.57 0 11:59 17.06.2022
1542 Clear 23 1025 44 10000 2.06 0 11:39 17.06.2022
1543 Clear 23 1025 45 10000 2.06 0 11:21 17.06.2022
1544 Clear 18 1025 60 10000 2.06 340 08:38 17.06.2022
1545 Clear 16 1024 69 10000 1.03 0 07:53 17.06.2022
1546 Clear 15 1024 70 10000 1.54 340 06:34 17.06.2022
1547 Clear 15 1023 67 10000 2.06 320 03:24 17.06.2022
1548 Clear 18 1022 55 10000 2.06 340 00:46 17.06.2022
1549 Clear 19 1021 53 10000 2.06 320 23:30 16.06.2022
1550 Clear 19 1021 48 10000 1.54 360 22:38 16.06.2022
1551 Clear 19 1021 48 10000 1.54 360 22:38 16.06.2022
1552 Clear 23 1020 40 10000 5.14 330 21:19 16.06.2022
1553 Clear 25 1020 31 10000 6.69 340 20:50 16.06.2022
1554 Clear 26 1019 31 10000 6.17 320 19:59 16.06.2022
1555 Clear 27 1019 31 10000 6.69 320 18:48 16.06.2022
1556 Clear 28 1018 35 10000 6.17 330 17:49 16.06.2022
1557 Clear 28 1018 35 10000 7.2 330 17:27 16.06.2022
1558 Clear 29 1018 37 10000 7.2 300 16:19 16.06.2022
1559 Clear 29 1018 37 10000 5.66 300 15:21 16.06.2022
1560 Clear 29 1018 36 10000 5.66 300 14:22 16.06.2022
1561 Clear 28 1017 41 10000 4.63 310 12:53 16.06.2022
1562 Clear 28 1017 41 10000 4.63 310 12:34 16.06.2022
1563 Clear 26 1017 44 10000 3.09 290 11:21 16.06.2022
1564 Clear 25 1017 48 10000 2.57 340 10:35 16.06.2022
1565 Clear 23 1017 53 10000 1.54 0 09:39 16.06.2022
1566 Clear 21 1017 59 10000 0.51 0 08:50 16.06.2022
1567 Clear 18 1016 77 10000 1.03 0 07:38 16.06.2022
1568 Clear 14 1016 80 10000 1.54 100 05:48 16.06.2022
1569 Clear 16 1016 74 10000 1.03 0 03:44 16.06.2022
1570 Clear 17 1016 69 10000 3.6 100 01:52 16.06.2022
1571 Clear 17 1016 66 10000 3.09 90 01:22 16.06.2022
1572 Clear 19 1016 59 10000 2.06 90 23:58 15.06.2022
1573 Clear 22 1016 55 10000 1.03 0 22:53 15.06.2022
1574 Clear 27 1016 36 10000 2.06 80 21:34 15.06.2022
1575 Clear 28 1016 32 10000 2.57 80 20:58 15.06.2022
1576 Clear 29 1016 30 10000 1.54 290 20:36 15.06.2022
1577 Clear 30 1016 21 10000 1.54 270 19:57 15.06.2022
1578 Clear 29 1016 28 10000 2.57 200 18:37 15.06.2022
1579 Clear 30 1016 26 10000 1.03 0 17:46 15.06.2022
1580 Clear 30 1017 26 10000 3.09 200 16:23 15.06.2022
1581 Clear 29 1017 27 10000 4.12 110 14:57 15.06.2022
1582 Clear 28 1018 32 10000 3.09 0 13:22 15.06.2022
1583 Clear 26 1018 39 10000 3.6 140 12:40 15.06.2022
1584 Clear 24 1018 44 10000 3.6 130 11:24 15.06.2022
1585 Clear 22 1019 51 10000 2.57 110 10:21 15.06.2022
1586 Clear 19 1019 59 10000 3.09 100 08:59 15.06.2022
1587 Clear 14 1019 71 10000 2.06 100 07:32 15.06.2022
1588 Clear 11 1019 81 10000 0.51 0 05:36 15.06.2022
1589 Clear 12 1019 69 10000 2.57 90 02:47 15.06.2022
1590 Clear 14 1019 65 10000 1.54 100 01:36 15.06.2022
1591 Clear 15 1019 60 10000 2.06 100 00:19 15.06.2022
1592 Clear 16 1019 56 10000 2.57 100 23:38 14.06.2022
1593 Clear 17 1019 53 10000 2.06 50 22:46 14.06.2022
1594 Clear 20 1019 37 10000 2.57 50 21:43 14.06.2022
1595 Clear 23 1019 31 10000 2.06 40 20:58 14.06.2022
1596 Clear 23 1019 33 10000 2.57 30 20:38 14.06.2022
1597 Clear 24 1019 29 10000 1.54 40 19:47 14.06.2022
1598 Clear 25 1019 28 10000 2.06 0 18:33 14.06.2022
1599 Clear 25 1020 29 10000 2.06 0 16:50 14.06.2022
1600 Clear 25 1021 29 10000 3.09 220 16:25 14.06.2022
1601 Clear 24 1021 31 10000 1.54 0 15:36 14.06.2022
1602 Clear 24 1021 33 10000 1.54 0 14:53 14.06.2022
1603 Clear 23 1022 33 10000 1.54 180 13:57 14.06.2022
1604 Clear 22 1022 36 10000 2.06 0 12:58 14.06.2022
1605 Clear 21 1023 42 10000 2.06 0 11:54 14.06.2022
1606 Clear 20 1023 48 10000 1.03 0 10:51 14.06.2022
1607 Clear 19 1023 50 10000 1.54 0 10:25 14.06.2022
1608 Clear 16 1023 62 10000 1.03 0 08:52 14.06.2022
1609 Clear 15 1023 64 10000 1.03 0 08:24 14.06.2022
1610 Clear 9 1023 83 10000 1.03 120 06:19 14.06.2022
1611 Clear 10 1023 80 10000 0.51 0 03:39 14.06.2022
1612 Clear 11 1022 75 10000 0.51 0 01:37 14.06.2022
1613 Clear 13 1022 70 10000 2.57 360 00:21 14.06.2022
1614 Clear 15 1022 62 10000 1.03 10 22:39 13.06.2022
1615 Clear 16 1022 58 10000 1.54 360 22:19 13.06.2022
1616 Clear 18 1021 51 10000 3.6 320 21:24 13.06.2022
1617 Clear 20 1021 46 10000 6.17 320 19:48 13.06.2022
1618 Clear 21 1021 42 10000 5.14 290 18:52 13.06.2022
1619 Clear 22 1021 42 10000 6.17 320 17:52 13.06.2022
1620 Clear 21 1020 42 10000 7.72 300 17:21 13.06.2022
1621 Clear 22 1020 39 10000 7.72 290 16:30 13.06.2022
1622 Clear 23 1020 36 10000 7.2 290 14:48 13.06.2022
1623 Clear 22 1020 39 10000 8.75 290 14:23 13.06.2022
1624 Clear 22 1020 41 10000 8.75 280 13:28 13.06.2022
1625 Clouds 22 1019 48 10000 6.69 290 11:50 13.06.2022
1626 Clear 21 1019 53 10000 4.63 310 10:36 13.06.2022
1627 Clear 20 1019 55 10000 4.63 320 09:43 13.06.2022
1628 Clear 18 1018 57 10000 3.6 320 08:34 13.06.2022
1629 Clear 16 1017 68 10000 1.54 240 06:35 13.06.2022
1630 Clear 18 1017 59 10000 1.54 240 04:35 13.06.2022
1631 Clear 17 1017 73 10000 1.54 100 01:45 13.06.2022
1632 Clear 17 1017 74 10000 0.51 0 01:18 13.06.2022
1633 Clear 18 1017 73 10000 1.03 360 23:43 12.06.2022
1634 Clouds 21 1018 64 10000 1.03 330 22:36 12.06.2022
1635 Clear 24 1018 53 10000 2.06 330 21:46 12.06.2022
1636 Clear 26 1018 44 10000 2.57 300 20:49 12.06.2022
1637 Clear 27 1018 36 10000 4.63 290 19:49 12.06.2022
1638 Clear 28 1018 38 10000 4.63 260 18:54 12.06.2022
1639 Clear 28 1019 36 10000 3.6 280 17:24 12.06.2022
1640 Clear 29 1020 37 10000 3.09 230 15:44 12.06.2022
1641 Clear 29 1020 38 10000 4.12 290 14:50 12.06.2022
1642 Clear 28 1021 39 10000 5.14 300 14:18 12.06.2022
1643 Clear 28 1021 39 10000 4.63 280 13:44 12.06.2022
1644 Clear 27 1022 43 10000 2.57 0 12:28 12.06.2022
1645 Clear 25 1022 48 10000 1.54 0 10:46 12.06.2022
1646 Clear 23 1023 59 10000 1.54 210 09:42 12.06.2022
1647 Clear 20 1023 66 10000 1.03 0 08:50 12.06.2022
1648 Clear 18 1023 72 10000 2.57 110 07:52 12.06.2022
1649 Clear 13 1023 85 10000 3.6 100 06:27 12.06.2022
1650 Clear 13 1023 88 10000 2.57 110 03:54 12.06.2022
1651 Clear 14 1023 82 10000 3.09 100 02:25 12.06.2022
1652 Clear 16 1023 78 10000 2.57 90 01:35 12.06.2022
1653 Clear 16 1023 76 10000 2.57 100 00:48 12.06.2022
1654 Clear 16 1023 75 10000 1.54 90 00:19 12.06.2022
1655 Clear 18 1023 68 10000 2.06 100 23:21 11.06.2022
1656 Clear 19 1023 65 10000 1.54 100 22:37 11.06.2022
1657 Clear 23 1022 49 10000 1.03 0 21:18 11.06.2022
1658 Clear 24 1022 47 10000 4.12 300 20:26 11.06.2022
1659 Clear 26 1022 38 10000 3.09 290 19:36 11.06.2022
1660 Clear 26 1022 42 10000 4.12 320 18:45 11.06.2022
1661 Clear 26 1022 40 10000 3.09 340 18:26 11.06.2022
1662 Clear 26 1022 40 10000 3.09 250 17:47 11.06.2022
1663 Clear 26 1022 40 10000 2.57 300 17:26 11.06.2022
1664 Clear 26 1022 41 10000 2.06 0 16:43 11.06.2022
1665 Clear 26 1023 38 10000 2.57 260 16:18 11.06.2022
1666 Clear 25 1023 40 10000 3.09 0 14:44 11.06.2022
1667 Clear 25 1023 42 10000 2.06 260 13:52 11.06.2022
1668 Clear 24 1024 48 10000 1.54 330 11:55 11.06.2022
1669 Clear 22 1024 58 10000 1.03 0 10:30 11.06.2022
1670 Clear 20 1024 66 10000 1.03 0 09:41 11.06.2022
1671 Clear 16 1024 73 10000 1.54 100 08:38 11.06.2022
1672 Clear 12 1024 87 10000 2.57 100 06:33 11.06.2022
1673 Clear 10 1023 87 10000 3.6 110 05:33 11.06.2022
1674 Clear 12 1023 82 10000 3.09 100 02:55 11.06.2022
1675 Clear 13 1023 79 10000 3.09 100 01:41 11.06.2022
1676 Clear 14 1023 76 10000 2.57 110 00:55 11.06.2022
1677 Clear 16 1023 71 10000 0.51 0 23:25 10.06.2022
1678 Clear 18 1023 60 10000 0 0 22:20 10.06.2022
1679 Clear 22 1022 46 10000 1.54 260 21:22 10.06.2022
1680 Clear 22 1022 46 10000 2.06 260 20:37 10.06.2022
1681 Clear 22 1022 44 10000 3.09 290 20:19 10.06.2022
1682 Clear 23 1022 43 10000 3.6 290 19:19 10.06.2022
1683 Clear 23 1022 42 10000 3.6 280 18:29 10.06.2022
1684 Clear 23 1023 42 10000 2.57 290 17:42 10.06.2022
1685 Clear 24 1023 41 10000 3.6 280 16:59 10.06.2022
1686 Clear 24 1023 41 10000 2.06 0 16:23 10.06.2022
1687 Clear 23 1023 44 10000 2.06 0 15:37 10.06.2022
1688 Clear 23 1024 48 10000 3.09 0 13:55 10.06.2022
1689 Clouds 22 1024 53 10000 1.54 0 12:48 10.06.2022
1690 Clouds 20 1024 56 10000 1.54 260 11:41 10.06.2022
1691 Clouds 19 1024 65 10000 1.54 0 10:45 10.06.2022
1692 Clear 18 1024 71 10000 1.03 0 09:48 10.06.2022
1693 Clear 16 1024 78 10000 1.03 0 08:33 10.06.2022
1694 Clear 12 1024 85 10000 1.03 0 07:24 10.06.2022
1695 Clear 11 1023 87 10000 1.03 0 06:43 10.06.2022
1696 Clear 9 1023 91 10000 1.54 130 06:24 10.06.2022
1697 Clear 10 1022 89 10000 0.51 0 03:52 10.06.2022
1698 Clear 12 1021 81 10000 0.51 0 01:41 10.06.2022
1699 Clear 13 1021 79 10000 2.57 270 00:28 10.06.2022
1700 Clear 14 1020 74 10000 2.57 280 23:29 09.06.2022
1701 Clear 16 1019 65 10000 4.63 300 21:58 09.06.2022
1702 Clouds 17 1018 64 10000 4.63 300 21:32 09.06.2022
1703 Clear 18 1018 59 10000 6.17 290 20:54 09.06.2022
1704 Clear 18 1018 59 10000 6.17 290 20:54 09.06.2022
1705 Clouds 19 1017 57 10000 6.17 300 19:59 09.06.2022
1706 Clouds 20 1016 57 10000 6.17 280 18:54 09.06.2022
1707 Clear 20 1016 59 10000 6.17 260 18:21 09.06.2022
1708 Clouds 18 1016 63 10000 8.23 270 16:48 09.06.2022
1709 Clear 20 1015 55 10000 5.14 300 15:48 09.06.2022
1710 Clear 20 1014 59 10000 5.14 300 14:35 09.06.2022
1711 Clear 18 1014 61 10000 7.2 280 13:48 09.06.2022
1712 Clouds 18 1014 62 10000 7.72 280 13:27 09.06.2022
1713 Clouds 18 1013 62 10000 6.69 280 11:54 09.06.2022
1714 Clouds 17 1013 67 10000 5.66 280 10:53 09.06.2022
1715 Clouds 16 1013 77 10000 5.14 280 09:43 09.06.2022
1716 Clouds 16 1013 81 10000 4.63 300 09:23 09.06.2022
1717 Clouds 16 1013 81 10000 4.63 300 09:23 09.06.2022
1718 Clouds 14 1012 87 10000 2.06 280 07:44 09.06.2022
1719 Clouds 14 1011 88 10000 2.57 280 05:48 09.06.2022
1720 Clouds 14 1010 87 10000 2.57 250 02:20 09.06.2022
1721 Clear 14 1010 86 10000 1.03 0 23:34 08.06.2022
1722 Drizzle 15 1010 84 10000 2.57 300 22:56 08.06.2022
1723 Rain 15 1010 82 10000 5.66 280 22:26 08.06.2022
1724 Rain 16 1010 78 10000 7.2 270 21:52 08.06.2022
1725 Clear 21 1008 49 10000 3.09 250 20:57 08.06.2022
1726 Rain 21 1008 46 10000 4.12 220 19:55 08.06.2022
1727 Clear 22 1008 47 10000 3.6 230 19:18 08.06.2022
1728 Clear 22 1008 46 10000 5.14 230 18:42 08.06.2022
1729 Clear 23 1008 41 10000 4.63 210 16:39 08.06.2022
1730 Clear 23 1009 41 10000 3.6 240 15:27 08.06.2022
1731 Clear 23 1010 46 10000 4.12 190 13:37 08.06.2022
1732 Clear 21 1011 56 10000 3.6 200 11:51 08.06.2022
1733 Clouds 20 1011 59 10000 4.12 170 11:24 08.06.2022
1734 Clear 19 1012 68 10000 1.54 180 09:48 08.06.2022
1735 Clear 18 1012 74 10000 2.06 180 09:20 08.06.2022
1736 Clouds 17 1013 78 10000 2.06 190 08:18 08.06.2022
1737 Clouds 12 1013 90 10000 2.06 130 05:36 08.06.2022
1738 Clear 14 1014 81 10000 1.03 0 02:39 08.06.2022
1739 Clear 16 1015 77 10000 3.09 250 00:21 08.06.2022
1740 Clouds 16 1015 77 10000 1.78 224 23:25 07.06.2022
1741 Clear 17 1014 67 10000 1.54 150 22:42 07.06.2022
1742 Clear 19 1014 59 10000 0.51 260 21:59 07.06.2022
1743 Clear 20 1014 56 10000 1.03 280 21:28 07.06.2022
1744 Clear 20 1014 52 10000 2.06 280 20:46 07.06.2022
1745 Clear 21 1014 53 10000 3.09 270 20:24 07.06.2022
1746 Clear 22 1014 47 10000 4.12 260 19:24 07.06.2022
1747 Clear 21 1014 50 10000 4.63 250 17:57 07.06.2022
1748 Clear 22 1014 50 10000 5.14 260 17:19 07.06.2022
1749 Clear 22 1014 51 10000 5.14 260 16:39 07.06.2022
1750 Clear 21 1015 54 10000 3.6 250 15:42 07.06.2022
1751 Clear 20 1015 55 10000 3.09 240 15:23 07.06.2022
1752 Clouds 21 1015 56 10000 3.6 250 14:46 07.06.2022
1753 Clouds 21 1015 54 10000 3.6 270 13:50 07.06.2022
1754 Clouds 21 1015 56 10000 4.63 250 13:29 07.06.2022
1755 Clouds 20 1016 55 10000 3.6 260 12:39 07.06.2022
1756 Clear 18 1016 65 10000 3.6 270 10:57 07.06.2022
1757 Clear 17 1016 68 10000 3.6 270 09:58 07.06.2022
1758 Clouds 17 1016 73 10000 3.09 260 08:32 07.06.2022
1759 Clouds 16 1016 82 10000 0.51 0 07:22 07.06.2022
1760 Clouds 15 1015 83 10000 0.51 0 05:48 07.06.2022
1761 Clear 15 1016 77 10000 1.54 230 02:28 07.06.2022
1762 Clear 17 1016 72 10000 2.57 240 00:33 07.06.2022
1763 Clear 18 1016 74 10000 1.54 170 23:34 06.06.2022
1764 Clouds 18 1017 70 10000 1.47 228 22:41 06.06.2022
1765 Clear 18 1016 77 10000 1.54 130 21:41 06.06.2022
1766 Clear 20 1016 63 10000 2.57 280 19:59 06.06.2022
1767 Clear 21 1016 63 10000 1.54 260 19:21 06.06.2022
1768 Clear 21 1016 61 10000 2.06 260 18:38 06.06.2022
1769 Clouds 21 1017 60 10000 2.06 260 17:42 06.06.2022
1770 Clear 22 1017 59 10000 3.09 270 16:39 06.06.2022
1771 Clouds 22 1017 56 10000 4.12 200 15:40 06.06.2022
1772 Clouds 21 1017 60 10000 3.6 250 14:40 06.06.2022
1773 Clouds 22 1018 59 10000 3.6 210 13:27 06.06.2022
1774 Clear 22 1018 64 10000 4.12 220 12:38 06.06.2022
1775 Clouds 22 1018 67 10000 3.35 264 12:19 06.06.2022
1776 Clouds 21 1018 68 10000 3.09 220 11:42 06.06.2022
1777 Clouds 18 1019 82 10000 2.06 240 09:41 06.06.2022
1778 Clouds 17 1018 83 10000 3.09 250 08:35 06.06.2022
1779 Clear 16 1018 84 10000 2.57 180 07:37 06.06.2022
1780 Clouds 14 1017 88 10000 2.06 180 05:29 06.06.2022
1781 Clouds 14 1017 88 10000 2.06 180 05:29 06.06.2022
1782 Clouds 15 1017 88 10000 1.54 210 03:47 06.06.2022
1783 Clear 15 1018 87 10000 3.09 240 01:29 06.06.2022
1784 Clouds 16 1018 87 10000 3.09 240 00:42 06.06.2022
1785 Clear 16 1017 84 10000 3.09 230 23:49 05.06.2022
1786 Clear 17 1016 84 10000 4.12 230 22:53 05.06.2022
1787 Clear 19 1015 84 10000 3.09 200 21:26 05.06.2022
1788 Rain 21 1015 73 10000 2.57 190 19:52 05.06.2022
1789 Clear 20 1014 82 10000 2.06 140 18:31 05.06.2022
1790 Clear 21 1014 78 10000 2.06 140 18:31 05.06.2022
1791 Rain 21 1015 82 10000 1.03 0 17:56 05.06.2022
1792 Clouds 20 1014 83 10000 3.09 120 17:27 05.06.2022
1793 Rain 20 1015 83 10000 3.09 170 16:58 05.06.2022
1794 Rain 20 1015 83 10000 3.09 170 16:37 05.06.2022
1795 Rain 20 1015 83 10000 3.09 170 16:37 05.06.2022
1796 Clouds 22 1015 78 10000 3.6 110 14:46 05.06.2022
1797 Rain 19 1016 88 10000 1.03 0 13:21 05.06.2022
1798 Rain 19 1016 82 10000 3.6 20 11:51 05.06.2022
1799 Rain 20 1018 73 10000 2.06 240 10:43 05.06.2022
1800 Rain 20 1017 77 10000 2.06 70 10:23 05.06.2022
1801 Clear 19 1016 81 10000 5.14 90 08:41 05.06.2022
1802 Clear 18 1016 79 10000 5.66 70 08:20 05.06.2022
1803 Mist 14 1017 87 10000 0.51 0 05:23 05.06.2022
1804 Fog 14 1018 87 10000 1.54 60 04:30 05.06.2022
1805 Mist 15 1019 88 2800 1.03 0 01:45 05.06.2022
1806 Mist 15 1019 88 2800 1.03 0 01:45 05.06.2022
1807 Mist 15 1019 88 2800 1.03 0 01:45 05.06.2022
1808 Mist 15 1019 88 2800 1.03 0 01:45 05.06.2022
1809 Mist 15 1019 88 10000 1.03 0 01:22 05.06.2022
1810 Mist 15 1019 88 10000 1.03 0 01:22 05.06.2022
1811 Clear 18 1020 84 10000 2.57 50 22:44 04.06.2022
1812 Clouds 21 1019 76 10000 2.57 20 20:55 04.06.2022
1813 Clouds 23 1019 73 10000 2.06 330 18:53 04.06.2022
1814 Clouds 21 1019 84 10000 2.57 330 16:47 04.06.2022
1815 Clouds 21 1019 86 10000 1.54 330 16:19 04.06.2022
1816 Clouds 20 1019 86 10000 3.6 310 15:22 04.06.2022
1817 Clouds 20 1019 82 10000 2.57 290 13:46 04.06.2022
1818 Rain 19 1019 78 10000 2.06 210 11:23 04.06.2022
1819 Clouds 18 1019 93 10000 1.03 0 10:50 04.06.2022
1820 Mist 18 1018 97 5000 2.06 30 09:45 04.06.2022
1821 Fog 17 1018 80 550 1.54 340 08:44 04.06.2022
1822 Fog 17 1018 80 550 1.54 340 08:44 04.06.2022
1823 Mist 16 1017 87 3800 1.03 0 07:51 04.06.2022
1824 Fog 15 1017 87 1000 1.03 0 05:38 04.06.2022
1825 Mist 16 1017 88 1300 1.03 0 02:36 04.06.2022
1826 Clouds 17 1017 87 10000 1.54 20 00:20 04.06.2022
1827 Rain 17 1016 87 9000 2.06 160 22:41 03.06.2022
1828 Rain 18 1016 86 10000 1.03 0 21:39 03.06.2022
1829 Clear 18 1016 84 10000 4.12 360 20:38 03.06.2022
1830 Clouds 21 1015 77 10000 5.14 360 19:19 03.06.2022
1831 Clear 28 1014 43 10000 4.12 90 16:54 03.06.2022
1832 Clear 28 1015 44 10000 3.09 110 15:40 03.06.2022
1833 Clear 27 1016 45 10000 3.09 0 13:49 03.06.2022
1834 Clear 24 1017 51 10000 4.12 110 11:51 03.06.2022
1835 Clear 19 1018 57 10000 3.09 90 09:53 03.06.2022
1836 Clear 18 1018 57 10000 3.6 90 09:28 03.06.2022
1837 Clear 14 1019 69 10000 1.03 0 07:27 03.06.2022
1838 Clear 12 1019 75 10000 1.03 0 06:45 03.06.2022
1839 Clear 11 1019 76 10000 2.06 100 06:27 03.06.2022
1840 Clear 11 1019 69 10000 0.51 0 02:24 03.06.2022
1841 Clear 13 1020 63 10000 2.06 100 23:34 02.06.2022
1842 Clear 17 1019 45 10000 1.54 20 21:57 02.06.2022
1843 Clear 17 1019 45 10000 1.54 20 21:57 02.06.2022
1844 Clear 20 1019 40 10000 2.57 30 20:25 02.06.2022
1845 Clear 20 1020 38 10000 2.06 10 19:53 02.06.2022
1846 Clear 20 1020 37 10000 2.06 10 19:35 02.06.2022
1847 Clear 21 1020 40 10000 3.6 350 17:59 02.06.2022
1848 Clear 21 1020 42 10000 3.09 310 16:28 02.06.2022
1849 Clear 21 1020 42 10000 2.06 250 14:58 02.06.2022
1850 Clear 20 1021 44 10000 2.06 0 13:30 02.06.2022
1851 Clear 19 1021 46 10000 2.57 0 12:42 02.06.2022
1852 Clear 17 1020 54 10000 2.57 0 10:31 02.06.2022
1853 Clear 15 1020 58 10000 2.06 20 09:28 02.06.2022
1854 Clear 13 1020 66 10000 2.57 340 08:29 02.06.2022
1855 Clear 12 1020 72 10000 2.57 340 07:48 02.06.2022
1856 Clear 9 1019 79 10000 1.03 350 05:33 02.06.2022
1857 Clear 12 1018 68 10000 1.54 350 03:48 02.06.2022
1858 Clear 14 1016 64 10000 1.03 350 00:31 02.06.2022
1859 Clear 16 1015 56 10000 2.06 310 22:55 01.06.2022
1860 Clear 18 1015 48 10000 2.57 270 21:45 01.06.2022
1861 Clear 19 1014 41 10000 3.09 280 21:22 01.06.2022
1862 Clear 20 1014 37 10000 3.6 280 20:38 01.06.2022
1863 Clear 22 1014 35 10000 4.63 260 19:48 01.06.2022
1864 Clear 22 1014 36 10000 5.14 270 18:19 01.06.2022
1865 Clear 22 1014 39 10000 4.63 270 16:46 01.06.2022
1866 Clear 22 1014 35 10000 6.17 240 15:39 01.06.2022
1867 Clear 22 1014 35 10000 6.69 260 14:31 01.06.2022
1868 Clear 22 1015 37 10000 6.17 240 12:46 01.06.2022
1869 Clear 20 1015 53 10000 2.57 200 10:41 01.06.2022
1870 Clear 16 1015 72 10000 2.57 170 09:26 01.06.2022
1871 Clear 13 1015 82 10000 2.57 130 07:57 01.06.2022
1872 Clear 9 1015 91 10000 3.6 100 06:49 01.06.2022
1873 Clear 11 1014 85 10000 1.54 320 01:44 01.06.2022
1874 Clouds 14 1014 76 10000 3.09 130 23:47 31.05.2022
1875 Clouds 14 1013 71 10000 2.06 140 22:38 31.05.2022
1876 Clouds 14 1013 71 10000 2.06 140 22:38 31.05.2022
1877 Clear 15 1012 64 10000 2.06 180 21:46 31.05.2022
1878 Clear 20 1012 37 10000 2.57 230 20:57 31.05.2022
1879 Rain 20 1012 37 10000 2.57 230 20:33 31.05.2022
1880 Rain 20 1011 40 10000 5.14 310 18:57 31.05.2022
1881 Clouds 21 1011 43 10000 5.14 300 17:51 31.05.2022
1882 Clouds 21 1011 44 10000 5.14 300 17:31 31.05.2022
1883 Clear 21 1011 40 10000 2.57 170 15:42 31.05.2022
1884 Clear 22 1012 39 10000 3.09 190 14:34 31.05.2022
1885 Clear 20 1013 42 10000 3.09 130 12:22 31.05.2022
1886 Clear 19 1013 45 10000 4.12 130 11:42 31.05.2022
1887 Clear 15 1013 64 10000 2.57 130 09:50 31.05.2022
1888 Clear 10 1014 81 10000 2.57 90 07:41 31.05.2022
1889 Clear 10 1014 81 10000 2.57 90 07:41 31.05.2022
1890 Clear 5 1014 89 10000 1.03 340 05:24 31.05.2022
1891 Clear 7 1014 83 10000 1.03 0 02:33 31.05.2022
1892 Clear 10 1014 73 10000 1.54 20 23:29 30.05.2022
1893 Clear 10 1014 71 10000 1.54 20 22:59 30.05.2022
1894 Clear 11 1014 69 10000 1.54 10 22:31 30.05.2022
1895 Clear 13 1013 58 10000 1.54 10 21:35 30.05.2022
1896 Clear 17 1013 42 10000 3.6 340 20:31 30.05.2022
1897 Clear 17 1012 46 10000 4.12 300 19:26 30.05.2022
1898 Clear 18 1012 43 10000 4.12 290 17:43 30.05.2022
1899 Clear 18 1012 43 10000 2.57 300 16:54 30.05.2022
1900 Clear 18 1013 41 10000 3.6 300 15:43 30.05.2022
1901 Clear 17 1012 47 10000 1.54 0 12:44 30.05.2022
1902 Clear 14 1012 66 10000 1.03 0 10:57 30.05.2022
1903 Clear 12 1012 78 10000 1.54 0 09:39 30.05.2022
1904 Clouds 5 1011 90 7000 1.03 0 07:24 30.05.2022
1905 Mist 3 1010 92 9000 1.03 60 05:51 30.05.2022
1906 Mist 5 1011 91 4600 2.06 110 02:36 30.05.2022
1907 Mist 9 1011 82 10000 1.03 0 23:28 29.05.2022
1908 Clear 9 1011 79 10000 1.54 100 22:39 29.05.2022
1909 Clear 11 1011 74 10000 2.06 260 21:31 29.05.2022
1910 Clear 12 1011 72 10000 2.57 220 19:48 29.05.2022
1911 Clear 12 1011 70 10000 2.06 220 19:27 29.05.2022
1912 Rain 12 1012 70 10000 2.57 210 17:48 29.05.2022
1913 Rain 11 1012 77 7000 5.66 130 15:50 29.05.2022
1914 Rain 11 1012 76 7000 5.66 130 15:32 29.05.2022
1915 Rain 13 1012 58 10000 4.12 80 14:31 29.05.2022
1916 Clouds 13 1013 60 10000 5.14 320 11:55 29.05.2022
1917 Clear 13 1013 63 10000 1.54 190 10:44 29.05.2022
1918 Clear 12 1013 69 10000 1.03 0 09:52 29.05.2022
1919 Clear 5 1013 88 10000 1.03 0 06:57 29.05.2022
1920 Clear 4 1014 89 10000 0.51 0 04:49 29.05.2022
1921 Clear 4 1014 88 10000 1.03 360 04:31 29.05.2022
1922 Clear 7 1015 80 10000 0.51 0 00:35 29.05.2022
1923 Clear 8 1016 74 10000 0.51 360 23:42 28.05.2022
1924 Clear 10 1016 64 10000 0.51 0 22:46 28.05.2022
1925 Clear 12 1016 54 10000 1.03 20 21:42 28.05.2022
1926 Clear 16 1016 41 10000 4.63 320 19:52 28.05.2022
1927 Clear 16 1016 40 10000 5.66 340 19:18 28.05.2022
1928 Clear 17 1017 42 10000 5.66 290 17:48 28.05.2022
1929 Clear 17 1017 44 10000 4.63 310 16:53 28.05.2022
1930 Clear 17 1017 44 10000 6.17 290 15:44 28.05.2022
1931 Clear 16 1019 46 10000 6.17 280 14:37 28.05.2022
1932 Clouds 15 1019 56 10000 4.63 280 13:21 28.05.2022
1933 Clouds 14 1019 57 10000 5.66 300 12:40 28.05.2022
1934 Clouds 13 1020 63 10000 7.2 290 11:26 28.05.2022
1935 Clouds 13 1020 63 10000 6.17 300 10:25 28.05.2022
1936 Clouds 12 1020 66 10000 6.17 280 09:22 28.05.2022
1937 Clear 9 1020 79 10000 2.57 280 07:23 28.05.2022
1938 Clear 7 1019 84 10000 2.06 260 06:32 28.05.2022
1939 Clear 8 1019 79 10000 2.06 250 03:53 28.05.2022
1940 Clear 12 1019 85 10000 2.57 260 00:33 28.05.2022
1941 Clear 12 1019 88 10000 3.09 270 23:34 27.05.2022
1942 Rain 14 1019 85 10000 3.09 250 22:23 27.05.2022
1943 Clouds 15 1019 84 10000 5.14 270 20:57 27.05.2022
1944 Clear 15 1019 83 10000 5.14 250 20:26 27.05.2022
1945 Clear 15 1019 83 10000 4.12 250 19:51 27.05.2022
1946 Clouds 15 1019 85 10000 4.63 260 19:32 27.05.2022
1947 Rain 14 1019 87 10000 5.14 290 18:24 27.05.2022
1948 Clouds 17 1019 74 10000 7.72 250 16:42 27.05.2022
1949 Clouds 17 1019 72 10000 7.72 260 15:34 27.05.2022
1950 Clouds 17 1021 76 10000 8.23 260 14:44 27.05.2022
1951 Clouds 16 1020 72 10000 7.2 250 13:23 27.05.2022
1952 Clouds 17 1020 70 10000 6.17 230 11:34 27.05.2022
1953 Clouds 17 1020 70 10000 6.17 240 10:57 27.05.2022
1954 Clouds 16 1021 71 10000 7.2 240 10:31 27.05.2022
1955 Clouds 15 1021 73 10000 7.2 250 09:37 27.05.2022
1956 Clouds 14 1021 77 10000 4.12 230 08:19 27.05.2022
1957 Clear 11 1021 82 10000 2.57 190 05:47 27.05.2022
1958 Clear 12 1022 80 10000 3.09 210 02:47 27.05.2022
1959 Clear 13 1022 76 10000 2.06 200 00:37 27.05.2022
1960 Clear 15 1022 68 10000 2.57 220 22:43 26.05.2022
1961 Clear 16 1022 65 10000 2.57 240 21:42 26.05.2022
1962 Clouds 17 1022 58 10000 4.12 240 20:59 26.05.2022
1963 Clear 19 1022 57 10000 4.63 250 19:24 26.05.2022
1964 Clear 19 1022 57 10000 4.63 250 19:24 26.05.2022
1965 Clouds 19 1022 57 10000 5.14 260 18:18 26.05.2022
1966 Clouds 18 1023 58 10000 5.66 260 16:42 26.05.2022
1967 Clear 19 1023 57 10000 6.17 260 15:46 26.05.2022
1968 Clouds 18 1023 61 10000 5.66 280 14:46 26.05.2022
1969 Clouds 18 1023 58 10000 6.69 260 12:50 26.05.2022
1970 Clouds 18 1023 61 10000 6.17 260 11:29 26.05.2022
1971 Clouds 18 1022 59 10000 6.69 250 10:19 26.05.2022
1972 Clouds 18 1022 59 10000 6.69 250 09:33 26.05.2022
1973 Clear 16 1022 61 10000 5.14 230 08:35 26.05.2022
1974 Clear 12 1020 74 10000 2.06 210 05:22 26.05.2022
1975 Clear 13 1020 67 10000 2.06 220 00:57 26.05.2022
1976 Clear 13 1019 67 10000 1.03 0 23:40 25.05.2022
1977 Clear 15 1019 57 10000 2.57 240 22:22 25.05.2022
1978 Clear 16 1018 51 10000 2.06 250 21:33 25.05.2022
1979 Clear 19 1018 39 10000 4.63 250 20:37 25.05.2022
1980 Clear 20 1017 40 10000 5.66 240 19:29 25.05.2022
1981 Clear 21 1017 39 10000 7.72 260 17:43 25.05.2022
1982 Clear 21 1017 39 10000 6.17 250 16:38 25.05.2022
1983 Clear 20 1017 42 10000 5.66 260 15:54 25.05.2022
1984 Clear 20 1017 44 10000 5.14 240 14:54 25.05.2022
1985 Clear 19 1017 49 10000 3.09 240 14:33 25.05.2022
1986 Clear 18 1017 52 10000 4.63 280 13:54 25.05.2022
1987 Clouds 19 1017 52 10000 3.09 260 12:38 25.05.2022
1988 Clear 17 1017 61 10000 2.06 0 10:49 25.05.2022
1989 Clear 16 1017 67 10000 1.54 270 10:18 25.05.2022
1990 Rain 13 1016 82 10000 2.09 276 08:37 25.05.2022
1991 Rain 13 1015 82 10000 1.45 270 07:23 25.05.2022
1992 Rain 13 1013 84 10000 1.54 150 04:22 25.05.2022
1993 Clear 14 1013 78 10000 2.57 110 00:19 25.05.2022
1994 Clear 15 1012 75 10000 0.51 0 23:43 24.05.2022
1995 Clear 15 1012 75 10000 1.03 0 22:32 24.05.2022
1996 Clear 16 1011 67 10000 1.54 290 21:41 24.05.2022
1997 Clear 17 1011 62 10000 1.54 290 21:21 24.05.2022
1998 Clear 18 1011 56 10000 2.57 270 20:23 24.05.2022
1999 Clear 19 1010 51 10000 4.12 270 18:56 24.05.2022
2000 Clear 19 1010 51 10000 4.12 270 18:56 24.05.2022
2001 Clouds 19 1010 59 10000 5.14 290 16:53 24.05.2022
2002 Clouds 18 1010 60 10000 5.14 260 16:23 24.05.2022
2003 Clouds 19 1009 61 10000 4.63 260 14:59 24.05.2022
2004 Clouds 18 1009 67 10000 6.69 260 14:21 24.05.2022
2005 Rain 15 1009 82 10000 3.6 250 12:50 24.05.2022
2006 Rain 15 1009 82 10000 3.6 250 12:50 24.05.2022
2007 Rain 16 1008 81 10000 3.6 220 11:40 24.05.2022
2008 Rain 16 1007 82 10000 2.57 230 09:46 24.05.2022
2009 Clouds 16 1007 83 10000 3.6 230 08:50 24.05.2022
2010 Clouds 15 1005 88 10000 2.57 200 06:58 24.05.2022
2011 Clouds 16 1005 86 10000 2.57 170 04:30 24.05.2022
2012 Clouds 16 1005 85 10000 3.6 170 02:37 24.05.2022
2013 Clouds 16 1005 84 10000 2.57 160 01:42 24.05.2022
2014 Clouds 17 1004 83 10000 4.63 170 23:33 23.05.2022
2015 Rain 17 1002 84 10000 5.14 140 21:57 23.05.2022
2016 Rain 17 1002 84 10000 5.14 140 21:39 23.05.2022
2017 Rain 19 1003 79 10000 6.17 150 20:41 23.05.2022
2018 Rain 21 1004 70 10000 5.66 190 19:33 23.05.2022
2019 Clear 22 1003 67 10000 6.17 160 18:59 23.05.2022
2020 Clear 22 1003 66 10000 6.17 160 18:35 23.05.2022
2021 Clear 21 1002 74 10000 6.17 120 17:38 23.05.2022
2022 Rain 22 1006 57 10000 4.12 140 15:37 23.05.2022
2023 Clear 21 1007 58 10000 6.17 130 13:32 23.05.2022
2024 Clear 18 1007 71 10000 5.14 130 11:34 23.05.2022
2025 Clear 16 1007 82 10000 7.2 110 10:42 23.05.2022
2026 Rain 15 1010 67 10000 1.54 150 09:39 23.05.2022
2027 Rain 15 1009 71 10000 2.57 110 08:38 23.05.2022
2028 Clear 12 1008 79 10000 3.6 100 06:47 23.05.2022
2029 Clear 12 1009 80 10000 3.09 110 06:22 23.05.2022
2030 Clear 13 1010 77 10000 2.57 100 02:35 23.05.2022
2031 Clear 14 1011 79 10000 2.06 100 01:42 23.05.2022
2032 Clear 14 1012 76 10000 1.03 0 00:44 23.05.2022
2033 Clear 16 1012 68 10000 2.57 50 22:43 22.05.2022
2034 Clear 17 1012 65 10000 2.57 60 21:56 22.05.2022
2035 Clear 18 1012 63 10000 2.06 60 21:36 22.05.2022
2036 Clear 19 1013 59 10000 1.54 70 20:37 22.05.2022
2037 Clear 20 1013 54 10000 1.54 30 20:18 22.05.2022
2038 Clear 22 1013 47 10000 2.57 340 18:57 22.05.2022
2039 Clear 23 1013 45 10000 2.06 0 18:28 22.05.2022
2040 Clear 22 1013 44 10000 3.09 350 17:39 22.05.2022
2041 Clear 22 1014 43 10000 3.09 360 16:50 22.05.2022
2042 Clear 22 1015 46 10000 1.54 0 14:53 22.05.2022
2043 Clear 21 1016 48 10000 2.57 0 13:56 22.05.2022
2044 Clear 21 1016 49 10000 3.09 320 12:52 22.05.2022
2045 Clouds 20 1017 53 10000 1.54 0 11:52 22.05.2022
2046 Clear 18 1017 59 10000 1.03 0 10:24 22.05.2022
2047 Clear 16 1018 66 10000 0.51 0 09:19 22.05.2022
2048 Clear 11 1018 86 10000 2.06 90 07:22 22.05.2022
2049 Clear 10 1018 87 10000 2.57 100 06:27 22.05.2022
2050 Clear 10 1019 85 10000 2.57 90 02:50 22.05.2022
2051 Clear 12 1020 80 10000 0.51 0 00:44 22.05.2022
2052 Clear 13 1020 72 10000 0.51 80 23:55 21.05.2022
2053 Clear 14 1020 69 10000 0.51 0 23:21 21.05.2022
2054 Clear 14 1020 69 10000 0.51 0 23:21 21.05.2022
2055 Clear 15 1020 65 10000 1.54 280 21:47 21.05.2022
2056 Clear 16 1020 59 10000 2.57 320 21:26 21.05.2022
2057 Clear 18 1020 53 10000 4.12 300 20:27 21.05.2022
2058 Clear 18 1020 52 10000 4.63 310 19:43 21.05.2022
2059 Clear 19 1021 51 10000 5.66 300 18:21 21.05.2022
2060 Clear 19 1021 54 10000 6.17 290 16:55 21.05.2022
2061 Clouds 20 1023 53 10000 7.2 280 14:38 21.05.2022
2062 Clouds 19 1022 57 10000 6.17 280 13:54 21.05.2022
2063 Clouds 18 1022 59 10000 7.2 280 12:57 21.05.2022
2064 Clouds 18 1022 62 10000 6.69 290 12:37 21.05.2022
2065 Clouds 17 1023 66 10000 6.17 270 10:45 21.05.2022
2066 Clouds 15 1023 72 10000 4.63 290 09:49 21.05.2022
2067 Clouds 14 1022 74 10000 5.14 290 08:58 21.05.2022
2068 Clouds 14 1022 76 10000 5.66 300 08:34 21.05.2022
2069 Clouds 13 1022 87 10000 4.09 289 05:28 21.05.2022
2070 Clouds 18 1018 85 10000 5.66 280 00:58 21.05.2022
2071 Clouds 18 1016 88 10000 6.96 278 23:22 20.05.2022
2072 Clear 20 1015 90 10000 2.06 160 22:24 20.05.2022
2073 Rain 19 1016 89 10000 2.06 100 21:49 20.05.2022
2074 Clear 20 1015 94 10000 3.6 110 20:58 20.05.2022
2075 Rain 20 1015 94 10000 3.09 150 20:29 20.05.2022
2076 Thunderstorm 18 1016 94 10000 5.14 120 19:27 20.05.2022
2077 Rain 29 1013 45 10000 2.57 280 18:47 20.05.2022
2078 Clear 30 1015 46 10000 5.14 190 17:37 20.05.2022
2079 Clear 30 1016 44 10000 4.63 210 16:20 20.05.2022
2080 Clouds 30 1016 48 10000 4.44 221 15:53 20.05.2022
2081 Clear 29 1019 52 10000 1.54 90 14:31 20.05.2022
2082 Clear 27 1020 60 10000 1.54 0 13:56 20.05.2022
2083 Clear 24 1022 71 10000 1.54 350 11:45 20.05.2022
2084 Clear 21 1022 80 10000 1.54 150 10:23 20.05.2022
2085 Clear 18 1022 85 10000 2.06 110 08:45 20.05.2022
2086 Clear 16 1022 88 10000 1.54 80 07:18 20.05.2022
2087 Clear 15 1023 89 10000 2.57 90 06:34 20.05.2022
2088 Clear 15 1022 91 10000 3.09 130 04:59 20.05.2022
2089 Clear 16 1022 92 10000 4.12 120 00:54 20.05.2022
2090 Thunderstorm 17 1024 87 10000 4.63 280 22:48 19.05.2022
2091 Rain 17 1023 85 10000 7.72 350 22:21 19.05.2022
2092 Thunderstorm 20 1022 64 10000 15.95 330 21:48 19.05.2022
2093 Clear 25 1020 53 10000 0.51 0 21:22 19.05.2022
2094 Clouds 27 1019 47 10000 1.54 360 20:39 19.05.2022
2095 Clear 29 1019 39 10000 2.06 200 19:52 19.05.2022
2096 Clouds 30 1019 32 10000 3.6 190 18:31 19.05.2022
2097 Clear 29 1020 35 10000 2.57 200 16:51 19.05.2022
2098 Clear 30 1021 34 10000 3.09 200 15:19 19.05.2022
2099 Clear 28 1021 36 10000 3.09 170 14:25 19.05.2022
2100 Clear 27 1021 39 10000 2.57 140 13:23 19.05.2022
2101 Clear 23 1022 47 10000 4.12 130 11:29 19.05.2022
2102 Clear 19 1023 52 10000 4.12 130 09:28 19.05.2022
2103 Clear 15 1023 67 10000 1.54 90 07:52 19.05.2022
2104 Clear 12 1023 76 10000 1.54 100 06:18 19.05.2022
2105 Clear 15 1023 73 10000 3.09 100 02:23 19.05.2022
2106 Clear 17 1023 69 10000 4.12 90 23:57 18.05.2022
2107 Clear 19 1023 62 10000 3.6 100 22:47 18.05.2022
2108 Clear 20 1023 56 10000 3.6 100 22:24 18.05.2022
2109 Clear 21 1023 52 10000 3.09 110 21:30 18.05.2022
2110 Clear 23 1023 49 10000 3.6 100 20:47 18.05.2022
2111 Clear 24 1023 43 10000 2.57 90 20:18 18.05.2022
2112 Clear 25 1023 42 10000 2.06 110 18:33 18.05.2022
2113 Clear 26 1023 41 10000 4.12 110 17:41 18.05.2022
2114 Clear 26 1023 44 10000 4.63 90 17:23 18.05.2022
2115 Clear 26 1023 41 10000 2.57 0 16:34 18.05.2022
2116 Clear 27 1023 42 10000 2.06 0 15:41 18.05.2022
2117 Clear 25 1024 43 10000 2.57 0 14:35 18.05.2022
2118 Clear 25 1024 44 10000 1.54 0 13:41 18.05.2022
2119 Clear 24 1024 51 10000 2.06 0 12:43 18.05.2022
2120 Clear 23 1025 56 10000 2.57 150 11:34 18.05.2022
2121 Clear 21 1025 62 10000 2.57 120 10:56 18.05.2022
2122 Clear 21 1025 62 10000 2.57 120 10:56 18.05.2022
2123 Clear 18 1025 73 10000 2.06 80 09:31 18.05.2022
2124 Clear 15 1024 82 10000 2.06 90 07:36 18.05.2022
2125 Clear 14 1023 85 10000 2.57 100 06:41 18.05.2022
2126 Clear 14 1022 81 10000 1.03 0 01:22 18.05.2022
2127 Clear 15 1022 82 10000 0.51 0 00:23 18.05.2022
2128 Clear 19 1021 60 10000 1.03 360 21:57 17.05.2022
2129 Clear 20 1021 60 10000 2.57 320 21:20 17.05.2022
2130 Clear 20 1021 60 10000 2.57 320 21:20 17.05.2022
2131 Clear 22 1020 49 10000 4.12 320 20:19 17.05.2022
2132 Clear 23 1020 51 10000 3.09 300 19:28 17.05.2022
2133 Clear 23 1020 48 10000 4.63 280 17:51 17.05.2022
2134 Clear 23 1021 49 10000 4.63 300 16:59 17.05.2022
2135 Clear 23 1021 50 10000 4.12 300 16:29 17.05.2022
2136 Clear 23 1021 51 10000 3.09 0 15:32 17.05.2022
2137 Clouds 23 1022 52 10000 4.12 290 14:30 17.05.2022
2138 Clouds 22 1022 55 10000 3.6 330 13:35 17.05.2022
2139 Clouds 22 1022 55 10000 3.6 330 13:35 17.05.2022
2140 Clouds 20 1022 62 10000 4.63 290 11:43 17.05.2022
2141 Clear 18 1022 76 10000 3.09 300 09:27 17.05.2022
2142 Clouds 17 1022 82 10000 3.6 290 08:33 17.05.2022
2143 Clouds 15 1021 87 10000 2.57 290 06:48 17.05.2022
2144 Clouds 16 1020 87 10000 2.06 260 03:41 17.05.2022
2145 Rain 16 1020 84 10000 5.66 260 00:43 17.05.2022
2146 Clouds 17 1019 79 10000 2.06 220 22:43 16.05.2022
2147 Clear 18 1019 77 10000 2.57 230 21:41 16.05.2022
2148 Clear 19 1018 70 10000 5.14 240 20:47 16.05.2022
2149 Clear 20 1018 64 10000 5.66 260 19:43 16.05.2022
2150 Clear 20 1018 76 10000 2.57 260 18:20 16.05.2022
2151 Clouds 22 1017 64 10000 4.63 200 15:50 16.05.2022
2152 Clear 23 1019 58 10000 3.09 200 13:56 16.05.2022
2153 Clear 23 1019 61 10000 3.6 180 13:23 16.05.2022
2154 Rain 23 1018 50 10000 4.63 170 11:20 16.05.2022
2155 Clear 19 1018 62 10000 2.06 130 09:30 16.05.2022
2156 Clear 12 1017 82 10000 2.06 130 06:56 16.05.2022
2157 Clear 12 1018 81 10000 0.51 0 03:58 16.05.2022
2158 Clear 15 1017 67 10000 2.06 90 23:30 15.05.2022
2159 Clear 17 1017 60 10000 1.54 80 22:30 15.05.2022
2160 Clear 18 1017 61 10000 2.06 70 21:46 15.05.2022
2161 Clear 22 1017 49 10000 1.54 40 20:54 15.05.2022
2162 Clear 24 1017 33 10000 2.06 40 19:33 15.05.2022
2163 Clear 25 1017 32 10000 2.06 60 17:51 15.05.2022
2164 Clear 25 1019 34 10000 1.54 0 15:59 15.05.2022
2165 Clear 25 1019 37 10000 1.54 0 13:54 15.05.2022
2166 Clear 23 1021 43 10000 3.09 0 12:26 15.05.2022
2167 Clear 23 1021 46 10000 2.06 0 11:39 15.05.2022
2168 Clear 19 1020 57 10000 1.54 130 10:25 15.05.2022
2169 Clear 16 1021 66 10000 1.03 0 08:45 15.05.2022
2170 Clear 9 1020 85 10000 0.51 0 06:58 15.05.2022
2171 Clear 8 1020 88 10000 0.51 0 05:47 15.05.2022
2172 Clear 12 1020 76 10000 1.03 0 00:49 15.05.2022
2173 Clear 14 1020 69 10000 1.03 0 23:39 14.05.2022
2174 Clear 15 1020 65 10000 0.51 0 22:47 14.05.2022
2175 Clear 18 1020 52 10000 1.54 10 21:29 14.05.2022
2176 Clear 20 1019 42 10000 2.57 300 20:51 14.05.2022
2177 Clear 22 1019 37 10000 3.6 310 19:38 14.05.2022
2178 Clear 22 1020 40 10000 4.12 300 19:19 14.05.2022
2179 Clear 23 1020 37 10000 3.6 290 18:41 14.05.2022
2180 Clear 23 1021 36 10000 3.6 320 16:38 14.05.2022
2181 Clear 23 1021 39 10000 2.57 0 15:23 14.05.2022
2182 Clear 23 1022 38 10000 2.06 0 14:33 14.05.2022
2183 Clear 21 1022 46 10000 2.57 290 12:23 14.05.2022
2184 Clear 19 1022 55 10000 1.54 0 10:54 14.05.2022
2185 Clear 18 1022 60 10000 1.54 0 10:20 14.05.2022
2186 Clear 18 1023 62 10000 0.51 0 09:53 14.05.2022
2187 Clear 14 1022 70 10000 1.03 0 08:46 14.05.2022
2188 Clear 7 1021 88 10000 2.57 110 05:43 14.05.2022
2189 Clear 9 1022 81 10000 1.03 70 01:58 14.05.2022
2190 Clear 12 1021 72 10000 1.54 100 23:36 13.05.2022
2191 Clear 13 1021 68 10000 1.03 20 22:57 13.05.2022
2192 Clear 14 1021 63 10000 1.03 360 22:23 13.05.2022
2193 Clear 16 1021 55 10000 1.03 0 21:38 13.05.2022
2194 Clear 18 1020 45 10000 2.57 290 20:44 13.05.2022
2195 Clear 19 1020 39 10000 4.63 310 20:23 13.05.2022
2196 Clear 20 1021 44 10000 5.66 310 19:21 13.05.2022
2197 Clear 21 1019 42 10000 6.17 310 17:50 13.05.2022
2198 Clear 21 1019 43 10000 6.17 300 17:26 13.05.2022
2199 Clear 21 1019 45 10000 6.69 280 16:18 13.05.2022
2200 Clear 21 1019 46 10000 6.69 290 14:54 13.05.2022
2201 Clear 21 1020 46 10000 7.2 280 13:27 13.05.2022
2202 Clouds 20 1020 49 10000 8.75 250 12:25 13.05.2022
2203 Clouds 19 1020 58 10000 5.66 280 10:42 13.05.2022
2204 Clouds 18 1019 65 10000 5.14 270 09:31 13.05.2022
2205 Clear 17 1019 75 10000 3.6 240 08:23 13.05.2022
2206 Clouds 16 1019 79 10000 3.09 220 07:42 13.05.2022
2207 Clouds 16 1018 80 10000 2.06 220 05:59 13.05.2022
2208 Rain 16 1019 76 10000 2.57 250 02:43 13.05.2022
2209 Clear 17 1018 70 10000 2.57 210 23:44 12.05.2022
2210 Clear 18 1018 65 10000 2.06 220 22:44 12.05.2022
2211 Clear 19 1018 62 10000 2.06 210 21:46 12.05.2022
2212 Rain 20 1017 58 10000 1.86 270 20:23 12.05.2022
2213 Clear 22 1018 51 10000 6.17 270 18:41 12.05.2022
2214 Clear 23 1018 48 10000 7.72 260 16:57 12.05.2022
2215 Clear 23 1019 48 10000 7.72 260 15:50 12.05.2022
2216 Clouds 23 1019 51 10000 8.23 260 14:20 12.05.2022
2217 Clouds 22 1019 51 10000 9.26 270 13:24 12.05.2022
2218 Clouds 20 1019 61 10000 4.63 270 10:40 12.05.2022
2219 Clear 19 1018 62 10000 6.17 270 09:19 12.05.2022
2220 Clear 19 1018 62 10000 4.63 260 08:41 12.05.2022
2221 Clear 18 1016 64 10000 3.6 240 07:37 12.05.2022
2222 Clear 16 1015 60 10000 2.06 210 05:32 12.05.2022
2223 Clear 17 1014 65 10000 2.06 150 02:24 12.05.2022
2224 Clear 20 1014 63 10000 2.57 190 23:56 11.05.2022
2225 Clear 21 1013 58 10000 1.54 210 22:31 11.05.2022
2226 Clear 23 1013 53 10000 1.54 240 21:32 11.05.2022
2227 Clear 25 1012 44 10000 2.57 260 20:52 11.05.2022
2228 Clear 27 1013 36 10000 6.17 220 17:56 11.05.2022
2229 Clear 28 1014 37 10000 6.69 240 16:49 11.05.2022
2230 Clear 27 1015 40 10000 6.17 200 14:50 11.05.2022
2231 Clear 27 1015 40 10000 4.63 220 14:26 11.05.2022
2232 Clear 26 1016 40 10000 5.14 210 13:44 11.05.2022
2233 Clear 24 1017 49 10000 5.66 220 11:50 11.05.2022
2234 Clear 20 1017 64 10000 3.09 190 09:54 11.05.2022
2235 Clear 15 1017 83 10000 3.6 100 07:53 11.05.2022
2236 Clear 14 1017 79 10000 2.57 100 04:43 11.05.2022
2237 Clear 16 1018 70 10000 2.06 110 00:41 11.05.2022
2238 Clear 19 1018 62 10000 0.51 200 22:30 10.05.2022
2239 Clear 20 1018 57 10000 1.03 180 21:45 10.05.2022
2240 Clear 22 1017 43 10000 1.54 220 20:48 10.05.2022
2241 Clear 24 1018 41 10000 3.09 210 19:25 10.05.2022
2242 Clear 24 1018 40 10000 4.12 250 17:47 10.05.2022
2243 Clear 25 1019 40 10000 4.12 180 16:41 10.05.2022
2244 Clear 24 1021 41 10000 3.09 180 13:59 10.05.2022
2245 Clear 23 1022 48 10000 2.57 200 12:36 10.05.2022
2246 Clear 22 1022 51 10000 2.57 160 11:49 10.05.2022
2247 Clear 21 1022 57 10000 2.57 190 11:18 10.05.2022
2248 Clear 21 1022 58 10000 2.57 190 11:18 10.05.2022
2249 Clear 18 1022 71 10000 1.54 150 09:57 10.05.2022
2250 Clear 16 1023 77 10000 1.54 130 09:18 10.05.2022
2251 Clear 10 1022 93 10000 2.06 90 06:35 10.05.2022
2252 Clear 11 1023 85 10000 1.03 0 02:48 10.05.2022
2253 Clear 14 1024 78 10000 4.12 100 00:23 10.05.2022
2254 Clear 16 1024 70 10000 2.06 80 22:42 09.05.2022
2255 Clear 18 1023 62 10000 1.54 100 21:48 09.05.2022
2256 Clear 20 1023 55 10000 4.12 120 20:23 09.05.2022
2257 Clear 22 1023 40 10000 1.03 60 18:35 09.05.2022
2258 Clear 22 1023 47 10000 2.06 80 17:33 09.05.2022
2259 Rain 23 1024 43 10000 3.09 80 16:28 09.05.2022
2260 Clear 22 1024 43 10000 2.57 0 15:48 09.05.2022
2261 Clear 22 1024 45 10000 3.6 60 14:46 09.05.2022
2262 Clear 22 1025 47 10000 3.09 50 13:59 09.05.2022
2263 Clear 21 1025 49 10000 2.57 0 13:32 09.05.2022
2264 Clear 20 1026 56 10000 2.06 110 11:53 09.05.2022
2265 Clear 18 1026 63 10000 4.12 80 10:50 09.05.2022
2266 Clear 18 1026 65 10000 3.6 90 10:29 09.05.2022
2267 Clear 12 1025 82 10000 0.51 0 07:57 09.05.2022
2268 Clear 9 1025 92 7000 1.03 350 06:42 09.05.2022
2269 Clear 12 1025 86 10000 1.54 320 02:37 09.05.2022
2270 Clear 12 1025 86 10000 1.54 320 02:37 09.05.2022
2271 Clear 12 1025 86 10000 1.54 320 02:37 09.05.2022
2272 Clear 12 1025 86 10000 1.54 320 02:37 09.05.2022
2273 Clear 15 1025 78 10000 2.06 50 23:29 08.05.2022
2274 Clear 15 1025 77 10000 2.06 50 22:42 08.05.2022
2275 Clear 16 1024 67 10000 0.51 0 21:37 08.05.2022
2276 Clear 18 1023 62 10000 2.57 50 20:25 08.05.2022
2277 Rain 18 1023 64 10000 3.6 50 19:35 08.05.2022
2278 Clouds 19 1022 56 10000 4.63 50 18:49 08.05.2022
2279 Clear 21 1023 45 10000 5.14 40 17:45 08.05.2022
2280 Clear 22 1022 43 10000 1.54 0 16:23 08.05.2022
2281 Clear 21 1022 43 10000 3.6 100 15:24 08.05.2022
2282 Clear 21 1023 42 10000 2.57 0 13:44 08.05.2022
2283 Clear 20 1024 49 10000 4.12 40 11:52 08.05.2022
2284 Clear 18 1024 61 10000 2.57 290 10:27 08.05.2022
2285 Clear 17 1024 69 10000 1.54 310 09:54 08.05.2022
2286 Clear 12 1023 83 10000 1.03 0 08:23 08.05.2022
2287 Mist 7 1022 92 4200 0.51 0 06:21 08.05.2022
2288 Clouds 9 1022 90 7000 1.03 0 03:22 08.05.2022
2289 Clear 10 1022 85 10000 0.51 0 01:19 08.05.2022
2290 Clear 13 1022 76 10000 2.57 100 23:57 07.05.2022
2291 Clear 13 1022 75 10000 2.57 100 23:34 07.05.2022
2292 Clear 15 1022 69 10000 1.54 140 22:46 07.05.2022
2293 Clear 16 1021 62 10000 3.6 140 21:56 07.05.2022
2294 Clear 16 1021 59 10000 3.6 130 21:28 07.05.2022
2295 Clear 19 1020 45 10000 1.54 20 20:25 07.05.2022
2296 Clear 21 1020 35 10000 3.09 10 18:52 07.05.2022
2297 Clear 21 1021 41 10000 3.09 10 16:50 07.05.2022
2298 Clear 20 1021 43 10000 3.6 360 14:54 07.05.2022
2299 Clear 18 1023 53 10000 2.06 0 11:28 07.05.2022
2300 Clear 14 1023 70 10000 2.06 300 09:44 07.05.2022
2301 Clear 11 1023 82 10000 0.51 0 08:30 07.05.2022
2302 Clouds 9 1022 88 10000 1.68 3 07:20 07.05.2022
2303 Mist 7 1022 90 10000 0.51 0 06:42 07.05.2022
2304 Clear 8 1022 87 10000 0.51 0 04:18 07.05.2022
2305 Clear 13 1023 66 10000 2.57 40 23:51 06.05.2022
2306 Clear 13 1023 67 10000 2.57 30 22:40 06.05.2022
2307 Clear 13 1023 69 10000 2.06 360 21:53 06.05.2022
2308 Clear 14 1022 67 10000 1.54 350 21:29 06.05.2022
2309 Clear 17 1022 55 10000 2.06 40 19:47 06.05.2022
2310 Clear 18 1022 54 10000 2.06 30 19:24 06.05.2022
2311 Clear 18 1022 51 10000 2.57 40 18:30 06.05.2022
2312 Clear 18 1022 51 10000 2.06 60 17:34 06.05.2022
2313 Clear 18 1023 52 10000 2.57 50 15:51 06.05.2022
2314 Clear 18 1023 52 10000 2.06 30 15:18 06.05.2022
2315 Clear 17 1023 52 10000 3.6 10 13:45 06.05.2022
2316 Clear 17 1023 54 10000 3.6 40 12:47 06.05.2022
2317 Clear 15 1023 55 10000 3.09 40 11:58 06.05.2022
2318 Clouds 15 1023 57 10000 3.09 20 10:41 06.05.2022
2319 Clear 13 1023 61 10000 2.57 350 09:47 06.05.2022
2320 Clear 12 1023 65 10000 1.54 360 09:18 06.05.2022
2321 Clouds 11 1023 72 10000 2.06 340 07:40 06.05.2022
2322 Clouds 10 1022 84 10000 2.06 350 06:25 06.05.2022
2323 Mist 11 1022 80 3800 0.51 0 02:54 06.05.2022
2324 Fog 12 1022 83 1100 1.03 0 01:57 06.05.2022
2325 Rain 13 1021 90 9000 2.06 300 22:48 05.05.2022
2326 Rain 13 1021 88 10000 2.57 180 21:45 05.05.2022
2327 Rain 13 1020 85 10000 4.63 140 20:34 05.05.2022
2328 Rain 18 1019 55 10000 2.57 30 18:43 05.05.2022
2329 Clouds 19 1019 55 10000 4.12 350 16:40 05.05.2022
2330 Clouds 18 1019 61 10000 2.57 50 14:55 05.05.2022
2331 Clouds 17 1020 71 10000 3.09 360 13:27 05.05.2022
2332 Clear 17 1020 72 10000 2.06 30 12:54 05.05.2022
2333 Clouds 15 1020 83 10000 1.54 0 10:53 05.05.2022
2334 Clouds 13 1019 88 7000 1.03 0 09:40 05.05.2022
2335 Clouds 11 1019 92 6000 1.03 0 08:30 05.05.2022
2336 Clouds 10 1018 90 7000 1.54 100 05:44 05.05.2022
2337 Clouds 10 1017 93 6000 2.06 100 02:18 05.05.2022
2338 Mist 10 1018 92 7000 1.03 0 01:35 05.05.2022
2339 Mist 10 1017 92 3900 1.54 120 23:55 04.05.2022
2340 Mist 11 1017 90 5000 1.03 0 22:50 04.05.2022
2341 Mist 12 1017 86 2200 0.51 0 21:54 04.05.2022
2342 Mist 13 1016 83 6000 1.03 0 21:29 04.05.2022
2343 Clear 15 1016 77 10000 1.03 0 20:30 04.05.2022
2344 Clear 15 1015 76 10000 1.03 0 19:55 04.05.2022
2345 Clear 16 1015 70 10000 1.54 60 19:24 04.05.2022
2346 Clouds 17 1016 69 10000 2.57 50 18:22 04.05.2022
2347 Clouds 17 1016 70 10000 2.57 50 17:58 04.05.2022
2348 Thunderstorm 15 1016 72 10000 3.6 70 15:42 04.05.2022
2349 Rain 17 1016 67 10000 6.69 300 15:24 04.05.2022
2350 Rain 16 1015 63 10000 7.72 140 14:21 04.05.2022
2351 Rain 20 1015 52 10000 2.06 150 13:49 04.05.2022
2352 Clear 19 1016 60 10000 1.54 0 12:33 04.05.2022
2353 Clear 16 1017 70 10000 1.03 0 10:43 04.05.2022
2354 Clear 14 1016 75 10000 1.54 110 09:44 04.05.2022
2355 Clear 12 1016 81 10000 2.06 110 08:48 04.05.2022
2356 Fog 8 1016 93 7000 1.54 80 06:49 04.05.2022
2357 Clear 10 1016 89 10000 2.06 350 02:59 04.05.2022
2358 Clear 11 1016 86 10000 1.03 40 01:24 04.05.2022
2359 Clear 13 1016 80 10000 1.54 60 22:50 03.05.2022
2360 Clear 14 1015 76 10000 1.03 0 21:47 03.05.2022
2361 Clear 15 1014 68 10000 1.03 80 20:56 03.05.2022
2362 Clear 16 1014 69 10000 1.54 90 20:30 03.05.2022
2363 Clear 17 1014 57 10000 2.57 30 18:54 03.05.2022
2364 Clear 17 1014 58 10000 2.57 30 18:34 03.05.2022
2365 Clouds 20 1014 52 10000 4.63 120 17:19 03.05.2022
2366 Thunderstorm 19 1015 55 10000 3.09 100 15:43 03.05.2022
2367 Clear 19 1015 56 10000 3.6 270 13:28 03.05.2022
2368 Clear 18 1015 62 10000 3.09 300 12:30 03.05.2022
2369 Clear 15 1016 70 10000 1.03 0 10:58 03.05.2022
2370 Clear 14 1015 75 10000 0.51 0 09:46 03.05.2022
2371 Clear 10 1015 88 10000 1.03 0 07:59 03.05.2022
2372 Clear 8 1015 91 10000 0.51 360 06:45 03.05.2022
2373 Clear 10 1015 87 10000 1.03 30 01:53 03.05.2022
2374 Clear 12 1015 76 10000 3.09 90 22:45 02.05.2022
2375 Clear 12 1015 75 10000 2.06 80 22:25 02.05.2022
2376 Clear 13 1015 73 10000 1.54 90 21:24 02.05.2022
2377 Clouds 17 1015 58 10000 4.12 60 18:57 02.05.2022
2378 Clouds 17 1015 54 10000 4.63 80 18:25 02.05.2022
2379 Rain 19 1014 48 10000 2.57 20 17:37 02.05.2022
2380 Rain 18 1015 48 10000 1.54 0 16:24 02.05.2022
2381 Rain 19 1015 50 10000 1.54 110 15:38 02.05.2022
2382 Clear 19 1016 52 10000 1.03 0 14:19 02.05.2022
2383 Clouds 18 1016 52 10000 2.57 130 12:45 02.05.2022
2384 Clear 16 1017 58 10000 3.09 110 11:20 02.05.2022
2385 Clear 14 1017 66 10000 1.03 0 09:31 02.05.2022
2386 Clear 10 1017 84 10000 1.03 0 07:57 02.05.2022
2387 Clear 8 1017 87 10000 1.54 40 05:37 02.05.2022
2388 Clear 11 1019 82 10000 1.03 0 00:26 02.05.2022
2389 Clear 11 1019 81 10000 1.54 360 23:52 01.05.2022
2390 Clouds 11 1019 79 10000 2.06 10 22:45 01.05.2022
2391 Clear 12 1019 75 10000 1.54 10 21:30 01.05.2022
2392 Clear 14 1019 69 10000 2.06 340 20:19 01.05.2022
2393 Clear 15 1019 66 10000 1.03 0 19:18 01.05.2022
2394 Clear 15 1019 64 10000 1.54 30 18:50 01.05.2022
2395 Clear 15 1019 63 10000 1.54 310 17:47 01.05.2022
2396 Clear 15 1020 61 10000 1.54 330 16:24 01.05.2022
2397 Clear 15 1020 65 10000 2.06 330 15:43 01.05.2022
2398 Clear 15 1020 67 10000 2.57 310 14:22 01.05.2022
2399 Clouds 13 1021 72 10000 1.54 0 11:41 01.05.2022
2400 Clouds 11 1021 84 10000 1.03 0 09:32 01.05.2022
2401 Clouds 10 1021 88 10000 0.51 0 08:47 01.05.2022
2402 Rain 8 1020 88 9000 2.06 270 05:31 01.05.2022
2403 Clear 10 1021 84 10000 2.06 310 00:43 01.05.2022
2404 Rain 11 1021 77 10000 2.57 240 21:52 30.04.2022
2405 Rain 11 1021 76 10000 2.57 280 21:30 30.04.2022
2406 Clear 13 1020 69 10000 5.66 300 19:47 30.04.2022
2407 Clear 14 1020 67 10000 3.6 10 18:45 30.04.2022
2408 Clouds 14 1020 69 10000 3.09 290 16:54 30.04.2022
2409 Rain 14 1020 62 10000 3.6 0 15:50 30.04.2022
2410 Rain 16 1020 53 10000 3.6 270 14:54 30.04.2022
2411 Clouds 16 1021 51 10000 1.54 0 13:30 30.04.2022
2412 Clear 16 1021 53 10000 1.03 0 11:34 30.04.2022
2413 Clear 14 1021 57 10000 2.06 320 10:55 30.04.2022
2414 Clear 13 1021 64 10000 1.03 0 09:50 30.04.2022
2415 Clear 9 1020 80 10000 1.03 0 07:31 30.04.2022
2416 Clear 9 1022 80 10000 1.03 350 03:34 30.04.2022
2417 Clear 12 1023 64 10000 1.03 0 23:53 29.04.2022
2418 Clear 13 1023 60 10000 3.09 80 22:35 29.04.2022
2419 Clear 14 1023 56 10000 2.06 80 21:54 29.04.2022
2420 Clear 15 1023 53 10000 2.06 70 21:19 29.04.2022
2421 Clear 17 1022 46 10000 2.06 40 19:48 29.04.2022
2422 Clear 18 1024 43 10000 2.57 70 18:47 29.04.2022
2423 Clear 19 1024 38 10000 1.54 0 17:26 29.04.2022
2424 Clear 19 1025 39 10000 2.57 160 15:52 29.04.2022
2425 Clear 19 1025 42 10000 2.06 120 14:34 29.04.2022
2426 Clear 18 1026 41 10000 2.06 0 13:27 29.04.2022
2427 Clear 17 1027 45 10000 1.54 0 11:51 29.04.2022
2428 Clear 12 1027 70 10000 2.06 120 09:48 29.04.2022
2429 Clear 6 1027 81 10000 1.54 110 07:42 29.04.2022
2430 Clear 5 1027 86 10000 0.51 0 07:23 29.04.2022
2431 Clear 4 1027 90 10000 0.51 0 05:55 29.04.2022
2432 Clear 7 1028 77 10000 3.09 120 00:47 29.04.2022
2433 Clear 9 1028 73 10000 1.54 100 23:48 28.04.2022
2434 Clear 9 1028 68 10000 1.54 0 22:45 28.04.2022
2435 Clear 12 1028 61 10000 0.51 0 21:47 28.04.2022
2436 Clear 13 1027 63 10000 1.03 340 21:22 28.04.2022
2437 Clear 15 1027 55 10000 1.54 360 20:37 28.04.2022
2438 Clear 17 1027 36 10000 2.06 50 19:46 28.04.2022
2439 Clear 17 1026 41 10000 3.09 10 19:23 28.04.2022
2440 Clear 18 1026 38 10000 2.57 300 18:37 28.04.2022
2441 Clear 18 1026 41 10000 3.09 40 17:32 28.04.2022
2442 Clear 18 1027 38 10000 3.09 310 16:41 28.04.2022
2443 Clear 18 1027 39 10000 4.12 350 16:19 28.04.2022
2444 Clear 18 1027 39 10000 1.54 0 15:40 28.04.2022
2445 Clear 17 1028 39 10000 2.57 230 14:38 28.04.2022
2446 Clear 17 1028 41 10000 2.06 0 13:19 28.04.2022
2447 Clear 15 1028 52 10000 1.54 260 11:59 28.04.2022
2448 Clear 13 1028 67 10000 1.54 270 10:47 28.04.2022
2449 Clear 12 1028 71 10000 1.03 0 10:26 28.04.2022
2450 Clear 8 1027 82 10000 0.51 0 08:59 28.04.2022
2451 Clouds 5 1027 87 8000 0.51 300 07:37 28.04.2022
2452 Clouds 2 1026 93 6000 0.51 0 06:33 28.04.2022
2453 Clouds 3 1026 93 6000 0.51 0 05:39 28.04.2022
2454 Clouds 3 1026 91 7000 1.03 340 04:40 28.04.2022
2455 Clear 7 1026 84 10000 1.54 110 00:36 28.04.2022
2456 Clear 8 1025 79 10000 1.54 50 22:45 27.04.2022
2457 Clear 10 1025 72 10000 1.54 80 21:57 27.04.2022
2458 Clear 11 1025 68 10000 1.54 80 21:27 27.04.2022
2459 Clear 12 1024 59 10000 1.03 70 20:43 27.04.2022
2460 Clear 14 1024 54 10000 2.57 100 19:39 27.04.2022
2461 Clear 15 1024 53 10000 2.57 100 19:18 27.04.2022
2462 Clear 15 1023 57 10000 3.09 100 18:25 27.04.2022
2463 Clear 15 1023 57 10000 1.03 0 17:26 27.04.2022
2464 Clouds 14 1023 60 10000 2.57 60 15:43 27.04.2022
2465 Clouds 13 1023 73 10000 1.54 0 12:31 27.04.2022
2466 Clouds 11 1023 81 10000 2.57 330 11:23 27.04.2022
2467 Clouds 10 1022 83 10000 2.06 340 09:59 27.04.2022
2468 Clouds 7 1021 91 6000 1.54 320 07:28 27.04.2022
2469 Clouds 7 1020 91 6000 1.54 360 05:50 27.04.2022
2470 Rain 7 1019 92 6000 1.54 70 01:52 27.04.2022
2471 Mist 8 1018 90 5000 1.03 100 00:57 27.04.2022
2472 Rain 8 1018 90 8000 0.51 0 23:58 26.04.2022
2473 Clouds 8 1018 90 10000 0.51 0 23:23 26.04.2022
2474 Clouds 8 1018 90 10000 1.54 200 22:42 26.04.2022
2475 Drizzle 8 1017 89 10000 1.03 0 21:49 26.04.2022
2476 Rain 8 1017 87 10000 2.57 260 20:54 26.04.2022
2477 Rain 8 1016 87 10000 4.63 270 20:34 26.04.2022
2478 Clouds 9 1016 84 10000 1.54 310 19:33 26.04.2022
2479 Rain 10 1015 84 10000 1.54 300 18:51 26.04.2022
2480 Clear 10 1015 83 10000 2.06 340 18:18 26.04.2022
2481 Clear 10 1015 83 10000 2.06 340 18:18 26.04.2022
2482 Clouds 11 1015 82 10000 3.6 300 17:32 26.04.2022
2483 Clouds 10 1014 89 10000 3.6 280 14:46 26.04.2022
2484 Clouds 9 1014 90 10000 5.14 250 13:34 26.04.2022
2485 Rain 9 1013 90 4600 1.03 0 12:22 26.04.2022
2486 Rain 9 1013 89 10000 4.12 100 10:44 26.04.2022
2487 Clouds 8 1012 89 10000 4.12 100 09:36 26.04.2022
2488 Rain 8 1012 92 6000 2.06 100 07:54 26.04.2022
2489 Rain 9 1012 83 10000 3.09 100 04:33 26.04.2022
2490 Clear 9 1013 84 10000 1.54 80 01:54 26.04.2022
2491 Clouds 9 1013 83 10000 3.09 100 00:26 26.04.2022
2492 Clear 10 1013 81 10000 2.06 100 22:49 25.04.2022
2493 Clear 11 1012 78 10000 2.06 70 21:43 25.04.2022
2494 Rain 11 1012 79 10000 1.54 70 20:40 25.04.2022
2495 Rain 13 1011 69 10000 2.06 70 19:34 25.04.2022
2496 Rain 13 1011 68 10000 2.06 50 18:23 25.04.2022
2497 Clouds 13 1011 66 10000 2.06 120 17:23 25.04.2022
2498 Clouds 12 1011 71 10000 2.06 40 15:29 25.04.2022
2499 Clouds 12 1011 74 10000 2.06 40 14:54 25.04.2022
2500 Clouds 11 1010 74 10000 2.06 0 13:41 25.04.2022
2501 Clouds 10 1010 86 10000 2.06 340 11:49 25.04.2022
2502 Clouds 9 1009 89 10000 2.57 360 10:26 25.04.2022
2503 Clouds 8 1008 88 10000 2.06 300 08:47 25.04.2022
2504 Clouds 7 1006 90 10000 2.57 290 06:46 25.04.2022
2505 Clouds 7 1005 89 10000 3.09 330 04:33 25.04.2022
2506 Clouds 8 1004 91 6000 3.6 310 00:58 25.04.2022
2507 Clouds 8 1003 89 9000 2.57 310 23:51 24.04.2022
2508 Clouds 9 1003 89 10000 3.6 310 22:45 24.04.2022
2509 Mist 9 1003 89 8000 1.54 330 22:26 24.04.2022
2510 Clouds 9 1002 89 10000 2.57 310 21:26 24.04.2022
2511 Drizzle 9 1002 89 8000 2.06 300 20:54 24.04.2022
2512 Drizzle 9 1002 89 8000 2.06 300 20:35 24.04.2022
2513 Clouds 9 1001 89 10000 2.57 240 19:48 24.04.2022
2514 Clouds 9 1001 90 10000 3.09 180 18:20 24.04.2022
2515 Clouds 9 1000 90 10000 4.12 190 17:29 24.04.2022
2516 Clouds 9 1000 90 10000 5.14 180 16:59 24.04.2022
2517 Clouds 9 1000 89 10000 5.14 180 16:35 24.04.2022
2518 Drizzle 9 1000 89 7000 3.6 190 15:55 24.04.2022
2519 Clouds 9 1000 89 10000 5.66 160 15:29 24.04.2022
2520 Clouds 9 1000 86 10000 4.63 130 13:57 24.04.2022
2521 Clouds 9 1000 84 10000 3.6 150 13:25 24.04.2022
2522 Drizzle 9 999 88 10000 3.09 250 12:30 24.04.2022
2523 Rain 8 1000 88 9000 2.57 220 11:28 24.04.2022
2524 Rain 8 999 91 3800 4.63 170 10:24 24.04.2022
2525 Rain 9 998 87 9000 1.03 0 09:19 24.04.2022
2526 Rain 9 997 81 10000 2.57 70 06:34 24.04.2022
2527 Clear 8 998 78 10000 3.09 80 03:43 24.04.2022
2528 Clear 9 999 74 10000 3.6 80 01:38 24.04.2022
2529 Clear 11 1000 71 10000 4.63 90 00:22 24.04.2022
2530 Clear 11 1001 69 10000 4.63 90 23:26 23.04.2022
2531 Clear 12 1001 67 10000 4.12 90 22:55 23.04.2022
2532 Clear 12 1002 65 10000 4.63 80 21:51 23.04.2022
2533 Clear 13 1002 64 10000 3.6 80 21:32 23.04.2022
2534 Clear 13 1002 62 10000 4.63 80 20:33 23.04.2022
2535 Clouds 14 1002 62 10000 3.09 80 19:41 23.04.2022
2536 Clouds 14 1002 62 10000 5.66 80 19:18 23.04.2022
2537 Clouds 15 1003 58 10000 3.6 90 18:46 23.04.2022
2538 Clouds 15 1003 60 10000 4.63 70 17:48 23.04.2022
2539 Clouds 14 1003 63 10000 5.14 70 16:50 23.04.2022
2540 Clouds 14 1004 63 10000 5.14 80 16:21 23.04.2022
2541 Clouds 14 1004 64 10000 7.72 90 14:47 23.04.2022
2542 Clouds 12 1005 70 10000 5.66 80 12:22 23.04.2022
2543 Clouds 12 1005 72 10000 5.66 80 10:40 23.04.2022
2544 Clouds 12 1005 72 10000 5.66 80 10:40 23.04.2022
2545 Clouds 9 1005 83 10000 4.12 90 08:42 23.04.2022
2546 Clear 6 1005 87 10000 2.06 70 05:45 23.04.2022
2547 Clear 6 1005 87 10000 1.54 70 03:54 23.04.2022
2548 Clear 9 1005 77 10000 4.12 80 00:46 23.04.2022
2549 Clouds 9 1005 75 10000 3.09 80 23:27 22.04.2022
2550 Clear 10 1004 68 10000 2.06 60 21:59 22.04.2022
2551 Clear 10 1004 67 10000 2.06 60 21:40 22.04.2022
2552 Clear 12 1004 61 10000 2.57 50 20:44 22.04.2022
2553 Clear 12 1003 62 10000 4.63 60 20:25 22.04.2022
2554 Clear 13 1003 59 10000 5.66 60 19:18 22.04.2022
2555 Clouds 14 1003 56 10000 6.69 60 18:34 22.04.2022
2556 Clear 15 1002 52 10000 6.69 60 17:34 22.04.2022
2557 Clear 16 1002 49 10000 5.66 30 16:29 22.04.2022
2558 Clear 16 1001 50 10000 5.14 60 15:31 22.04.2022
2559 Clear 17 1001 48 10000 5.66 80 14:41 22.04.2022
2560 Clouds 16 1002 48 10000 6.17 50 13:42 22.04.2022
2561 Clear 16 1002 50 10000 5.14 60 12:55 22.04.2022
2562 Clear 13 1003 58 10000 6.17 50 11:24 22.04.2022
2563 Clear 12 1003 59 10000 5.66 60 10:58 22.04.2022
2564 Clear 12 1003 60 10000 5.66 60 10:40 22.04.2022
2565 Clear 12 1004 62 10000 3.09 60 10:20 22.04.2022
2566 Clear 10 1004 67 10000 4.12 60 09:30 22.04.2022
2567 Clear 8 1004 73 10000 3.6 50 08:49 22.04.2022
2568 Clear 5 1004 83 10000 1.54 40 06:54 22.04.2022
2569 Clear 7 1007 79 10000 2.57 70 01:41 22.04.2022
2570 Clear 8 1008 77 10000 2.06 10 23:39 21.04.2022
2571 Clear 8 1008 77 10000 2.06 30 22:48 21.04.2022
2572 Clear 9 1008 69 10000 2.57 50 21:43 21.04.2022
2573 Clear 11 1008 66 10000 3.6 50 20:32 21.04.2022
2574 Clear 12 1008 61 10000 3.6 50 19:36 21.04.2022
2575 Clear 13 1008 59 10000 4.63 50 18:32 21.04.2022
2576 Clear 13 1009 58 10000 4.63 60 17:46 21.04.2022
2577 Clear 13 1009 54 10000 4.12 70 16:21 21.04.2022
2578 Clouds 13 1009 55 10000 4.12 40 15:19 21.04.2022
2579 Clouds 14 1009 54 10000 2.57 60 14:29 21.04.2022
2580 Clouds 13 1010 58 10000 4.63 60 13:22 21.04.2022
2581 Clouds 12 1010 61 10000 3.6 0 12:29 21.04.2022
2582 Clouds 9 1011 71 10000 2.06 60 09:58 21.04.2022
2583 Clear 8 1011 76 10000 2.57 360 08:47 21.04.2022
2584 Clouds 6 1011 79 10000 1.54 360 06:45 21.04.2022
2585 Clear 6 1012 77 10000 1.03 50 04:21 21.04.2022
2586 Clear 6 1012 78 10000 0.51 0 03:22 21.04.2022
2587 Clear 7 1012 78 10000 0.51 0 02:44 21.04.2022
2588 Clear 7 1012 78 10000 0.51 0 02:44 21.04.2022
2589 Clear 8 1013 71 10000 1.54 30 00:35 21.04.2022
2590 Clear 9 1013 61 10000 2.06 20 23:40 20.04.2022
2591 Clear 9 1013 61 10000 2.57 20 23:18 20.04.2022
2592 Clear 9 1013 61 10000 3.09 20 22:36 20.04.2022
2593 Clear 10 1013 57 10000 4.12 30 21:47 20.04.2022
2594 Clear 10 1013 54 10000 5.66 20 20:45 20.04.2022
2595 Clear 11 1012 53 10000 5.14 30 20:21 20.04.2022
2596 Clear 12 1012 50 10000 5.14 10 19:46 20.04.2022
2597 Clear 13 1012 45 10000 5.14 40 18:48 20.04.2022
2598 Clear 15 1012 36 10000 2.06 0 17:50 20.04.2022
2599 Clear 15 1012 30 10000 2.06 360 16:39 20.04.2022
2600 Clear 14 1013 32 10000 4.12 10 15:26 20.04.2022
2601 Clear 11 1015 42 10000 2.06 0 12:22 20.04.2022
2602 Clear 10 1015 44 10000 4.12 10 11:42 20.04.2022
2603 Clear 9 1015 51 10000 3.09 80 10:44 20.04.2022
2604 Clear 7 1016 64 10000 2.06 30 09:31 20.04.2022
2605 Clear 5 1016 71 10000 0.51 0 08:40 20.04.2022
2606 Clear 4 1016 78 10000 1.03 0 08:18 20.04.2022
2607 Clear 0 1015 85 10000 0.51 0 06:23 20.04.2022
2608 Clear 2 1015 76 10000 1.54 100 02:34 20.04.2022
2609 Clear 6 1015 63 10000 3.09 90 00:22 20.04.2022
2610 Clear 7 1015 53 10000 2.06 70 22:59 19.04.2022
2611 Clear 7 1015 53 10000 2.06 70 22:59 19.04.2022
2612 Clear 8 1015 49 10000 2.06 60 22:23 19.04.2022
2613 Clear 9 1014 43 10000 2.57 40 21:53 19.04.2022
2614 Clear 10 1013 40 10000 3.09 30 20:59 19.04.2022
2615 Clear 10 1013 40 10000 3.09 30 20:37 19.04.2022
2616 Clear 12 1012 39 10000 5.14 30 19:32 19.04.2022
2617 Clear 15 1011 35 10000 6.69 360 18:31 19.04.2022
2618 Clear 16 1010 35 10000 6.69 350 16:55 19.04.2022
2619 Clear 16 1010 35 10000 6.69 350 16:33 19.04.2022
2620 Clear 16 1011 40 10000 6.17 360 15:59 19.04.2022
2621 Clear 15 1011 43 10000 5.14 320 14:46 19.04.2022
2622 Clear 14 1012 47 10000 5.14 330 12:58 19.04.2022
2623 Clear 14 1012 48 10000 5.14 330 12:36 19.04.2022
2624 Clear 13 1012 48 10000 5.14 320 11:35 19.04.2022
2625 Clear 9 1013 63 10000 2.06 300 09:51 19.04.2022
2626 Clear 2 1013 86 10000 0.51 130 07:49 19.04.2022
2627 Clear 3 1013 77 10000 0.51 0 04:26 19.04.2022
2628 Clear 4 1014 73 10000 0.51 0 02:39 19.04.2022
2629 Clear 8 1015 60 10000 1.03 0 23:51 18.04.2022
2630 Clear 9 1015 55 10000 2.57 70 22:53 18.04.2022
2631 Clear 12 1015 48 10000 1.03 360 21:26 18.04.2022
2632 Clear 14 1015 38 10000 1.54 360 20:39 18.04.2022
2633 Clear 15 1015 33 10000 2.57 350 20:19 18.04.2022
2634 Clear 15 1015 33 10000 3.09 340 19:33 18.04.2022
2635 Clear 15 1015 35 10000 2.06 10 18:49 18.04.2022
2636 Clear 16 1015 35 10000 3.6 10 17:49 18.04.2022
2637 Clear 16 1016 36 10000 2.06 340 17:19 18.04.2022
2638 Clear 16 1016 36 10000 2.06 50 16:39 18.04.2022
2639 Clear 16 1017 36 10000 2.57 0 15:41 18.04.2022
2640 Clear 15 1018 37 10000 2.06 0 14:27 18.04.2022
2641 Clear 14 1018 40 10000 3.09 0 13:24 18.04.2022
2642 Clear 13 1019 40 10000 4.12 90 12:27 18.04.2022
2643 Clear 11 1020 47 10000 3.6 110 10:58 18.04.2022
2644 Clear 9 1020 57 10000 1.03 0 09:53 18.04.2022
2645 Clear 8 1020 62 10000 0.51 0 09:27 18.04.2022
2646 Clear 1 1020 80 10000 1.03 0 07:25 18.04.2022
2647 Clear 3 1022 65 10000 1.54 90 02:45 18.04.2022
2648 Clear 5 1023 55 10000 2.06 60 23:23 17.04.2022
2649 Clear 7 1023 48 10000 2.06 80 22:37 17.04.2022
2650 Clear 9 1023 45 10000 2.06 90 21:34 17.04.2022
2651 Clear 11 1023 32 10000 2.57 70 20:53 17.04.2022
2652 Clear 11 1023 33 10000 3.6 80 20:19 17.04.2022
2653 Clear 13 1023 34 10000 3.09 20 18:58 17.04.2022
2654 Clear 14 1024 34 10000 3.09 0 17:31 17.04.2022
2655 Clear 13 1026 38 10000 4.12 80 15:37 17.04.2022
2656 Clear 13 1026 38 10000 4.12 20 14:46 17.04.2022
2657 Clear 12 1027 42 10000 4.63 10 13:37 17.04.2022
2658 Clear 12 1028 45 10000 4.12 10 12:52 17.04.2022
2659 Clear 9 1029 53 10000 3.6 100 10:59 17.04.2022
2660 Clear 9 1029 57 10000 3.09 110 10:30 17.04.2022
2661 Clear 7 1029 60 10000 1.03 0 09:55 17.04.2022
2662 Clear 6 1030 67 10000 0.51 0 09:21 17.04.2022
2663 Clear 6 1030 66 10000 0.51 0 09:21 17.04.2022
2664 Clear 4 1030 70 10000 1.03 0 08:41 17.04.2022
2665 Clear 0 1030 83 10000 0.51 0 06:32 17.04.2022
2666 Clear 3 1031 71 10000 3.09 50 02:31 17.04.2022
2667 Clear 4 1032 67 10000 2.57 50 00:42 17.04.2022
2668 Clear 4 1031 68 10000 2.06 40 23:38 16.04.2022
2669 Clear 7 1031 57 10000 2.57 30 21:54 16.04.2022
2670 Clear 8 1031 56 10000 2.06 20 21:19 16.04.2022
2671 Clear 11 1029 46 10000 5.66 20 19:30 16.04.2022
2672 Clear 12 1029 43 10000 5.14 10 18:44 16.04.2022
2673 Clear 13 1029 39 10000 5.66 30 17:21 16.04.2022
2674 Clear 13 1029 40 10000 4.63 30 16:19 16.04.2022
2675 Clear 12 1030 41 10000 6.17 360 14:59 16.04.2022
2676 Clear 12 1030 42 10000 6.17 360 14:41 16.04.2022
2677 Clear 12 1030 42 10000 4.63 20 13:50 16.04.2022
2678 Clear 11 1030 41 10000 5.14 10 13:18 16.04.2022
2679 Clouds 9 1030 58 10000 5.66 360 11:50 16.04.2022
2680 Clouds 6 1030 72 10000 5.14 20 10:35 16.04.2022
2681 Clouds 7 1029 74 10000 5.14 40 09:38 16.04.2022
2682 Clouds 7 1029 77 10000 3.6 30 08:52 16.04.2022
2683 Clouds 7 1028 79 10000 4.63 10 07:23 16.04.2022
2684 Clouds 8 1027 77 10000 2.57 360 05:45 16.04.2022
2685 Clouds 7 1027 81 10000 1.03 330 01:49 16.04.2022
2686 Clouds 7 1026 74 10000 1.54 360 23:52 15.04.2022
2687 Clear 8 1026 71 10000 1.54 360 22:51 15.04.2022
2688 Clear 9 1026 68 10000 1.54 30 22:31 15.04.2022
2689 Clear 10 1026 68 10000 1.54 50 21:34 15.04.2022
2690 Clear 11 1025 67 10000 4.12 360 20:38 15.04.2022
2691 Clouds 13 1024 64 10000 6.69 360 19:46 15.04.2022
2692 Clouds 14 1023 60 10000 6.69 10 19:23 15.04.2022
2693 Clear 16 1023 48 10000 7.2 10 18:42 15.04.2022
2694 Clear 16 1023 52 10000 7.2 350 18:22 15.04.2022
2695 Clear 17 1023 49 10000 7.2 320 17:27 15.04.2022
2696 Clear 18 1022 49 10000 7.2 330 16:25 15.04.2022
2697 Clear 18 1023 51 10000 6.69 310 15:52 15.04.2022
2698 Clouds 17 1023 52 10000 6.69 290 14:20 15.04.2022
2699 Clouds 16 1024 65 10000 4.12 320 12:53 15.04.2022
2700 Clouds 15 1024 72 10000 3.6 300 12:26 15.04.2022
2701 Clear 15 1024 76 10000 2.57 330 11:52 15.04.2022
2702 Clouds 13 1024 87 10000 2.57 300 10:48 15.04.2022
2703 Clouds 13 1024 87 10000 1.54 290 10:21 15.04.2022
2704 Mist 11 1023 92 5000 1.03 0 09:23 15.04.2022
2705 Mist 11 1023 92 3100 1.03 0 08:57 15.04.2022
2706 Fog 9 1023 93 1100 1.54 270 06:52 15.04.2022
2707 Clouds 10 1022 93 6000 2.06 330 04:49 15.04.2022
2708 Clear 12 1022 89 10000 3.6 310 00:51 15.04.2022
2709 Clouds 13 1021 85 10000 2.06 10 23:28 14.04.2022
2710 Clouds 14 1021 81 10000 4.12 360 22:46 14.04.2022
2711 Clouds 14 1021 77 10000 5.66 340 22:27 14.04.2022
2712 Clear 14 1021 75 10000 6.17 340 21:53 14.04.2022
2713 Clear 19 1019 55 10000 4.12 340 19:53 14.04.2022
2714 Clear 19 1018 52 10000 4.63 300 19:22 14.04.2022
2715 Clear 21 1018 47 10000 6.17 280 17:48 14.04.2022
2716 Clear 21 1018 47 10000 5.14 290 17:27 14.04.2022
2717 Clear 21 1018 47 10000 4.63 290 16:32 14.04.2022
2718 Clear 20 1018 50 10000 2.06 350 13:55 14.04.2022
2719 Clear 20 1018 52 10000 2.06 0 13:26 14.04.2022
2720 Clear 18 1019 56 10000 2.06 0 12:33 14.04.2022
2721 Clear 17 1019 58 10000 1.54 260 11:47 14.04.2022
2722 Clear 16 1019 64 10000 1.03 0 11:20 14.04.2022
2723 Clear 13 1018 73 10000 1.03 0 10:33 14.04.2022
2724 Clear 12 1018 77 10000 1.54 310 09:52 14.04.2022
2725 Clear 9 1018 87 10000 0.51 340 08:39 14.04.2022
2726 Clear 6 1017 89 10000 0.51 0 06:24 14.04.2022
2727 Clear 8 1017 79 10000 2.57 110 01:49 14.04.2022
2728 Clear 12 1016 68 10000 1.03 50 22:41 13.04.2022
2729 Clear 15 1016 60 10000 1.03 70 21:44 13.04.2022
2730 Clear 17 1016 51 10000 2.06 70 20:48 13.04.2022
2731 Clear 19 1016 40 10000 2.06 100 20:18 13.04.2022
2732 Clear 21 1016 35 10000 2.57 60 18:50 13.04.2022
2733 Clear 21 1015 37 10000 2.57 70 17:54 13.04.2022
2734 Clear 21 1015 38 10000 2.57 100 17:23 13.04.2022
2735 Clear 21 1016 38 10000 3.09 110 16:24 13.04.2022
2736 Clear 21 1016 39 10000 3.6 110 15:31 13.04.2022
2737 Clear 21 1016 39 10000 3.6 120 14:46 13.04.2022
2738 Clear 20 1016 41 10000 3.09 120 13:57 13.04.2022
2739 Clear 18 1016 43 10000 2.57 110 12:58 13.04.2022
2740 Clear 17 1017 46 10000 2.06 110 12:19 13.04.2022
2741 Clear 14 1017 52 10000 1.54 100 10:41 13.04.2022
2742 Clear 10 1016 66 10000 3.09 100 08:49 13.04.2022
2743 Clear 7 1016 75 10000 2.57 110 08:24 13.04.2022
2744 Clear 5 1015 77 10000 2.57 90 06:50 13.04.2022
2745 Clear 6 1015 73 10000 2.06 110 06:24 13.04.2022
2746 Clear 7 1015 69 10000 3.09 100 02:37 13.04.2022
2747 Clear 8 1015 64 10000 1.03 0 00:20 13.04.2022
2748 Clear 11 1014 55 10000 3.09 100 22:45 12.04.2022
2749 Clear 12 1014 51 10000 3.09 100 21:56 12.04.2022
2750 Clear 14 1014 44 10000 2.06 90 20:49 12.04.2022
2751 Clear 14 1014 44 10000 2.06 90 20:49 12.04.2022
2752 Clear 15 1014 37 10000 2.06 110 20:22 12.04.2022
2753 Clear 16 1014 31 10000 3.6 120 19:41 12.04.2022
2754 Clear 18 1014 27 10000 4.63 120 19:19 12.04.2022
2755 Clear 20 1013 28 10000 4.12 130 17:49 12.04.2022
2756 Clear 20 1014 29 10000 4.63 130 16:50 12.04.2022
2757 Clear 20 1014 30 10000 5.14 110 15:39 12.04.2022
2758 Clear 19 1014 31 10000 5.14 100 15:20 12.04.2022
2759 Clear 18 1015 37 10000 4.12 100 13:53 12.04.2022
2760 Clear 17 1015 37 10000 4.63 130 13:27 12.04.2022
2761 Clear 17 1015 37 10000 4.63 130 13:27 12.04.2022
2762 Clear 16 1015 43 10000 4.12 120 12:26 12.04.2022
2763 Clear 15 1016 45 10000 5.14 110 11:39 12.04.2022
2764 Clear 11 1016 56 10000 4.12 120 10:29 12.04.2022
2765 Clear 7 1016 67 10000 2.06 140 08:53 12.04.2022
2766 Clear 1 1016 84 10000 3.09 100 07:21 12.04.2022
2767 Clear 1 1016 82 10000 1.03 0 05:47 12.04.2022
2768 Clear 2 1016 80 10000 3.09 90 02:53 12.04.2022
2769 Clear 6 1017 65 10000 3.09 90 23:25 11.04.2022
2770 Clear 6 1016 62 10000 3.6 90 22:43 11.04.2022
2771 Clear 8 1016 60 10000 4.12 90 21:35 11.04.2022
2772 Clear 10 1016 50 10000 4.12 90 20:37 11.04.2022
2773 Clear 10 1016 50 10000 4.12 90 20:19 11.04.2022
2774 Clear 13 1016 44 10000 3.6 110 19:27 11.04.2022
2775 Clear 13 1016 42 10000 3.6 110 18:56 11.04.2022
2776 Clear 14 1016 39 10000 2.57 140 17:58 11.04.2022
2777 Clear 14 1016 39 10000 3.6 160 17:39 11.04.2022
2778 Clear 14 1017 39 10000 3.09 120 16:36 11.04.2022
2779 Clear 13 1018 42 10000 3.6 140 15:21 11.04.2022
2780 Clear 12 1019 45 10000 4.12 160 13:37 11.04.2022
2781 Clear 11 1019 50 10000 4.63 140 12:40 11.04.2022
2782 Clear 10 1020 50 10000 2.57 100 12:21 11.04.2022
2783 Clear 7 1020 69 10000 3.6 130 10:41 11.04.2022
2784 Clear 5 1021 78 10000 1.03 0 09:57 11.04.2022
2785 Clear 0 1020 90 10000 2.06 110 08:22 11.04.2022
2786 Clear -2 1021 90 10000 3.09 110 04:56 11.04.2022
2787 Clear 1 1021 84 10000 1.03 360 23:55 10.04.2022
2788 Clouds 2 1021 76 10000 0.51 0 22:27 10.04.2022
2789 Clear 3 1021 73 10000 0.51 0 21:52 10.04.2022
2790 Clear 5 1020 70 10000 2.06 280 20:52 10.04.2022
2791 Clouds 7 1020 59 10000 5.14 270 19:57 10.04.2022
2792 Clouds 7 1020 59 10000 4.12 300 19:34 10.04.2022
2793 Clear 7 1020 57 10000 4.63 290 18:48 10.04.2022
2794 Clear 8 1020 57 10000 5.14 280 18:25 10.04.2022
2795 Clear 7 1020 57 10000 6.17 280 17:43 10.04.2022
2796 Clear 8 1020 58 10000 5.66 270 16:52 10.04.2022
2797 Clouds 7 1020 60 10000 6.69 260 15:38 10.04.2022
2798 Clouds 7 1020 59 10000 6.17 270 14:41 10.04.2022
2799 Clouds 7 1020 58 10000 6.17 270 13:22 10.04.2022
2800 Clouds 7 1020 61 10000 6.17 280 12:26 10.04.2022
2801 Clouds 5 1020 64 10000 5.66 280 11:36 10.04.2022
2802 Clouds 5 1020 68 10000 6.69 280 10:58 10.04.2022
2803 Clear 4 1020 75 10000 5.66 280 10:23 10.04.2022
2804 Clear 4 1019 77 10000 5.66 280 09:41 10.04.2022
2805 Clear 2 1019 84 10000 4.12 260 08:26 10.04.2022
2806 Clear 1 1018 87 10000 3.09 250 07:47 10.04.2022
2807 Clear 0 1017 89 10000 2.06 260 06:43 10.04.2022
2808 Clouds 0 1019 88 10000 2.34 254 03:36 10.04.2022
2809 Clouds 2 1016 87 10000 6.17 300 01:29 10.04.2022
2810 Clouds 3 1015 83 10000 2.57 270 23:52 09.04.2022
2811 Clouds 3 1015 80 10000 2.06 250 22:52 09.04.2022
2812 Clear 3 1015 82 10000 2.57 270 21:48 09.04.2022
2813 Clouds 4 1013 78 10000 3.09 300 20:57 09.04.2022
2814 Clouds 4 1014 77 10000 6.69 270 20:26 09.04.2022
2815 Clouds 4 1013 76 10000 4.12 270 19:42 09.04.2022
2816 Clouds 5 1013 75 10000 4.63 330 19:18 09.04.2022
2817 Clouds 5 1013 75 10000 4.63 330 19:18 09.04.2022
2818 Clouds 5 1013 75 10000 4.63 330 19:18 09.04.2022
2819 Clear 7 1012 66 10000 7.72 280 18:21 09.04.2022
2820 Clouds 6 1012 70 10000 5.66 280 17:40 09.04.2022
2821 Rain 7 1011 66 10000 8.75 260 16:53 09.04.2022
2822 Clouds 8 1011 57 10000 7.2 270 15:59 09.04.2022
2823 Clouds 8 1011 57 10000 7.2 270 15:41 09.04.2022
2824 Clouds 6 1011 68 10000 8.75 280 14:44 09.04.2022
2825 Clouds 6 1011 69 10000 9.26 280 14:23 09.04.2022
2826 Clouds 6 1011 74 10000 9.26 270 13:20 09.04.2022
2827 Clouds 5 1011 78 10000 7.72 280 12:50 09.04.2022
2828 Clouds 4 1011 85 10000 7.2 260 11:38 09.04.2022
2829 Clouds 3 1010 87 10000 6.69 250 10:21 09.04.2022
2830 Clouds 3 1009 88 10000 5.14 260 09:42 09.04.2022
2831 Clouds 2 1008 88 10000 5.14 260 08:54 09.04.2022
2832 Clouds 1 1006 90 10000 5.66 270 07:29 09.04.2022
2833 Mist 0 997 92 3700 4.63 320 02:53 09.04.2022
2834 Rain 2 994 92 6000 2.57 340 23:53 08.04.2022
2835 Rain 2 994 92 10000 1.54 40 22:55 08.04.2022
2836 Rain 3 996 90 10000 3.09 330 21:29 08.04.2022
2837 Rain 3 995 91 10000 2.06 10 20:39 08.04.2022
2838 Rain 4 995 89 8000 1.54 20 19:20 08.04.2022
2839 Clouds 4 995 89 10000 1.54 30 18:30 08.04.2022
2840 Rain 5 995 87 10000 1.54 80 17:49 08.04.2022
2841 Rain 5 996 87 10000 1.54 110 17:25 08.04.2022
2842 Rain 5 996 89 10000 1.03 0 16:49 08.04.2022
2843 Rain 5 997 86 10000 1.54 200 15:57 08.04.2022
2844 Rain 5 998 86 10000 1.03 0 15:26 08.04.2022
2845 Rain 6 998 85 10000 2.06 240 14:33 08.04.2022
2846 Rain 7 999 80 10000 2.57 240 13:46 08.04.2022
2847 Rain 7 1000 81 10000 4.12 230 13:27 08.04.2022
2848 Rain 8 1001 63 10000 6.69 240 11:56 08.04.2022
2849 Clouds 8 1001 63 10000 5.14 240 10:33 08.04.2022
2850 Clouds 8 1002 64 10000 6.69 250 09:38 08.04.2022
2851 Clouds 7 1002 66 10000 5.14 250 08:51 08.04.2022
2852 Clear 6 1001 66 10000 5.14 250 06:55 08.04.2022
2853 Clear 7 1000 61 10000 8.23 260 05:18 08.04.2022
2854 Clear 8 997 57 10000 8.75 260 01:27 08.04.2022
2855 Clear 8 996 57 10000 9.26 260 00:25 08.04.2022
2856 Clear 8 996 57 10000 9.26 260 00:25 08.04.2022
2857 Clouds 9 995 74 10000 8.23 250 22:59 07.04.2022
2858 Clouds 10 995 75 10000 8.23 250 22:39 07.04.2022
2859 Clouds 9 994 75 10000 8.75 250 22:21 07.04.2022
2860 Clouds 10 993 76 10000 8.23 250 21:52 07.04.2022
2861 Rain 10 993 78 10000 9.26 240 21:19 07.04.2022
2862 Clear 10 992 77 10000 9.77 230 20:37 07.04.2022
2863 Clouds 11 991 79 10000 11.32 230 18:35 07.04.2022
2864 Clouds 14 990 60 10000 12.35 220 17:27 07.04.2022
2865 Clouds 14 990 60 10000 13.38 230 16:44 07.04.2022
2866 Clouds 14 991 61 10000 11.32 220 16:22 07.04.2022
2867 Clouds 14 991 61 10000 11.32 220 16:22 07.04.2022
2868 Clouds 13 992 65 10000 11.32 220 14:50 07.04.2022
2869 Rain 12 994 73 10000 7.72 200 13:43 07.04.2022
2870 Rain 12 994 71 10000 9.77 200 12:50 07.04.2022
2871 Clouds 11 996 74 10000 8.75 200 11:34 07.04.2022
2872 Clouds 11 998 71 10000 7.72 220 09:37 07.04.2022
2873 Clouds 9 998 81 10000 5.66 210 08:38 07.04.2022
2874 Clouds 8 999 81 10000 4.12 180 06:43 07.04.2022
2875 Clear 9 1001 77 10000 3.6 200 02:54 07.04.2022
2876 Clouds 9 1001 77 10000 3.09 200 02:25 07.04.2022
2877 Clear 10 1002 74 10000 3.09 220 00:27 07.04.2022
2878 Clouds 9 1002 74 10000 2.06 250 22:51 06.04.2022
2879 Clouds 9 1003 68 10000 3.09 260 22:27 06.04.2022
2880 Clouds 10 1002 71 10000 2.06 260 21:44 06.04.2022
2881 Clear 12 1002 62 10000 4.12 260 20:36 06.04.2022
2882 Clear 13 1002 54 10000 4.63 240 19:53 06.04.2022
2883 Clouds 14 1002 54 10000 6.69 240 18:51 06.04.2022
2884 Clouds 15 1003 51 10000 7.72 240 18:32 06.04.2022
2885 Clouds 14 1003 54 10000 6.69 250 17:35 06.04.2022
2886 Clouds 14 1003 59 10000 6.69 250 16:38 06.04.2022
2887 Clouds 14 1004 62 10000 6.17 240 15:48 06.04.2022
2888 Clouds 13 1005 62 10000 7.72 260 15:21 06.04.2022
2889 Clouds 12 1006 75 10000 5.14 250 13:25 06.04.2022
2890 Clouds 11 1007 76 10000 7.2 240 12:27 06.04.2022
2891 Clouds 10 1007 83 10000 3.6 210 10:48 06.04.2022
2892 Clouds 9 1007 85 10000 4.12 210 10:29 06.04.2022
2893 Clouds 9 1007 86 10000 3.6 190 09:40 06.04.2022
2894 Clouds 9 1007 86 10000 4.12 200 08:34 06.04.2022
2895 Clouds 8 1007 88 10000 4.63 190 07:53 06.04.2022
2896 Drizzle 8 1008 87 8000 4.12 210 04:30 06.04.2022
2897 Clouds 8 1009 86 10000 5.14 240 23:54 05.04.2022
2898 Clouds 8 1009 86 10000 5.14 240 22:58 05.04.2022
2899 Clouds 8 1009 86 10000 4.63 240 21:23 05.04.2022
2900 Clouds 8 1008 83 10000 5.66 240 20:26 05.04.2022
2901 Clouds 8 1008 82 10000 4.63 230 19:47 05.04.2022
2902 Clouds 8 1008 84 10000 5.66 250 18:18 05.04.2022
2903 Clouds 8 1008 81 10000 7.2 240 16:55 05.04.2022
2904 Clouds 8 1009 84 10000 6.17 240 16:35 05.04.2022
2905 Clouds 8 1009 81 10000 7.2 240 15:35 05.04.2022
2906 Clouds 7 1009 82 10000 6.69 240 14:37 05.04.2022
2907 Clouds 7 1009 82 10000 5.66 240 13:37 05.04.2022
2908 Rain 6 1009 83 10000 7.2 250 11:51 05.04.2022
2909 Rain 6 1009 83 10000 7.2 250 11:51 05.04.2022
2910 Rain 6 1009 83 10000 7.2 250 11:51 05.04.2022
2911 Rain 6 1009 83 10000 7.2 250 11:51 05.04.2022
2912 Rain 5 1009 85 10000 7.72 250 11:33 05.04.2022
2913 Rain 5 1008 85 10000 6.69 250 10:41 05.04.2022
2914 Clouds 5 1008 82 10000 6.69 240 08:55 05.04.2022
2915 Clouds 4 1007 85 10000 6.69 250 07:24 05.04.2022
2916 Clouds 4 1009 72 10000 8.23 230 02:39 05.04.2022
2917 Clouds 5 1010 64 10000 7.2 240 22:48 04.04.2022
2918 Clouds 5 1010 63 10000 8.75 240 22:29 04.04.2022
2919 Clouds 5 1010 61 10000 4.63 220 21:22 04.04.2022
2920 Clouds 5 1010 60 10000 6.17 230 20:50 04.04.2022
2921 Clouds 5 1010 58 10000 7.2 240 20:22 04.04.2022
2922 Clouds 6 1010 55 10000 7.72 230 19:26 04.04.2022
2923 Rain 6 1010 57 10000 9.77 240 18:37 04.04.2022
2924 Clear 6 1011 49 10000 8.23 240 16:37 04.04.2022
2925 Clear 6 1012 50 10000 8.75 210 15:58 04.04.2022
2926 Clear 6 1012 50 10000 8.75 210 15:33 04.04.2022
2927 Clouds 6 1014 48 10000 8.75 220 14:46 04.04.2022
2928 Clouds 6 1015 49 10000 8.23 250 13:33 04.04.2022
2929 Clouds 5 1016 52 10000 6.69 230 12:23 04.04.2022
2930 Clouds 4 1017 59 10000 6.69 240 11:29 04.04.2022
2931 Clouds -1 1018 75 10000 2.57 170 09:20 04.04.2022
2932 Clear -4 1019 86 10000 3.6 110 05:21 04.04.2022
2933 Clear -3 1020 79 10000 1.54 130 01:36 04.04.2022
2934 Clear 0 1020 64 10000 2.06 220 22:45 03.04.2022
2935 Clouds 1 1020 60 10000 3.09 230 21:48 03.04.2022
2936 Clouds 1 1020 60 10000 3.09 240 21:19 03.04.2022
2937 Clear 3 1019 48 10000 3.6 260 19:51 03.04.2022
2938 Clear 3 1019 49 10000 2.57 320 18:33 03.04.2022
2939 Clear 3 1019 48 10000 3.6 350 17:48 03.04.2022
2940 Clear 4 1019 46 10000 3.09 300 17:21 03.04.2022
2941 Clouds 4 1019 48 10000 3.09 300 16:42 03.04.2022
2942 Clouds 3 1019 49 10000 3.09 0 15:18 03.04.2022
2943 Clouds 3 1020 50 10000 2.06 0 13:57 03.04.2022
2944 Clouds 2 1020 56 10000 4.12 360 12:48 03.04.2022
2945 Clouds 1 1020 66 10000 3.09 360 11:33 03.04.2022
2946 Clouds -1 1019 78 10000 5.14 350 09:39 03.04.2022
2947 Clear -1 1018 82 10000 3.09 340 08:50 03.04.2022
2948 Clear -2 1017 85 10000 2.57 320 05:42 03.04.2022
2949 Clouds 0 1016 84 10000 1.54 350 02:54 03.04.2022
2950 Clouds 1 1015 80 9000 2.57 330 23:22 02.04.2022
2951 Clouds 1 1015 81 10000 2.57 340 22:38 02.04.2022
2952 Clouds 1 1014 78 10000 2.06 360 21:49 02.04.2022
2953 Clouds 1 1014 78 10000 1.54 340 21:19 02.04.2022
2954 Clouds 1 1013 78 10000 3.09 20 20:35 02.04.2022
2955 Clouds 1 1011 82 8000 2.06 340 18:27 02.04.2022
2956 Clouds 1 1011 82 6000 2.57 350 17:53 02.04.2022
2957 Clouds 2 1010 75 10000 3.09 20 16:30 02.04.2022
2958 Clouds 1 1010 81 10000 4.12 350 15:23 02.04.2022
2959 Clouds 0 1010 86 6000 4.63 360 14:51 02.04.2022
2960 Clouds 0 1010 85 5000 4.63 360 13:57 02.04.2022
2961 Clouds 0 1010 85 5000 3.6 10 13:22 02.04.2022
2962 Clouds -1 1009 90 2900 4.63 350 11:54 02.04.2022
2963 Snow -1 1007 89 3200 4.63 350 09:48 02.04.2022
2964 Clouds -1 1005 91 3900 4.12 350 06:58 02.04.2022
2965 Clouds 0 1004 89 5000 2.57 10 03:59 02.04.2022
2966 Snow 0 1004 91 4500 2.57 350 00:27 02.04.2022
2967 Clouds 0 1004 91 3200 2.57 350 23:53 01.04.2022
2968 Clouds 0 1003 92 3200 3.09 350 22:24 01.04.2022
2969 Snow 0 1002 92 2500 4.12 350 20:54 01.04.2022
2970 Snow 0 1001 92 1600 4.12 350 20:32 01.04.2022
2971 Snow 0 1002 92 1800 4.63 350 19:39 01.04.2022
2972 Snow 0 1001 92 1800 5.14 350 18:54 01.04.2022
2973 Snow 0 1000 92 1800 5.14 350 18:35 01.04.2022
2974 Snow 0 1000 92 2200 5.66 350 17:36 01.04.2022
2975 Snow 2 999 89 10000 4.63 350 15:45 01.04.2022
2976 Clouds 2 999 89 10000 4.63 10 14:47 01.04.2022
2977 Clouds 2 999 89 7000 4.63 360 13:38 01.04.2022
2978 Clouds 2 998 89 6000 4.63 350 12:33 01.04.2022
2979 Rain 2 998 89 6000 4.12 350 11:45 01.04.2022
2980 Rain 2 997 89 5000 3.6 360 10:41 01.04.2022
2981 Clouds 2 997 92 5000 4.12 350 09:34 01.04.2022
2982 Rain 2 996 89 6000 3.09 350 07:19 01.04.2022
2983 Clouds 3 995 91 8000 2.06 10 04:56 01.04.2022
2984 Clouds 3 995 86 10000 2.57 360 04:37 01.04.2022
2985 Clouds 5 996 84 10000 1.54 30 02:19 01.04.2022
2986 Clouds 5 996 83 10000 2.06 30 00:46 01.04.2022
2987 Clouds 6 996 81 10000 3.09 60 22:20 31.03.2022
2988 Clouds 6 995 83 10000 3.6 60 21:37 31.03.2022
2989 Clouds 6 995 81 10000 3.09 60 20:43 31.03.2022
2990 Clouds 6 995 83 10000 2.57 50 20:25 31.03.2022
2991 Clouds 7 995 78 10000 4.12 60 18:57 31.03.2022
2992 Clouds 8 995 77 10000 3.6 40 17:55 31.03.2022
2993 Clouds 7 995 80 10000 4.12 30 16:45 31.03.2022
2994 Clouds 8 995 78 10000 3.6 80 15:50 31.03.2022
2995 Clouds 7 995 85 10000 2.57 60 15:21 31.03.2022
2996 Clouds 7 996 83 10000 3.09 90 14:44 31.03.2022
2997 Clouds 6 996 86 10000 2.57 60 12:48 31.03.2022
2998 Clouds 6 997 85 10000 2.57 50 11:29 31.03.2022
2999 Drizzle 5 997 89 7000 2.06 50 10:19 31.03.2022
3000 Drizzle 4 997 91 2700 1.03 0 08:29 31.03.2022
3001 Drizzle 4 997 92 2800 2.57 360 06:21 31.03.2022
3002 Clouds 4 1000 89 10000 2.06 350 00:46 31.03.2022
3003 Clouds 5 1000 86 10000 3.6 350 23:23 30.03.2022
3004 Clouds 5 1000 91 7000 3.6 330 21:43 30.03.2022
3005 Clouds 6 1000 88 7000 3.09 340 21:25 30.03.2022
3006 Clouds 6 999 91 7000 3.6 320 20:21 30.03.2022
3007 Clouds 6 999 91 7000 4.12 310 19:36 30.03.2022
3008 Clouds 7 999 89 7000 3.09 330 18:34 30.03.2022
3009 Clouds 8 999 88 6000 5.14 330 17:48 30.03.2022
3010 Clouds 9 999 89 10000 4.12 300 16:57 30.03.2022
3011 Clouds 9 999 90 10000 4.12 300 16:38 30.03.2022
3012 Clouds 9 1000 85 10000 2.57 300 15:24 30.03.2022
3013 Clouds 9 1001 89 7000 1.03 0 13:44 30.03.2022
3014 Rain 9 1001 87 7000 0.51 0 13:18 30.03.2022
3015 Rain 9 1002 87 8000 1.54 260 11:36 30.03.2022
3016 Rain 9 1002 86 9000 2.57 280 10:31 30.03.2022
3017 Rain 9 1002 85 10000 1.03 0 09:25 30.03.2022
3018 Clouds 8 1002 85 10000 1.03 90 07:33 30.03.2022
3019 Clear 8 1003 84 10000 2.57 120 05:41 30.03.2022
3020 Clouds 8 1004 82 10000 2.57 90 03:59 30.03.2022
3021 Clouds 10 1006 68 10000 1.03 210 00:42 30.03.2022
3022 Clear 12 1006 57 10000 1.54 360 22:34 29.03.2022
3023 Clear 12 1006 56 10000 1.03 0 21:45 29.03.2022
3024 Clear 12 1006 54 10000 3.6 340 20:54 29.03.2022
3025 Clear 13 1006 52 10000 3.6 360 20:19 29.03.2022
3026 Clear 15 1007 48 10000 2.57 330 18:56 29.03.2022
3027 Rain 15 1007 48 10000 4.12 320 18:21 29.03.2022
3028 Clear 16 1007 46 10000 4.12 330 17:35 29.03.2022
3029 Rain 16 1008 47 10000 3.09 320 16:57 29.03.2022
3030 Clear 16 1009 47 10000 3.6 330 15:57 29.03.2022
3031 Clear 16 1009 49 10000 4.63 320 14:52 29.03.2022
3032 Clear 16 1010 49 10000 3.09 330 13:58 29.03.2022
3033 Clear 15 1011 51 10000 2.57 270 12:51 29.03.2022
3034 Clear 14 1012 57 10000 2.57 330 11:43 29.03.2022
3035 Clear 10 1012 61 10000 0.51 0 10:30 29.03.2022
3036 Clear 9 1012 66 10000 1.03 0 09:41 29.03.2022
3037 Clear 6 1013 75 10000 2.06 80 06:58 29.03.2022
3038 Clear 6 1014 68 10000 3.6 100 03:54 29.03.2022
3039 Clear 8 1015 58 10000 2.57 110 00:33 29.03.2022
3040 Clear 10 1016 52 10000 1.03 0 23:22 28.03.2022
3041 Clear 11 1016 50 10000 0.51 300 22:51 28.03.2022
3042 Clear 11 1017 47 10000 0.51 0 22:23 28.03.2022
3043 Clear 14 1017 40 10000 2.06 240 20:54 28.03.2022
3044 Clear 15 1017 38 10000 2.06 250 20:20 28.03.2022
3045 Clear 17 1018 31 10000 2.57 270 19:41 28.03.2022
3046 Clear 18 1018 26 10000 4.63 270 18:54 28.03.2022
3047 Clear 19 1018 28 10000 4.63 270 18:20 28.03.2022
3048 Clear 20 1018 26 10000 5.66 250 17:32 28.03.2022
3049 Clear 21 1019 27 10000 5.14 250 15:54 28.03.2022
3050 Clear 20 1022 30 10000 2.57 260 14:27 28.03.2022
3051 Clear 19 1023 35 10000 2.06 0 13:35 28.03.2022
3052 Clear 17 1024 54 10000 1.54 180 11:57 28.03.2022
3053 Clear 15 1025 69 10000 1.54 130 10:49 28.03.2022
3054 Clear 12 1026 76 10000 1.54 110 09:38 28.03.2022
3055 Clear 13 1026 87 10000 3.09 100 08:46 28.03.2022
3056 Clear 4 1025 100 10000 3.09 100 08:21 28.03.2022
3057 Clear 3 1025 100 10000 1.54 120 07:26 28.03.2022
3058 Clear 6 1026 88 10000 1.03 110 02:46 28.03.2022
3059 Clear 10 1027 74 10000 1.54 360 22:57 27.03.2022
3060 Clear 12 1027 67 10000 2.06 10 21:55 27.03.2022
3061 Clear 13 1027 63 10000 2.06 10 21:36 27.03.2022
3062 Clear 14 1027 61 10000 2.57 340 20:42 27.03.2022
3063 Clear 17 1026 52 10000 2.57 10 19:44 27.03.2022
3064 Clear 17 1027 50 10000 3.09 340 18:47 27.03.2022
3065 Clear 18 1027 48 10000 3.6 360 18:24 27.03.2022
3066 Clear 19 1027 46 10000 2.06 0 17:37 27.03.2022
3067 Clear 19 1027 47 10000 2.06 110 15:55 27.03.2022
3068 Clear 18 1028 50 10000 2.06 0 13:59 27.03.2022
3069 Clear 18 1029 50 10000 2.57 120 13:33 27.03.2022
3070 Clear 15 1030 60 10000 1.03 0 11:41 27.03.2022
3071 Clear 9 1030 71 10000 1.03 0 09:49 27.03.2022
3072 Clear 1 1029 93 10000 0.51 0 07:47 27.03.2022
3073 Clear 3 1029 83 10000 0.51 0 04:49 27.03.2022
3074 Clear 5 1029 74 10000 0.51 0 00:30 27.03.2022
3075 Clear 7 1029 66 10000 0.51 0 22:53 26.03.2022
3076 Clear 8 1029 63 10000 0.51 0 22:25 26.03.2022
3077 Clear 10 1028 57 10000 2.57 60 21:31 26.03.2022
3078 Clear 12 1028 47 10000 1.54 30 19:39 26.03.2022
3079 Clear 15 1028 31 10000 1.54 20 18:44 26.03.2022
3080 Clear 17 1027 27 10000 2.57 20 17:44 26.03.2022
3081 Clear 18 1027 32 10000 3.6 0 16:46 26.03.2022
3082 Clear 18 1028 31 10000 4.12 10 15:43 26.03.2022
3083 Clear 17 1028 33 10000 3.09 360 13:57 26.03.2022
3084 Clear 16 1029 35 10000 2.06 0 13:36 26.03.2022
3085 Clear 16 1029 40 10000 3.6 10 12:31 26.03.2022
3086 Clear 13 1030 46 10000 3.09 0 10:49 26.03.2022
3087 Clear 9 1030 59 10000 1.03 0 09:19 26.03.2022
3088 Clear 3 1030 80 10000 0.51 0 06:56 26.03.2022
3089 Clear 1 1028 79 10000 1.03 350 05:49 26.03.2022
3090 Clear 3 1029 68 10000 1.03 120 02:34 26.03.2022
3091 Clear 8 1028 53 10000 1.03 330 22:47 25.03.2022
3092 Clear 10 1027 45 10000 3.09 10 20:58 25.03.2022
3093 Clear 11 1027 43 10000 3.09 20 20:26 25.03.2022
3094 Clear 13 1026 41 10000 2.57 30 19:19 25.03.2022
3095 Clear 15 1026 35 10000 4.63 360 18:36 25.03.2022
3096 Clear 16 1027 31 10000 5.66 350 17:34 25.03.2022
3097 Clear 17 1027 30 10000 4.63 360 16:27 25.03.2022
3098 Clear 17 1027 29 10000 4.12 350 15:34 25.03.2022
3099 Clear 17 1027 31 10000 5.14 10 13:32 25.03.2022
3100 Clear 14 1028 42 10000 1.54 310 11:25 25.03.2022
3101 Clear 10 1028 54 10000 1.03 0 09:37 25.03.2022
3102 Clear 7 1027 62 10000 0.51 300 08:50 25.03.2022
3103 Clear 5 1037 61 10000 0.51 350 07:42 25.03.2022
3104 Clear 1 1027 76 10000 1.03 350 07:19 25.03.2022
3105 Clear 2 1027 73 10000 0.51 0 02:37 25.03.2022
3106 Clear 6 1026 54 10000 2.57 100 22:59 24.03.2022
3107 Clear 6 1026 52 10000 1.03 90 22:19 24.03.2022
3108 Clear 9 1026 48 10000 0.51 0 20:58 24.03.2022
3109 Clear 11 1026 40 10000 0.51 330 19:49 24.03.2022
3110 Clear 15 1026 29 10000 2.06 310 18:45 24.03.2022
3111 Clear 18 1025 20 10000 3.6 310 17:36 24.03.2022
3112 Clear 17 1035 23 10000 3.6 280 17:36 24.03.2022
3113 Clear 19 1026 24 10000 2.57 300 16:28 24.03.2022
3114 Clear 18 1036 24 10000 3.6 300 14:52 24.03.2022
3115 Clear 18 1027 26 10000 2.06 310 14:22 24.03.2022
3116 Clear 18 1027 30 10000 3.09 290 13:34 24.03.2022
3117 Clear 16 1028 38 10000 2.57 270 12:24 24.03.2022
3118 Clear 14 1028 45 10000 1.03 0 11:27 24.03.2022
3119 Clear 6 1028 64 10000 0.51 0 09:27 24.03.2022
3120 Clear 5 1028 65 10000 0.51 0 08:34 24.03.2022
3121 Clear -2 1027 86 10000 3.09 110 05:30 24.03.2022
3122 Clear -2 1027 86 10000 3.09 110 05:30 24.03.2022
3123 Clear 4 1028 69 10000 0.51 0 23:59 23.03.2022
3124 Clear 7 1028 52 10000 1.54 90 22:19 23.03.2022
3125 Clear 7 1028 51 10000 0.51 0 21:21 23.03.2022
3126 Clear 9 1028 47 10000 0.51 230 20:36 23.03.2022
3127 Clear 12 1028 40 10000 1.54 300 19:28 23.03.2022
3128 Clear 18 1028 24 10000 3.09 300 17:52 23.03.2022
3129 Clear 18 1028 25 10000 2.06 320 17:24 23.03.2022
3130 Clear 18 1028 26 10000 3.09 330 15:43 23.03.2022
3131 Clear 18 1029 27 10000 0.51 0 14:47 23.03.2022
3132 Clear 17 1030 28 10000 1.54 0 13:31 23.03.2022
3133 Clear 13 1031 37 10000 1.54 210 11:24 23.03.2022
3134 Clear 4 1031 65 10000 0 0 08:29 23.03.2022
3135 Clear -1 1030 80 10000 1.54 100 05:50 23.03.2022
3136 Clear -1 1030 80 10000 1.54 100 05:50 23.03.2022
3137 Clear -1 1030 74 10000 0.51 0 02:50 23.03.2022
3138 Clear 3 1030 55 10000 1.54 90 00:26 23.03.2022
3139 Clear 3 1030 55 10000 1.54 90 00:26 23.03.2022
3140 Clear 6 1030 48 10000 1.54 80 21:52 22.03.2022
3141 Clear 7 1030 44 10000 2.06 80 21:23 22.03.2022
3142 Clear 9 1030 40 10000 1.54 100 20:23 22.03.2022
3143 Clear 11 1030 34 10000 2.57 70 19:27 22.03.2022
3144 Clear 14 1030 23 10000 2.06 60 18:48 22.03.2022
3145 Clear 16 1030 18 10000 3.09 90 17:43 22.03.2022
3146 Clear 16 1030 20 10000 3.09 100 16:39 22.03.2022
3147 Clear 17 1030 20 10000 1.54 0 15:42 22.03.2022
3148 Clear 17 1030 21 10000 2.06 0 15:20 22.03.2022
3149 Clear 16 1031 23 10000 3.09 0 14:44 22.03.2022
3150 Clear 16 1031 23 10000 2.06 0 13:42 22.03.2022
3151 Clear 14 1032 29 10000 3.09 110 12:18 22.03.2022
3152 Clear 11 1033 35 10000 3.09 90 11:20 22.03.2022
3153 Clear 6 1033 48 10000 3.09 110 09:28 22.03.2022
3154 Clear -1 1033 74 10000 1.03 0 07:30 22.03.2022
3155 Clear -1 1032 78 10000 0 0 03:58 22.03.2022
3156 Clear 1 1032 72 10000 0.51 200 00:50 22.03.2022
3157 Clear 3 1032 65 10000 0.51 260 22:57 21.03.2022
3158 Clear 5 1032 56 10000 2.06 70 21:37 21.03.2022
3159 Clear 6 1032 55 10000 2.57 70 20:44 21.03.2022
3160 Clear 7 1032 52 10000 1.54 50 20:23 21.03.2022
3161 Clear 7 1032 49 10000 2.06 50 19:47 21.03.2022
3162 Clear 11 1041 37 10000 2.57 60 18:48 21.03.2022
3163 Clear 12 1041 33 10000 2.57 90 17:36 21.03.2022
3164 Clear 13 1041 30 10000 2.57 110 16:59 21.03.2022
3165 Clear 13 1041 29 10000 2.57 110 16:33 21.03.2022
3166 Clear 13 1041 29 10000 2.57 90 15:43 21.03.2022
3167 Clear 13 1041 30 10000 2.06 0 14:37 21.03.2022
3168 Clear 12 1033 34 10000 2.06 0 13:20 21.03.2022
3169 Clear 12 1033 35 10000 2.06 0 13:20 21.03.2022
3170 Clear 10 1034 39 10000 2.57 130 11:59 21.03.2022
3171 Clear 9 1034 42 10000 1.54 0 11:28 21.03.2022
3172 Clear 5 1034 50 10000 3.6 110 09:51 21.03.2022
3173 Clear 0 1033 64 10000 2.57 100 07:39 21.03.2022
3174 Clear -1 1033 69 10000 2.57 90 06:18 21.03.2022
3175 Clear 2 1032 62 10000 4.12 90 01:42 21.03.2022
3176 Clear 5 1032 53 10000 4.63 90 22:57 20.03.2022
3177 Clear 6 1032 52 10000 4.63 80 22:29 20.03.2022
3178 Clear 7 1032 50 10000 4.63 90 21:38 20.03.2022
3179 Clear 8 1032 49 10000 5.66 90 20:56 20.03.2022
3180 Clear 9 1031 48 10000 4.12 80 20:36 20.03.2022
3181 Clear 9 1031 49 10000 3.09 80 19:54 20.03.2022
3182 Clear 10 1031 47 10000 3.09 80 19:24 20.03.2022
3183 Clear 12 1031 41 10000 5.14 80 17:48 20.03.2022
3184 Clear 13 1031 40 10000 4.63 80 17:26 20.03.2022
3185 Clear 14 1031 35 10000 4.12 90 16:36 20.03.2022
3186 Clear 15 1031 36 10000 4.63 100 14:42 20.03.2022
3187 Clear 14 1031 38 10000 6.17 90 13:39 20.03.2022
3188 Clear 12 1031 42 10000 6.69 110 12:19 20.03.2022
3189 Clear 7 1031 54 10000 8.23 110 09:59 20.03.2022
3190 Clear 4 1031 68 10000 3.6 100 08:21 20.03.2022
3191 Clear 2 1040 66 10000 2.57 90 06:37 20.03.2022
3192 Clear 3 1029 63 10000 4.63 100 03:18 20.03.2022
3193 Clear 5 1030 52 10000 5.66 80 00:54 20.03.2022
3194 Clear 5 1031 51 10000 5.14 80 00:34 20.03.2022
3195 Clear 5 1031 48 10000 4.63 70 22:31 19.03.2022
3196 Clear 5 1032 47 10000 5.66 70 21:26 19.03.2022
3197 Clear 5 1033 60 10000 2.06 30 19:29 19.03.2022
3198 Clear 6 1042 55 10000 2.57 50 18:38 19.03.2022
3199 Clear 6 1042 63 10000 3.09 20 17:49 19.03.2022
3200 Clouds 6 1033 72 10000 4.12 40 16:57 19.03.2022
3201 Clouds 5 1035 78 10000 3.09 50 15:29 19.03.2022
3202 Rain 4 1035 93 10000 3.09 30 14:19 19.03.2022
3203 Clouds 10 1035 49 10000 5.66 20 12:56 19.03.2022
3204 Clouds 10 1035 48 10000 5.66 20 12:36 19.03.2022
3205 Clouds 9 1037 57 10000 5.66 30 11:45 19.03.2022
3206 Clear 7 1038 72 10000 2.06 300 09:31 19.03.2022
3207 Mist 1 1039 92 2000 1.54 340 05:44 19.03.2022
3208 Mist 1 1039 92 2000 1.54 340 05:44 19.03.2022
3209 Mist 2 1041 91 2000 2.06 350 02:34 19.03.2022
3210 Mist 3 1041 88 2000 1.54 350 00:32 19.03.2022
3211 Clear 4 1041 84 8000 1.54 20 22:58 18.03.2022
3212 Clear 5 1041 82 8000 1.54 360 22:22 18.03.2022
3213 Clouds 6 1041 79 10000 4.12 30 20:31 18.03.2022
3214 Clouds 7 1040 77 10000 6.17 20 19:25 18.03.2022
3215 Clear 7 1040 75 10000 5.66 20 18:58 18.03.2022
3216 Clear 10 1038 67 10000 6.17 20 16:56 18.03.2022
3217 Clear 10 1038 66 10000 6.17 20 16:24 18.03.2022
3218 Clouds 11 1038 62 10000 5.14 50 14:29 18.03.2022
3219 Clouds 11 1039 64 10000 4.63 30 13:40 18.03.2022
3220 Clouds 9 1038 72 10000 6.17 360 11:37 18.03.2022
3221 Clouds 8 1038 75 10000 4.12 10 10:27 18.03.2022
3222 Clouds 7 1037 79 10000 4.12 10 08:46 18.03.2022
3223 Clouds 6 1036 82 10000 3.6 10 07:26 18.03.2022
3224 Clouds 7 1034 82 10000 4.12 20 05:20 18.03.2022
3225 Clear 7 1033 80 10000 3.6 360 01:50 18.03.2022
3226 Clear 8 1032 76 10000 3.09 340 23:59 17.03.2022
3227 Clear 8 1032 75 10000 1.54 330 22:50 17.03.2022
3228 Clear 8 1031 74 10000 2.57 340 22:19 17.03.2022
3229 Clear 8 1031 73 10000 2.06 330 21:30 17.03.2022
3230 Clear 9 1030 71 10000 2.06 340 20:53 17.03.2022
3231 Clear 9 1030 71 10000 2.06 330 20:19 17.03.2022
3232 Clear 8 1030 73 10000 2.06 310 19:38 17.03.2022
3233 Clear 9 1029 68 10000 2.57 320 18:52 17.03.2022
3234 Clear 10 1028 63 10000 2.06 350 17:29 17.03.2022
3235 Clear 10 1027 60 10000 1.54 360 16:20 17.03.2022
3236 Clear 11 1027 59 10000 1.03 0 15:43 17.03.2022
3237 Clear 10 1027 60 10000 1.03 0 14:59 17.03.2022
3238 Clear 10 1027 58 10000 2.06 110 13:45 17.03.2022
3239 Clear 10 1027 62 10000 3.6 120 12:46 17.03.2022
3240 Clear 9 1026 67 10000 3.09 100 11:33 17.03.2022
3241 Clear 8 1026 71 10000 3.09 100 10:43 17.03.2022
3242 Clear 7 1026 76 10000 3.09 100 09:36 17.03.2022
3243 Clear 4 1025 86 10000 2.57 90 08:19 17.03.2022
3244 Clear 4 1025 83 10000 1.03 20 05:49 17.03.2022
3245 Clear 4 1024 81 10000 3.09 90 04:30 17.03.2022
3246 Clear 5 1024 82 10000 4.12 100 00:25 17.03.2022
3247 Clear 6 1025 78 10000 3.09 100 22:52 16.03.2022
3248 Clear 6 1025 78 10000 3.09 100 22:34 16.03.2022
3249 Clear 6 1025 78 10000 3.6 90 21:55 16.03.2022
3250 Clear 7 1025 77 10000 2.57 100 20:40 16.03.2022
3251 Clear 9 1024 68 10000 2.06 90 19:23 16.03.2022
3252 Clear 10 1024 66 10000 3.09 90 18:42 16.03.2022
3253 Clear 11 1024 63 10000 3.09 100 17:46 16.03.2022
3254 Clear 12 1024 61 10000 4.63 90 17:28 16.03.2022
3255 Clouds 13 1025 58 10000 4.12 120 15:56 16.03.2022
3256 Clouds 13 1025 60 10000 5.14 130 14:38 16.03.2022
3257 Clouds 12 1026 64 10000 5.14 100 13:35 16.03.2022
3258 Clouds 11 1026 72 10000 3.09 130 12:18 16.03.2022
3259 Clouds 10 1026 79 10000 5.14 100 11:23 16.03.2022
3260 Clouds 8 1027 85 10000 2.06 110 10:28 16.03.2022
3261 Clouds 7 1027 87 10000 0.51 320 09:55 16.03.2022
3262 Fog 3 1025 90 500 1.54 350 06:47 16.03.2022
3263 Clouds 5 1024 90 6000 2.06 320 02:44 16.03.2022
3264 Clouds 6 1022 90 10000 5.14 280 22:54 15.03.2022
3265 Clouds 6 1022 90 10000 6.69 280 22:33 15.03.2022
3266 Clouds 7 1020 90 10000 2.57 230 20:51 15.03.2022
3267 Rain 7 1020 93 8000 1.54 190 19:34 15.03.2022
3268 Rain 8 1021 88 8000 3.09 170 17:41 15.03.2022
3269 Clouds 9 1021 81 10000 4.12 120 16:34 15.03.2022
3270 Rain 10 1022 69 10000 3.09 160 15:26 15.03.2022
3271 Rain 11 1022 63 10000 3.09 150 14:47 15.03.2022
3272 Clear 10 1024 63 10000 4.63 180 13:55 15.03.2022
3273 Clear 10 1024 65 10000 3.09 150 13:20 15.03.2022
3274 Rain 8 1026 75 10000 0.51 0 11:32 15.03.2022
3275 Rain 6 1027 82 10000 0.51 0 10:21 15.03.2022
3276 Clear 2 1027 87 10000 1.03 0 08:50 15.03.2022
3277 Clear 1 1028 93 10000 1.03 320 07:53 15.03.2022
3278 Clear 1 1028 91 10000 1.03 0 07:35 15.03.2022
3279 Clear 1 1028 93 10000 1.03 0 05:42 15.03.2022
3280 Clear 1 1030 95 10000 1.03 0 23:58 14.03.2022
3281 Clear 2 1030 95 10000 1.03 70 23:25 14.03.2022
3282 Clear 2 1030 90 10000 1.03 0 22:30 14.03.2022
3283 Clear 3 1030 85 10000 1.03 90 21:49 14.03.2022
3284 Clear 4 1030 79 10000 2.06 90 20:54 14.03.2022
3285 Clear 5 1030 78 10000 1.54 90 20:23 14.03.2022
3286 Clear 7 1029 71 10000 1.03 0 19:21 14.03.2022
3287 Clouds 10 1029 59 10000 3.6 280 17:55 14.03.2022
3288 Clouds 11 1028 58 10000 3.6 290 17:24 14.03.2022
3289 Clouds 11 1028 59 10000 5.14 280 16:18 14.03.2022
3290 Clouds 11 1028 63 10000 4.12 290 14:41 14.03.2022
3291 Clouds 9 1028 77 10000 6.17 260 12:51 14.03.2022
3292 Clouds 7 1027 87 10000 2.57 170 10:54 14.03.2022
3293 Clouds 5 1026 86 10000 3.6 120 09:55 14.03.2022
3294 Rain 4 1026 80 10000 4.12 90 09:22 14.03.2022
3295 Rain 3 1026 75 10000 3.6 110 08:56 14.03.2022
3296 Clouds 2 1024 62 10000 3.09 150 07:34 14.03.2022
3297 Snow 0 1022 57 10000 1.03 0 05:46 14.03.2022
3298 Clear 1 1018 55 10000 1.03 110 01:58 14.03.2022
3299 Clear 1 1018 53 10000 3.09 80 01:29 14.03.2022
3300 Clear 3 1018 47 10000 2.57 110 22:52 13.03.2022
3301 Clear 5 1017 43 10000 3.6 90 21:31 13.03.2022
3302 Clear 6 1017 40 10000 4.12 90 20:56 13.03.2022
3303 Clear 6 1017 38 10000 3.6 80 20:31 13.03.2022
3304 Clear 8 1017 36 10000 4.12 80 19:59 13.03.2022
3305 Clear 10 1017 27 10000 4.12 80 19:37 13.03.2022
3306 Clear 10 1017 27 10000 4.12 80 19:18 13.03.2022
3307 Clear 12 1016 24 10000 4.12 80 18:38 13.03.2022
3308 Clear 13 1016 24 10000 3.6 80 17:46 13.03.2022
3309 Clear 13 1016 25 10000 4.63 90 17:20 13.03.2022
3310 Clear 14 1016 24 10000 3.6 120 16:30 13.03.2022
3311 Clear 13 1016 25 10000 3.09 100 15:47 13.03.2022
3312 Clear 14 1016 26 10000 4.63 120 14:56 13.03.2022
3313 Clear 13 1017 25 10000 3.09 100 13:45 13.03.2022
3314 Clear 11 1018 27 10000 3.09 110 12:55 13.03.2022
3315 Clear 9 1018 28 10000 4.12 110 11:52 13.03.2022
3316 Clear 8 1018 29 10000 4.63 110 11:32 13.03.2022
3317 Clear 7 1018 32 10000 5.66 110 10:47 13.03.2022
3318 Clear 6 1018 35 10000 4.12 110 10:22 13.03.2022
3319 Clear 3 1018 39 10000 4.12 100 09:40 13.03.2022
3320 Clear 2 1019 43 10000 3.6 110 08:46 13.03.2022
3321 Clear -2 1018 51 10000 3.6 90 07:42 13.03.2022
3322 Clear -3 1018 56 10000 4.12 100 05:41 13.03.2022
3323 Clear -1 1018 55 10000 1.54 100 02:43 13.03.2022
3324 Clear 0 1018 53 10000 3.6 90 23:56 12.03.2022
3325 Clear 2 1019 49 10000 3.6 80 22:27 12.03.2022
3326 Clear 4 1019 46 10000 2.06 70 20:34 12.03.2022
3327 Clear 5 1019 42 10000 1.03 0 19:47 12.03.2022
3328 Clear 7 1019 33 10000 2.57 70 18:58 12.03.2022
3329 Clear 9 1019 32 10000 3.09 70 18:23 12.03.2022
3330 Clear 11 1019 25 10000 4.63 100 17:31 12.03.2022
3331 Clear 11 1019 27 10000 4.12 100 16:23 12.03.2022
3332 Clear 11 1020 27 10000 3.6 90 15:22 12.03.2022
3333 Clear 10 1020 27 10000 3.09 110 14:28 12.03.2022
3334 Clear 8 1022 28 10000 4.12 120 12:45 12.03.2022
3335 Clear 7 1022 29 10000 3.6 110 11:56 12.03.2022
3336 Clear 7 1022 30 10000 3.6 110 11:35 12.03.2022
3337 Clear 4 1022 32 10000 2.57 110 10:52 12.03.2022
3338 Clear 3 1023 35 10000 3.09 100 09:45 12.03.2022
3339 Clear 1 1022 41 10000 2.06 90 08:55 12.03.2022
3340 Clear -2 1022 49 10000 1.54 100 07:19 12.03.2022
3341 Clear -1 1021 44 10000 3.09 90 02:34 12.03.2022
3342 Clear 0 1020 44 10000 2.06 70 23:52 11.03.2022
3343 Clear 1 1020 42 10000 2.57 80 22:52 11.03.2022
3344 Clear 3 1020 41 10000 4.12 90 21:35 11.03.2022
3345 Clear 4 1020 36 10000 5.14 80 20:54 11.03.2022
3346 Clear 5 1020 35 10000 5.14 80 20:28 11.03.2022
3347 Clear 6 1019 36 10000 5.14 80 19:42 11.03.2022
3348 Clear 7 1019 31 10000 5.14 80 18:51 11.03.2022
3349 Clear 10 1019 30 10000 7.2 90 17:28 11.03.2022
3350 Clear 11 1019 26 10000 6.69 90 16:27 11.03.2022
3351 Clear 11 1019 26 10000 7.72 100 15:52 11.03.2022
3352 Clear 10 1020 27 10000 7.72 120 14:18 11.03.2022
3353 Clear 9 1021 26 10000 8.23 120 12:43 11.03.2022
3354 Clear 9 1021 25 10000 8.23 110 12:20 11.03.2022
3355 Clear 7 1022 31 10000 9.26 110 11:40 11.03.2022
3356 Clear 2 1022 46 10000 4.63 100 09:37 11.03.2022
3357 Clear 0 1022 57 10000 3.09 100 08:29 11.03.2022
3358 Clear -2 1022 61 10000 1.54 120 07:48 11.03.2022
3359 Clear -2 1022 63 10000 2.06 90 06:55 11.03.2022
3360 Clear -1 1022 66 10000 3.09 90 04:44 11.03.2022
3361 Clear 1 1023 68 10000 5.14 110 01:51 11.03.2022
3362 Clear 5 1023 60 10000 4.12 90 22:33 10.03.2022
3363 Clear 6 1024 56 10000 5.66 80 21:58 10.03.2022
3364 Clear 6 1024 54 10000 5.14 90 21:26 10.03.2022
3365 Clear 6 1024 53 10000 4.63 80 20:37 10.03.2022
3366 Clear 8 1024 47 10000 4.12 80 19:22 10.03.2022
3367 Clear 11 1023 33 10000 5.14 100 17:55 10.03.2022
3368 Clear 13 1024 30 10000 5.14 100 16:53 10.03.2022
3369 Clear 13 1024 30 10000 5.66 110 15:29 10.03.2022
3370 Clear 13 1025 33 10000 4.63 120 13:46 10.03.2022
3371 Clear 12 1026 39 10000 4.12 100 12:43 10.03.2022
3372 Clear 9 1027 48 10000 1.54 0 11:29 10.03.2022
3373 Clear 5 1027 58 10000 1.03 0 09:43 10.03.2022
3374 Clear -1 1027 80 10000 1.03 110 08:23 10.03.2022
3375 Clear -3 1026 80 10000 0 0 05:32 10.03.2022
3376 Clear -2 1026 75 10000 2.06 100 02:33 10.03.2022
3377 Clear 0 1025 66 10000 2.06 100 23:32 09.03.2022
3378 Clear 2 1025 60 10000 1.03 130 22:22 09.03.2022
3379 Clear 3 1025 56 10000 0.51 0 21:44 09.03.2022
3380 Clear 4 1024 48 10000 2.06 110 20:44 09.03.2022
3381 Clear 8 1023 38 10000 2.06 60 18:50 09.03.2022
3382 Clear 12 1023 29 10000 1.03 0 17:28 09.03.2022
3383 Clear 13 1023 24 10000 2.06 140 16:39 09.03.2022
3384 Clear 12 1023 30 10000 1.03 0 15:32 09.03.2022
3385 Clear 11 1024 31 10000 2.06 160 14:19 09.03.2022
3386 Clear 10 1025 34 10000 2.06 130 12:59 09.03.2022
3387 Clear 9 1025 37 10000 2.06 110 12:20 09.03.2022
3388 Clear 8 1025 41 10000 2.57 120 11:45 09.03.2022
3389 Clear 6 1025 48 10000 1.54 0 10:49 09.03.2022
3390 Clear 2 1025 64 10000 2.06 110 09:22 09.03.2022
3391 Clear -1 1025 74 10000 1.03 110 08:42 09.03.2022
3392 Clear -4 1024 80 10000 0.51 0 04:47 09.03.2022
3393 Clear -2 1023 69 10000 1.03 0 00:52 09.03.2022
3394 Clear -2 1023 66 10000 3.09 100 23:18 08.03.2022
3395 Clear -1 1023 62 10000 2.06 100 22:44 08.03.2022
3396 Clear 0 1022 58 10000 2.06 100 21:26 08.03.2022
3397 Clear 1 1022 57 10000 2.57 80 20:49 08.03.2022
3398 Clear 3 1022 49 10000 2.57 80 19:55 08.03.2022
3399 Clear 6 1022 33 10000 2.06 90 18:45 08.03.2022
3400 Clear 8 1022 29 10000 3.09 100 17:40 08.03.2022
3401 Clear 9 1021 34 10000 3.6 100 16:33 08.03.2022
3402 Clear 8 1022 36 10000 4.12 110 14:21 08.03.2022
3403 Clear 7 1023 40 10000 5.14 110 12:44 08.03.2022
3404 Clear 7 1023 45 10000 6.17 120 11:45 08.03.2022
3405 Clear 4 1023 58 10000 3.6 110 10:55 08.03.2022
3406 Clear 3 1024 63 10000 4.12 100 10:19 08.03.2022
3407 Clear -6 1024 86 10000 1.03 130 07:33 08.03.2022
3408 Clear -5 1023 86 10000 0.51 0 05:44 08.03.2022
3409 Clear -4 1025 74 10000 1.54 70 23:58 07.03.2022
3410 Clouds -2 1025 66 10000 2.57 100 22:23 07.03.2022
3411 Clouds -2 1025 67 10000 2.57 110 21:33 07.03.2022
3412 Clear -2 1024 65 10000 2.06 90 20:49 07.03.2022
3413 Clear -1 1024 64 10000 1.54 20 20:20 07.03.2022
3414 Clear -1 1024 60 10000 0.51 350 19:33 07.03.2022
3415 Clear 2 1024 52 10000 1.54 70 18:44 07.03.2022
3416 Clear 3 1023 48 10000 3.09 100 17:50 07.03.2022
3417 Clear 4 1023 45 10000 3.09 60 16:55 07.03.2022
3418 Clear 4 1023 44 10000 4.12 50 15:50 07.03.2022
3419 Clouds 3 1024 45 10000 6.17 110 13:51 07.03.2022
3420 Clouds 3 1025 46 10000 4.12 90 12:27 07.03.2022
3421 Clouds 0 1025 52 10000 5.66 70 10:38 07.03.2022
3422 Clear -2 1024 61 10000 3.09 30 08:57 07.03.2022
3423 Clouds -2 1023 68 10000 3.09 50 04:43 07.03.2022
3424 Clouds -1 1023 63 10000 3.09 20 00:22 07.03.2022
3425 Clouds -1 1023 61 10000 2.57 40 23:35 06.03.2022
3426 Clouds -1 1023 59 10000 3.6 20 22:40 06.03.2022
3427 Clear 0 1023 60 10000 3.6 20 21:47 06.03.2022
3428 Clouds 0 1022 58 10000 3.6 30 20:38 06.03.2022
3429 Clouds 0 1022 58 10000 4.12 30 20:20 06.03.2022
3430 Clouds 1 1022 57 10000 3.09 20 18:52 06.03.2022
3431 Clouds 1 1021 58 10000 2.57 20 18:23 06.03.2022
3432 Clouds 2 1021 56 10000 4.12 360 17:21 06.03.2022
3433 Clouds 2 1021 54 10000 3.09 10 16:41 06.03.2022
3434 Clouds 3 1021 50 10000 3.6 10 15:49 06.03.2022
3435 Clouds 3 1021 48 10000 3.09 60 14:49 06.03.2022
3436 Clouds 3 1021 48 10000 4.12 20 14:30 06.03.2022
3437 Clouds 3 1022 50 10000 3.09 40 12:50 06.03.2022
3438 Clouds 3 1022 50 10000 3.6 60 11:56 06.03.2022
3439 Clouds 3 1022 53 10000 3.6 70 10:52 06.03.2022
3440 Clear 1 1022 68 10000 3.6 60 09:43 06.03.2022
3441 Clear -1 1021 76 10000 3.09 70 08:29 06.03.2022
3442 Clear -2 1021 76 10000 2.57 70 07:34 06.03.2022
3443 Clear -1 1021 75 10000 2.06 60 04:45 06.03.2022
3444 Clear 1 1021 69 10000 2.57 60 00:43 06.03.2022
3445 Clear 1 1021 70 10000 2.57 60 00:23 06.03.2022
3446 Clear 1 1021 69 10000 2.57 70 23:19 05.03.2022
3447 Clear 1 1021 69 10000 3.09 70 22:43 05.03.2022
3448 Clear 1 1021 67 10000 2.06 60 21:44 05.03.2022
3449 Clear 1 1021 63 10000 2.06 60 21:19 05.03.2022
3450 Clear 2 1020 53 10000 2.06 60 19:24 05.03.2022
3451 Clear 2 1020 53 10000 2.06 70 18:50 05.03.2022
3452 Clear 3 1020 48 10000 2.57 80 17:41 05.03.2022
3453 Clear 4 1020 47 10000 5.66 90 16:20 05.03.2022
3454 Clear 4 1020 48 10000 4.63 100 15:30 05.03.2022
3455 Clear 4 1020 49 10000 4.12 80 14:42 05.03.2022
3456 Clear 4 1021 50 10000 4.63 90 14:24 05.03.2022
3457 Clear 5 1021 46 10000 5.14 80 12:55 05.03.2022
3458 Clouds 4 1021 58 10000 3.6 90 11:43 05.03.2022
3459 Clouds 4 1021 59 10000 3.6 120 11:18 05.03.2022
3460 Clear 1 1022 77 10000 2.57 90 09:58 05.03.2022
3461 Clear -1 1021 86 10000 0.51 0 08:49 05.03.2022
3462 Clear -3 1021 88 10000 0.51 0 07:23 05.03.2022
3463 Clear -3 1021 89 10000 1.03 0 05:41 05.03.2022
3464 Clear -2 1021 84 10000 3.09 90 01:30 05.03.2022
3465 Clear -2 1021 82 10000 1.54 70 23:35 04.03.2022
3466 Clear -1 1021 80 10000 2.57 90 22:41 04.03.2022
3467 Clear -1 1021 78 10000 2.57 70 21:47 04.03.2022
3468 Clear 0 1021 75 10000 2.06 50 20:49 04.03.2022
3469 Clear 1 1020 72 10000 3.09 70 20:18 04.03.2022
3470 Clear 2 1020 68 10000 2.57 70 19:35 04.03.2022
3471 Clear 3 1020 57 10000 2.57 60 18:36 04.03.2022
3472 Clear 5 1019 52 10000 4.63 80 17:30 04.03.2022
3473 Clear 6 1019 47 10000 3.09 70 16:36 04.03.2022
3474 Clear 7 1019 46 10000 3.09 50 15:27 04.03.2022
3475 Clouds 7 1019 48 10000 2.57 0 13:53 04.03.2022
3476 Clouds 6 1020 51 10000 3.09 0 12:51 04.03.2022
3477 Clear 4 1020 60 10000 3.09 70 11:38 04.03.2022
3478 Clear 2 1020 67 10000 2.06 0 10:42 04.03.2022
3479 Clear 0 1020 76 10000 1.54 360 09:28 04.03.2022
3480 Clear -2 1020 80 10000 2.06 30 08:31 04.03.2022
3481 Clear -4 1019 85 10000 0.51 0 06:58 04.03.2022
3482 Clear -3 1019 80 10000 1.03 0 03:28 04.03.2022
3483 Clear -1 1019 70 10000 1.03 20 00:19 04.03.2022
3484 Clear 1 1018 61 10000 2.57 70 22:19 03.03.2022
3485 Clear 1 1018 62 10000 2.06 50 21:37 03.03.2022
3486 Clear 2 1017 56 10000 2.57 50 20:56 03.03.2022
3487 Clear 3 1017 48 10000 3.6 20 19:42 03.03.2022
3488 Clear 5 1016 36 10000 2.57 20 18:44 03.03.2022
3489 Clear 7 1016 31 10000 3.09 20 17:43 03.03.2022
3490 Clear 7 1016 34 10000 3.6 20 17:24 03.03.2022
3491 Clear 9 1016 31 10000 4.12 360 15:47 03.03.2022
3492 Clear 9 1016 29 10000 3.6 340 14:51 03.03.2022
3493 Clear 9 1016 31 10000 3.09 0 14:32 03.03.2022
3494 Clear 7 1018 43 10000 3.09 350 12:44 03.03.2022
3495 Clear 5 1018 53 10000 1.54 280 11:32 03.03.2022
3496 Clear 3 1018 57 10000 1.54 280 10:40 03.03.2022
3497 Clear -3 1019 74 10000 1.03 0 08:45 03.03.2022
3498 Clear -6 1019 93 10000 2.06 30 06:58 03.03.2022
3499 Clear -5 1019 86 10000 2.06 120 06:33 03.03.2022
3500 Clear -3 1021 74 10000 1.54 130 00:43 03.03.2022
3501 Clear -3 1021 73 10000 1.03 0 23:28 02.03.2022
3502 Clear -2 1021 71 10000 1.54 130 22:48 02.03.2022
3503 Clear -1 1021 63 10000 2.57 100 21:23 02.03.2022
3504 Clear 0 1021 57 10000 2.57 100 20:40 02.03.2022
3505 Clear 1 1021 55 10000 1.54 80 19:49 02.03.2022
3506 Clear 2 1021 52 10000 1.54 70 19:30 02.03.2022
3507 Clear 4 1021 44 10000 1.54 80 18:44 02.03.2022
3508 Clear 6 1021 38 10000 1.03 70 17:50 02.03.2022
3509 Clear 7 1021 40 10000 2.06 70 16:59 02.03.2022
3510 Clear 7 1021 40 10000 2.06 70 16:41 02.03.2022
3511 Clear 7 1022 45 10000 2.57 130 14:42 02.03.2022
3512 Clear 5 1023 50 10000 1.54 120 13:24 02.03.2022
3513 Clear 4 1024 52 10000 2.06 110 12:41 02.03.2022
3514 Clear 3 1024 57 10000 2.06 120 11:40 02.03.2022
3515 Clear 3 1024 59 10000 2.06 120 11:21 02.03.2022
3516 Clear 0 1025 74 10000 1.03 0 09:41 02.03.2022
3517 Clear -2 1025 80 10000 1.03 0 08:52 02.03.2022
3518 Clear -3 1025 79 10000 0.51 350 07:28 02.03.2022
3519 Clear -3 1025 80 10000 1.03 310 06:40 02.03.2022
3520 Clear -3 1027 69 10000 1.03 0 00:58 02.03.2022
3521 Clear -2 1027 67 10000 2.06 300 23:47 01.03.2022
3522 Clear -1 1027 63 10000 1.54 90 22:45 01.03.2022
3523 Clear -1 1027 67 10000 1.54 50 21:57 01.03.2022
3524 Clear 0 1027 60 10000 2.06 90 21:23 01.03.2022
3525 Clear 1 1027 55 10000 1.54 100 20:29 01.03.2022
3526 Clear 2 1028 49 10000 1.54 80 19:24 01.03.2022
3527 Clear 4 1028 44 10000 1.54 70 18:37 01.03.2022
3528 Clear 5 1027 37 10000 1.54 100 18:18 01.03.2022
3529 Clear 7 1027 32 10000 4.12 100 16:54 01.03.2022
3530 Clear 7 1027 33 10000 5.14 110 16:30 01.03.2022
3531 Clear 8 1028 32 10000 4.12 130 15:32 01.03.2022
3532 Clear 8 1028 34 10000 4.12 110 14:34 01.03.2022
3533 Clear 7 1029 37 10000 4.12 90 13:45 01.03.2022
3534 Clear 6 1029 39 10000 3.09 120 13:22 01.03.2022
3535 Clear 5 1030 44 10000 3.6 110 12:27 01.03.2022
3536 Clear 2 1031 57 10000 4.63 100 10:32 01.03.2022
3537 Clear -2 1031 67 10000 2.57 80 08:41 01.03.2022
3538 Clear -4 1031 74 10000 3.09 90 07:40 01.03.2022
3539 Clear -3 1031 71 10000 3.6 90 04:50 01.03.2022
3540 Clear -2 1032 72 10000 4.63 100 01:43 01.03.2022
3541 Clear -1 1032 64 10000 5.14 100 23:48 28.02.2022
3542 Clear 0 1032 63 10000 4.12 110 22:58 28.02.2022
3543 Clear 0 1032 60 10000 5.14 100 21:59 28.02.2022
3544 Clear 1 1032 58 10000 5.14 90 21:24 28.02.2022
3545 Clear 2 1031 57 10000 5.14 100 19:52 28.02.2022
3546 Clear 3 1031 56 10000 4.63 100 19:26 28.02.2022
3547 Clear 5 1030 48 10000 1.54 50 18:36 28.02.2022
3548 Clear 7 1030 40 10000 2.57 40 17:24 28.02.2022
3549 Clear 8 1030 41 10000 2.57 20 16:33 28.02.2022
3550 Clear 8 1030 41 10000 2.57 0 15:23 28.02.2022
3551 Clear 8 1031 43 10000 4.12 30 14:31 28.02.2022
3552 Clear 7 1031 47 10000 2.57 0 13:34 28.02.2022
3553 Clear 7 1032 49 10000 1.54 0 12:41 28.02.2022
3554 Clear 5 1032 58 10000 1.03 0 11:44 28.02.2022
3555 Clear 3 1032 65 10000 2.57 120 10:48 28.02.2022
3556 Clear 2 1032 69 10000 2.57 110 10:19 28.02.2022
3557 Clear 1 1032 78 10000 1.03 0 09:31 28.02.2022
3558 Clear -2 1032 86 10000 1.03 330 08:29 28.02.2022
3559 Clear -4 1032 91 10000 1.03 340 07:20 28.02.2022
3560 Clear -3 1031 84 10000 0 0 04:32 28.02.2022
3561 Clear -3 1032 83 10000 1.03 350 03:58 28.02.2022
3562 Clear -1 1032 74 10000 2.57 80 23:27 27.02.2022
3563 Clear -1 1032 74 10000 2.06 80 22:33 27.02.2022
3564 Clear 0 1032 70 10000 2.06 70 21:49 27.02.2022
3565 Clear 1 1032 67 10000 2.57 70 20:55 27.02.2022
3566 Clear 2 1032 64 10000 3.09 60 20:27 27.02.2022
3567 Clear 2 1032 63 10000 2.06 60 19:57 27.02.2022
3568 Clear 2 1032 61 10000 2.57 50 19:26 27.02.2022
3569 Clear 3 1032 61 10000 1.54 40 18:40 27.02.2022
3570 Clear 5 1031 55 10000 4.63 90 17:54 27.02.2022
3571 Clear 7 1031 49 10000 5.14 70 16:38 27.02.2022
3572 Clouds 7 1032 48 10000 4.63 110 15:59 27.02.2022
3573 Clouds 6 1033 53 10000 5.66 100 13:21 27.02.2022
3574 Clouds 6 1033 56 10000 6.17 100 12:32 27.02.2022
3575 Clouds 4 1033 64 10000 7.2 80 10:54 27.02.2022
3576 Clear 3 1033 78 10000 6.17 80 09:58 27.02.2022
3577 Clear 2 1033 80 10000 6.17 80 09:37 27.02.2022
3578 Clear 2 1033 81 10000 4.12 90 09:18 27.02.2022
3579 Clear -2 1032 93 10000 1.03 0 07:34 27.02.2022
3580 Clear -2 1032 89 10000 2.57 90 05:38 27.02.2022
3581 Clear -1 1032 86 10000 1.03 0 00:53 27.02.2022
3582 Clear 1 1033 82 10000 1.03 50 22:58 26.02.2022
3583 Clouds 3 1033 75 10000 1.54 40 21:44 26.02.2022
3584 Clouds 3 1033 74 10000 1.54 50 20:58 26.02.2022
3585 Clouds 3 1033 73 10000 1.54 50 20:19 26.02.2022
3586 Clouds 4 1033 75 10000 1.03 40 19:46 26.02.2022
3587 Clouds 4 1033 74 10000 2.06 80 19:22 26.02.2022
3588 Clouds 4 1032 70 10000 1.03 30 17:46 26.02.2022
3589 Clouds 5 1032 67 10000 1.54 360 16:51 26.02.2022
3590 Clouds 5 1032 70 10000 2.57 310 15:57 26.02.2022
3591 Clouds 5 1032 70 10000 3.6 310 15:23 26.02.2022
3592 Clouds 5 1033 71 10000 3.09 310 14:54 26.02.2022
3593 Clouds 5 1033 72 10000 3.09 310 14:33 26.02.2022
3594 Clouds 5 1033 72 10000 3.09 310 13:19 26.02.2022
3595 Clouds 4 1033 72 10000 2.57 300 12:23 26.02.2022
3596 Clouds 4 1033 80 10000 3.09 260 11:28 26.02.2022
3597 Clouds 2 1033 87 10000 3.09 280 10:40 26.02.2022
3598 Clouds 1 1033 91 10000 0.51 0 08:53 26.02.2022
3599 Clouds 0 1033 91 10000 2.27 283 06:51 26.02.2022
3600 Clouds 1 1028 91 10000 3.09 280 00:56 26.02.2022
3601 Clouds 1 1027 90 10000 1.54 300 22:49 25.02.2022
3602 Clouds 1 1026 89 10000 4.63 280 21:43 25.02.2022
3603 Clouds 2 1026 87 10000 7.72 270 21:23 25.02.2022
3604 Clouds 2 1025 83 10000 3.09 240 20:32 25.02.2022
3605 Clouds 3 1024 82 10000 5.14 240 18:59 25.02.2022
3606 Clouds 4 1024 81 10000 5.66 250 17:29 25.02.2022
3607 Clouds 4 1023 82 10000 7.2 250 16:32 25.02.2022
3608 Snow 3 1023 82 9000 9.26 270 15:47 25.02.2022
3609 Rain 4 1022 66 10000 7.2 240 15:21 25.02.2022
3610 Clouds 6 1022 56 10000 7.2 250 14:42 25.02.2022
3611 Clouds 6 1022 56 10000 7.2 250 14:42 25.02.2022
3612 Clouds 6 1023 58 10000 8.75 260 13:36 25.02.2022
3613 Clouds 6 1023 59 10000 8.75 240 12:56 25.02.2022
3614 Clouds 5 1023 69 10000 7.72 240 11:28 25.02.2022
3615 Clouds 4 1023 71 10000 6.69 250 10:40 25.02.2022
3616 Clouds 3 1023 75 10000 7.2 250 10:22 25.02.2022
3617 Clouds 2 1023 81 10000 4.63 230 09:18 25.02.2022
3618 Clouds 1 1022 83 10000 2.57 220 07:41 25.02.2022
3619 Clouds 1 1021 82 10000 5.14 260 05:51 25.02.2022
3620 Clouds 2 1019 83 10000 5.14 250 04:41 25.02.2022
3621 Clouds 2 1017 90 10000 4.12 240 00:22 25.02.2022
3622 Clouds 6 1012 73 10000 4.12 220 21:58 24.02.2022
3623 Clouds 6 1012 73 10000 4.12 220 21:58 24.02.2022
3624 Clouds 8 1012 70 10000 4.12 220 21:39 24.02.2022
3625 Clouds 9 1012 68 10000 5.14 230 21:19 24.02.2022
3626 Clouds 9 1012 64 10000 4.63 230 19:42 24.02.2022
3627 Clouds 10 1012 62 10000 5.66 230 18:44 24.02.2022
3628 Clouds 10 1012 63 10000 4.12 230 18:19 24.02.2022
3629 Clouds 11 1012 60 10000 8.23 240 17:34 24.02.2022
3630 Clear 12 1011 56 10000 6.69 230 16:50 24.02.2022
3631 Clear 12 1011 55 10000 7.2 230 16:24 24.02.2022
3632 Clouds 13 1012 59 10000 5.14 220 14:56 24.02.2022
3633 Clouds 13 1013 60 10000 5.66 200 14:36 24.02.2022
3634 Clouds 12 1013 60 10000 5.66 170 13:40 24.02.2022
3635 Clouds 11 1015 62 10000 4.12 150 12:54 24.02.2022
3636 Clouds 7 1017 72 10000 3.6 150 10:41 24.02.2022
3637 Clouds 7 1017 72 10000 3.6 150 10:41 24.02.2022
3638 Clouds 3 1017 83 10000 3.09 120 09:18 24.02.2022
3639 Clouds 2 1018 85 10000 3.09 110 08:40 24.02.2022
3640 Clouds 1 1019 88 10000 2.57 120 05:58 24.02.2022
3641 Clear -1 1022 93 10000 3.6 110 01:58 24.02.2022
3642 Clear 1 1023 86 10000 2.57 110 23:31 23.02.2022
3643 Clear 1 1023 83 10000 2.57 110 21:43 23.02.2022
3644 Clear 3 1024 74 10000 3.6 100 20:31 23.02.2022
3645 Clear 4 1025 72 10000 3.09 100 19:48 23.02.2022
3646 Clear 6 1025 64 10000 1.03 150 18:32 23.02.2022
3647 Clear 6 1025 64 10000 1.03 150 18:32 23.02.2022
3648 Clear 9 1025 53 10000 2.06 220 17:44 23.02.2022
3649 Clouds 11 1027 50 10000 3.6 270 15:19 23.02.2022
3650 Clouds 9 1028 61 10000 3.6 260 12:50 23.02.2022
3651 Clouds 9 1028 64 10000 4.63 240 12:24 23.02.2022
3652 Clouds 7 1028 79 10000 5.14 270 10:35 23.02.2022
3653 Clouds 4 1026 87 10000 4.12 250 08:59 23.02.2022
3654 Clouds 3 1026 90 10000 3.6 250 08:23 23.02.2022
3655 Clear 3 1024 86 10000 4.12 260 06:53 23.02.2022
3656 Rain 6 1018 86 10000 7.72 240 00:47 23.02.2022
3657 Clouds 6 1018 88 10000 6.17 220 23:39 22.02.2022
3658 Clouds 6 1018 83 10000 6.17 230 22:41 22.02.2022
3659 Clouds 6 1019 83 10000 6.69 240 21:49 22.02.2022
3660 Clouds 6 1019 83 10000 6.69 230 21:31 22.02.2022
3661 Clouds 6 1019 83 10000 5.66 230 20:57 22.02.2022
3662 Clouds 5 1019 87 10000 5.14 230 20:30 22.02.2022
3663 Clouds 5 1019 87 9000 6.69 240 19:42 22.02.2022
3664 Clouds 6 1019 84 10000 5.14 230 19:23 22.02.2022
3665 Clouds 6 1019 78 10000 6.69 240 17:49 22.02.2022
3666 Clouds 7 1019 73 10000 7.2 240 17:23 22.02.2022
3667 Clouds 7 1020 71 10000 6.17 240 16:41 22.02.2022
3668 Clouds 7 1020 65 10000 6.69 240 15:44 22.02.2022
3669 Clouds 7 1020 65 10000 6.69 240 15:44 22.02.2022
3670 Clouds 7 1021 69 10000 6.17 260 14:45 22.02.2022
3671 Clouds 6 1020 67 10000 7.2 260 12:44 22.02.2022
3672 Clouds 5 1020 78 10000 7.2 270 10:53 22.02.2022
3673 Clouds 3 1018 84 10000 5.66 270 08:48 22.02.2022
3674 Clouds 3 1017 81 10000 7.72 280 07:27 22.02.2022
3675 Clouds 3 1015 80 10000 7.72 290 05:57 22.02.2022
3676 Clouds 4 1012 84 10000 6.17 270 02:45 22.02.2022
3677 Clouds 4 1009 78 10000 9.26 280 22:46 21.02.2022
3678 Clouds 5 1006 82 10000 12.35 280 21:42 21.02.2022
3679 Clouds 5 1005 86 10000 10.29 260 20:36 21.02.2022
3680 Rain 4 1003 84 10000 7.72 220 18:46 21.02.2022
3681 Clouds 4 1003 78 10000 8.23 220 17:36 21.02.2022
3682 Clouds 6 1004 61 10000 10.29 230 15:22 21.02.2022
3683 Clouds 6 1006 62 10000 9.26 250 14:22 21.02.2022
3684 Clouds 6 1005 68 10000 9.26 240 13:22 21.02.2022
3685 Clouds 6 1005 62 10000 11.83 260 12:23 21.02.2022
3686 Clouds 6 1005 62 10000 11.83 260 11:20 21.02.2022
3687 Clouds 4 1003 67 10000 11.83 270 09:50 21.02.2022
3688 Thunderstorm 3 1001 87 6000 13.89 270 05:35 21.02.2022
3689 Rain 8 1006 73 10000 6.69 220 23:44 20.02.2022
3690 Rain 8 1008 73 10000 6.17 220 22:25 20.02.2022
3691 Rain 8 1008 73 10000 7.2 220 21:42 20.02.2022
3692 Clouds 8 1009 74 10000 7.2 210 20:53 20.02.2022
3693 Clouds 8 1009 74 10000 7.2 210 20:35 20.02.2022
3694 Clouds 8 1010 75 10000 6.69 220 19:32 20.02.2022
3695 Clouds 8 1011 75 10000 7.2 230 18:50 20.02.2022
3696 Clouds 8 1011 72 10000 7.2 220 18:31 20.02.2022
3697 Clouds 8 1011 73 10000 7.2 220 18:31 20.02.2022
3698 Clouds 8 1011 72 10000 5.66 230 17:48 20.02.2022
3699 Clouds 8 1013 70 10000 8.75 230 15:37 20.02.2022
3700 Clouds 8 1014 70 10000 9.26 240 14:42 20.02.2022
3701 Clouds 8 1014 75 10000 6.69 220 13:23 20.02.2022
3702 Clouds 7 1016 77 10000 6.69 220 12:25 20.02.2022
3703 Clouds 6 1016 77 10000 6.69 230 10:38 20.02.2022
3704 Clouds 6 1016 77 10000 6.69 230 10:19 20.02.2022
3705 Clouds 5 1016 79 10000 5.66 230 08:25 20.02.2022
3706 Rain 4 1015 61 10000 4.63 210 00:54 20.02.2022
3707 Rain 4 1015 63 10000 3.6 170 00:29 20.02.2022
3708 Clear 3 1016 67 10000 3.6 170 22:44 19.02.2022
3709 Clear 2 1016 69 10000 3.6 170 22:21 19.02.2022
3710 Clear 2 1017 67 10000 3.09 190 20:51 19.02.2022
3711 Clear 4 1017 62 10000 2.57 200 19:48 19.02.2022
3712 Clear 4 1017 62 10000 2.57 200 19:25 19.02.2022
3713 Clear 5 1017 58 10000 5.66 240 18:32 19.02.2022
3714 Clear 6 1017 55 10000 6.17 250 17:35 19.02.2022
3715 Clear 7 1017 50 10000 7.2 240 16:22 19.02.2022
3716 Clear 8 1017 47 10000 10.29 240 14:56 19.02.2022
3717 Clear 8 1017 47 10000 10.29 240 14:37 19.02.2022
3718 Clouds 7 1018 54 10000 7.72 250 12:50 19.02.2022
3719 Clouds 6 1018 57 10000 9.26 250 11:36 19.02.2022
3720 Clouds 5 1016 64 10000 8.75 250 09:36 19.02.2022
3721 Clear 5 1012 63 10000 10.29 240 06:53 19.02.2022
3722 Clouds 6 1009 59 10000 9.26 240 02:52 19.02.2022
3723 Clear 8 1006 66 10000 9.77 250 23:28 18.02.2022
3724 Rain 9 1004 62 10000 10.8 260 21:49 18.02.2022
3725 Clouds 8 1006 73 10000 9.98 266 20:39 18.02.2022
3726 Clouds 11 1000 68 10000 8.23 230 19:51 18.02.2022
3727 Clouds 13 1001 69 10000 6.69 230 18:50 18.02.2022
3728 Clouds 13 1001 69 10000 7.2 230 18:20 18.02.2022
3729 Clouds 13 1001 69 10000 4.12 190 17:25 18.02.2022
3730 Clouds 12 1003 73 10000 4.63 160 14:48 18.02.2022
3731 Clouds 12 1005 74 10000 5.14 160 13:54 18.02.2022
3732 Clouds 10 1006 76 10000 5.14 170 12:51 18.02.2022
3733 Rain 9 1008 78 10000 5.66 160 11:58 18.02.2022
3734 Rain 9 1008 78 10000 5.66 160 11:58 18.02.2022
3735 Rain 8 1008 79 10000 5.14 150 11:21 18.02.2022
3736 Clouds 6 1011 80 10000 3.09 170 09:30 18.02.2022
3737 Clear 6 1012 80 10000 2.06 210 06:52 18.02.2022
3738 Clear 6 1013 76 10000 3.6 240 05:38 18.02.2022
3739 Clouds 7 1014 74 10000 7.72 260 22:47 17.02.2022
3740 Clear 7 1013 77 10000 7.2 260 21:43 17.02.2022
3741 Clouds 6 1012 78 10000 7.72 260 20:52 17.02.2022
3742 Clear 6 1012 79 10000 7.2 260 20:34 17.02.2022
3743 Clouds 6 1011 83 10000 6.17 260 19:43 17.02.2022
3744 Clouds 6 1010 85 10000 7.72 260 18:37 17.02.2022
3745 Rain 6 1008 86 10000 4.63 290 17:47 17.02.2022
3746 Clouds 7 1007 80 8000 11.83 280 16:20 17.02.2022
3747 Clouds 9 1007 67 10000 11.83 260 14:57 17.02.2022
3748 Clouds 8 1007 69 10000 12.86 260 14:19 17.02.2022
3749 Clouds 10 1005 69 10000 11.32 260 11:59 17.02.2022
3750 Clouds 10 1004 66 10000 15.43 260 11:21 17.02.2022
3751 Clouds 10 1002 60 10000 14.4 270 08:37 17.02.2022
3752 Rain 10 1000 90 10000 7.72 220 00:20 17.02.2022
3753 Clouds 10 1001 88 10000 7.72 210 22:39 16.02.2022
3754 Clouds 10 1003 87 10000 5.14 200 20:39 16.02.2022
3755 Clouds 9 1004 89 10000 4.63 210 19:32 16.02.2022
3756 Clouds 9 1004 88 10000 5.66 220 18:35 16.02.2022
3757 Clouds 9 1004 88 10000 7.2 220 17:33 16.02.2022
3758 Clouds 8 1004 87 10000 3.09 180 15:24 16.02.2022
3759 Clouds 8 1004 87 10000 5.66 190 14:29 16.02.2022
3760 Clouds 7 1006 82 10000 5.66 190 12:31 16.02.2022
3761 Clouds 7 1007 82 10000 6.69 180 11:46 16.02.2022
3762 Rain 6 1007 81 10000 5.66 190 10:35 16.02.2022
3763 Clouds 5 1008 82 10000 4.63 170 09:54 16.02.2022
3764 Clouds 4 1010 83 10000 5.14 170 06:44 16.02.2022
3765 Clouds 3 1013 84 10000 3.09 140 02:48 16.02.2022
3766 Clear 2 1015 86 10000 3.09 160 22:34 15.02.2022
3767 Clear 3 1016 86 10000 3.09 200 21:51 15.02.2022
3768 Clear 3 1015 86 10000 2.57 190 21:31 15.02.2022
3769 Clear 3 1015 86 10000 2.57 190 21:31 15.02.2022
3770 Clouds 3 1015 84 10000 3.09 200 20:58 15.02.2022
3771 Clouds 3 1015 86 10000 2.57 180 20:27 15.02.2022
3772 Clouds 4 1015 83 10000 2.06 200 19:46 15.02.2022
3773 Clouds 5 1014 84 10000 3.09 190 18:27 15.02.2022
3774 Clouds 6 1014 83 10000 3.6 240 17:57 15.02.2022
3775 Clouds 6 1014 81 10000 4.63 240 17:38 15.02.2022
3776 Clouds 7 1014 85 10000 4.12 230 15:44 15.02.2022
3777 Clouds 7 1014 83 10000 5.14 240 14:31 15.02.2022
3778 Clouds 7 1014 80 10000 5.14 220 13:25 15.02.2022
3779 Clouds 7 1013 85 10000 3.09 240 11:41 15.02.2022
3780 Clouds 6 1013 87 10000 2.06 210 10:30 15.02.2022
3781 Clouds 4 1012 91 10000 2.06 140 08:48 15.02.2022
3782 Clouds 4 1011 91 10000 1.54 120 06:46 15.02.2022
3783 Clouds 6 1009 79 10000 2.57 160 00:25 15.02.2022
3784 Clouds 7 1009 69 10000 1.03 0 21:58 14.02.2022
3785 Clouds 7 1008 62 10000 2.06 120 20:54 14.02.2022
3786 Clear 7 1007 60 10000 4.12 120 19:49 14.02.2022
3787 Rain 7 1007 59 10000 3.6 110 19:29 14.02.2022
3788 Clear 8 1007 53 10000 3.6 130 18:24 14.02.2022
3789 Clear 8 1007 51 10000 4.12 130 17:30 14.02.2022
3790 Clear 9 1007 54 10000 5.14 130 16:37 14.02.2022
3791 Clear 10 1007 52 10000 5.14 140 15:42 14.02.2022
3792 Clouds 10 1007 48 10000 5.66 130 13:35 14.02.2022
3793 Clear 9 1008 49 10000 5.14 130 12:59 14.02.2022
3794 Clear 8 1008 50 10000 5.14 140 12:32 14.02.2022
3795 Clear 8 1008 52 10000 5.14 150 11:39 14.02.2022
3796 Clear 5 1009 60 10000 5.14 130 10:21 14.02.2022
3797 Clear 3 1009 67 10000 5.14 120 08:26 14.02.2022
3798 Clear 2 1009 68 10000 4.63 130 07:26 14.02.2022
3799 Clear 2 1013 75 10000 4.63 120 23:19 13.02.2022
3800 Clear 2 1013 73 10000 4.63 100 22:41 13.02.2022
3801 Clear 2 1013 74 10000 3.09 100 22:22 13.02.2022
3802 Clear 3 1014 75 10000 4.12 120 21:24 13.02.2022
3803 Clear 4 1014 71 10000 4.12 130 20:28 13.02.2022
3804 Clear 5 1015 67 10000 4.63 130 19:23 13.02.2022
3805 Clear 5 1015 67 10000 3.6 140 18:41 13.02.2022
3806 Clear 8 1015 57 10000 4.63 140 17:32 13.02.2022
3807 Clear 11 1016 60 10000 4.12 140 15:53 13.02.2022
3808 Clear 11 1017 59 10000 4.12 170 14:50 13.02.2022
3809 Clear 10 1018 54 10000 3.09 160 13:39 13.02.2022
3810 Clear 9 1019 57 10000 3.09 160 12:44 13.02.2022
3811 Clear 4 1021 71 10000 3.6 140 10:46 13.02.2022
3812 Clear 2 1021 77 10000 3.09 140 10:27 13.02.2022
3813 Clear -1 1022 85 10000 3.6 110 08:57 13.02.2022
3814 Clear -2 1023 83 10000 2.57 120 02:50 13.02.2022
3815 Clear -1 1024 82 10000 3.09 100 00:33 13.02.2022
3816 Clear -1 1024 82 10000 3.6 110 22:56 12.02.2022
3817 Clear -1 1025 80 10000 4.12 110 22:32 12.02.2022
3818 Clear 0 1025 76 10000 3.6 100 21:18 12.02.2022
3819 Clear 1 1026 73 10000 4.63 100 20:24 12.02.2022
3820 Clear 3 1026 64 10000 4.12 120 18:54 12.02.2022
3821 Clear 3 1026 64 10000 4.12 120 18:36 12.02.2022
3822 Clear 5 1026 62 10000 5.14 120 17:40 12.02.2022
3823 Clear 6 1027 59 10000 4.63 140 16:54 12.02.2022
3824 Clear 6 1028 59 10000 4.63 120 15:59 12.02.2022
3825 Clouds 7 1028 58 10000 7.2 130 15:23 12.02.2022
3826 Clouds 7 1029 61 10000 5.66 120 14:30 12.02.2022
3827 Clouds 5 1031 72 10000 4.12 120 12:26 12.02.2022
3828 Clear 2 1032 82 10000 3.6 110 10:34 12.02.2022
3829 Clear 1 1032 86 10000 1.03 0 09:38 12.02.2022
3830 Clear -2 1032 93 10000 1.54 110 08:47 12.02.2022
3831 Clear -3 1032 93 10000 1.03 100 07:47 12.02.2022
3832 Clear -3 1033 91 10000 1.54 100 05:31 12.02.2022
3833 Clear -1 1033 87 10000 0.51 0 02:20 12.02.2022
3834 Clouds 1 1033 82 10000 3.09 290 00:31 12.02.2022
3835 Clouds 2 1033 79 10000 3.09 270 22:24 11.02.2022
3836 Clouds 2 1033 80 10000 4.12 270 21:43 11.02.2022
3837 Clouds 3 1032 73 10000 3.6 280 20:37 11.02.2022
3838 Clouds 3 1030 72 10000 4.63 270 19:31 11.02.2022
3839 Clouds 4 1030 69 10000 5.66 280 18:47 11.02.2022
3840 Clouds 4 1029 70 10000 7.2 270 17:27 11.02.2022
3841 Clouds 4 1029 73 10000 6.17 270 16:56 11.02.2022
3842 Clouds 5 1028 74 10000 8.23 270 15:26 11.02.2022
3843 Clouds 5 1028 78 10000 8.23 260 14:38 11.02.2022
3844 Clouds 4 1028 78 10000 8.23 260 14:20 11.02.2022
3845 Clouds 4 1028 80 10000 6.17 260 13:47 11.02.2022
3846 Clouds 4 1028 80 10000 8.75 260 13:28 11.02.2022
3847 Clouds 3 1027 79 10000 7.72 260 11:26 11.02.2022
3848 Clouds 2 1025 85 10000 6.69 290 09:38 11.02.2022
3849 Clouds 2 1023 88 10000 6.17 290 08:36 11.02.2022
3850 Clouds 2 1022 89 10000 4.63 310 07:47 11.02.2022
3851 Clouds 3 1020 87 10000 6.17 260 06:30 11.02.2022
3852 Clouds 4 1020 82 10000 2.57 190 02:24 11.02.2022
3853 Clouds 4 1021 80 10000 2.57 180 00:44 11.02.2022
3854 Clouds 4 1021 80 10000 2.57 240 22:39 10.02.2022
3855 Clouds 5 1022 81 10000 3.09 260 21:43 10.02.2022
3856 Clouds 5 1021 78 10000 4.63 240 20:50 10.02.2022
3857 Clouds 6 1021 78 10000 3.09 250 19:59 10.02.2022
3858 Clouds 6 1022 78 10000 5.14 270 19:24 10.02.2022
3859 Clouds 7 1021 78 10000 5.66 270 18:33 10.02.2022
3860 Clouds 7 1021 77 10000 4.12 280 17:25 10.02.2022
3861 Clouds 7 1021 78 10000 3.09 280 16:47 10.02.2022
3862 Clouds 8 1021 76 10000 6.69 270 15:42 10.02.2022
3863 Clouds 8 1021 76 10000 6.17 260 15:24 10.02.2022
3864 Clouds 8 1021 75 10000 7.2 240 14:35 10.02.2022
3865 Clouds 8 1021 74 10000 7.2 250 13:59 10.02.2022
3866 Clouds 8 1021 73 10000 6.69 250 13:19 10.02.2022
3867 Clear 8 1022 72 10000 3.09 180 11:57 10.02.2022
3868 Clear 8 1022 73 10000 3.09 180 11:32 10.02.2022
3869 Clear 5 1022 84 10000 2.57 150 10:25 10.02.2022
3870 Clear 3 1022 87 10000 2.57 120 09:46 10.02.2022
3871 Clear 1 1022 90 10000 3.09 110 08:42 10.02.2022
3872 Clear -1 1022 97 10000 3.09 120 06:33 10.02.2022
3873 Clear 1 1023 93 10000 3.09 110 03:21 10.02.2022
3874 Clear 1 1024 96 10000 3.6 100 00:56 10.02.2022
3875 Clear 2 1024 96 10000 3.6 110 00:38 10.02.2022
3876 Clear 3 1024 93 10000 3.6 110 00:20 10.02.2022
3877 Clear 3 1025 95 10000 3.09 110 22:54 09.02.2022
3878 Clear 3 1025 95 10000 3.6 100 22:30 09.02.2022
3879 Fog 3 1025 91 10000 3.09 100 21:47 09.02.2022
3880 Clear 3 1025 90 10000 1.54 90 21:27 09.02.2022
3881 Clear 5 1025 87 10000 2.57 110 20:43 09.02.2022
3882 Clear 5 1025 87 10000 2.57 110 20:22 09.02.2022
3883 Clear 5 1026 85 10000 2.06 120 19:41 09.02.2022
3884 Clear 7 1026 80 10000 1.54 150 18:38 09.02.2022
3885 Clouds 10 1026 71 10000 1.54 180 16:55 09.02.2022
3886 Clouds 11 1026 71 10000 1.54 200 16:20 09.02.2022
3887 Clouds 11 1027 74 10000 2.57 260 15:23 09.02.2022
3888 Clouds 8 1028 80 10000 4.12 250 12:53 09.02.2022
3889 Clouds 8 1029 80 10000 4.12 230 11:29 09.02.2022
3890 Clouds 7 1029 82 10000 3.09 230 10:34 09.02.2022
3891 Clouds 7 1029 83 10000 3.09 220 09:50 09.02.2022
3892 Clouds 6 1029 83 10000 3.09 220 09:21 09.02.2022
3893 Clouds 6 1029 84 10000 3.09 210 08:44 09.02.2022
3894 Clouds 6 1029 88 10000 3.6 210 05:57 09.02.2022
3895 Clouds 6 1030 89 10000 3.09 210 03:51 09.02.2022
3896 Clouds 6 1030 88 10000 2.57 220 03:25 09.02.2022
3897 Clouds 6 1030 89 10000 3.09 200 23:45 08.02.2022
3898 Clouds 6 1030 89 10000 2.57 210 23:18 08.02.2022
3899 Clouds 6 1030 89 10000 3.09 240 22:38 08.02.2022
3900 Clouds 6 1030 89 10000 3.09 240 22:18 08.02.2022
3901 Clouds 6 1030 89 10000 2.57 220 21:22 08.02.2022
3902 Clouds 6 1030 89 10000 2.57 220 21:22 08.02.2022
3903 Clouds 6 1030 89 10000 2.57 220 21:22 08.02.2022
3904 Clouds 6 1030 89 10000 2.06 240 20:57 08.02.2022
3905 Clouds 6 1030 89 10000 2.06 240 20:34 08.02.2022
3906 Clouds 6 1030 89 10000 3.09 240 19:18 08.02.2022
3907 Clouds 6 1029 89 10000 3.09 240 17:57 08.02.2022
3908 Clouds 6 1029 89 10000 4.63 240 16:55 08.02.2022
3909 Clouds 6 1029 87 10000 5.66 250 15:45 08.02.2022
3910 Clouds 6 1029 87 10000 5.14 240 14:58 08.02.2022
3911 Clouds 5 1030 89 8000 5.14 230 13:39 08.02.2022
3912 Clouds 5 1030 88 10000 5.66 230 12:21 08.02.2022
3913 Clouds 4 1030 87 10000 6.69 250 10:47 08.02.2022
3914 Clouds 3 1030 87 10000 4.63 230 09:46 08.02.2022
3915 Clouds 2 1030 82 10000 3.6 210 08:34 08.02.2022
3916 Clear 2 1030 79 10000 3.09 230 05:46 08.02.2022
3917 Clear 2 1029 80 10000 2.06 210 04:40 08.02.2022
3918 Clear 2 1030 82 10000 2.06 210 04:21 08.02.2022
3919 Snow 1 1030 83 10000 2.06 220 03:36 08.02.2022
3920 Clear 1 1030 84 10000 2.06 220 03:18 08.02.2022
3921 Clear 1 1030 84 10000 2.06 220 03:18 08.02.2022
3922 Clear 1 1030 82 10000 3.09 210 02:59 08.02.2022
3923 Clear 1 1030 82 10000 3.09 210 02:36 08.02.2022
3924 Clear 1 1030 83 10000 3.6 230 02:18 08.02.2022
3925 Clear 1 1030 82 10000 3.6 230 02:18 08.02.2022
3926 Clear 1 1030 80 10000 3.6 240 01:44 08.02.2022
3927 Clear 1 1029 81 10000 4.12 250 01:24 08.02.2022
3928 Clear 1 1029 80 10000 4.12 260 00:55 08.02.2022
3929 Clear 1 1029 81 10000 4.63 260 00:19 08.02.2022
3930 Clear 1 1029 81 10000 4.12 260 23:42 07.02.2022
3931 Clear 1 1028 82 10000 4.12 270 23:18 07.02.2022
3932 Clear 1 1028 80 10000 4.63 260 22:56 07.02.2022
3933 Clear 2 1027 79 10000 3.6 250 22:18 07.02.2022
3934 Clear 2 1027 79 10000 4.12 250 21:47 07.02.2022
3935 Clear 2 1027 80 10000 5.66 270 21:26 07.02.2022
3936 Clouds 2 1026 80 10000 5.14 270 20:41 07.02.2022
3937 Clouds 3 1026 79 10000 4.63 270 20:18 07.02.2022
3938 Clouds 3 1026 81 10000 5.14 270 19:45 07.02.2022
3939 Clouds 3 1025 78 10000 6.69 270 18:22 07.02.2022
3940 Clouds 5 1024 69 10000 9.26 280 16:53 07.02.2022
3941 Clouds 5 1023 72 10000 10.29 270 16:20 07.02.2022
3942 Clouds 5 1023 77 10000 9.77 280 15:48 07.02.2022
3943 Clouds 4 1021 79 10000 8.75 280 13:37 07.02.2022
3944 Clouds 4 1020 80 10000 9.26 290 13:19 07.02.2022
3945 Clouds 3 1018 80 10000 9.26 280 11:58 07.02.2022
3946 Clouds 3 1018 80 10000 9.26 280 11:58 07.02.2022
3947 Clouds 4 1018 82 10000 9.26 280 11:37 07.02.2022
3948 Clouds 3 1017 82 10000 9.26 280 10:52 07.02.2022
3949 Clouds 3 1017 82 10000 9.26 280 10:32 07.02.2022
3950 Clouds 2 1016 84 10000 7.72 270 09:53 07.02.2022
3951 Clouds 2 1016 84 10000 6.69 280 09:18 07.02.2022
3952 Clouds 2 1015 82 10000 6.69 280 08:43 07.02.2022
3953 Clouds 2 1012 83 10000 9.77 280 07:26 07.02.2022
3954 Clouds 2 1011 84 10000 7.72 280 06:34 07.02.2022
3955 Clouds 3 1005 86 10000 8.23 270 03:48 07.02.2022
3956 Rain 2 1002 89 10000 6.17 280 00:46 07.02.2022
3957 Rain 3 1001 88 6000 4.12 10 23:49 06.02.2022
3958 Rain 3 1002 89 10000 3.09 230 22:55 06.02.2022
3959 Rain 3 1002 87 10000 6.17 260 22:34 06.02.2022
3960 Rain 4 1003 87 10000 6.69 270 21:36 06.02.2022
3961 Rain 5 1003 87 10000 8.75 230 20:56 06.02.2022
3962 Drizzle 5 1003 87 10000 7.72 240 20:32 06.02.2022
3963 Drizzle 5 1004 84 10000 8.23 240 19:40 06.02.2022
3964 Clouds 5 1004 83 10000 9.26 230 18:48 06.02.2022
3965 Rain 5 1004 84 10000 11.32 230 17:58 06.02.2022
3966 Rain 5 1004 83 10000 12.35 230 17:21 06.02.2022
3967 Rain 5 1005 84 10000 10.8 220 16:48 06.02.2022
3968 Rain 5 1006 84 10000 8.75 220 15:49 06.02.2022
3969 Rain 6 1007 80 10000 8.23 220 15:27 06.02.2022
3970 Rain 6 1008 76 10000 9.77 220 14:47 06.02.2022
3971 Clouds 6 1010 73 10000 6.69 220 13:28 06.02.2022
3972 Clouds 6 1011 73 10000 8.23 220 12:59 06.02.2022
3973 Clouds 5 1013 75 10000 9.26 220 11:38 06.02.2022
3974 Clouds 5 1014 74 10000 8.75 220 10:31 06.02.2022
3975 Clouds 5 1014 74 10000 8.75 220 10:31 06.02.2022
3976 Clouds 5 1015 73 10000 7.2 220 09:25 06.02.2022
3977 Clouds 4 1015 73 10000 6.17 210 08:40 06.02.2022
3978 Clouds 3 1017 74 10000 6.17 210 05:33 06.02.2022
3979 Clouds 4 1020 75 10000 4.12 210 03:18 06.02.2022
3980 Clouds 3 1020 77 10000 4.63 230 02:24 06.02.2022
3981 Clouds 3 1021 77 10000 3.09 240 00:29 06.02.2022
3982 Clouds 2 1022 80 10000 2.06 190 22:36 05.02.2022
3983 Clouds 2 1022 80 10000 2.57 200 21:32 05.02.2022
3984 Clouds 3 1022 78 10000 2.57 200 20:25 05.02.2022
3985 Clouds 3 1022 78 10000 3.6 190 19:48 05.02.2022
3986 Clear 3 1022 77 10000 2.06 200 18:59 05.02.2022
3987 Clear 4 1022 73 10000 4.12 240 17:45 05.02.2022
3988 Clouds 4 1022 71 10000 4.12 250 17:25 05.02.2022
3989 Clouds 5 1022 69 10000 6.17 270 15:40 05.02.2022
3990 Clouds 5 1022 69 10000 7.72 260 15:21 05.02.2022
3991 Clouds 4 1023 74 10000 7.2 260 12:54 05.02.2022
3992 Clouds 4 1023 76 10000 5.14 270 12:31 05.02.2022
3993 Clouds 3 1023 80 10000 6.17 250 10:52 05.02.2022
3994 Clouds 2 1022 82 10000 4.12 230 10:22 05.02.2022
3995 Clouds 2 1022 83 10000 3.09 240 09:44 05.02.2022
3996 Clouds 1 1021 85 10000 4.12 240 07:54 05.02.2022
3997 Clouds 1 1020 82 10000 5.14 240 06:57 05.02.2022
3998 Clouds 1 1018 85 10000 3.6 250 04:30 05.02.2022
3999 Clouds 3 1015 86 10000 7.2 290 01:19 05.02.2022
4000 Clouds 3 1015 87 10000 8.23 280 00:53 05.02.2022
4001 Clouds 3 1013 86 9000 13.38 290 23:46 04.02.2022
4002 Rain 5 1012 82 10000 6.17 220 23:28 04.02.2022
4003 Clouds 6 1012 78 10000 4.63 220 21:54 04.02.2022
4004 Clouds 6 1011 78 10000 4.63 190 21:36 04.02.2022
4005 Clouds 6 1011 79 10000 4.63 190 21:18 04.02.2022
4006 Clouds 6 1012 79 10000 3.6 220 19:59 04.02.2022
4007 Clouds 6 1012 76 10000 3.6 220 17:43 04.02.2022
4008 Clouds 6 1012 76 10000 5.14 220 15:39 04.02.2022
4009 Clouds 7 1013 77 10000 6.17 240 14:55 04.02.2022
4010 Clouds 6 1014 76 10000 6.17 240 13:33 04.02.2022
4011 Clouds 7 1014 82 10000 5.66 230 12:43 04.02.2022
4012 Clouds 6 1015 87 10000 3.09 230 11:42 04.02.2022
4013 Clouds 5 1016 88 10000 3.09 220 10:36 04.02.2022
4014 Clouds 4 1015 89 10000 2.06 210 08:36 04.02.2022
4015 Drizzle 4 1015 87 10000 2.57 240 06:47 04.02.2022
4016 Clouds 5 1014 88 10000 3.09 250 02:44 04.02.2022
4017 Clouds 6 1014 85 10000 3.6 270 01:52 04.02.2022
4018 Clouds 6 1013 86 10000 4.12 240 23:29 03.02.2022
4019 Clouds 6 1014 91 10000 2.57 210 22:33 03.02.2022
4020 Rain 6 1014 89 10000 3.09 170 21:49 03.02.2022
4021 Clouds 6 1014 88 10000 2.06 140 20:38 03.02.2022
4022 Clouds 6 1014 88 10000 2.06 140 20:38 03.02.2022
4023 Clouds 6 1014 88 10000 2.06 170 20:18 03.02.2022
4024 Clouds 7 1015 88 10000 1.03 0 19:30 03.02.2022
4025 Clouds 7 1015 84 10000 3.6 190 18:35 03.02.2022
4026 Clouds 7 1014 84 10000 5.14 160 17:32 03.02.2022
4027 Clouds 8 1016 84 10000 2.06 170 16:25 03.02.2022
4028 Clouds 8 1017 84 10000 3.09 190 14:37 03.02.2022
4029 Clouds 7 1019 87 10000 3.09 220 12:51 03.02.2022
4030 Clouds 5 1020 88 10000 2.57 170 10:58 03.02.2022
4031 Clouds 3 1021 90 8000 3.09 100 08:36 03.02.2022
4032 Clear 1 1023 91 10000 3.6 100 04:27 03.02.2022
4033 Clouds 1 1023 88 10000 0.51 210 00:31 03.02.2022
4034 Clouds 1 1023 88 10000 1.54 160 23:36 02.02.2022
4035 Clouds 3 1022 86 10000 2.06 270 21:54 02.02.2022
4036 Clouds 3 1021 85 10000 3.09 270 21:30 02.02.2022
4037 Clouds 3 1021 84 10000 2.57 270 20:38 02.02.2022
4038 Clear 3 1020 83 10000 4.63 280 19:55 02.02.2022
4039 Clear 4 1020 78 10000 5.14 280 19:26 02.02.2022
4040 Clear 5 1019 75 10000 6.69 290 18:39 02.02.2022
4041 Clouds 5 1019 72 10000 8.23 280 17:44 02.02.2022
4042 Clouds 6 1019 68 10000 8.23 290 17:19 02.02.2022
4043 Clouds 6 1018 68 10000 8.75 280 16:31 02.02.2022
4044 Clouds 7 1015 73 10000 8.23 290 12:55 02.02.2022
4045 Clouds 6 1015 77 10000 9.26 300 12:18 02.02.2022
4046 Clouds 6 1015 80 10000 7.2 280 11:32 02.02.2022
4047 Clouds 5 1013 82 10000 7.2 270 09:46 02.02.2022
4048 Clouds 5 1011 83 10000 7.2 270 07:32 02.02.2022
4049 Clouds 4 1010 89 10000 8.23 260 22:46 01.02.2022
4050 Clouds 3 1010 89 10000 7.2 240 21:36 01.02.2022
4051 Clouds 2 1010 89 9000 7.2 230 19:57 01.02.2022
4052 Clouds 1 1011 89 5000 7.72 230 17:41 01.02.2022
4053 Clouds 1 1012 89 5000 7.2 230 16:36 01.02.2022
4054 Clouds 3 1017 79 10000 7.72 240 13:32 01.02.2022
4055 Rain 3 1018 80 10000 8.23 260 12:30 01.02.2022
4056 Clouds 2 1019 83 10000 6.17 270 11:19 01.02.2022
4057 Clouds 2 1013 86 10000 7.2 330 02:32 01.02.2022
4058 Drizzle 2 1011 87 10000 8.75 280 23:41 31.01.2022
4059 Clouds 3 1011 89 10000 7.72 280 22:57 31.01.2022
4060 Clouds 3 1010 89 10000 5.66 270 21:39 31.01.2022
4061 Clouds 3 1009 87 10000 6.69 270 20:50 31.01.2022
4062 Clouds 3 1009 89 10000 8.23 270 20:27 31.01.2022
4063 Clouds 3 1008 89 10000 7.72 280 19:20 31.01.2022
4064 Clouds 3 1007 89 10000 7.2 290 18:25 31.01.2022
4065 Clouds 3 1006 87 10000 8.23 280 17:26 31.01.2022
4066 Clouds 2 1005 87 10000 7.72 260 16:26 31.01.2022
4067 Rain 3 1005 87 10000 8.75 260 14:54 31.01.2022
4068 Clouds 3 1005 85 10000 8.75 250 13:51 31.01.2022
4069 Clouds 3 1006 86 10000 8.23 250 12:38 31.01.2022
4070 Clouds 3 1007 85 10000 8.75 250 11:47 31.01.2022
4071 Clouds 3 1007 87 10000 8.75 250 10:50 31.01.2022
4072 Clouds 1 1007 88 5000 4.63 230 09:59 31.01.2022
4073 Snow 1 1008 93 1800 2.57 210 08:59 31.01.2022
4074 Snow 1 1008 93 1800 2.57 210 08:39 31.01.2022
4075 Snow 1 1009 86 4500 3.6 210 08:20 31.01.2022
4076 Clouds 1 1012 82 10000 3.6 190 06:18 31.01.2022
4077 Clouds 2 1021 74 10000 2.57 230 00:46 31.01.2022
4078 Clouds 3 1023 72 10000 3.6 280 22:40 30.01.2022
4079 Clouds 3 1024 71 10000 3.6 280 22:22 30.01.2022
4080 Clouds 3 1024 71 10000 4.63 270 21:38 30.01.2022
4081 Clear 3 1027 73 10000 2.47 269 21:18 30.01.2022
4082 Clouds 3 1025 69 10000 4.12 280 20:45 30.01.2022
4083 Clouds 3 1025 67 10000 6.69 280 20:27 30.01.2022
4084 Clouds 3 1025 70 10000 6.17 260 19:24 30.01.2022
4085 Clouds 4 1025 71 10000 6.17 260 18:36 30.01.2022
4086 Clouds 4 1025 67 10000 5.66 270 17:54 30.01.2022
4087 Clouds 4 1025 68 10000 7.72 280 17:21 30.01.2022
4088 Clouds 5 1025 65 10000 8.23 280 16:39 30.01.2022
4089 Clouds 5 1025 65 10000 8.23 270 16:21 30.01.2022
4090 Clouds 5 1025 65 10000 9.26 270 15:49 30.01.2022
4091 Clouds 5 1025 65 10000 9.26 280 15:31 30.01.2022
4092 Clouds 5 1025 67 10000 9.26 270 14:45 30.01.2022
4093 Clouds 5 1026 75 10000 8.23 270 12:46 30.01.2022
4094 Clouds 5 1025 71 10000 10.8 280 11:53 30.01.2022
4095 Clouds 5 1024 71 10000 8.75 270 10:29 30.01.2022
4096 Clear 5 1024 71 10000 6.69 280 09:50 30.01.2022
4097 Clear 4 1023 75 10000 9.26 270 08:52 30.01.2022
4098 Clouds 5 1022 77 10000 9.26 280 06:55 30.01.2022
4099 Clouds 6 1022 91 10000 8.75 260 01:55 30.01.2022
4100 Clouds 6 1021 89 10000 9.26 240 00:19 30.01.2022
4101 Clouds 6 1022 88 10000 8.75 250 22:58 29.01.2022
4102 Clouds 6 1022 89 10000 8.75 250 21:46 29.01.2022
4103 Clouds 6 1022 87 10000 9.26 250 21:22 29.01.2022
4104 Clouds 5 1022 85 10000 8.23 250 20:22 29.01.2022
4105 Clouds 5 1023 87 10000 8.23 250 19:33 29.01.2022
4106 Clouds 5 1023 86 10000 8.23 260 18:51 29.01.2022
4107 Clouds 5 1023 87 10000 8.23 250 18:18 29.01.2022
4108 Drizzle 5 1023 86 10000 8.75 250 17:27 29.01.2022
4109 Clouds 5 1024 84 10000 7.2 240 15:44 29.01.2022
4110 Clouds 4 1026 87 10000 5.14 240 13:58 29.01.2022
4111 Clouds 4 1026 87 10000 5.14 240 13:38 29.01.2022
4112 Clouds 4 1026 87 10000 6.17 250 13:20 29.01.2022
4113 Clouds 3 1027 86 10000 5.14 230 11:40 29.01.2022
4114 Clouds 3 1027 86 10000 6.69 240 10:46 29.01.2022
4115 Clouds 2 1028 84 10000 5.66 240 08:42 29.01.2022
4116 Clouds 2 1031 87 10000 2.57 250 03:53 29.01.2022
4117 Clouds 2 1033 91 10000 3.6 240 00:34 29.01.2022
4118 Clouds 2 1033 88 10000 3.6 230 23:43 28.01.2022
4119 Clouds 2 1034 84 10000 3.09 230 22:48 28.01.2022
4120 Clouds 2 1034 79 10000 3.09 230 22:20 28.01.2022
4121 Clouds 3 1034 78 10000 2.57 250 20:42 28.01.2022
4122 Clouds 3 1033 78 10000 3.6 280 19:59 28.01.2022
4123 Clouds 3 1033 77 10000 3.09 270 19:18 28.01.2022
4124 Clouds 3 1032 79 10000 3.6 260 18:35 28.01.2022
4125 Clouds 4 1031 70 10000 6.69 290 16:39 28.01.2022
4126 Clouds 4 1031 77 10000 7.2 280 14:59 28.01.2022
4127 Clouds 4 1031 79 10000 6.69 280 13:23 28.01.2022
4128 Clouds 3 1031 84 10000 8.75 270 11:52 28.01.2022
4129 Clouds 3 1030 86 10000 8.23 270 10:27 28.01.2022
4130 Clouds 2 1030 89 10000 7.2 260 09:47 28.01.2022
4131 Clouds 2 1028 90 10000 7.2 270 07:43 28.01.2022
4132 Clouds 2 1027 90 10000 6.17 270 06:30 28.01.2022
4133 Clouds 2 1026 90 10000 7.2 270 03:51 28.01.2022
4134 Clouds 2 1025 92 10000 6.69 260 02:28 28.01.2022
4135 Clouds 2 1024 92 10000 6.69 260 01:38 28.01.2022
4136 Clouds 2 1024 90 10000 7.72 270 00:46 28.01.2022
4137 Clouds 2 1023 89 10000 6.69 250 22:20 27.01.2022
4138 Clouds 2 1023 89 10000 6.17 240 21:40 27.01.2022
4139 Clouds 2 1023 89 10000 5.66 240 20:59 27.01.2022
4140 Clouds 2 1023 89 9000 5.66 250 19:45 27.01.2022
4141 Clouds 1 1023 89 3600 3.6 250 18:20 27.01.2022
4142 Clouds 0 1024 95 6000 2.57 220 16:55 27.01.2022
4143 Clouds -1 1025 92 10000 4.63 210 13:58 27.01.2022
4144 Clouds -1 1026 89 9000 4.63 210 12:49 27.01.2022
4145 Clouds -1 1026 87 9000 4.63 210 12:49 27.01.2022
4146 Clouds -1 1026 87 9000 4.63 210 12:49 27.01.2022
4147 Clouds -2 1027 87 9000 6.69 250 11:54 27.01.2022
4148 Clouds -2 1027 89 9000 6.17 270 09:48 27.01.2022
4149 Clouds -2 1027 89 8000 4.12 250 08:40 27.01.2022
4150 Clouds -2 1027 89 10000 3.6 240 07:52 27.01.2022
4151 Clouds -1 1029 89 8000 3.6 240 03:34 27.01.2022
4152 Clouds -1 1029 89 8000 5.14 270 00:24 27.01.2022
4153 Clouds -1 1030 89 7000 4.12 240 22:28 26.01.2022
4154 Clouds -1 1030 89 10000 3.6 250 21:44 26.01.2022
4155 Clouds -1 1030 89 10000 4.12 250 20:49 26.01.2022
4156 Clouds -1 1030 89 10000 4.63 260 20:31 26.01.2022
4157 Clouds -1 1030 85 10000 3.09 250 19:38 26.01.2022
4158 Snow 0 1030 85 10000 3.09 250 18:47 26.01.2022
4159 Clouds -1 1030 87 10000 3.6 250 18:18 26.01.2022
4160 Clouds -1 1030 87 10000 4.12 270 17:33 26.01.2022
4161 Clouds -1 1030 87 10000 3.6 270 16:47 26.01.2022
4162 Clouds -1 1031 89 6000 4.63 290 15:56 26.01.2022
4163 Clouds 0 1030 86 10000 4.63 260 14:32 26.01.2022
4164 Clouds 0 1031 85 10000 4.12 260 12:18 26.01.2022
4165 Clouds 0 1030 87 10000 3.09 290 10:50 26.01.2022
4166 Clouds -1 1030 89 10000 3.09 280 09:52 26.01.2022
4167 Clouds -1 1030 88 10000 2.57 300 08:46 26.01.2022
4168 Mist -1 1030 87 4000 3.09 320 06:28 26.01.2022
4169 Mist -1 1030 87 4000 3.09 320 06:28 26.01.2022
4170 Mist -1 1030 87 4000 3.09 320 06:28 26.01.2022
4171 Mist -1 1030 87 4000 3.09 320 06:28 26.01.2022
4172 Clouds 0 1031 87 6000 1.03 0 00:21 26.01.2022
4173 Clouds 0 1031 87 6000 1.03 0 23:36 25.01.2022
4174 Mist 0 1032 87 5000 0.51 220 22:48 25.01.2022
4175 Mist 0 1032 87 5000 0.51 0 22:18 25.01.2022
4176 Clouds 0 1032 87 7000 0 0 21:23 25.01.2022
4177 Clouds 0 1032 89 7000 1.03 170 20:45 25.01.2022
4178 Mist 0 1032 89 5000 0.51 0 19:53 25.01.2022
4179 Mist 0 1032 89 2500 0.51 0 18:50 25.01.2022
4180 Mist -1 1031 89 2200 1.54 290 17:47 25.01.2022
4181 Fog -1 1031 90 700 2.06 300 17:18 25.01.2022
4182 Fog 0 1032 95 700 0.51 0 16:34 25.01.2022
4183 Fog 0 1032 95 800 1.54 310 15:39 25.01.2022
4184 Mist 0 1032 95 1200 1.54 290 14:58 25.01.2022
4185 Mist 0 1032 95 1200 1.54 290 14:38 25.01.2022
4186 Fog 0 1032 95 500 1.54 110 11:30 25.01.2022
4187 Fog -1 1032 90 300 2.57 160 09:21 25.01.2022
4188 Fog -2 1032 91 8000 1.03 140 07:31 25.01.2022
4189 Clouds -2 1032 89 10000 1.54 120 06:53 25.01.2022
4190 Clouds -2 1032 91 10000 1.54 110 05:23 25.01.2022
4191 Clouds -1 1033 91 10000 1.54 100 00:20 25.01.2022
4192 Clouds -1 1033 91 10000 1.03 80 23:36 24.01.2022
4193 Clear -1 1033 90 10000 1.54 110 23:18 24.01.2022
4194 Clear 0 1033 90 10000 1.03 50 22:41 24.01.2022
4195 Clouds 2 1033 86 10000 1.03 360 21:57 24.01.2022
4196 Clouds 1 1033 86 10000 1.03 360 21:57 24.01.2022
4197 Clouds 2 1033 85 10000 1.03 360 21:32 24.01.2022
4198 Clouds 3 1033 84 10000 1.54 90 20:33 24.01.2022
4199 Clouds 3 1033 84 10000 1.03 80 19:57 24.01.2022
4200 Clouds 3 1033 84 10000 1.03 80 19:35 24.01.2022
4201 Clouds 3 1033 84 10000 2.06 80 18:35 24.01.2022
4202 Clouds 3 1033 85 10000 2.06 80 17:24 24.01.2022
4203 Clouds 3 1033 85 10000 2.06 90 16:55 24.01.2022
4204 Clouds 3 1033 85 10000 2.06 160 16:21 24.01.2022
4205 Clouds 4 1033 83 10000 3.09 140 14:44 24.01.2022
4206 Clouds 4 1034 81 10000 2.06 100 13:26 24.01.2022
4207 Clouds 4 1034 81 10000 4.12 120 12:30 24.01.2022
4208 Clouds 4 1034 85 10000 3.09 90 11:20 24.01.2022
4209 Clouds 3 1034 87 10000 1.54 80 09:49 24.01.2022
4210 Clouds 3 1034 88 10000 1.54 70 08:54 24.01.2022
4211 Clouds 2 1033 90 10000 1.03 0 07:19 24.01.2022
4212 Clouds 2 1033 90 10000 1.03 0 07:19 24.01.2022
4213 Clouds 2 1033 90 10000 1.03 0 07:19 24.01.2022
4214 Clouds 3 1034 87 10000 1.03 120 01:32 24.01.2022
4215 Clouds 3 1034 87 10000 1.03 0 00:45 24.01.2022
4216 Clouds 3 1034 87 10000 0.51 260 00:26 24.01.2022
4217 Clouds 3 1034 86 10000 0.51 0 22:43 23.01.2022
4218 Clouds 3 1034 88 10000 1.03 0 21:50 23.01.2022
4219 Clouds 3 1034 88 10000 1.03 20 21:26 23.01.2022
4220 Clouds 3 1034 85 10000 0.51 0 20:48 23.01.2022
4221 Clouds 3 1034 85 10000 1.54 10 19:54 23.01.2022
4222 Clouds 4 1034 82 10000 1.03 0 18:52 23.01.2022
4223 Clouds 4 1034 82 10000 1.54 330 17:50 23.01.2022
4224 Clouds 4 1033 82 10000 1.54 280 16:48 23.01.2022
4225 Clouds 4 1034 84 10000 2.06 10 15:18 23.01.2022
4226 Clouds 5 1034 83 10000 1.54 20 14:31 23.01.2022
4227 Clouds 5 1034 83 10000 1.54 20 14:31 23.01.2022
4228 Clouds 5 1034 84 10000 2.06 320 13:27 23.01.2022
4229 Clouds 5 1034 85 10000 3.09 310 12:36 23.01.2022
4230 Clouds 5 1034 85 10000 3.09 310 12:18 23.01.2022
4231 Clouds 4 1034 88 10000 3.09 290 11:24 23.01.2022
4232 Clouds 4 1034 89 10000 2.57 280 10:43 23.01.2022
4233 Clouds 3 1034 89 9000 2.06 280 10:19 23.01.2022
4234 Clouds 3 1034 89 8000 1.03 250 09:19 23.01.2022
4235 Clouds 3 1032 89 7000 1.54 260 05:58 23.01.2022
4236 Clouds 3 1032 91 9000 2.06 280 01:54 23.01.2022
4237 Clouds 3 1032 91 9000 2.06 280 01:34 23.01.2022
4238 Clouds 3 1032 91 8000 3.6 270 00:31 23.01.2022
4239 Clouds 3 1032 91 8000 3.09 270 23:57 22.01.2022
4240 Clouds 4 1032 90 10000 3.6 260 22:46 22.01.2022
4241 Clouds 3 1032 90 10000 4.12 270 21:38 22.01.2022
4242 Clouds 4 1032 89 10000 4.12 270 20:24 22.01.2022
4243 Clouds 4 1031 89 10000 5.14 280 19:27 22.01.2022
4244 Clouds 4 1031 89 10000 4.63 270 18:29 22.01.2022
4245 Clouds 4 1031 89 10000 5.66 270 17:41 22.01.2022
4246 Clouds 4 1030 88 9000 5.14 280 16:57 22.01.2022
4247 Clouds 3 1030 91 5000 5.14 280 15:55 22.01.2022
4248 Clouds 3 1030 91 5000 5.14 280 15:37 22.01.2022
4249 Clouds 3 1030 91 6000 5.14 280 13:59 22.01.2022
4250 Clouds 3 1030 89 10000 5.66 280 12:58 22.01.2022
4251 Clouds 3 1030 89 10000 6.69 290 12:30 22.01.2022
4252 Clouds 3 1030 91 10000 6.17 280 11:57 22.01.2022
4253 Clouds 3 1029 89 7000 5.66 290 10:38 22.01.2022
4254 Clouds 3 1029 89 7000 5.66 290 10:19 22.01.2022
4255 Clouds 2 1028 89 10000 5.14 280 08:54 22.01.2022
4256 Clouds 2 1028 89 9000 5.66 280 08:27 22.01.2022
4257 Clouds 2 1028 89 5000 5.66 270 05:20 22.01.2022
4258 Clouds 1 1028 89 5000 6.17 260 01:58 22.01.2022
4259 Clouds 1 1029 90 9000 5.14 250 23:48 21.01.2022
4260 Clouds 1 1029 89 5000 4.12 250 22:44 21.01.2022
4261 Clouds 1 1030 87 10000 6.69 260 20:45 21.01.2022
4262 Clouds 1 1029 89 10000 5.14 260 18:41 21.01.2022
4263 Clouds 1 1029 88 10000 5.66 280 17:45 21.01.2022
4264 Clouds 1 1029 87 3400 6.17 270 15:48 21.01.2022
4265 Clouds 1 1029 84 9000 7.72 270 14:37 21.01.2022
4266 Clouds 1 1030 86 10000 7.2 270 12:40 21.01.2022
4267 Clouds 0 1030 87 10000 3.6 270 11:29 21.01.2022
4268 Clear -1 1030 87 10000 2.06 270 10:22 21.01.2022
4269 Fog -4 1030 89 10000 1.54 240 08:50 21.01.2022
4270 Clouds -4 1029 91 10000 0 0 07:26 21.01.2022
4271 Clouds 0 1026 84 10000 7.2 300 00:59 21.01.2022
4272 Clouds 0 1025 82 10000 7.72 280 22:45 20.01.2022
4273 Clouds 0 1024 85 10000 9.26 270 21:48 20.01.2022
4274 Clouds 1 1024 80 10000 7.72 280 20:57 20.01.2022
4275 Clouds 0 1024 79 10000 7.72 280 19:40 20.01.2022
4276 Clouds 0 1024 79 10000 6.69 280 19:18 20.01.2022
4277 Clouds 1 1023 82 9000 5.14 290 17:32 20.01.2022
4278 Clouds 1 1023 80 10000 7.72 310 15:46 20.01.2022
4279 Clouds 2 1022 77 3500 7.72 300 15:26 20.01.2022
4280 Clouds 1 1022 86 10000 5.66 280 13:54 20.01.2022
4281 Clouds 1 1022 86 10000 5.66 280 13:54 20.01.2022
4282 Snow 0 1022 89 1400 6.69 310 12:43 20.01.2022
4283 Snow 0 1022 89 1200 10.29 320 12:21 20.01.2022
4284 Clouds 3 1021 86 10000 7.72 270 10:55 20.01.2022
4285 Clouds 2 1021 85 10000 7.2 260 09:43 20.01.2022
4286 Clouds 2 1020 89 10000 6.17 270 08:35 20.01.2022
4287 Clouds 2 1021 89 10000 5.14 260 06:18 20.01.2022
4288 Clouds 3 1021 81 10000 5.66 250 23:52 19.01.2022
4289 Clouds 3 1021 84 10000 6.17 260 22:37 19.01.2022
4290 Clouds 3 1021 84 10000 6.17 260 21:24 19.01.2022
4291 Clouds 3 1021 84 10000 5.66 260 20:53 19.01.2022
4292 Clouds 3 1021 83 10000 5.14 250 20:22 19.01.2022
4293 Clouds 3 1022 80 10000 5.66 230 18:48 19.01.2022
4294 Clouds 3 1022 82 10000 6.69 250 17:50 19.01.2022
4295 Clouds 3 1022 80 10000 3.6 210 16:59 19.01.2022
4296 Clouds 2 1024 84 10000 2.57 230 14:43 19.01.2022
4297 Clouds 1 1026 83 10000 3.6 190 12:53 19.01.2022
4298 Clouds 1 1027 82 10000 5.14 160 11:43 19.01.2022
4299 Clouds 2 1027 82 10000 4.63 150 10:38 19.01.2022
4300 Clouds 0 1027 86 10000 2.57 140 09:34 19.01.2022
4301 Clouds -1 1029 85 10000 2.06 150 07:18 19.01.2022
4302 Clouds 0 1031 83 10000 2.06 140 05:18 19.01.2022
4303 Clouds 3 1035 75 10000 2.57 100 23:41 18.01.2022
4304 Clouds 3 1035 81 10000 1.54 90 23:18 18.01.2022
4305 Clouds 3 1036 87 10000 2.06 90 21:20 18.01.2022
4306 Clouds 3 1036 93 10000 0.51 0 19:55 18.01.2022
4307 Clouds 3 1036 91 10000 0.51 310 19:37 18.01.2022
4308 Clouds 3 1036 92 10000 0.51 350 18:57 18.01.2022
4309 Clouds 3 1036 89 10000 0.51 0 17:59 18.01.2022
4310 Clouds 4 1036 87 10000 1.03 0 16:59 18.01.2022
4311 Clouds 5 1036 83 10000 1.54 330 15:50 18.01.2022
4312 Clouds 5 1036 84 10000 3.6 310 15:23 18.01.2022
4313 Clouds 5 1037 84 10000 1.03 0 13:26 18.01.2022
4314 Clouds 4 1037 88 10000 2.06 260 10:48 18.01.2022
4315 Clouds 2 1037 91 10000 1.03 0 09:29 18.01.2022
4316 Clouds 2 1036 91 10000 1.03 0 07:58 18.01.2022
4317 Clouds 2 1035 91 10000 1.54 320 05:31 18.01.2022
4318 Clouds 3 1033 91 10000 2.57 280 23:55 17.01.2022
4319 Clouds 3 1033 89 10000 5.14 260 22:30 17.01.2022
4320 Clouds 3 1032 89 10000 5.66 260 21:36 17.01.2022
4321 Clouds 3 1031 89 10000 6.17 250 20:29 17.01.2022
4322 Clouds 3 1030 89 10000 7.2 250 18:31 17.01.2022
4323 Clouds 3 1030 89 10000 7.72 250 17:51 17.01.2022
4324 Clouds 3 1029 86 10000 7.72 260 16:45 17.01.2022
4325 Clouds 3 1029 83 10000 8.75 260 15:23 17.01.2022
4326 Clouds 3 1029 83 10000 7.72 260 14:57 17.01.2022
4327 Clouds 3 1030 85 10000 7.72 250 13:27 17.01.2022
4328 Clouds 3 1030 85 10000 7.2 260 12:56 17.01.2022
4329 Clouds 3 1030 86 10000 8.75 270 11:49 17.01.2022
4330 Clouds 2 1029 87 10000 6.69 260 10:25 17.01.2022
4331 Clouds 2 1029 87 10000 6.69 260 10:25 17.01.2022
4332 Clouds 2 1030 89 10000 7.2 260 09:35 17.01.2022
4333 Clouds 2 1029 89 9000 5.66 250 07:43 17.01.2022
4334 Clouds 2 1029 89 9000 6.17 260 07:18 17.01.2022
4335 Clouds 2 1029 87 10000 3.6 270 00:56 17.01.2022
4336 Clouds 1 1029 87 10000 3.6 260 22:30 16.01.2022
4337 Clouds 1 1028 89 8000 2.57 240 20:36 16.01.2022
4338 Clouds 1 1027 87 9000 2.57 240 18:52 16.01.2022
4339 Clouds 1 1027 87 8000 3.09 250 17:59 16.01.2022
4340 Clouds 0 1027 87 7000 2.57 250 17:23 16.01.2022
4341 Clouds 0 1026 89 7000 3.09 250 16:38 16.01.2022
4342 Clouds 0 1025 87 8000 5.14 250 14:31 16.01.2022
4343 Clouds 0 1025 87 9000 5.66 270 13:49 16.01.2022
4344 Clouds 0 1025 88 8000 7.2 270 12:48 16.01.2022
4345 Clouds 0 1024 89 8000 5.66 260 11:42 16.01.2022
4346 Clouds 0 1024 88 10000 2.57 220 10:54 16.01.2022
4347 Clouds 0 1024 88 10000 2.06 220 10:19 16.01.2022
4348 Clouds 0 1024 87 10000 3.09 220 09:40 16.01.2022
4349 Clouds 0 1024 88 8000 4.12 220 09:22 16.01.2022
4350 Mist 0 1023 88 5000 3.6 230 07:30 16.01.2022
4351 Clouds 0 1025 89 10000 2.57 160 00:42 16.01.2022
4352 Clouds -1 1025 87 10000 2.06 120 23:40 15.01.2022
4353 Clouds -2 1026 91 10000 3.09 100 21:23 15.01.2022
4354 Clear -1 1026 89 10000 2.57 110 20:56 15.01.2022
4355 Clouds -1 1026 89 10000 3.6 100 20:38 15.01.2022
4356 Clouds -1 1026 88 10000 3.09 110 19:28 15.01.2022
4357 Clouds 0 1027 87 10000 1.03 100 18:31 15.01.2022
4358 Clouds 2 1027 83 10000 1.03 80 16:52 15.01.2022
4359 Clouds 3 1027 79 10000 1.03 0 15:39 15.01.2022
4360 Clouds 3 1028 82 10000 2.57 100 13:39 15.01.2022
4361 Clouds 2 1030 92 8000 0.51 0 11:46 15.01.2022
4362 Mist 1 1030 89 2800 1.03 0 10:24 15.01.2022
4363 Mist -1 1030 89 4000 1.03 0 05:27 15.01.2022
4364 Mist -1 1032 90 1300 3.09 10 23:44 14.01.2022
4365 Fog -1 1032 90 250 1.54 270 21:37 14.01.2022
4366 Fog -1 1033 90 300 2.57 350 20:37 14.01.2022
4367 Fog -1 1033 90 2800 2.57 330 19:57 14.01.2022
4368 Clear -1 1032 90 6000 0.51 0 18:44 14.01.2022
4369 Clear 1 1032 85 10000 3.09 360 17:53 14.01.2022
4370 Clear 3 1032 81 10000 1.54 330 16:47 14.01.2022
4371 Clear 6 1032 79 10000 2.06 350 15:33 14.01.2022
4372 Clear 6 1033 76 10000 1.03 0 14:29 14.01.2022
4373 Clear 4 1034 79 10000 1.03 0 12:59 14.01.2022
4374 Clear 2 1035 81 10000 1.03 0 11:59 14.01.2022
4375 Clear 0 1035 85 10000 1.03 0 10:40 14.01.2022
4376 Clear -2 1035 92 10000 2.57 100 08:53 14.01.2022
4377 Clear -3 1035 100 10000 1.54 120 07:35 14.01.2022
4378 Fog -2 1037 91 3000 3.09 110 02:28 14.01.2022
4379 Clouds -2 1038 89 8000 2.57 100 00:35 14.01.2022
4380 Clouds -1 1038 89 8000 2.06 140 21:55 13.01.2022
4381 Clear -1 1038 89 9000 2.06 150 21:30 13.01.2022
4382 Clear -1 1039 88 10000 2.06 170 20:27 13.01.2022
4383 Clear 0 1039 88 10000 2.57 150 19:30 13.01.2022
4384 Clear 0 1039 86 10000 2.06 120 18:49 13.01.2022
4385 Clouds 2 1039 84 10000 1.54 170 16:57 13.01.2022
4386 Clouds 3 1039 82 10000 2.06 180 15:45 13.01.2022
4387 Clouds 2 1040 81 10000 2.06 180 15:26 13.01.2022
4388 Clouds 2 1040 80 10000 1.54 0 13:29 13.01.2022
4389 Clouds 1 1041 84 10000 1.54 200 11:38 13.01.2022
4390 Clouds 0 1041 88 10000 1.03 0 09:24 13.01.2022
4391 Clouds 0 1040 86 10000 1.54 210 08:29 13.01.2022
4392 Clouds 0 1040 87 10000 0.51 0 07:59 13.01.2022
4393 Clouds 0 1040 87 10000 1.54 200 07:20 13.01.2022
4394 Clouds -1 1039 89 10000 1.03 150 05:21 13.01.2022
4395 Clouds -1 1039 90 8000 1.54 140 04:55 13.01.2022
4396 Clouds 0 1040 86 10000 0.51 0 01:39 13.01.2022
4397 Clouds 0 1039 85 10000 2.06 200 23:54 12.01.2022
4398 Clouds 0 1039 85 10000 2.06 200 23:34 12.01.2022
4399 Clouds 0 1039 85 10000 1.03 190 22:32 12.01.2022
4400 Clouds 0 1039 85 10000 0 0 21:43 12.01.2022
4401 Clouds 0 1039 85 10000 0.51 0 21:19 12.01.2022
4402 Clouds -1 1039 87 10000 1.54 120 20:47 12.01.2022
4403 Clear 0 1038 82 10000 0.51 0 18:52 12.01.2022
4404 Clear 0 1038 83 10000 0 0 18:25 12.01.2022
4405 Clear 1 1038 77 10000 0.51 0 16:57 12.01.2022
4406 Clouds 1 1038 74 10000 1.03 0 15:38 12.01.2022
4407 Clouds 2 1038 75 10000 1.54 280 14:39 12.01.2022
4408 Clouds 1 1038 80 10000 1.54 200 12:57 12.01.2022
4409 Clouds -2 1037 84 10000 2.06 150 09:57 12.01.2022
4410 Clouds -2 1037 84 10000 1.54 70 07:58 12.01.2022
4411 Clouds -2 1037 84 10000 1.54 70 07:33 12.01.2022
4412 Clouds -1 1035 80 10000 1.03 0 02:38 12.01.2022
4413 Clouds 0 1035 80 10000 1.54 80 23:27 11.01.2022
4414 Clouds 0 1035 82 10000 1.54 60 22:40 11.01.2022
4415 Clouds 0 1035 81 10000 2.06 70 22:18 11.01.2022
4416 Clouds 0 1034 81 10000 2.06 40 20:40 11.01.2022
4417 Clouds 1 1034 80 10000 2.06 20 19:40 11.01.2022
4418 Clouds 2 1033 77 10000 1.54 40 17:55 11.01.2022
4419 Clouds 3 1033 73 10000 2.06 60 16:47 11.01.2022
4420 Clouds 3 1033 73 10000 1.54 50 16:28 11.01.2022
4421 Clouds 3 1032 72 10000 1.03 0 14:57 11.01.2022
4422 Clouds 3 1032 71 10000 1.03 0 14:38 11.01.2022
4423 Clouds 3 1032 73 10000 2.06 60 13:52 11.01.2022
4424 Clouds 3 1032 71 10000 2.06 40 13:28 11.01.2022
4425 Clouds 3 1032 76 10000 3.09 10 12:36 11.01.2022
4426 Clouds 2 1032 84 10000 2.57 10 10:40 11.01.2022
4427 Clouds 1 1031 91 10000 0.51 0 08:26 11.01.2022
4428 Clouds 2 1029 93 9000 1.03 310 04:30 11.01.2022
4429 Clouds 2 1028 91 7000 0.51 270 00:28 11.01.2022
4430 Clouds 2 1028 91 7000 1.03 340 23:40 10.01.2022
4431 Clouds 2 1029 88 10000 1.81 32 22:42 10.01.2022
4432 Clouds 2 1029 88 10000 1.81 32 22:18 10.01.2022
4433 Clouds 1 1027 91 7000 2.06 350 21:36 10.01.2022
4434 Clouds 2 1029 88 10000 1.77 27 21:18 10.01.2022
4435 Clouds 2 1026 91 9000 2.06 350 20:54 10.01.2022
4436 Clouds 2 1026 91 10000 2.06 340 20:19 10.01.2022
4437 Clouds 2 1026 91 10000 2.06 350 19:39 10.01.2022
4438 Clouds 2 1025 91 10000 2.06 330 19:19 10.01.2022
4439 Clouds 2 1025 90 10000 1.54 330 18:47 10.01.2022
4440 Clouds 3 1023 87 10000 2.57 340 16:49 10.01.2022
4441 Clouds 3 1022 87 10000 2.57 320 16:27 10.01.2022
4442 Clouds 3 1021 89 10000 2.06 310 14:49 10.01.2022
4443 Clouds 3 1020 87 10000 1.03 0 13:35 10.01.2022
4444 Clouds 3 1019 87 9000 1.03 0 11:57 10.01.2022
4445 Clouds 1 1018 88 6000 1.54 340 10:50 10.01.2022
4446 Clouds 0 1017 91 8000 0.51 360 09:40 10.01.2022
4447 Snow 1 1013 87 10000 0.51 0 05:52 10.01.2022
4448 Clouds 1 1012 87 10000 1.03 90 04:48 10.01.2022
4449 Clouds 1 1010 89 10000 1.54 180 01:22 10.01.2022
4450 Clouds 1 1009 87 10000 1.54 210 00:22 10.01.2022
4451 Clouds 1 1008 89 10000 1.54 150 22:48 09.01.2022
4452 Clouds 1 1008 87 10000 1.03 0 22:21 09.01.2022
4453 Clouds 2 1007 87 10000 2.06 220 21:42 09.01.2022
4454 Clouds 2 1007 88 10000 1.54 210 21:22 09.01.2022
4455 Clouds 2 1006 89 10000 1.54 220 20:47 09.01.2022
4456 Clouds 2 1006 90 10000 2.57 230 20:29 09.01.2022
4457 Clouds 2 1006 88 10000 2.57 230 19:42 09.01.2022
4458 Clouds 2 1005 88 10000 2.57 230 19:21 09.01.2022
4459 Clear 2 1005 87 10000 2.06 230 18:47 09.01.2022
4460 Clear 2 1005 87 10000 2.06 240 18:28 09.01.2022
4461 Clear 3 1004 87 10000 4.12 240 17:30 09.01.2022
4462 Clouds 3 1004 87 10000 4.63 240 16:50 09.01.2022
4463 Clouds 3 1003 85 10000 3.6 250 15:52 09.01.2022
4464 Clouds 3 1003 88 10000 5.14 260 15:33 09.01.2022
4465 Clouds 3 1002 87 10000 6.17 250 14:39 09.01.2022
4466 Clouds 3 1002 88 10000 5.66 240 13:49 09.01.2022
4467 Clouds 2 1001 87 10000 6.17 240 12:26 09.01.2022
4468 Clouds 2 1001 88 10000 7.72 250 11:46 09.01.2022
4469 Clouds 2 998 87 10000 8.75 250 09:55 09.01.2022
4470 Snow 2 997 88 10000 6.17 250 09:29 09.01.2022
4471 Clouds 3 996 87 10000 5.66 200 08:25 09.01.2022
4472 Clouds 1 998 87 10000 6.17 130 01:43 09.01.2022
4473 Clouds 0 999 89 10000 7.2 130 01:19 09.01.2022
4474 Clouds 0 1001 89 10000 6.17 120 23:38 08.01.2022
4475 Clouds 0 1003 85 10000 5.14 130 22:58 08.01.2022
4476 Clouds 0 1006 87 10000 3.6 140 21:33 08.01.2022
4477 Snow 0 1007 87 10000 4.12 140 20:45 08.01.2022
4478 Clear 0 1007 87 10000 4.63 120 20:23 08.01.2022
4479 Snow 0 1008 87 10000 4.12 120 19:55 08.01.2022
4480 Clear 0 1010 87 10000 2.57 160 17:49 08.01.2022
4481 Clouds 0 1011 85 10000 2.57 170 16:57 08.01.2022
4482 Clouds 1 1012 86 10000 3.09 230 15:47 08.01.2022
4483 Clouds 2 1013 83 10000 4.63 270 14:40 08.01.2022
4484 Clouds 1 1013 91 5000 7.2 280 12:36 08.01.2022
4485 Clouds 1 1010 88 10000 6.17 280 10:49 08.01.2022
4486 Clouds 1 1010 88 10000 4.12 270 10:24 08.01.2022
4487 Snow 0 1009 90 3000 2.06 170 09:34 08.01.2022
4488 Snow 0 1008 90 2000 4.63 120 07:18 08.01.2022
4489 Clouds 0 1012 89 10000 2.57 120 02:33 08.01.2022
4490 Clouds 0 1013 88 10000 1.54 120 00:40 08.01.2022
4491 Clouds 0 1014 90 10000 2.06 120 22:40 07.01.2022
4492 Clouds 0 1014 89 10000 2.57 170 20:56 07.01.2022
4493 Clouds 0 1014 89 10000 3.09 170 19:56 07.01.2022
4494 Clouds 0 1015 91 9000 2.57 150 18:53 07.01.2022
4495 Clouds 0 1015 91 9000 2.57 150 18:34 07.01.2022
4496 Clouds 0 1015 89 5000 3.6 170 17:25 07.01.2022
4497 Clouds 0 1015 89 4500 4.63 160 16:23 07.01.2022
4498 Clouds 0 1016 84 10000 4.63 170 13:53 07.01.2022
4499 Clouds 1 1016 84 10000 5.14 180 13:19 07.01.2022
4500 Clouds 1 1016 84 10000 5.14 170 12:48 07.01.2022
4501 Clouds -2 1018 88 10000 3.09 160 09:21 07.01.2022
4502 Clear -3 1020 90 10000 3.09 100 02:54 07.01.2022
4503 Clear -3 1020 91 10000 4.12 100 01:53 07.01.2022
4504 Clear -3 1020 91 10000 4.12 100 01:27 07.01.2022
4505 Clear -3 1020 89 10000 3.6 100 00:57 07.01.2022
4506 Clear -2 1021 89 10000 2.57 110 22:46 06.01.2022
4507 Clouds -2 1021 89 10000 1.54 110 21:23 06.01.2022
4508 Clouds -1 1020 88 10000 0.51 0 20:20 06.01.2022
4509 Clouds -1 1020 88 10000 0.51 0 19:41 06.01.2022
4510 Clouds 1 1020 81 10000 2.06 230 17:53 06.01.2022
4511 Clouds 1 1020 80 10000 1.54 230 17:34 06.01.2022
4512 Clouds 2 1019 74 10000 1.54 260 16:42 06.01.2022
4513 Clouds 3 1018 71 10000 2.06 270 15:46 06.01.2022
4514 Clouds 3 1018 72 10000 1.54 290 15:25 06.01.2022
4515 Clouds 3 1018 75 10000 2.06 290 14:43 06.01.2022
4516 Clouds 3 1018 74 10000 3.6 300 14:18 06.01.2022
4517 Clouds 3 1018 81 10000 4.12 300 12:43 06.01.2022
4518 Clouds 3 1017 84 10000 5.14 300 11:42 06.01.2022
4519 Clouds 3 1017 84 10000 5.14 300 11:42 06.01.2022
4520 Clouds 2 1017 86 10000 5.14 290 11:22 06.01.2022
4521 Clouds 1 1015 87 10000 5.14 270 08:51 06.01.2022
4522 Clouds 2 1011 82 10000 6.17 250 00:52 06.01.2022
4523 Clouds 2 1011 81 10000 4.63 250 23:37 05.01.2022
4524 Clouds 2 1010 79 10000 5.66 240 22:56 05.01.2022
4525 Clouds 2 1010 79 10000 6.69 250 22:31 05.01.2022
4526 Clouds 2 1010 78 10000 6.69 250 21:47 05.01.2022
4527 Clouds 2 1010 78 10000 6.69 240 20:50 05.01.2022
4528 Clouds 2 1010 77 10000 7.2 240 20:18 05.01.2022
4529 Clouds 1 1009 74 10000 5.14 230 18:42 05.01.2022
4530 Rain 1 1009 75 10000 5.66 230 17:23 05.01.2022
4531 Rain 2 1008 75 10000 6.17 250 16:38 05.01.2022
4532 Clouds 2 1008 73 10000 6.17 260 15:21 05.01.2022
4533 Clouds 2 1007 72 10000 8.23 280 13:51 05.01.2022
4534 Clouds 2 1007 73 10000 8.23 270 12:58 05.01.2022
4535 Clouds 2 1005 87 10000 7.2 290 10:32 05.01.2022
4536 Clouds 4 1000 87 10000 4.12 200 07:45 05.01.2022
4537 Clouds 5 1000 86 10000 4.12 200 06:24 05.01.2022
4538 Rain 3 1000 89 10000 3.09 210 00:58 05.01.2022
4539 Rain 4 1000 89 10000 4.12 210 23:27 04.01.2022
4540 Rain 4 1000 89 10000 3.6 210 22:42 04.01.2022
4541 Rain 4 1000 89 10000 3.09 260 21:21 04.01.2022
4542 Rain 5 999 89 10000 3.09 260 19:20 04.01.2022
4543 Rain 5 998 89 10000 4.63 320 17:51 04.01.2022
4544 Rain 6 997 88 10000 7.2 320 16:43 04.01.2022
4545 Clouds 7 996 89 10000 7.2 320 16:23 04.01.2022
4546 Rain 11 994 89 10000 6.69 220 14:54 04.01.2022
4547 Clouds 11 994 88 10000 6.69 220 14:34 04.01.2022
4548 Clouds 10 994 89 10000 4.12 190 13:27 04.01.2022
4549 Rain 9 997 87 10000 4.63 160 10:41 04.01.2022
4550 Clouds 8 998 87 10000 4.63 170 09:20 04.01.2022
4551 Rain 8 999 88 10000 4.63 170 08:30 04.01.2022
4552 Rain 8 1005 91 10000 3.09 160 02:31 04.01.2022
4553 Rain 8 1007 85 10000 3.09 160 00:41 04.01.2022
4554 Clouds 8 1009 81 10000 2.57 200 23:19 03.01.2022
4555 Clouds 8 1010 81 10000 3.09 180 21:52 03.01.2022
4556 Clouds 8 1010 82 10000 3.09 180 21:32 03.01.2022
4557 Rain 9 1011 81 10000 3.09 180 19:56 03.01.2022
4558 Clouds 9 1012 82 10000 3.6 180 18:48 03.01.2022
4559 Clouds 9 1012 82 10000 2.57 150 18:27 03.01.2022
4560 Clouds 9 1013 80 10000 4.12 240 16:58 03.01.2022
4561 Rain 10 1014 82 10000 5.66 230 14:56 03.01.2022
4562 Rain 9 1015 84 10000 4.12 220 14:30 03.01.2022
4563 Clouds 9 1016 86 10000 5.14 230 12:39 03.01.2022
4564 Clouds 9 1016 86 10000 4.63 230 11:35 03.01.2022
4565 Clouds 8 1017 87 10000 2.57 230 10:26 03.01.2022
4566 Rain 7 1016 88 10000 4.12 220 08:47 03.01.2022
4567 Clouds 7 1016 86 10000 5.66 260 07:34 03.01.2022
4568 Clouds 10 1016 76 10000 5.66 230 23:55 02.01.2022
4569 Clear 10 1016 78 10000 5.66 230 23:21 02.01.2022
4570 Clear 10 1016 80 10000 5.66 220 22:53 02.01.2022
4571 Clouds 9 1017 81 10000 3.09 190 21:39 02.01.2022
4572 Clouds 9 1017 82 10000 4.12 230 20:33 02.01.2022
4573 Clouds 9 1018 81 10000 2.57 270 19:54 02.01.2022
4574 Clear 9 1017 80 10000 2.57 280 19:29 02.01.2022
4575 Clear 9 1017 78 10000 2.57 200 18:39 02.01.2022
4576 Clear 9 1017 78 10000 2.57 200 18:39 02.01.2022
4577 Clouds 9 1017 80 10000 2.57 120 17:43 02.01.2022
4578 Clear 8 1016 84 10000 2.57 140 17:22 02.01.2022
4579 Clear 9 1017 82 10000 1.03 0 16:59 02.01.2022
4580 Clear 9 1016 84 10000 3.6 140 16:24 02.01.2022
4581 Clear 8 1017 86 10000 3.09 140 14:21 02.01.2022
4582 Clear 7 1019 84 10000 2.06 170 12:39 02.01.2022
4583 Clear 7 1019 88 10000 2.57 120 11:57 02.01.2022
4584 Clear 6 1019 88 10000 2.57 110 11:23 02.01.2022
4585 Clear 6 1019 92 10000 3.6 120 10:44 02.01.2022
4586 Clear 4 1020 87 10000 2.57 90 08:42 02.01.2022
4587 Fog 5 1022 95 5000 2.57 100 03:25 02.01.2022
4588 Fog 5 1024 92 10000 1.03 120 23:58 01.01.2022
4589 Fog 5 1024 92 10000 1.03 120 23:39 01.01.2022
4590 Clear 6 1024 95 10000 3.09 110 22:55 01.01.2022
4591 Fog 6 1025 92 10000 3.09 100 22:19 01.01.2022
4592 Fog 5 1025 93 10000 3.6 110 21:43 01.01.2022
4593 Fog 6 1026 91 10000 2.06 100 20:53 01.01.2022
4594 Clear 7 1025 89 10000 3.09 100 19:55 01.01.2022
4595 Clouds 7 1026 88 10000 3.09 110 18:58 01.01.2022
4596 Clouds 8 1026 83 10000 1.03 130 17:57 01.01.2022
4597 Clouds 10 1027 78 10000 2.06 220 16:35 01.01.2022
4598 Clouds 11 1026 75 10000 1.54 200 15:57 01.01.2022
4599 Clouds 12 1027 78 10000 3.09 240 14:57 01.01.2022
4600 Clouds 12 1027 81 10000 3.09 240 13:42 01.01.2022
4601 Clouds 11 1027 83 10000 3.6 230 12:49 01.01.2022
4602 Clouds 11 1028 85 10000 3.09 240 11:47 01.01.2022
4603 Clouds 11 1028 85 10000 3.09 240 11:20 01.01.2022
4604 Clouds 10 1027 86 10000 2.06 220 09:49 01.01.2022
4605 Clouds 10 1027 87 10000 1.54 240 09:21 01.01.2022
4606 Clouds 10 1027 86 10000 2.57 240 08:24 01.01.2022
4607 Clouds 10 1026 87 10000 3.09 230 07:41 01.01.2022
4608 Clouds 10 1026 87 10000 1.03 0 06:45 01.01.2022
4609 Clouds 10 1026 87 10000 3.09 230 05:26 01.01.2022
4610 Clouds 10 1026 87 10000 2.57 240 04:37 01.01.2022
4611 Clouds 10 1025 86 10000 3.6 270 00:41 01.01.2022
4612 Clouds 10 1024 84 10000 3.6 270 23:22 31.12.2021
4613 Clear 10 1023 84 10000 1.54 230 21:52 31.12.2021
4614 Clear 10 1023 85 10000 2.57 300 20:32 31.12.2021
4615 Clear 10 1022 86 10000 2.57 190 19:29 31.12.2021
4616 Clear 11 1021 87 10000 2.06 170 18:32 31.12.2021
4617 Clear 11 1021 83 10000 2.06 150 17:38 31.12.2021
4618 Clear 11 1021 84 10000 1.54 240 17:18 31.12.2021
4619 Clear 12 1021 79 10000 2.06 240 16:21 31.12.2021
4620 Clear 13 1021 78 10000 2.06 230 15:53 31.12.2021
4621 Clear 13 1021 77 10000 2.06 210 15:28 31.12.2021
4622 Clouds 14 1022 74 10000 3.6 220 14:47 31.12.2021
4623 Clouds 14 1022 74 10000 3.6 230 14:28 31.12.2021
4624 Clouds 14 1022 77 10000 4.12 230 13:36 31.12.2021
4625 Clouds 13 1022 79 10000 3.6 220 12:44 31.12.2021
4626 Clouds 13 1022 79 10000 3.09 210 11:43 31.12.2021
4627 Clouds 12 1023 80 10000 3.09 220 11:20 31.12.2021
4628 Clouds 11 1023 86 10000 3.09 210 10:32 31.12.2021
4629 Clouds 11 1023 86 10000 3.09 230 09:52 31.12.2021
4630 Clouds 10 1023 87 10000 2.06 220 09:32 31.12.2021
4631 Clouds 10 1022 89 10000 2.57 230 08:25 31.12.2021
4632 Clouds 10 1022 87 10000 2.57 240 07:30 31.12.2021
4633 Clouds 12 1022 87 10000 2.57 240 23:23 30.12.2021
4634 Clouds 12 1022 87 10000 4.63 250 22:33 30.12.2021
4635 Clouds 12 1022 87 10000 5.14 250 21:54 30.12.2021
4636 Clouds 12 1022 87 10000 5.14 250 21:36 30.12.2021
4637 Clouds 12 1021 89 10000 5.14 240 20:45 30.12.2021
4638 Clouds 12 1021 87 10000 3.6 240 20:24 30.12.2021
4639 Clouds 12 1021 86 10000 4.63 240 19:44 30.12.2021
4640 Clouds 13 1020 90 8000 1.54 230 18:29 30.12.2021
4641 Clouds 13 1020 89 10000 2.57 220 17:52 30.12.2021
4642 Clouds 13 1019 88 10000 4.12 240 16:19 30.12.2021
4643 Clouds 13 1019 89 10000 3.6 240 15:42 30.12.2021
4644 Clouds 13 1019 89 10000 4.63 250 14:38 30.12.2021
4645 Clouds 13 1019 89 10000 4.63 250 13:33 30.12.2021
4646 Drizzle 13 1019 89 10000 5.66 260 12:40 30.12.2021
4647 Mist 12 1018 90 4500 2.57 180 10:58 30.12.2021
4648 Drizzle 11 1018 91 2700 2.57 150 09:56 30.12.2021
4649 Clouds 10 1018 90 10000 1.03 0 08:56 30.12.2021
4650 Rain 10 1017 90 10000 2.57 250 06:52 30.12.2021
4651 Clouds 11 1014 89 10000 5.14 270 03:41 30.12.2021
4652 Clouds 11 1013 88 10000 6.17 270 02:42 30.12.2021
4653 Clouds 8 1011 90 4000 2.06 150 23:42 29.12.2021
4654 Clouds 7 1010 89 4000 3.09 160 23:22 29.12.2021
4655 Clouds 7 1010 90 4500 3.6 140 22:19 29.12.2021
4656 Clouds 7 1010 90 8000 3.09 150 21:33 29.12.2021
4657 Rain 8 1010 89 10000 2.57 150 20:38 29.12.2021
4658 Rain 7 1010 89 10000 2.06 160 19:48 29.12.2021
4659 Rain 7 1010 89 10000 3.09 180 18:52 29.12.2021
4660 Clouds 8 1011 87 10000 2.57 210 17:56 29.12.2021
4661 Clouds 8 1011 87 10000 2.06 220 17:27 29.12.2021
4662 Clouds 8 1010 88 10000 1.54 250 16:24 29.12.2021
4663 Clouds 8 1010 86 10000 4.63 250 15:48 29.12.2021
4664 Clouds 8 1010 88 10000 3.6 250 14:19 29.12.2021
4665 Clouds 8 1009 89 10000 4.12 250 12:37 29.12.2021
4666 Drizzle 8 1009 87 7000 6.69 270 11:35 29.12.2021
4667 Clouds 8 1007 87 10000 7.2 270 09:59 29.12.2021
4668 Clouds 8 1006 87 10000 7.72 260 07:52 29.12.2021
4669 Clouds 8 1005 89 10000 6.69 270 06:39 29.12.2021
4670 Clouds 8 1004 89 10000 7.72 260 06:18 29.12.2021
4671 Clouds 8 1003 89 10000 7.2 260 05:36 29.12.2021
4672 Clouds 7 1001 88 10000 7.72 250 02:46 29.12.2021
4673 Clouds 7 999 89 10000 5.14 210 00:23 29.12.2021
4674 Rain 7 999 88 10000 5.14 190 23:35 28.12.2021
4675 Clouds 7 999 88 10000 5.14 180 22:42 28.12.2021
4676 Clouds 7 1000 88 10000 4.12 190 22:24 28.12.2021
4677 Clouds 6 1000 86 10000 4.12 210 21:37 28.12.2021
4678 Clouds 6 1000 88 10000 4.12 210 20:40 28.12.2021
4679 Clouds 7 999 86 10000 7.72 220 19:25 28.12.2021
4680 Rain 7 999 87 10000 2.06 220 18:39 28.12.2021
4681 Rain 7 998 89 9000 3.09 180 17:59 28.12.2021
4682 Clouds 8 997 89 7000 3.6 160 16:34 28.12.2021
4683 Clouds 8 997 89 10000 4.63 160 15:50 28.12.2021
4684 Clouds 8 997 87 10000 4.12 160 15:21 28.12.2021
4685 Clouds 8 998 89 10000 4.63 160 14:48 28.12.2021
4686 Clouds 7 998 89 10000 5.14 160 14:21 28.12.2021
4687 Clouds 7 998 87 10000 5.66 170 13:42 28.12.2021
4688 Clouds 7 998 87 10000 5.66 170 13:42 28.12.2021
4689 Clouds 7 998 87 10000 6.17 160 13:24 28.12.2021
4690 Clouds 7 998 87 10000 6.17 160 13:24 28.12.2021
4691 Clouds 6 999 89 7000 5.14 160 12:49 28.12.2021
4692 Rain 5 1000 87 10000 5.66 140 11:36 28.12.2021
4693 Rain 4 1001 89 7000 5.66 130 08:30 28.12.2021
4694 Clouds 4 1001 89 6000 5.66 130 06:41 28.12.2021
4695 Clouds 3 1004 88 6000 4.63 120 23:44 27.12.2021
4696 Clouds 2 1004 90 8000 4.63 120 23:23 27.12.2021
4697 Clouds 3 1004 90 10000 4.12 130 21:42 27.12.2021
4698 Clouds 3 1004 90 10000 3.09 130 21:20 27.12.2021
4699 Drizzle 3 1004 90 7000 4.12 120 19:58 27.12.2021
4700 Drizzle 2 1004 89 7000 4.12 120 19:39 27.12.2021
4701 Clouds 3 1004 88 7000 4.63 120 18:23 27.12.2021
4702 Clouds 3 1004 89 7000 4.63 110 17:46 27.12.2021
4703 Clouds 4 1004 89 7000 3.6 130 16:40 27.12.2021
4704 Clouds 4 1003 89 6000 3.6 110 15:52 27.12.2021
4705 Clouds 4 1004 89 6000 4.12 130 14:32 27.12.2021
4706 Clouds 4 1004 89 6000 5.14 120 13:39 27.12.2021
4707 Clouds 4 1005 89 6000 5.14 140 12:36 27.12.2021
4708 Mist 3 1005 88 3600 3.6 120 10:31 27.12.2021
4709 Mist 3 1005 90 5000 4.63 110 09:47 27.12.2021
4710 Clouds 2 1005 90 6000 3.09 120 07:38 27.12.2021
4711 Clouds 2 1005 90 6000 3.6 110 07:20 27.12.2021
4712 Rain 2 1006 89 10000 3.6 120 02:19 27.12.2021
4713 Clouds 1 1007 89 10000 4.12 110 23:58 26.12.2021
4714 Clouds 1 1007 89 10000 4.12 110 23:36 26.12.2021
4715 Clouds 2 1007 89 10000 4.12 110 22:23 26.12.2021
4716 Clouds 2 1008 89 10000 4.12 110 20:54 26.12.2021
4717 Clouds 2 1008 90 10000 4.63 110 19:47 26.12.2021
4718 Clouds 1 1008 90 10000 3.6 100 18:24 26.12.2021
4719 Clouds 2 1008 86 10000 3.09 90 16:55 26.12.2021
4720 Clouds 2 1008 88 10000 3.6 90 14:28 26.12.2021
4721 Clouds 2 1008 88 10000 3.09 90 13:40 26.12.2021
4722 Clouds 2 1008 88 10000 4.63 100 13:19 26.12.2021
4723 Rain 1 1008 88 10000 3.09 90 12:33 26.12.2021
4724 Rain 1 1009 89 8000 2.06 80 10:42 26.12.2021
4725 Drizzle 0 1008 89 10000 2.06 80 09:25 26.12.2021
4726 Clouds 0 1008 87 10000 1.54 70 08:44 26.12.2021
4727 Snow 0 1008 88 10000 3.09 100 07:58 26.12.2021
4728 Clouds -1 1008 86 10000 3.6 90 01:29 26.12.2021
4729 Clouds 0 1008 85 10000 4.12 80 23:56 25.12.2021
4730 Clouds 0 1008 88 10000 3.6 80 23:27 25.12.2021
4731 Clouds 0 1008 86 10000 2.57 80 22:26 25.12.2021
4732 Clouds 0 1008 85 10000 3.09 80 20:59 25.12.2021
4733 Clouds 0 1008 84 10000 3.6 80 19:26 25.12.2021
4734 Clouds 0 1008 87 10000 2.57 60 18:56 25.12.2021
4735 Snow 1 1007 87 9000 2.06 50 17:38 25.12.2021
4736 Snow 1 1007 87 8000 2.06 50 16:41 25.12.2021
4737 Rain 2 1006 87 10000 2.06 30 15:24 25.12.2021
4738 Clouds 2 1005 88 10000 2.06 40 13:31 25.12.2021
4739 Clouds 2 1005 87 10000 2.06 30 11:53 25.12.2021
4740 Rain 3 1004 90 7000 2.57 20 09:57 25.12.2021
4741 Rain 4 1004 90 2800 3.6 40 09:37 25.12.2021
4742 Fog 6 1004 90 9000 1.54 190 04:34 25.12.2021
4743 Clouds 6 1004 90 5000 1.03 210 01:25 25.12.2021
4744 Clouds 6 1004 90 6000 1.54 210 23:42 24.12.2021
4745 Clouds 6 1005 91 6000 2.06 230 19:50 24.12.2021
4746 Clouds 6 1005 90 6000 2.06 260 19:24 24.12.2021
4747 Drizzle 7 1005 88 6000 3.6 240 16:59 24.12.2021
4748 Drizzle 7 1005 88 4800 4.63 240 16:22 24.12.2021
4749 Drizzle 7 1005 88 4000 2.57 250 15:48 24.12.2021
4750 Drizzle 7 1005 88 5000 3.09 250 15:18 24.12.2021
4751 Drizzle 7 1005 88 7000 3.6 250 14:31 24.12.2021
4752 Clouds 7 1005 88 8000 3.6 250 13:42 24.12.2021
4753 Drizzle 7 1006 88 7000 4.12 250 12:49 24.12.2021
4754 Drizzle 7 1006 89 5000 4.63 250 12:21 24.12.2021
4755 Drizzle 7 1006 88 10000 5.14 240 11:30 24.12.2021
4756 Drizzle 7 1006 86 10000 5.66 240 10:59 24.12.2021
4757 Drizzle 7 1006 87 10000 5.66 240 10:33 24.12.2021
4758 Clouds 8 1006 85 10000 7.2 260 08:36 24.12.2021
4759 Clouds 8 1006 86 10000 6.17 250 07:58 24.12.2021
4760 Clouds 8 1006 83 10000 7.72 250 06:18 24.12.2021
4761 Clouds 6 1009 85 10000 6.17 250 00:20 24.12.2021
4762 Clouds 6 1009 82 10000 5.14 260 23:33 23.12.2021
4763 Clouds 5 1009 85 10000 2.06 130 22:44 23.12.2021
4764 Clouds 5 1009 85 10000 1.54 150 22:21 23.12.2021
4765 Clouds 4 1009 81 10000 2.57 170 21:34 23.12.2021
4766 Clouds 2 1010 86 10000 3.09 130 20:21 23.12.2021
4767 Clouds 2 1010 84 10000 3.6 130 19:27 23.12.2021
4768 Clouds 1 1011 84 10000 3.09 130 17:57 23.12.2021
4769 Clouds 1 1012 83 10000 3.09 130 16:58 23.12.2021
4770 Snow 0 1013 85 10000 3.09 130 16:26 23.12.2021
4771 Snow 0 1013 83 10000 3.09 140 15:32 23.12.2021
4772 Snow 0 1013 84 10000 3.09 130 14:56 23.12.2021
4773 Clear 0 1013 84 10000 3.09 130 14:38 23.12.2021
4774 Clear -1 1014 86 10000 3.09 120 13:23 23.12.2021
4775 Clouds -3 1016 86 9000 3.6 150 10:54 23.12.2021
4776 Clouds -3 1016 86 9000 3.6 150 10:54 23.12.2021
4777 Clouds -4 1017 86 9000 4.12 140 09:52 23.12.2021
4778 Clouds -4 1017 86 9000 4.12 140 09:31 23.12.2021
4779 Clouds -4 1017 89 6000 3.6 150 08:25 23.12.2021
4780 Clear -4 1018 86 10000 3.6 130 04:39 23.12.2021
4781 Clear -5 1022 86 10000 2.57 110 23:43 22.12.2021
4782 Clear -5 1022 86 10000 3.6 110 22:49 22.12.2021
4783 Clear -4 1022 84 10000 3.6 100 21:57 22.12.2021
4784 Clear -4 1023 86 10000 3.6 100 21:29 22.12.2021
4785 Clear -4 1023 83 10000 3.09 100 20:51 22.12.2021
4786 Clear -4 1023 83 10000 3.09 90 20:33 22.12.2021
4787 Clear -3 1023 81 10000 2.57 100 19:35 22.12.2021
4788 Clear -3 1024 80 10000 2.57 100 18:18 22.12.2021
4789 Clear -2 1024 80 10000 3.6 110 17:35 22.12.2021
4790 Clear 0 1024 71 10000 2.57 140 15:46 22.12.2021
4791 Clouds 0 1025 79 10000 4.63 120 13:44 22.12.2021
4792 Clear -1 1026 84 10000 3.09 130 12:41 22.12.2021
4793 Clear -3 1027 86 10000 1.54 120 10:48 22.12.2021
4794 Clear -6 1027 90 10000 0.51 0 09:40 22.12.2021
4795 Clear -6 1026 91 10000 1.03 110 07:48 22.12.2021
4796 Clear -6 1026 86 10000 0.51 0 05:51 22.12.2021
4797 Clear -6 1026 90 10000 0.51 0 05:28 22.12.2021
4798 Clear -5 1026 90 10000 0.51 30 04:54 22.12.2021
4799 Clear -6 1026 94 10000 0.51 0 04:30 22.12.2021
4800 Clear -6 1026 94 10000 0.51 0 04:30 22.12.2021
4801 Clear -5 1026 90 10000 1.03 90 03:33 22.12.2021
4802 Clear -4 1026 90 10000 1.03 80 00:57 22.12.2021
4803 Clear -4 1025 95 10000 0.51 0 23:32 21.12.2021
4804 Clear -5 1025 92 10000 0.51 0 22:29 21.12.2021
4805 Clear -5 1025 90 10000 0.51 360 21:44 21.12.2021
4806 Clear -5 1025 90 10000 0.51 20 21:23 21.12.2021
4807 Clear -3 1024 90 10000 0.51 0 20:22 21.12.2021
4808 Clear -3 1025 90 10000 1.54 10 19:43 21.12.2021
4809 Clear -3 1024 92 10000 0.51 0 18:48 21.12.2021
4810 Clear -2 1024 87 10000 0.51 0 18:21 21.12.2021
4811 Clouds -2 1024 86 10000 1.54 30 17:42 21.12.2021
4812 Clouds 0 1024 77 10000 1.54 360 16:35 21.12.2021
4813 Clouds 1 1024 75 10000 2.06 350 15:25 21.12.2021
4814 Clouds 1 1024 81 10000 0.51 0 13:51 21.12.2021
4815 Clouds 1 1024 83 10000 1.03 0 13:31 21.12.2021
4816 Clear -1 1025 88 10000 1.03 0 11:57 21.12.2021
4817 Clear -3 1025 91 10000 1.03 0 10:25 21.12.2021
4818 Clear -4 1025 91 10000 0.51 0 09:33 21.12.2021
4819 Clear -5 1025 91 10000 0.51 0 08:28 21.12.2021
4820 Clear -4 1025 91 10000 1.03 20 07:32 21.12.2021
4821 Clear -4 1025 91 10000 0.51 0 06:50 21.12.2021
4822 Clear -3 1025 91 10000 0.51 70 03:18 21.12.2021
4823 Clear -4 1026 96 10000 0.51 0 23:59 20.12.2021
4824 Clear -4 1026 92 10000 0.51 0 23:32 20.12.2021
4825 Clear -3 1026 91 10000 0 0 22:33 20.12.2021
4826 Clear -3 1026 91 10000 0.51 0 21:48 20.12.2021
4827 Clear -2 1026 88 10000 1.03 120 21:24 20.12.2021
4828 Clear -2 1026 90 10000 0.51 20 20:45 20.12.2021
4829 Clear -2 1026 88 10000 0.51 0 19:54 20.12.2021
4830 Clear -2 1026 89 10000 1.03 40 19:31 20.12.2021
4831 Clear -2 1026 88 10000 0.51 0 19:31 20.12.2021
4832 Clear -1 1025 89 10000 1.03 30 18:54 20.12.2021
4833 Clear -1 1025 85 10000 1.03 10 17:53 20.12.2021
4834 Clear 0 1025 80 10000 1.03 340 17:25 20.12.2021
4835 Clear 2 1025 74 10000 1.54 300 16:40 20.12.2021
4836 Clear 3 1025 69 10000 2.06 300 15:51 20.12.2021
4837 Clouds 4 1025 67 10000 2.06 360 14:53 20.12.2021
4838 Clouds 4 1025 73 10000 3.6 350 13:18 20.12.2021
4839 Clouds 3 1026 86 10000 1.54 340 11:19 20.12.2021
4840 Fog 0 1025 91 800 0.51 0 09:48 20.12.2021
4841 Fog 0 1025 91 2000 1.03 310 09:29 20.12.2021
4842 Fog 0 1025 91 500 0.51 0 08:42 20.12.2021
4843 Clouds 1 1024 91 10000 1.54 340 07:50 20.12.2021
4844 Clouds 2 1024 91 10000 1.54 340 07:30 20.12.2021
4845 Clouds 3 1023 89 10000 3.09 310 04:24 20.12.2021
4846 Clouds 4 1023 88 10000 3.6 270 23:58 19.12.2021
4847 Drizzle 4 1024 89 10000 3.6 270 22:45 19.12.2021
4848 Drizzle 4 1024 90 10000 3.6 260 21:50 19.12.2021
4849 Drizzle 4 1024 89 10000 4.12 280 21:29 19.12.2021
4850 Clouds 4 1024 89 10000 2.57 300 20:31 19.12.2021
4851 Clouds 4 1024 89 10000 4.12 300 19:49 19.12.2021
4852 Clouds 4 1023 89 10000 4.12 260 18:59 19.12.2021
4853 Clouds 4 1024 87 10000 4.63 260 18:29 19.12.2021
4854 Clouds 4 1024 87 10000 3.6 260 17:51 19.12.2021
4855 Clouds 4 1024 87 10000 3.09 260 17:19 19.12.2021
4856 Clouds 4 1025 87 10000 3.6 280 16:26 19.12.2021
4857 Clouds 3 1025 89 10000 4.12 270 15:31 19.12.2021
4858 Clouds 3 1025 89 10000 4.63 260 14:59 19.12.2021
4859 Clouds 3 1025 89 10000 4.63 260 14:36 19.12.2021
4860 Clouds 3 1026 89 10000 5.14 270 13:22 19.12.2021
4861 Clouds 3 1027 88 10000 5.14 280 12:36 19.12.2021
4862 Clouds 3 1027 89 10000 5.14 280 12:18 19.12.2021
4863 Clouds 3 1028 88 10000 5.66 270 11:18 19.12.2021
4864 Clouds 3 1029 88 10000 4.12 260 10:25 19.12.2021
4865 Clouds 3 1029 87 10000 2.57 250 09:37 19.12.2021
4866 Clouds 3 1030 87 7000 3.6 250 07:50 19.12.2021
4867 Drizzle 2 1031 89 6000 4.63 260 04:45 19.12.2021
4868 Drizzle 2 1033 90 4000 2.57 270 00:56 19.12.2021
4869 Drizzle 2 1033 90 6000 2.06 250 00:28 19.12.2021
4870 Drizzle 2 1034 90 2800 2.06 270 22:36 18.12.2021
4871 Drizzle 2 1034 90 2800 1.54 310 21:54 18.12.2021
4872 Drizzle 2 1034 90 2800 1.54 310 21:35 18.12.2021
4873 Drizzle 2 1034 90 2000 1.54 280 20:44 18.12.2021
4874 Clouds 2 1034 91 5000 1.54 290 19:54 18.12.2021
4875 Clouds 2 1035 91 5000 2.06 330 19:20 18.12.2021
4876 Clouds 2 1035 91 8000 2.06 320 18:20 18.12.2021
4877 Clouds 2 1035 91 8000 2.06 340 17:47 18.12.2021
4878 Clouds 3 1036 89 10000 1.54 340 16:25 18.12.2021
4879 Clouds 3 1036 89 10000 2.06 320 15:26 18.12.2021
4880 Clouds 3 1036 89 10000 0.51 0 14:32 18.12.2021
4881 Clouds 3 1036 89 8000 1.54 240 13:20 18.12.2021
4882 Clouds 3 1038 89 7000 1.54 330 11:21 18.12.2021
4883 Clouds 3 1038 89 7000 2.57 350 09:39 18.12.2021
4884 Clouds 3 1038 89 6000 1.54 350 08:46 18.12.2021
4885 Mist 3 1038 89 5000 1.03 340 08:19 18.12.2021
4886 Clouds 3 1038 88 10000 1.54 310 02:20 18.12.2021
4887 Clouds 3 1038 89 10000 2.57 280 00:27 18.12.2021
4888 Clouds 2 1038 89 10000 0.51 0 23:39 17.12.2021
4889 Clouds 2 1038 89 10000 0.51 0 21:56 17.12.2021
4890 Clouds 2 1038 89 10000 2.06 70 20:51 17.12.2021
4891 Clouds 2 1038 88 10000 1.03 0 20:31 17.12.2021
4892 Clouds 2 1037 89 10000 0.51 70 18:58 17.12.2021
4893 Clouds 3 1037 89 10000 0.51 70 18:38 17.12.2021
4894 Clouds 3 1037 88 10000 2.06 20 17:26 17.12.2021
4895 Clouds 3 1037 87 10000 2.06 350 16:44 17.12.2021
4896 Clouds 3 1037 87 10000 2.06 330 16:19 17.12.2021
4897 Clouds 3 1038 86 10000 3.09 310 15:19 17.12.2021
4898 Clouds 3 1038 85 10000 2.57 340 14:34 17.12.2021
4899 Mist 4 1038 89 2400 1.54 360 12:45 17.12.2021
4900 Fog 3 1038 89 300 0.51 0 11:22 17.12.2021
4901 Fog 2 1038 89 300 1.54 350 09:55 17.12.2021
4902 Fog 2 1038 89 300 1.03 90 08:58 17.12.2021
4903 Fog 2 1037 90 300 1.54 110 08:20 17.12.2021
4904 Fog 3 1037 90 200 1.54 50 05:25 17.12.2021
4905 Fog 4 1038 90 300 1.03 0 02:52 17.12.2021
4906 Clouds 6 1038 91 6000 0.51 0 22:52 16.12.2021
4907 Clouds 6 1038 91 7000 1.03 20 22:22 16.12.2021
4908 Clouds 6 1038 91 9000 1.03 320 21:44 16.12.2021
4909 Clouds 6 1037 89 10000 2.57 310 20:48 16.12.2021
4910 Clouds 6 1037 89 10000 2.06 280 20:22 16.12.2021
4911 Clouds 6 1037 89 10000 0.51 250 19:31 16.12.2021
4912 Clouds 6 1037 89 9000 0.51 0 18:33 16.12.2021
4913 Clouds 6 1037 89 10000 1.03 320 17:48 16.12.2021
4914 Clouds 6 1037 88 10000 1.03 0 16:37 16.12.2021
4915 Clouds 6 1036 88 10000 1.03 270 16:18 16.12.2021
4916 Clouds 7 1036 88 8000 1.54 250 13:47 16.12.2021
4917 Mist 6 1036 89 4000 2.06 260 12:30 16.12.2021
4918 Clouds 5 1037 87 7000 1.03 0 11:19 16.12.2021
4919 Clouds 5 1036 87 6000 1.03 0 10:41 16.12.2021
4920 Clouds 5 1036 87 6000 2.06 220 09:50 16.12.2021
4921 Clouds 4 1034 89 6000 2.06 170 07:18 16.12.2021
4922 Clouds 4 1034 88 6000 0.51 190 06:18 16.12.2021
4923 Clouds 5 1034 89 10000 1.54 190 23:59 15.12.2021
4924 Clouds 5 1034 90 10000 1.03 0 23:18 15.12.2021
4925 Clouds 5 1034 88 10000 1.03 0 22:21 15.12.2021
4926 Clouds 5 1033 84 10000 1.03 0 21:44 15.12.2021
4927 Clouds 5 1033 98 10000 1.03 0 21:24 15.12.2021
4928 Clouds 5 1033 98 10000 0.51 0 19:54 15.12.2021
4929 Clouds 6 1033 88 10000 1.03 0 19:18 15.12.2021
4930 Clouds 6 1032 87 10000 0.51 0 18:20 15.12.2021
4931 Clouds 6 1032 88 10000 1.03 0 17:45 15.12.2021
4932 Clouds 6 1032 88 10000 1.54 160 17:21 15.12.2021
4933 Clouds 6 1032 87 10000 1.54 130 15:49 15.12.2021
4934 Clouds 6 1032 86 10000 1.03 0 15:30 15.12.2021
4935 Clouds 6 1032 86 9000 1.03 90 14:48 15.12.2021
4936 Clouds 6 1032 85 8000 0.51 0 13:34 15.12.2021
4937 Mist 6 1032 86 5000 1.03 0 11:52 15.12.2021
4938 Mist 5 1033 88 2400 1.54 90 10:20 15.12.2021
4939 Mist 5 1032 88 1100 1.54 100 08:25 15.12.2021
4940 Fog 4 1030 88 800 1.54 110 05:51 15.12.2021
4941 Drizzle 5 1030 88 6000 2.06 100 00:32 15.12.2021
4942 Drizzle 4 1030 88 6000 1.54 120 23:21 14.12.2021
4943 Drizzle 5 1029 88 6000 1.54 120 22:42 14.12.2021
4944 Drizzle 5 1029 88 6000 2.06 80 21:40 14.12.2021
4945 Mist 5 1029 88 3500 1.54 120 20:21 14.12.2021
4946 Mist 5 1029 88 4000 1.03 150 19:26 14.12.2021
4947 Mist 5 1029 88 5000 1.54 160 18:38 14.12.2021
4948 Mist 5 1028 86 4000 2.06 190 17:53 14.12.2021
4949 Mist 5 1028 88 4000 1.54 210 16:43 14.12.2021
4950 Mist 5 1028 88 4000 1.54 210 16:43 14.12.2021
4951 Mist 5 1028 88 2500 1.54 210 16:18 14.12.2021
4952 Clouds 5 1027 88 8000 0.51 0 13:58 14.12.2021
4953 Drizzle 5 1027 86 5000 1.54 210 12:48 14.12.2021
4954 Drizzle 4 1027 88 4500 1.54 190 11:25 14.12.2021
4955 Drizzle 4 1028 86 6000 2.57 220 10:45 14.12.2021
4956 Clouds 4 1027 86 9000 2.06 210 09:54 14.12.2021
4957 Clouds 3 1027 86 10000 2.06 200 08:48 14.12.2021
4958 Clouds 3 1027 88 10000 3.09 210 08:21 14.12.2021
4959 Drizzle 4 1027 86 4300 2.06 190 06:40 14.12.2021
4960 Clouds 5 1028 98 8000 2.06 120 23:42 13.12.2021
4961 Clouds 5 1029 98 6000 1.54 130 22:18 13.12.2021
4962 Clouds 5 1029 98 5000 2.57 130 21:34 13.12.2021
4963 Mist 5 1029 98 3200 2.06 120 20:51 13.12.2021
4964 Mist 6 1029 98 2500 1.54 120 20:20 13.12.2021
4965 Drizzle 6 1029 100 1200 1.54 120 19:49 13.12.2021
4966 Clouds 6 1029 88 6000 1.03 120 17:27 13.12.2021
4967 Drizzle 6 1029 88 8000 1.03 120 16:32 13.12.2021
4968 Drizzle 7 1028 87 8000 0.51 0 15:43 13.12.2021
4969 Clouds 6 1028 88 10000 1.03 0 14:30 13.12.2021
4970 Clouds 6 1028 88 10000 0.51 0 13:36 13.12.2021
4971 Clouds 6 1028 86 10000 1.03 0 12:39 13.12.2021
4972 Clouds 6 1029 86 8000 0.51 0 11:50 13.12.2021
4973 Mist 6 1029 88 5000 1.03 0 11:29 13.12.2021
4974 Drizzle 5 1029 88 2400 1.03 190 10:21 13.12.2021
4975 Mist 4 1028 89 3000 1.54 100 08:43 13.12.2021
4976 Drizzle 4 1027 89 2000 2.06 100 06:54 13.12.2021
4977 Mist 4 1027 91 2500 0.51 0 04:52 13.12.2021
4978 Clouds 3 1026 90 3500 2.06 170 23:55 12.12.2021
4979 Clouds 3 1026 88 5000 2.06 160 21:57 12.12.2021
4980 Clouds 2 1026 91 6000 2.06 160 20:49 12.12.2021
4981 Clouds 3 1026 87 9000 2.57 170 19:34 12.12.2021
4982 Clouds 3 1026 82 10000 3.09 180 17:58 12.12.2021
4983 Clouds 3 1026 79 10000 3.09 180 16:29 12.12.2021
4984 Clouds 4 1026 79 10000 3.6 180 15:54 12.12.2021
4985 Clouds 4 1026 78 10000 3.09 190 15:28 12.12.2021
4986 Clouds 4 1026 77 10000 3.6 200 14:42 12.12.2021
4987 Clouds 4 1026 79 10000 3.6 210 13:47 12.12.2021
4988 Clouds 4 1026 80 10000 4.63 210 12:47 12.12.2021
4989 Clouds 3 1027 83 10000 3.09 190 11:45 12.12.2021
4990 Clouds 3 1027 83 10000 3.09 190 11:45 12.12.2021
4991 Clouds 3 1027 84 10000 3.6 190 11:25 12.12.2021
4992 Clouds 3 1027 84 10000 3.6 190 11:25 12.12.2021
4993 Clouds 2 1027 82 10000 3.6 180 10:43 12.12.2021
4994 Clouds 2 1027 85 10000 2.57 200 09:48 12.12.2021
4995 Clouds 1 1027 87 10000 2.57 230 08:42 12.12.2021
4996 Clouds 1 1026 87 10000 3.09 250 06:38 12.12.2021
4997 Clouds 2 1025 88 10000 2.57 230 05:28 12.12.2021
4998 Clouds 2 1025 88 10000 2.06 240 04:18 12.12.2021
4999 Rain 2 1024 89 7000 1.54 200 00:45 12.12.2021
5000 Snow 1 1023 89 7000 2.06 180 22:42 11.12.2021
5001 Snow 1 1022 87 8000 1.54 200 22:20 11.12.2021
5002 Snow 1 1022 85 10000 1.54 190 21:24 11.12.2021
5003 Clouds 1 1021 87 10000 1.54 200 19:46 11.12.2021
5004 Clouds 1 1021 87 10000 2.06 230 19:20 11.12.2021
5005 Clouds 1 1020 87 10000 2.57 250 18:39 11.12.2021
5006 Clouds 1 1019 86 10000 2.57 280 17:41 11.12.2021
5007 Clouds 2 1018 89 10000 3.09 270 15:57 11.12.2021
5008 Clouds 2 1017 89 10000 3.09 270 15:37 11.12.2021
5009 Clouds 2 1016 87 10000 3.6 290 14:21 11.12.2021
5010 Clouds 2 1013 88 9000 3.6 280 11:58 11.12.2021
5011 Clouds 1 1013 88 8000 3.6 290 10:43 11.12.2021
5012 Rain 1 1011 87 6000 3.6 280 09:38 11.12.2021
5013 Snow 1 1003 90 9000 1.03 0 03:26 11.12.2021
5014 Snow 1 1001 88 8000 2.57 180 00:45 11.12.2021
5015 Snow 1 1000 88 6000 3.09 170 23:40 10.12.2021
5016 Snow 1 998 89 5000 3.09 150 22:33 10.12.2021
5017 Snow 0 998 91 7000 3.09 140 21:38 10.12.2021
5018 Snow 1 997 87 9000 3.6 130 19:55 10.12.2021
5019 Snow 1 996 87 10000 4.12 130 19:18 10.12.2021
5020 Snow 1 995 86 10000 4.63 110 17:31 10.12.2021
5021 Clear 1 995 86 10000 3.6 120 16:34 10.12.2021
5022 Clouds 1 994 83 10000 4.63 110 15:43 10.12.2021
5023 Clouds 2 994 83 10000 4.12 120 15:23 10.12.2021
5024 Clouds 2 994 83 10000 5.66 120 13:53 10.12.2021
5025 Clouds 2 995 83 10000 5.14 120 13:31 10.12.2021
5026 Clouds 2 995 84 10000 4.63 130 12:51 10.12.2021
5027 Clouds 1 995 84 10000 7.2 110 11:34 10.12.2021
5028 Clouds 1 996 86 10000 5.14 130 10:55 10.12.2021
5029 Clouds 0 997 88 10000 4.63 130 09:33 10.12.2021
5030 Clouds 0 999 91 10000 3.09 120 07:24 10.12.2021
5031 Clouds 1 1002 88 10000 2.06 150 02:53 10.12.2021
5032 Clouds 1 1003 89 10000 2.57 180 02:29 10.12.2021
5033 Clouds 1 1005 89 10000 2.57 170 23:39 09.12.2021
5034 Clouds 1 1006 89 10000 2.57 170 22:41 09.12.2021
5035 Clouds 1 1006 89 10000 2.57 170 22:21 09.12.2021
5036 Clouds 1 1006 89 10000 1.54 180 21:38 09.12.2021
5037 Clouds 1 1006 86 10000 1.03 0 20:34 09.12.2021
5038 Clouds 1 1007 88 10000 2.57 230 19:22 09.12.2021
5039 Clouds 2 1006 87 10000 3.6 250 18:59 09.12.2021
5040 Clouds 2 1007 87 10000 6.17 240 17:58 09.12.2021
5041 Clouds 2 1007 87 10000 4.12 260 17:28 09.12.2021
5042 Clouds 2 1006 89 10000 3.09 240 16:57 09.12.2021
5043 Clouds 2 1006 89 10000 2.57 250 16:20 09.12.2021
5044 Clouds 2 1005 88 10000 2.57 260 14:58 09.12.2021
5045 Clouds 2 1005 87 10000 2.06 280 13:52 09.12.2021
5046 Clouds 2 1005 86 7000 1.54 270 12:47 09.12.2021
5047 Mist 2 1005 86 4500 1.03 0 11:29 09.12.2021
5048 Snow 1 1005 87 3500 1.03 270 10:20 09.12.2021
5049 Snow 0 1003 90 2500 0.51 230 06:53 09.12.2021
5050 Snow 0 1003 90 2700 0 0 03:50 09.12.2021
5051 Snow 0 1002 91 3300 0.51 300 00:24 09.12.2021
5052 Snow 0 1002 91 3700 0.51 0 23:32 08.12.2021
5053 Snow 0 1002 91 3200 0.51 0 22:56 08.12.2021
5054 Snow 0 1002 91 3800 1.03 360 21:50 08.12.2021
5055 Snow 0 1002 91 3800 1.03 360 21:32 08.12.2021
5056 Snow 0 1001 92 2000 0.51 0 20:31 08.12.2021
5057 Snow 0 1001 90 1500 1.03 70 19:55 08.12.2021
5058 Snow 0 1001 90 1500 2.06 90 18:57 08.12.2021
5059 Snow 0 1001 90 2500 1.03 0 18:22 08.12.2021
5060 Snow 0 1000 91 5000 0.51 0 16:49 08.12.2021
5061 Snow 1 1000 91 2500 2.06 100 15:40 08.12.2021
5062 Snow 1 1000 91 3000 2.57 80 15:21 08.12.2021
5063 Snow 1 1001 89 10000 1.54 40 13:21 08.12.2021
5064 Snow 0 1002 91 6000 5.14 120 10:42 08.12.2021
5065 Snow 0 1002 89 9000 3.6 130 09:32 08.12.2021
5066 Snow 0 1002 89 4500 4.63 120 07:50 08.12.2021
5067 Snow 1 1003 84 10000 4.12 130 05:37 08.12.2021
5068 Clear -1 1005 86 10000 5.14 100 00:27 08.12.2021
5069 Clear -1 1007 91 10000 4.63 110 22:52 07.12.2021
5070 Clear -1 1008 89 10000 4.63 100 21:25 07.12.2021
5071 Clear 0 1009 91 10000 3.09 110 20:25 07.12.2021
5072 Clouds 1 1010 86 10000 2.57 140 18:59 07.12.2021
5073 Clouds 2 1010 84 10000 3.09 180 18:20 07.12.2021
5074 Clouds 2 1011 86 10000 2.06 220 17:23 07.12.2021
5075 Clouds 3 1011 86 10000 2.06 190 16:41 07.12.2021
5076 Clouds 3 1012 81 10000 2.57 230 15:59 07.12.2021
5077 Clouds 4 1011 82 10000 5.14 250 14:37 07.12.2021
5078 Clouds 4 1012 84 10000 6.69 250 13:38 07.12.2021
5079 Clouds 4 1011 85 10000 7.2 250 12:22 07.12.2021
5080 Clouds 3 1011 86 10000 6.17 250 10:48 07.12.2021
5081 Clouds 2 1010 87 10000 3.6 240 09:20 07.12.2021
5082 Snow 1 1009 88 9000 3.6 180 06:40 07.12.2021
5083 Snow 0 1009 90 1900 3.6 140 05:50 07.12.2021
5084 Clouds -1 1010 90 9000 3.6 120 02:35 07.12.2021
5085 Clouds -1 1012 91 7000 3.09 100 23:21 06.12.2021
5086 Clouds -1 1012 91 7000 1.54 100 22:40 06.12.2021
5087 Fog -1 1013 91 9000 2.57 110 21:59 06.12.2021
5088 Fog 0 1013 92 9000 3.09 100 21:21 06.12.2021
5089 Fog 0 1013 94 9000 2.06 110 20:32 06.12.2021
5090 Clouds 1 1014 92 10000 3.09 100 19:24 06.12.2021
5091 Clouds 1 1014 89 10000 1.54 180 18:31 06.12.2021
5092 Clouds 1 1014 89 10000 2.57 190 17:53 06.12.2021
5093 Clouds 1 1014 89 10000 1.54 140 17:30 06.12.2021
5094 Clouds 2 1014 87 10000 2.06 160 15:51 06.12.2021
5095 Clouds 3 1014 82 10000 1.54 200 13:53 06.12.2021
5096 Clouds 2 1014 86 9000 1.03 240 12:40 06.12.2021
5097 Mist 1 1014 89 1800 2.06 260 11:54 06.12.2021
5098 Fog 0 1014 90 450 2.06 310 09:37 06.12.2021
5099 Clouds 0 1012 88 9000 1.03 0 07:18 06.12.2021
5100 Clouds -1 1011 87 10000 1.09 19 00:38 06.12.2021
5101 Clear 1 1007 91 10000 1.03 0 21:54 05.12.2021
5102 Clouds 1 1007 89 10000 1.54 80 21:25 05.12.2021
5103 Clouds 1 1007 89 10000 2.06 90 20:20 05.12.2021
5104 Clouds 1 1006 91 10000 3.09 90 19:57 05.12.2021
5105 Clouds 2 1006 89 10000 2.57 90 19:22 05.12.2021
5106 Clear 2 1006 89 10000 2.57 100 18:25 05.12.2021
5107 Clouds 3 1005 87 10000 2.06 90 17:49 05.12.2021
5108 Clouds 3 1005 87 10000 2.06 100 16:57 05.12.2021
5109 Clouds 3 1005 85 10000 1.54 80 16:28 05.12.2021
5110 Clouds 4 1005 85 10000 1.03 50 15:58 05.12.2021
5111 Clouds 5 1004 83 10000 1.03 0 14:47 05.12.2021
5112 Clouds 5 1004 82 10000 0.51 0 14:29 05.12.2021
5113 Clouds 5 1004 84 10000 1.03 0 13:31 05.12.2021
5114 Clouds 4 1004 83 10000 1.54 130 12:41 05.12.2021
5115 Clouds 4 1004 85 10000 0.51 0 12:23 05.12.2021
5116 Clouds 3 1004 86 10000 1.03 210 11:37 05.12.2021
5117 Clouds 2 1004 91 10000 1.03 0 10:21 05.12.2021
5118 Clouds 1 1004 89 10000 2.06 220 09:26 05.12.2021
5119 Clouds 2 1003 87 10000 1.03 0 04:56 05.12.2021
5120 Clouds 4 1001 87 10000 5.66 270 01:23 05.12.2021
5121 Clouds 5 998 85 10000 7.72 290 22:32 04.12.2021
5122 Clouds 5 997 85 9000 10.29 280 21:37 04.12.2021
5123 Clouds 5 996 89 10000 2.06 150 20:40 04.12.2021
5124 Clouds 5 996 89 9000 3.09 100 19:33 04.12.2021
5125 Rain 5 996 89 9000 2.06 160 18:43 04.12.2021
5126 Drizzle 4 996 88 9000 3.6 130 17:47 04.12.2021
5127 Drizzle 3 996 89 3500 4.63 100 17:20 04.12.2021
5128 Mist 3 996 89 3500 4.12 100 16:46 04.12.2021
5129 Drizzle 3 996 89 5000 4.63 100 16:27 04.12.2021
5130 Mist 2 998 88 2000 3.6 100 12:44 04.12.2021
5131 Drizzle 2 1000 89 3000 3.6 120 11:34 04.12.2021
5132 Drizzle 1 1000 89 6000 3.09 120 10:57 04.12.2021
5133 Snow 1 1000 89 10000 3.6 120 09:40 04.12.2021
5134 Snow 0 1001 90 4000 3.09 120 08:28 04.12.2021
5135 Snow 0 1003 92 4500 4.63 130 04:43 04.12.2021
5136 Clouds 0 1007 84 10000 4.12 130 00:49 04.12.2021
5137 Clouds 0 1008 85 10000 3.09 160 23:33 03.12.2021
5138 Clear -1 1009 87 10000 3.6 150 22:51 03.12.2021
5139 Clear -1 1010 83 10000 4.63 150 21:54 03.12.2021
5140 Clear 0 1010 83 10000 4.12 160 21:22 03.12.2021
5141 Clear -1 1011 83 10000 4.12 160 20:42 03.12.2021
5142 Clouds 0 1011 82 10000 3.6 160 19:21 03.12.2021
5143 Clouds 0 1012 82 10000 3.6 170 18:22 03.12.2021
5144 Clouds 0 1012 82 10000 3.09 160 17:30 03.12.2021
5145 Clouds 1 1013 78 10000 4.63 230 13:38 03.12.2021
5146 Clouds 1 1014 81 10000 3.6 230 12:30 03.12.2021
5147 Clouds 1 1014 80 10000 4.12 230 11:19 03.12.2021
5148 Clouds 0 1014 87 10000 3.6 260 09:21 03.12.2021
5149 Clouds -1 1013 87 10000 2.57 240 08:18 03.12.2021
5150 Clouds 0 1012 88 10000 3.6 280 06:41 03.12.2021
5151 Snow 1 1008 89 10000 3.09 270 00:49 03.12.2021
5152 Snow 1 1007 89 10000 5.14 270 23:54 02.12.2021
5153 Snow 1 1007 89 10000 4.12 270 23:34 02.12.2021
5154 Clouds 1 1006 88 10000 2.57 250 21:41 02.12.2021
5155 Rain 1 1005 88 10000 3.09 290 20:46 02.12.2021
5156 Rain 1 1004 88 10000 4.12 300 20:23 02.12.2021
5157 Rain 1 1004 86 4249 4.87 299 19:22 02.12.2021
5158 Clouds 2 1001 87 10000 2.06 300 16:53 02.12.2021
5159 Clouds 3 1000 87 10000 2.57 300 15:41 02.12.2021
5160 Clouds 3 999 86 10000 4.63 300 14:57 02.12.2021
5161 Rain 3 999 86 10000 5.66 290 13:44 02.12.2021
5162 Clouds 3 999 86 10000 3.09 280 12:46 02.12.2021
5163 Snow 2 999 88 10000 3.6 300 11:52 02.12.2021
5164 Clouds 4 998 85 10000 4.12 220 09:27 02.12.2021
5165 Clouds 4 998 84 10000 3.09 230 08:19 02.12.2021
5166 Clouds 5 997 88 10000 4.12 250 01:38 02.12.2021
5167 Clouds 5 997 88 10000 5.14 250 00:50 02.12.2021
5168 Clouds 6 997 88 10000 5.66 250 22:33 01.12.2021
5169 Clouds 6 997 86 10000 5.66 240 21:54 01.12.2021
5170 Rain 7 996 83 10000 8.75 240 20:35 01.12.2021
5171 Clouds 7 995 83 10000 8.75 230 19:47 01.12.2021
5172 Clouds 8 995 84 10000 6.69 230 18:55 01.12.2021
5173 Clouds 8 995 83 10000 4.63 190 17:32 01.12.2021
5174 Clouds 8 995 82 10000 5.14 190 16:36 01.12.2021
5175 Rain 8 997 80 10000 4.12 180 14:39 01.12.2021
5176 Clouds 8 998 79 10000 5.14 180 13:37 01.12.2021
5177 Rain 7 1001 82 10000 5.14 190 11:26 01.12.2021
5178 Rain 6 1001 83 10000 5.14 200 10:40 01.12.2021
5179 Clouds 5 1004 86 10000 5.14 210 08:53 01.12.2021
5180 Clouds 5 1004 87 10000 4.12 200 08:26 01.12.2021
5181 Rain 5 1005 87 10000 4.63 210 07:32 01.12.2021
5182 Clouds 4 1008 88 10000 4.12 210 03:59 01.12.2021
5183 Clouds 4 1008 88 10000 5.14 230 03:28 01.12.2021
5184 Clouds 4 1009 88 10000 7.2 250 00:45 01.12.2021
5185 Clouds 4 1009 86 10000 8.75 250 23:33 30.11.2021
5186 Clouds 4 1009 86 10000 8.23 250 22:39 30.11.2021
5187 Clouds 4 1008 86 10000 9.77 250 20:48 30.11.2021
5188 Clouds 4 1008 86 10000 8.23 250 20:27 30.11.2021
5189 Clouds 4 1008 86 10000 8.75 250 19:47 30.11.2021
5190 Clouds 3 1007 87 10000 9.77 250 18:57 30.11.2021
5191 Clouds 3 1007 87 10000 8.75 250 17:57 30.11.2021
5192 Clouds 2 1007 87 10000 9.77 250 16:25 30.11.2021
5193 Snow 2 1006 87 7000 10.29 250 14:35 30.11.2021
5194 Snow 1 1006 88 4500 8.75 240 13:48 30.11.2021
5195 Snow 1 1007 88 3500 7.72 240 13:22 30.11.2021
5196 Snow 1 1007 88 2800 7.2 240 12:41 30.11.2021
5197 Snow 1 1009 88 2400 6.69 230 11:26 30.11.2021
5198 Snow 0 1009 90 1700 5.14 220 10:37 30.11.2021
5199 Snow 1 1010 88 2400 4.63 220 08:59 30.11.2021
5200 Snow 1 1010 89 2400 4.63 220 08:40 30.11.2021
5201 Snow 1 1011 89 3200 5.66 220 08:19 30.11.2021
5202 Snow 1 1011 85 10000 8.75 240 07:34 30.11.2021
5203 Clouds 1 1012 89 10000 5.14 250 01:52 30.11.2021
5204 Clouds 1 1012 89 10000 4.63 250 01:31 30.11.2021
5205 Clouds 1 1012 87 10000 5.14 260 23:54 29.11.2021
5206 Clouds 1 1012 87 10000 4.63 250 23:20 29.11.2021
5207 Clouds 1 1011 87 10000 5.14 260 22:44 29.11.2021
5208 Snow 1 1011 89 10000 4.12 260 22:25 29.11.2021
5209 Snow 1 1011 89 10000 3.09 270 21:21 29.11.2021
5210 Snow 1 1010 89 8000 3.09 270 20:56 29.11.2021
5211 Snow 1 1010 89 10000 3.6 270 20:22 29.11.2021
5212 Snow 0 1010 91 6000 4.12 260 19:43 29.11.2021
5213 Snow 1 1009 87 9000 3.6 260 19:25 29.11.2021
5214 Snow 0 1011 97 139 4.43 274 18:45 29.11.2021
5215 Snow 0 1010 96 3051 4.46 265 17:22 29.11.2021
5216 Snow 0 1010 96 3051 4.46 265 16:54 29.11.2021
5217 Clouds 0 1009 85 10000 4.46 270 16:25 29.11.2021
5218 Clouds 2 1008 79 10000 4.4 276 14:52 29.11.2021
5219 Clouds 2 1007 76 10000 4.3 278 14:29 29.11.2021
5220 Clouds 2 1007 74 10000 4.53 282 13:23 29.11.2021
5221 Clouds 2 1007 76 10000 4.26 276 12:20 29.11.2021
5222 Clouds 2 1007 76 10000 4.26 276 11:30 29.11.2021
5223 Clouds 1 1006 90 2755 3.41 291 09:59 29.11.2021
5224 Snow 0 1002 93 5000 2.06 270 07:47 29.11.2021
5225 Clouds 0 1000 93 5000 2.06 290 05:51 29.11.2021
5226 Clouds 0 999 100 7000 0.51 0 01:30 29.11.2021
5227 Clouds 0 998 100 8000 1.03 0 23:59 28.11.2021
5228 Clouds 0 998 100 8000 1.03 0 23:40 28.11.2021
5229 Snow 0 998 100 9000 1.03 0 22:20 28.11.2021
5230 Snow 0 998 100 9000 1.03 0 21:39 28.11.2021
5231 Clouds 1 997 93 10000 1.03 270 20:44 28.11.2021
5232 Clouds 1 997 93 10000 1.54 270 19:51 28.11.2021
5233 Clouds 1 997 93 10000 1.54 240 18:40 28.11.2021
5234 Clouds 1 997 93 10000 1.03 250 18:18 28.11.2021
5235 Snow 1 997 93 10000 1.03 260 17:34 28.11.2021
5236 Clouds 1 996 93 10000 1.03 300 16:47 28.11.2021
5237 Clouds 2 996 87 10000 1.54 280 16:28 28.11.2021
5238 Clouds 1 996 93 10000 0.51 20 15:50 28.11.2021
5239 Clouds 2 996 87 10000 1.03 0 14:55 28.11.2021
5240 Clouds 2 996 87 10000 0.51 0 14:28 28.11.2021
5241 Clouds 1 996 93 10000 0 0 12:54 28.11.2021
5242 Clouds 1 996 93 10000 0.51 0 11:38 28.11.2021
5243 Snow 0 996 93 8000 0.51 0 10:31 28.11.2021
5244 Snow 0 996 93 10000 1.54 100 09:46 28.11.2021
5245 Snow -1 996 100 10000 1.54 100 09:27 28.11.2021
5246 Clear -3 996 100 10000 3.6 100 00:50 28.11.2021
5247 Clouds 1 996 86 10000 1.03 0 21:49 27.11.2021
5248 Clouds 2 995 93 10000 2.57 230 19:50 27.11.2021
5249 Rain 2 994 93 10000 3.6 250 18:26 27.11.2021
5250 Clouds 4 992 81 10000 6.69 190 16:18 27.11.2021
5251 Clouds 5 991 75 10000 3.6 170 14:44 27.11.2021
5252 Clouds 5 991 75 10000 3.09 180 13:38 27.11.2021
5253 Clouds 3 991 87 10000 3.6 180 11:28 27.11.2021
5254 Clouds 2 991 93 10000 4.12 170 10:19 27.11.2021
5255 Rain 1 990 93 6000 3.6 130 08:53 27.11.2021
5256 Clouds 2 989 80 10000 4.12 150 06:59 27.11.2021
5257 Clouds 2 989 80 10000 4.12 120 04:40 27.11.2021
5258 Clouds 0 992 93 10000 3.6 130 00:23 27.11.2021
5259 Clouds 0 993 93 10000 3.6 150 22:50 26.11.2021
5260 Clouds 0 994 93 10000 2.57 140 22:23 26.11.2021
5261 Clouds 1 995 86 10000 3.6 170 21:23 26.11.2021
5262 Clouds 1 995 86 10000 3.6 160 20:41 26.11.2021
5263 Clouds 2 996 87 10000 2.57 170 19:55 26.11.2021
5264 Clouds 2 996 87 10000 3.6 190 18:47 26.11.2021
5265 Clouds 2 997 87 10000 3.09 190 17:45 26.11.2021
5266 Clouds 2 997 87 10000 3.09 180 17:21 26.11.2021
5267 Clouds 3 998 75 10000 2.57 220 15:22 26.11.2021
5268 Clouds 2 999 85 9000 2.06 190 13:35 26.11.2021
5269 Mist 1 1002 88 4500 2.06 230 10:45 26.11.2021
5270 Snow 1 1002 88 3500 1.54 250 09:54 26.11.2021
5271 Clouds 1 1003 86 10000 2.57 300 08:53 26.11.2021
5272 Clouds 1 1003 86 10000 2.06 280 08:20 26.11.2021
5273 Clouds 1 1004 86 10000 2.57 270 06:41 26.11.2021
5274 Clouds 1 1004 86 10000 1.54 210 06:22 26.11.2021
5275 Clouds 1 1006 88 10000 1.54 280 03:44 26.11.2021
5276 Clouds 1 1008 85 10000 1.54 270 00:57 26.11.2021
5277 Clouds 1 1009 85 10000 1.03 260 22:38 25.11.2021
5278 Clouds 1 1009 82 10000 1.03 290 21:19 25.11.2021
5279 Clouds 1 1010 84 10000 1.54 280 19:54 25.11.2021
5280 Clouds 1 1009 85 10000 3.09 320 18:38 25.11.2021
5281 Clouds 1 1009 85 10000 2.06 320 17:28 25.11.2021
5282 Clouds 1 1009 85 9000 3.09 330 16:56 25.11.2021
5283 Clouds 1 1009 83 9000 3.09 330 16:28 25.11.2021
5284 Clouds 1 1009 85 9000 3.09 320 14:52 25.11.2021
5285 Clouds 1 1010 83 9000 1.54 260 13:21 25.11.2021
5286 Clouds 1 1010 83 9000 1.03 0 12:19 25.11.2021
5287 Clouds 1 1010 83 9000 1.03 0 11:40 25.11.2021
5288 Clouds 1 1011 85 9000 2.06 160 08:42 25.11.2021
5289 Clouds 1 1012 84 10000 5.14 130 03:42 25.11.2021
5290 Clouds 1 1013 84 10000 5.14 120 02:44 25.11.2021
5291 Clouds 1 1015 83 10000 4.12 140 22:43 24.11.2021
5292 Clouds 1 1016 84 10000 4.63 160 22:21 24.11.2021
5293 Clouds 1 1016 83 10000 2.57 150 21:27 24.11.2021
5294 Clouds 2 1017 83 10000 4.63 170 20:29 24.11.2021
5295 Clouds 2 1017 81 10000 4.12 180 19:46 24.11.2021
5296 Clouds 2 1018 84 10000 2.06 140 18:29 24.11.2021
5297 Clouds 4 1018 77 10000 2.06 30 16:53 24.11.2021
5298 Clouds 6 1019 72 10000 1.54 70 15:22 24.11.2021
5299 Clouds 6 1020 69 10000 2.06 110 14:32 24.11.2021
5300 Clouds 7 1021 69 10000 3.6 110 13:51 24.11.2021
5301 Clouds 5 1023 76 10000 5.14 100 11:50 24.11.2021
5302 Clouds 5 1023 78 10000 5.14 100 11:20 24.11.2021
5303 Clouds 4 1024 82 10000 1.03 0 10:39 24.11.2021
5304 Clouds 2 1024 85 10000 1.03 0 09:40 24.11.2021
5305 Clouds 1 1024 88 10000 0.51 0 07:42 24.11.2021
5306 Clouds 1 1025 88 10000 0.51 0 06:21 24.11.2021
5307 Clouds 0 1026 87 10000 0.51 0 03:48 24.11.2021
5308 Clouds 0 1027 92 10000 1.03 0 23:42 23.11.2021
5309 Clear -1 1028 91 10000 0.51 0 22:39 23.11.2021
5310 Clouds 0 1028 91 10000 0.51 10 21:46 23.11.2021
5311 Clear -1 1028 93 10000 1.03 0 20:48 23.11.2021
5312 Clear -1 1028 86 10000 0.51 0 19:37 23.11.2021
5313 Clear 0 1028 83 10000 0.51 0 18:37 23.11.2021
5314 Clear 0 1028 81 10000 1.03 360 17:57 23.11.2021
5315 Clear 3 1028 75 10000 1.54 300 16:54 23.11.2021
5316 Clear 4 1028 66 10000 1.54 290 15:57 23.11.2021
5317 Clear 5 1028 65 10000 1.54 280 15:19 23.11.2021
5318 Clear 5 1028 71 10000 1.54 300 13:43 23.11.2021
5319 Clear 1 1029 83 10000 0.51 0 10:41 23.11.2021
5320 Clear -1 1029 87 10000 0 0 09:57 23.11.2021
5321 Clear -2 1029 90 10000 1.03 0 08:43 23.11.2021
5322 Clear -3 1028 88 10000 0.51 0 05:57 23.11.2021
5323 Clear -2 1028 86 10000 0.51 0 03:42 23.11.2021
5324 Clear -1 1027 91 10000 0.51 0 00:28 23.11.2021
5325 Clear 0 1027 88 10000 1.54 340 23:20 22.11.2021
5326 Clear 0 1026 85 10000 1.03 280 22:32 22.11.2021
5327 Clear 1 1026 85 10000 1.54 10 21:46 22.11.2021
5328 Clear 1 1026 84 10000 1.54 360 21:26 22.11.2021
5329 Clouds 2 1025 84 10000 2.57 350 20:49 22.11.2021
5330 Clouds 1 1025 84 10000 2.57 350 20:49 22.11.2021
5331 Clouds 3 1024 80 10000 2.57 360 19:26 22.11.2021
5332 Clouds 4 1024 77 10000 3.09 20 18:50 22.11.2021
5333 Clouds 4 1024 79 10000 3.6 360 18:31 22.11.2021
5334 Clouds 5 1023 78 10000 2.57 350 16:50 22.11.2021
5335 Clouds 6 1022 77 10000 4.63 360 15:39 22.11.2021
5336 Clouds 6 1021 85 10000 3.09 10 12:52 22.11.2021
5337 Clouds 6 1020 84 10000 3.09 350 11:39 22.11.2021
5338 Drizzle 5 1020 88 10000 2.57 360 10:36 22.11.2021
5339 Rain 5 1018 86 6000 3.09 340 08:46 22.11.2021
5340 Drizzle 5 1017 86 6000 1.54 330 08:24 22.11.2021
5341 Drizzle 4 1014 90 2800 1.54 310 02:31 22.11.2021
5342 Drizzle 4 1013 90 2800 1.54 290 23:22 21.11.2021
5343 Drizzle 4 1014 88 3500 1.03 270 22:46 21.11.2021
5344 Drizzle 4 1013 88 4000 2.06 260 21:33 21.11.2021
5345 Clouds 4 1013 89 10000 1.54 280 20:38 21.11.2021
5346 Clouds 4 1012 86 10000 2.06 290 19:43 21.11.2021
5347 Clouds 4 1012 87 10000 2.06 290 19:43 21.11.2021
5348 Clouds 4 1011 86 10000 1.54 260 17:59 21.11.2021
5349 Clouds 4 1011 86 10000 1.54 260 17:37 21.11.2021
5350 Clouds 5 1011 84 10000 2.06 250 15:22 21.11.2021
5351 Clouds 4 1011 84 10000 2.06 260 14:43 21.11.2021
5352 Clouds 4 1011 86 10000 3.09 280 13:31 21.11.2021
5353 Clouds 4 1012 89 10000 2.06 320 12:27 21.11.2021
5354 Clouds 4 1012 87 10000 2.57 300 11:39 21.11.2021
5355 Clouds 4 1012 88 10000 2.57 210 10:20 21.11.2021
5356 Clouds 4 1012 88 10000 2.06 180 09:48 21.11.2021
5357 Drizzle 4 1012 90 8000 3.09 190 08:34 21.11.2021
5358 Drizzle 4 1012 88 7000 2.57 190 07:57 21.11.2021
5359 Drizzle 4 1012 88 7000 2.57 180 07:39 21.11.2021
5360 Clouds 4 1013 88 9000 3.09 230 05:47 21.11.2021
5361 Clouds 5 1014 88 10000 2.57 180 04:35 21.11.2021
5362 Clouds 5 1015 88 10000 3.6 210 03:18 21.11.2021
5363 Clouds 5 1015 88 10000 3.6 170 02:42 21.11.2021
5364 Clouds 5 1017 84 10000 2.57 170 00:53 21.11.2021
5365 Clouds 6 1018 83 10000 3.09 180 23:22 20.11.2021
5366 Clouds 6 1019 82 10000 3.6 200 21:39 20.11.2021
5367 Clouds 6 1020 81 10000 3.6 200 20:39 20.11.2021
5368 Clouds 7 1021 81 10000 2.57 180 18:46 20.11.2021
5369 Clouds 7 1021 80 10000 2.57 190 18:25 20.11.2021
5370 Clouds 8 1022 80 10000 1.54 190 17:22 20.11.2021
5371 Clouds 8 1022 80 10000 2.06 220 16:41 20.11.2021
5372 Clouds 9 1024 83 10000 0.51 0 14:40 20.11.2021
5373 Clouds 9 1024 83 10000 0.51 0 14:21 20.11.2021
5374 Clouds 8 1026 86 10000 1.54 190 11:56 20.11.2021
5375 Clouds 7 1027 87 10000 1.54 180 10:29 20.11.2021
5376 Clouds 6 1028 89 9000 1.54 100 08:57 20.11.2021
5377 Clouds 6 1028 89 9000 1.03 0 07:20 20.11.2021
5378 Clouds 7 1028 87 10000 2.57 190 05:25 20.11.2021
5379 Clouds 7 1028 89 10000 1.54 170 04:50 20.11.2021
5380 Clouds 6 1029 88 10000 1.54 150 01:41 20.11.2021
5381 Clouds 6 1030 88 10000 1.54 220 00:38 20.11.2021
5382 Clouds 6 1030 88 10000 1.03 0 22:55 19.11.2021
5383 Drizzle 6 1030 89 7000 1.54 220 21:57 19.11.2021
5384 Drizzle 6 1030 89 5000 1.54 210 20:54 19.11.2021
5385 Drizzle 6 1030 89 5000 1.54 210 20:36 19.11.2021
5386 Drizzle 6 1030 87 3500 2.06 210 19:49 19.11.2021
5387 Drizzle 6 1030 89 3500 2.57 230 18:51 19.11.2021
5388 Drizzle 6 1030 89 3500 3.09 250 18:19 19.11.2021
5389 Clouds 6 1030 90 9000 3.6 270 16:47 19.11.2021
5390 Clouds 7 1030 87 10000 2.57 280 15:31 19.11.2021
5391 Clouds 8 1031 86 10000 3.6 290 13:24 19.11.2021
5392 Clouds 6 1031 90 10000 4.12 250 10:27 19.11.2021
5393 Clouds 6 1031 90 9000 3.6 250 09:33 19.11.2021
5394 Clouds 5 1030 89 10000 2.57 240 07:34 19.11.2021
5395 Clouds 5 1030 84 10000 3.09 220 04:28 19.11.2021
5396 Clouds 5 1030 86 10000 2.57 220 01:32 19.11.2021
5397 Clouds 5 1030 86 10000 2.06 220 23:50 18.11.2021
5398 Clouds 6 1030 83 10000 3.6 250 21:48 18.11.2021
5399 Clouds 6 1030 83 10000 3.6 260 20:48 18.11.2021
5400 Clouds 6 1030 83 10000 4.63 280 20:29 18.11.2021
5401 Clouds 6 1030 81 10000 4.63 270 19:43 18.11.2021
5402 Clouds 6 1030 85 10000 1.54 260 18:41 18.11.2021
5403 Clouds 6 1030 81 10000 2.06 240 18:20 18.11.2021
5404 Clouds 6 1030 81 10000 3.09 230 17:44 18.11.2021
5405 Clouds 7 1030 83 10000 2.06 250 16:44 18.11.2021
5406 Clouds 7 1029 83 10000 2.57 270 15:25 18.11.2021
5407 Clouds 7 1030 86 10000 3.09 260 13:29 18.11.2021
5408 Clouds 7 1031 86 10000 2.57 230 12:33 18.11.2021
5409 Clouds 7 1031 87 10000 2.57 270 11:41 18.11.2021
5410 Clouds 7 1031 85 10000 2.57 230 11:23 18.11.2021
5411 Clouds 6 1030 86 9000 3.09 260 09:33 18.11.2021
5412 Clouds 5 1029 89 9000 1.54 230 07:34 18.11.2021
5413 Clouds 5 1028 88 9000 1.54 230 05:47 18.11.2021
5414 Mist 5 1028 89 4500 1.03 0 04:31 18.11.2021
5415 Clouds 5 1027 88 10000 1.54 200 01:22 18.11.2021
5416 Clouds 4 1026 90 10000 1.54 170 22:48 17.11.2021
5417 Clouds 4 1026 89 10000 1.54 200 22:20 17.11.2021
5418 Clouds 4 1026 89 10000 1.54 200 21:37 17.11.2021
5419 Clouds 4 1026 89 10000 1.54 250 20:50 17.11.2021
5420 Clouds 4 1023 88 10000 2.57 250 17:53 17.11.2021
5421 Clouds 4 1023 88 10000 3.09 250 17:25 17.11.2021
5422 Clouds 5 1022 87 10000 3.09 290 14:47 17.11.2021
5423 Clouds 5 1022 87 9000 2.57 290 12:40 17.11.2021
5424 Clouds 5 1022 88 9000 2.57 260 11:42 17.11.2021
5425 Clouds 5 1022 88 10000 1.54 240 10:28 17.11.2021
5426 Clouds 5 1021 87 9000 2.57 270 09:24 17.11.2021
5427 Drizzle 5 1020 87 7000 1.54 240 07:43 17.11.2021
5428 Drizzle 5 1020 88 4000 1.54 230 03:43 17.11.2021
5429 Drizzle 5 1020 88 5000 1.54 240 01:18 17.11.2021
5430 Mist 5 1020 88 3000 1.54 240 23:18 16.11.2021
5431 Clouds 5 1020 84 8000 1.54 210 21:23 16.11.2021
5432 Clouds 6 1020 83 10000 1.54 130 20:18 16.11.2021
5433 Clouds 6 1020 83 10000 2.57 140 18:53 16.11.2021
5434 Clouds 6 1020 83 10000 2.57 140 18:34 16.11.2021
5435 Clouds 6 1020 83 10000 2.57 120 17:38 16.11.2021
5436 Clouds 6 1020 82 10000 1.54 120 16:37 16.11.2021
5437 Clouds 6 1021 80 10000 1.54 120 15:50 16.11.2021
5438 Clouds 6 1021 80 10000 1.03 0 15:26 16.11.2021
5439 Clouds 6 1022 82 10000 1.54 60 11:29 16.11.2021
5440 Clouds 6 1022 83 10000 1.03 0 09:46 16.11.2021
5441 Clouds 5 1022 86 10000 2.06 80 08:45 16.11.2021
5442 Clouds 5 1021 89 10000 1.54 40 07:32 16.11.2021
5443 Clouds 6 1022 89 10000 1.03 0 02:20 16.11.2021
5444 Clouds 6 1022 88 10000 3.09 80 23:22 15.11.2021
5445 Clouds 6 1022 88 10000 1.54 70 22:33 15.11.2021
5446 Clouds 6 1023 88 10000 3.09 70 21:53 15.11.2021
5447 Clouds 6 1023 86 10000 2.06 70 21:28 15.11.2021
5448 Clouds 6 1022 85 10000 2.06 60 19:42 15.11.2021
5449 Clouds 6 1022 85 10000 3.09 70 18:33 15.11.2021
5450 Clouds 7 1022 82 10000 3.09 60 16:20 15.11.2021
5451 Clouds 7 1022 80 10000 3.09 70 15:41 15.11.2021
5452 Clouds 8 1022 80 10000 2.57 40 15:23 15.11.2021
5453 Clouds 8 1023 82 10000 3.09 80 13:32 15.11.2021
5454 Clouds 7 1023 85 10000 4.12 70 11:21 15.11.2021
5455 Clouds 6 1024 88 10000 2.57 50 09:28 15.11.2021
5456 Clouds 6 1023 88 10000 3.09 80 07:52 15.11.2021
5457 Clouds 6 1023 88 10000 3.09 80 05:21 15.11.2021
5458 Clouds 7 1024 85 10000 2.57 60 23:54 14.11.2021
5459 Clouds 7 1023 85 10000 3.09 60 22:35 14.11.2021
5460 Clouds 8 1022 85 10000 4.63 60 19:57 14.11.2021
5461 Clouds 8 1022 85 10000 4.63 40 19:18 14.11.2021
5462 Clouds 8 1022 85 10000 4.63 60 18:54 14.11.2021
5463 Clouds 8 1022 85 10000 4.63 60 18:36 14.11.2021
5464 Clouds 9 1022 83 10000 3.6 50 18:18 14.11.2021
5465 Clouds 9 1021 83 10000 2.57 50 17:56 14.11.2021
5466 Clouds 9 1021 83 10000 2.57 50 17:38 14.11.2021
5467 Clouds 9 1021 82 10000 2.06 40 17:20 14.11.2021
5468 Clouds 9 1021 82 10000 3.6 70 16:47 14.11.2021
5469 Clouds 9 1021 82 10000 4.12 50 16:20 14.11.2021
5470 Clouds 10 1020 81 10000 3.6 70 15:23 14.11.2021
5471 Clouds 10 1020 81 10000 5.14 70 14:49 14.11.2021
5472 Clouds 10 1020 83 10000 3.6 60 14:29 14.11.2021
5473 Clouds 10 1020 83 10000 3.6 70 13:54 14.11.2021
5474 Clouds 10 1020 82 10000 3.6 70 13:35 14.11.2021
5475 Clouds 9 1020 83 10000 1.54 40 12:27 14.11.2021
5476 Clouds 8 1020 83 10000 1.03 0 11:41 14.11.2021
5477 Clouds 8 1020 84 10000 1.54 30 10:41 14.11.2021
5478 Clouds 7 1020 85 10000 1.03 0 09:48 14.11.2021
5479 Clouds 6 1019 86 10000 2.57 110 08:54 14.11.2021
5480 Clouds 6 1018 86 9000 2.06 90 07:19 14.11.2021
5481 Clouds 5 1016 89 8000 2.57 100 23:48 13.11.2021
5482 Clouds 5 1016 89 9000 2.06 110 22:26 13.11.2021
5483 Clouds 5 1016 89 9000 2.06 120 21:56 13.11.2021
5484 Rain 5 1016 89 10000 2.57 120 21:22 13.11.2021
5485 Clouds 5 1016 90 9000 3.09 110 19:47 13.11.2021
5486 Clouds 6 1016 87 10000 3.09 120 18:33 13.11.2021
5487 Clouds 6 1016 87 10000 3.09 120 17:55 13.11.2021
5488 Clouds 6 1016 87 10000 3.09 120 16:37 13.11.2021
5489 Clouds 6 1016 87 10000 4.63 130 15:29 13.11.2021
5490 Clouds 6 1016 87 10000 5.14 130 14:20 13.11.2021
5491 Clouds 5 1016 86 10000 3.6 130 13:18 13.11.2021
5492 Rain 5 1016 86 10000 4.63 130 12:24 13.11.2021
5493 Rain 4 1017 87 10000 4.63 130 11:34 13.11.2021
5494 Rain 4 1017 85 10000 2.57 150 10:45 13.11.2021
5495 Rain 3 1017 86 10000 3.6 130 10:20 13.11.2021
5496 Rain 3 1017 87 10000 3.6 130 09:37 13.11.2021
5497 Rain 3 1017 86 10000 4.12 120 08:56 13.11.2021
5498 Clouds 3 1017 86 10000 2.06 170 08:23 13.11.2021
5499 Clouds 3 1017 86 7000 2.57 190 04:47 13.11.2021
5500 Clouds 3 1017 86 6000 2.06 180 04:28 13.11.2021
5501 Mist 3 1017 88 4000 3.09 150 01:35 13.11.2021
5502 Mist 3 1017 88 4000 3.09 0 22:58 12.11.2021
5503 Clouds 4 1018 86 6000 3.09 130 21:45 12.11.2021
5504 Clouds 4 1018 86 7000 3.09 120 19:54 12.11.2021
5505 Clouds 4 1018 86 7000 2.06 100 19:27 12.11.2021
5506 Clouds 4 1018 85 8000 2.06 100 18:29 12.11.2021
5507 Clouds 4 1018 85 10000 2.57 140 16:34 12.11.2021
5508 Clouds 4 1018 93 10000 3.6 140 15:32 12.11.2021
5509 Clouds 3 1021 93 6000 3.09 130 11:54 12.11.2021
5510 Clouds 2 1021 100 6000 3.09 140 10:51 12.11.2021
5511 Mist 2 1021 100 4000 3.6 140 09:37 12.11.2021
5512 Mist 1 1022 86 1800 3.09 140 08:38 12.11.2021
5513 Mist 1 1022 86 1800 3.09 140 08:38 12.11.2021
5514 Fog 1 1023 90 500 2.57 110 02:32 12.11.2021
5515 Fog 1 1023 97 1800 1.03 0 23:41 11.11.2021
5516 Fog 1 1024 96 4000 1.54 140 22:31 11.11.2021
5517 Fog 1 1024 95 1800 0.51 10 21:27 11.11.2021
5518 Fog 2 1024 92 8000 0.51 0 20:40 11.11.2021
5519 Fog 3 1024 90 9000 0.51 0 19:20 11.11.2021
5520 Clear 5 1023 86 10000 0.51 0 17:43 11.11.2021
5521 Clear 6 1023 81 10000 1.54 270 16:54 11.11.2021
5522 Clear 9 1023 78 10000 1.03 0 14:51 11.11.2021
5523 Clear 9 1023 79 10000 1.03 0 14:28 11.11.2021
5524 Clear 8 1023 85 10000 0.51 0 13:39 11.11.2021
5525 Mist 6 1024 90 3300 1.54 280 12:50 11.11.2021
5526 Fog 2 1024 92 300 1.54 320 10:44 11.11.2021
5527 Fog 2 1024 92 300 0.51 0 09:36 11.11.2021
5528 Fog 1 1023 92 300 1.03 0 07:59 11.11.2021
5529 Fog 0 1023 97 900 0.51 0 05:55 11.11.2021
5530 Fog 2 1024 92 4000 1.03 0 23:45 10.11.2021
5531 Fog 2 1024 90 6000 0.51 0 22:24 10.11.2021
5532 Clear 2 1024 91 10000 1.54 340 21:31 10.11.2021
5533 Clear 3 1024 90 10000 0.51 0 20:47 10.11.2021
5534 Clear 3 1024 88 10000 1.03 90 19:47 10.11.2021
5535 Clear 3 1024 87 10000 0.51 0 19:27 10.11.2021
5536 Clear 7 1024 78 10000 0.51 0 16:38 10.11.2021
5537 Clear 8 1024 76 10000 1.03 0 15:40 10.11.2021
5538 Clear 8 1024 75 10000 1.03 0 13:51 10.11.2021
5539 Clear 8 1025 77 10000 2.06 170 12:59 10.11.2021
5540 Clear 5 1025 83 10000 2.06 140 10:56 10.11.2021
5541 Clear 1 1025 87 10000 1.54 120 08:51 10.11.2021
5542 Clear 1 1025 87 10000 1.54 120 08:33 10.11.2021
5543 Clear -1 1025 88 10000 1.03 110 06:40 10.11.2021
5544 Fog -1 1025 90 10000 1.03 130 05:51 10.11.2021
5545 Clear 1 1026 89 10000 0.51 0 00:27 10.11.2021
5546 Clear 2 1026 87 10000 2.06 40 21:51 09.11.2021
5547 Clear 3 1026 84 10000 1.54 110 20:32 09.11.2021
5548 Clear 4 1026 82 10000 1.03 0 19:26 09.11.2021
5549 Clear 4 1026 81 10000 1.54 40 18:37 09.11.2021
5550 Clear 9 1027 61 10000 4.63 120 16:26 09.11.2021
5551 Clouds 10 1027 59 10000 5.14 100 14:52 09.11.2021
5552 Clouds 10 1028 66 10000 3.6 70 12:53 09.11.2021
5553 Clouds 9 1029 72 10000 3.6 90 11:59 09.11.2021
5554 Clear 7 1029 83 10000 1.54 300 10:46 09.11.2021
5555 Clear 5 1028 85 10000 0.51 0 09:40 09.11.2021
5556 Fog 2 1028 90 10000 1.03 360 08:27 09.11.2021
5557 Clouds 3 1027 88 10000 2.06 100 05:57 09.11.2021
5558 Clouds 4 1026 90 10000 0.51 0 02:28 09.11.2021
5559 Clouds 4 1026 88 10000 0.51 0 01:48 09.11.2021
5560 Clouds 4 1026 88 10000 1.03 30 00:18 09.11.2021
5561 Clouds 4 1026 88 10000 0.51 0 22:59 08.11.2021
5562 Clouds 4 1025 90 10000 0.51 120 22:28 08.11.2021
5563 Clouds 4 1025 88 10000 1.54 110 21:20 08.11.2021
5564 Clouds 4 1025 89 10000 1.03 340 19:56 08.11.2021
5565 Clouds 6 1024 87 10000 0 0 18:57 08.11.2021
5566 Clouds 7 1023 79 10000 1.03 320 17:22 08.11.2021
5567 Clouds 8 1023 71 10000 1.54 250 15:27 08.11.2021
5568 Clouds 8 1023 73 10000 1.54 260 14:43 08.11.2021
5569 Clouds 8 1023 74 10000 1.54 330 13:55 08.11.2021
5570 Clouds 8 1023 80 10000 1.54 320 12:44 08.11.2021
5571 Clouds 7 1023 84 10000 2.06 320 11:26 08.11.2021
5572 Clouds 6 1023 86 10000 1.03 0 09:59 08.11.2021
5573 Clouds 5 1022 89 10000 1.03 120 08:55 08.11.2021
5574 Clouds 4 1021 91 10000 1.03 190 07:36 08.11.2021
5575 Clouds 5 1021 88 10000 1.54 240 06:20 08.11.2021
5576 Clouds 5 1020 89 10000 2.57 250 03:33 08.11.2021
5577 Clouds 7 1019 87 10000 2.57 260 23:51 07.11.2021
5578 Clouds 7 1019 87 10000 2.06 290 22:26 07.11.2021
5579 Clouds 7 1018 86 10000 4.12 260 21:21 07.11.2021
5580 Clouds 7 1018 87 10000 4.63 250 19:55 07.11.2021
5581 Clouds 7 1017 87 10000 4.12 270 18:26 07.11.2021
5582 Clouds 7 1017 87 10000 4.63 240 17:38 07.11.2021
5583 Clouds 7 1017 85 10000 6.69 250 15:55 07.11.2021
5584 Clouds 7 1018 86 10000 4.63 280 14:40 07.11.2021
5585 Clouds 7 1018 86 10000 4.12 240 13:55 07.11.2021
5586 Clouds 6 1019 85 10000 3.09 0 11:53 07.11.2021
5587 Clouds 5 1020 83 10000 3.09 210 10:19 07.11.2021
5588 Clouds 3 1021 91 10000 3.6 190 08:48 07.11.2021
5589 Mist 1 1024 89 4000 3.09 160 02:46 07.11.2021
5590 Fog 2 1026 90 500 2.06 150 23:42 06.11.2021
5591 Fog 2 1026 90 1600 2.06 130 22:52 06.11.2021
5592 Fog 1 1026 90 4500 3.6 100 21:36 06.11.2021
5593 Fog 2 1027 93 800 4.12 100 20:52 06.11.2021
5594 Fog 2 1027 91 500 2.06 100 19:36 06.11.2021
5595 Clouds 5 1028 88 10000 1.03 0 17:18 06.11.2021
5596 Clouds 8 1028 85 10000 3.09 340 15:39 06.11.2021
5597 Clouds 7 1030 85 8000 1.54 250 13:39 06.11.2021
5598 Clouds 7 1030 89 6000 2.57 200 12:36 06.11.2021
5599 Fog 4 1030 92 700 1.54 160 09:42 06.11.2021
5600 Mist 4 1030 88 4000 2.57 120 07:58 06.11.2021
5601 Clouds 4 1029 93 10000 2.57 100 03:20 06.11.2021
5602 Clouds 4 1028 90 10000 1.03 140 23:38 05.11.2021
5603 Fog 5 1028 90 9000 1.03 0 22:50 05.11.2021
5604 Fog 4 1027 97 9000 1.54 180 21:55 05.11.2021
5605 Fog 5 1026 91 10000 1.03 130 20:20 05.11.2021
5606 Fog 5 1026 91 10000 0.51 140 19:49 05.11.2021
5607 Clouds 5 1025 89 10000 1.03 0 18:41 05.11.2021
5608 Clouds 7 1025 88 10000 1.54 260 17:31 05.11.2021
5609 Clouds 8 1024 85 10000 2.06 260 15:48 05.11.2021
5610 Clouds 8 1023 85 10000 4.12 290 13:58 05.11.2021
5611 Clouds 7 1022 87 10000 4.12 270 11:42 05.11.2021
5612 Clouds 6 1019 88 10000 3.09 230 08:41 05.11.2021
5613 Clouds 6 1018 87 10000 2.57 230 07:39 05.11.2021
5614 Clouds 6 1016 87 10000 3.09 200 05:33 05.11.2021
5615 Rain 6 1015 86 10000 3.09 200 02:26 05.11.2021
5616 Clouds 5 1014 86 10000 4.12 220 00:52 05.11.2021
5617 Clouds 6 1013 88 10000 2.57 210 23:25 04.11.2021
5618 Rain 6 1013 88 10000 3.09 220 22:20 04.11.2021
5619 Rain 6 1012 87 10000 2.57 220 21:43 04.11.2021
5620 Clouds 6 1011 87 10000 2.06 210 20:53 04.11.2021
5621 Clouds 6 1011 87 10000 3.09 230 20:22 04.11.2021
5622 Clouds 6 1011 87 10000 3.09 220 19:47 04.11.2021
5623 Clouds 6 1010 87 10000 4.63 240 18:52 04.11.2021
5624 Clouds 6 1009 87 10000 4.63 230 18:18 04.11.2021
5625 Clouds 6 1008 88 10000 5.66 250 16:48 04.11.2021
5626 Rain 7 1006 87 10000 5.14 230 15:18 04.11.2021
5627 Clouds 7 1004 86 10000 5.14 230 12:53 04.11.2021
5628 Rain 6 1001 87 10000 6.17 240 09:42 04.11.2021
5629 Rain 6 1000 87 5000 4.63 270 08:31 04.11.2021
5630 Rain 7 1000 86 3000 3.6 260 07:35 04.11.2021
5631 Rain 6 999 89 3000 2.06 280 04:47 04.11.2021
5632 Rain 7 1002 88 7000 1.03 200 22:53 03.11.2021
5633 Rain 7 1001 88 10000 1.54 230 21:49 03.11.2021
5634 Rain 7 1001 90 10000 1.03 290 21:30 03.11.2021
5635 Rain 7 1001 88 10000 0.51 0 20:36 03.11.2021
5636 Rain 7 1001 88 10000 1.54 270 19:58 03.11.2021
5637 Rain 8 1000 85 10000 2.06 320 18:57 03.11.2021
5638 Rain 8 1000 85 10000 2.57 320 18:23 03.11.2021
5639 Rain 8 1000 85 10000 1.03 0 17:36 03.11.2021
5640 Rain 9 999 81 10000 1.03 20 16:26 03.11.2021
5641 Clear 9 999 79 10000 1.03 0 15:44 03.11.2021
5642 Clear 9 999 80 10000 2.06 60 13:57 03.11.2021
5643 Clear 8 1001 82 10000 2.06 80 11:59 03.11.2021
5644 Clear 8 1001 82 10000 2.06 80 11:25 03.11.2021
5645 Clear 7 1001 83 10000 2.06 110 10:46 03.11.2021
5646 Clear 5 1002 86 10000 3.6 100 09:30 03.11.2021
5647 Clouds 5 1002 88 10000 2.57 110 08:23 03.11.2021
5648 Clouds 4 1002 88 10000 2.57 90 07:39 03.11.2021
5649 Clouds 4 1002 89 10000 2.06 90 05:35 03.11.2021
5650 Clouds 4 1004 89 10000 3.09 130 02:28 03.11.2021
5651 Clouds 6 1005 87 10000 2.57 180 23:51 02.11.2021
5652 Clouds 5 1004 87 10000 2.57 160 22:46 02.11.2021
5653 Clouds 7 1004 85 10000 3.09 210 21:29 02.11.2021
5654 Clouds 7 1004 87 10000 2.57 200 20:33 02.11.2021
5655 Clouds 7 1003 87 10000 2.06 170 19:51 02.11.2021
5656 Fog 7 1003 88 10000 1.54 110 18:59 02.11.2021
5657 Clouds 8 1002 88 10000 1.03 250 17:59 02.11.2021
5658 Clouds 8 1002 88 10000 1.03 250 17:38 02.11.2021
5659 Clouds 8 1002 87 10000 1.03 0 16:30 02.11.2021
5660 Clouds 8 1002 87 10000 2.57 240 15:32 02.11.2021
5661 Rain 11 1001 70 10000 4.12 210 14:28 02.11.2021
5662 Clouds 11 1002 73 10000 4.12 210 13:27 02.11.2021
5663 Clouds 11 1002 79 10000 1.03 0 12:39 02.11.2021
5664 Clouds 10 1002 86 10000 2.06 190 11:33 02.11.2021
5665 Clouds 9 1003 87 10000 2.06 160 10:52 02.11.2021
5666 Clouds 9 1003 89 10000 1.54 150 10:26 02.11.2021
5667 Clouds 6 1002 89 10000 2.57 100 08:43 02.11.2021
5668 Clouds 5 1002 87 10000 3.09 110 06:53 02.11.2021
5669 Fog 5 1002 90 10000 2.57 120 03:48 02.11.2021
5670 Clouds 6 1002 90 10000 3.09 100 02:18 02.11.2021
5671 Clouds 8 1004 87 10000 3.09 140 22:44 01.11.2021
5672 Clouds 8 1004 87 10000 2.57 140 20:52 01.11.2021
5673 Clouds 8 1005 87 10000 2.57 150 20:33 01.11.2021
5674 Clouds 8 1004 87 10000 2.57 140 20:33 01.11.2021
5675 Clouds 8 1005 87 10000 3.09 150 19:52 01.11.2021
5676 Clouds 8 1005 87 10000 3.09 150 19:24 01.11.2021
5677 Rain 8 1004 85 10000 3.6 170 18:21 01.11.2021
5678 Rain 9 1005 88 10000 3.6 170 17:19 01.11.2021
5679 Rain 9 1005 87 10000 3.09 170 16:43 01.11.2021
5680 Rain 9 1005 89 10000 2.57 160 15:47 01.11.2021
5681 Rain 9 1005 87 10000 3.6 180 15:20 01.11.2021
5682 Rain 9 1005 89 10000 4.12 170 14:42 01.11.2021
5683 Rain 9 1006 89 10000 2.57 170 14:20 01.11.2021
5684 Rain 9 1006 87 10000 2.57 180 13:19 01.11.2021
5685 Rain 10 1006 87 10000 3.09 220 12:24 01.11.2021
5686 Rain 10 1005 87 10000 1.03 0 10:23 01.11.2021
5687 Clouds 9 1006 87 6000 2.06 110 08:53 01.11.2021
5688 Clouds 9 1005 87 4500 1.03 0 07:47 01.11.2021
5689 Clear 9 1003 85 10000 1.03 0 05:53 01.11.2021
5690 Clear 9 1003 82 10000 2.06 110 03:40 01.11.2021
5691 Clear 8 1004 85 10000 3.09 130 23:59 31.10.2021
5692 Clear 10 1005 75 10000 3.09 110 21:31 31.10.2021
5693 Clear 10 1005 71 10000 4.63 100 20:25 31.10.2021
5694 Clear 12 1005 64 10000 3.6 100 18:51 31.10.2021
5695 Clear 12 1006 60 10000 2.06 110 18:25 31.10.2021
5696 Clear 16 1006 48 10000 3.09 120 16:48 31.10.2021
5697 Clear 19 1007 44 10000 3.09 140 15:18 31.10.2021
5698 Clear 18 1008 58 10000 2.57 150 13:27 31.10.2021
5699 Clear 18 1010 58 10000 4.12 140 12:30 31.10.2021
5700 Clear 14 1011 72 10000 3.6 140 10:51 31.10.2021
5701 Clear 11 1012 78 10000 2.57 130 09:54 31.10.2021
5702 Clear 9 1012 82 10000 2.57 120 08:48 31.10.2021
5703 Clear 9 1012 84 10000 3.09 110 04:55 31.10.2021
5704 Clear 9 1012 83 10000 2.06 160 00:47 31.10.2021
5705 Clear 9 1010 84 10000 4.12 120 22:28 30.10.2021
5706 Clear 8 1010 87 10000 2.06 120 21:30 30.10.2021
5707 Clouds 8 1011 91 10000 3.02 174 20:19 30.10.2021
5708 Rain 9 1009 83 10000 2.57 130 18:21 30.10.2021
5709 Rain 11 1008 70 10000 3.09 150 15:58 30.10.2021
5710 Clear 12 1007 67 10000 4.12 110 14:25 30.10.2021
5711 Clear 11 1007 65 10000 3.6 130 13:38 30.10.2021
5712 Clear 11 1008 69 10000 3.09 140 13:20 30.10.2021
5713 Clear 7 1009 71 10000 2.06 150 11:50 30.10.2021
5714 Clouds 6 1009 81 10000 3.09 110 10:58 30.10.2021
5715 Clouds 5 1010 87 6000 2.06 80 09:40 30.10.2021
5716 Mist 4 1011 87 4500 5.14 120 08:31 30.10.2021
5717 Clouds 4 1012 88 5000 3.6 140 05:49 30.10.2021
5718 Mist 4 1012 88 5000 3.09 130 04:54 30.10.2021
5719 Mist 5 1014 88 5000 3.6 130 23:33 29.10.2021
5720 Clouds 5 1014 88 6000 3.09 100 22:35 29.10.2021
5721 Clouds 5 1014 87 6000 2.57 110 21:20 29.10.2021
5722 Clouds 5 1014 88 8000 2.57 110 20:33 29.10.2021
5723 Clouds 6 1013 88 8000 1.54 130 19:38 29.10.2021
5724 Clouds 8 1013 84 10000 1.03 220 18:23 29.10.2021
5725 Clear 9 1013 79 10000 1.54 160 16:34 29.10.2021
5726 Clouds 7 1015 87 9000 2.06 140 13:34 29.10.2021
5727 Mist 6 1016 87 3500 3.09 100 10:50 29.10.2021
5728 Mist 4 1016 93 3500 3.09 100 10:31 29.10.2021
5729 Mist 5 1016 89 4000 3.09 110 05:43 29.10.2021
5730 Mist 6 1019 90 4000 3.6 130 00:35 29.10.2021
5731 Mist 7 1019 88 5000 4.12 120 22:40 28.10.2021
5732 Clouds 7 1019 88 7000 3.09 120 21:20 28.10.2021
5733 Clouds 8 1019 86 9000 2.57 120 20:19 28.10.2021
5734 Clouds 8 1020 86 10000 3.6 150 18:47 28.10.2021
5735 Clouds 9 1020 84 10000 3.6 130 17:52 28.10.2021
5736 Clouds 9 1020 79 10000 3.6 150 16:54 28.10.2021
5737 Clouds 9 1021 81 10000 4.12 140 14:59 28.10.2021
5738 Clouds 9 1021 81 10000 3.6 140 13:35 28.10.2021
5739 Clouds 7 1022 93 10000 4.63 120 12:50 28.10.2021
5740 Clouds 7 1022 87 6000 4.63 140 11:51 28.10.2021
5741 Mist 7 1022 90 1200 3.09 130 10:47 28.10.2021
5742 Fog 5 1023 100 450 3.09 100 09:37 28.10.2021
5743 Fog 5 1023 88 200 3.6 90 08:37 28.10.2021
5744 Fog 5 1023 88 250 2.57 130 07:41 28.10.2021
5745 Fog 6 1024 89 500 2.06 120 03:51 28.10.2021
5746 Fog 6 1025 91 900 3.09 120 22:57 27.10.2021
5747 Fog 6 1025 93 600 2.57 100 22:29 27.10.2021
5748 Clear 7 1025 91 10000 3.09 110 21:32 27.10.2021
5749 Clear 7 1025 91 10000 2.06 90 20:48 27.10.2021
5750 Clear 8 1025 88 10000 2.57 80 19:49 27.10.2021
5751 Clear 9 1025 85 10000 2.06 10 18:56 27.10.2021
5752 Clear 10 1025 85 10000 2.06 10 18:37 27.10.2021
5753 Clouds 13 1026 75 10000 1.54 0 16:26 27.10.2021
5754 Clouds 14 1026 75 10000 1.03 0 15:28 27.10.2021
5755 Clouds 13 1027 81 10000 1.03 0 14:38 27.10.2021
5756 Clouds 8 1028 89 10000 2.06 120 11:19 27.10.2021
5757 Clouds 9 1027 77 10000 1.62 193 10:56 27.10.2021
5758 Fog 5 1027 87 200 3.6 100 09:28 27.10.2021
5759 Fog 4 1027 87 4400 2.57 100 07:47 27.10.2021
5760 Fog 5 1027 90 7000 3.6 100 06:34 27.10.2021
5761 Fog 6 1026 87 10000 2.57 110 01:26 27.10.2021
5762 Fog 6 1026 90 10000 1.54 90 00:55 27.10.2021
5763 Fog 6 1026 92 10000 2.57 120 23:56 26.10.2021
5764 Fog 7 1026 90 10000 1.03 0 22:50 26.10.2021
5765 Fog 7 1025 88 10000 1.54 140 22:27 26.10.2021
5766 Fog 7 1025 90 10000 2.06 120 21:51 26.10.2021
5767 Clouds 9 1025 85 10000 1.54 130 19:59 26.10.2021
5768 Clouds 10 1024 84 10000 1.03 0 19:22 26.10.2021
5769 Clouds 11 1024 79 10000 1.54 240 18:25 26.10.2021
5770 Clouds 13 1023 79 10000 2.57 280 15:51 26.10.2021
5771 Clouds 13 1024 78 10000 2.57 250 13:45 26.10.2021
5772 Clouds 10 1024 86 10000 2.06 130 11:18 26.10.2021
5773 Clouds 6 1023 86 10000 3.09 100 09:26 26.10.2021
5774 Drizzle 6 1022 89 10000 3.6 100 07:22 26.10.2021
5775 Clear 6 1021 93 10000 3.09 110 00:29 26.10.2021
5776 Clear 6 1021 93 10000 3.09 110 00:29 26.10.2021
5777 Clear 6 1021 91 10000 3.09 110 23:37 25.10.2021
5778 Clear 7 1021 90 10000 3.09 110 22:34 25.10.2021
5779 Clear 8 1020 90 10000 3.6 100 21:45 25.10.2021
5780 Clear 8 1021 88 10000 3.6 110 20:38 25.10.2021
5781 Clear 9 1020 86 10000 3.09 100 19:44 25.10.2021
5782 Clear 9 1020 80 10000 2.57 100 19:23 25.10.2021
5783 Clear 10 1020 78 10000 2.57 110 18:40 25.10.2021
5784 Clear 13 1020 70 10000 2.57 110 17:35 25.10.2021
5785 Clear 13 1021 67 10000 1.54 130 15:18 25.10.2021
5786 Clear 9 1022 77 10000 2.57 120 12:33 25.10.2021
5787 Clear 5 1023 84 10000 2.57 120 10:54 25.10.2021
5788 Clear 2 1022 84 10000 2.06 110 08:59 25.10.2021
5789 Clear 2 1023 87 10000 1.54 140 07:19 25.10.2021
5790 Clear 1 1023 93 10000 2.06 120 04:35 25.10.2021
5791 Clear 2 1024 89 10000 2.06 120 00:52 25.10.2021
5792 Clear 2 1024 88 10000 2.57 100 00:33 25.10.2021
5793 Clear 3 1024 87 10000 2.06 110 23:41 24.10.2021
5794 Clear 4 1024 82 10000 2.57 90 22:38 24.10.2021
5795 Clear 4 1024 83 10000 2.06 110 22:19 24.10.2021
5796 Clear 5 1024 79 10000 3.09 90 21:18 24.10.2021
5797 Clear 6 1025 75 10000 3.09 90 20:34 24.10.2021
5798 Clear 7 1025 71 10000 3.6 100 19:39 24.10.2021
5799 Clear 10 1025 57 10000 3.6 100 18:29 24.10.2021
5800 Clear 12 1025 50 10000 3.09 100 17:44 24.10.2021
5801 Clear 13 1026 43 10000 3.6 110 15:56 24.10.2021
5802 Clear 13 1026 44 10000 3.6 110 15:56 24.10.2021
5803 Clear 13 1027 51 10000 2.57 120 14:42 24.10.2021
5804 Clear 10 1028 61 10000 3.6 110 12:58 24.10.2021
5805 Clear 8 1028 70 10000 3.6 140 11:45 24.10.2021
5806 Clear 7 1028 73 10000 3.09 110 11:25 24.10.2021
5807 Clear 5 1028 82 10000 2.06 100 10:27 24.10.2021
5808 Clear 0 1028 93 10000 0.51 0 07:51 24.10.2021
5809 Clear 1 1030 92 10000 1.03 80 01:22 24.10.2021
5810 Clear 2 1030 91 10000 2.06 100 23:48 23.10.2021
5811 Clear 3 1030 90 10000 3.6 110 22:29 23.10.2021
5812 Clear 4 1030 85 10000 2.57 100 20:37 23.10.2021
5813 Clouds 7 1029 76 10000 1.03 0 18:59 23.10.2021
5814 Clouds 8 1029 71 10000 1.54 330 18:30 23.10.2021
5815 Clouds 9 1029 64 10000 1.54 330 17:43 23.10.2021
5816 Clouds 11 1028 62 10000 3.6 350 16:24 23.10.2021
5817 Clouds 10 1028 62 10000 3.6 320 14:35 23.10.2021
5818 Clouds 6 1027 88 10000 2.06 250 09:45 23.10.2021
5819 Clouds 8 1022 72 10000 6.69 250 00:22 23.10.2021
5820 Clouds 8 1021 71 10000 7.72 250 23:18 22.10.2021
5821 Clear 8 1020 68 10000 5.66 250 20:50 22.10.2021
5822 Clouds 8 1019 65 10000 5.14 240 18:45 22.10.2021
5823 Clouds 9 1019 64 10000 6.69 250 17:43 22.10.2021
5824 Clouds 11 1018 50 10000 7.72 250 15:26 22.10.2021
5825 Clouds 10 1018 57 10000 7.72 240 13:52 22.10.2021
5826 Clouds 7 1019 83 10000 5.14 250 11:26 22.10.2021
5827 Clouds 7 1018 83 10000 4.12 230 10:41 22.10.2021
5828 Clouds 5 1018 87 10000 4.12 240 09:56 22.10.2021
5829 Clouds 4 1017 88 10000 2.57 240 08:36 22.10.2021
5830 Clouds 4 1017 90 10000 2.06 190 07:22 22.10.2021
5831 Clouds 6 1015 88 10000 3.6 270 02:57 22.10.2021
5832 Rain 8 1013 87 10000 4.63 290 23:55 21.10.2021
5833 Rain 8 1013 87 10000 4.63 290 23:35 21.10.2021
5834 Clouds 10 1011 73 10000 5.66 240 21:52 21.10.2021
5835 Clear 11 1010 62 10000 3.09 180 20:40 21.10.2021
5836 Clear 11 1010 63 10000 3.6 200 20:18 21.10.2021
5837 Clouds 11 1010 60 10000 6.69 230 19:29 21.10.2021
5838 Clouds 12 1009 61 10000 5.66 230 18:45 21.10.2021
5839 Clouds 12 1010 59 10000 5.66 240 17:56 21.10.2021
5840 Clouds 13 1010 59 10000 5.66 240 17:37 21.10.2021
5841 Clouds 13 1010 61 10000 9.26 240 15:49 21.10.2021
5842 Clouds 13 1010 61 10000 9.26 250 15:20 21.10.2021
5843 Clouds 13 1010 60 10000 9.77 260 14:38 21.10.2021
5844 Clouds 13 1009 66 10000 11.32 250 13:19 21.10.2021
5845 -273 0 0 0 0 0 10:42 21.10.2021
5846 -273 0 0 0 0 0 10:42 21.10.2021
5847 Clouds 13 1004 65 10000 9.26 230 10:41 21.10.2021
5848 Clouds 13 1004 65 10000 9.26 230 10:41 21.10.2021
5849 Clouds 13 1001 78 10000 8.23 240 08:21 21.10.2021
5850 Clouds 14 1000 86 10000 8.23 200 07:23 21.10.2021
5851 Rain 13 1004 87 7000 1.54 0 03:29 21.10.2021
5852 Clouds 15 1008 80 10000 2.57 20 23:25 20.10.2021
5853 Clear 15 1008 77 10000 4.12 170 21:51 20.10.2021
5854 Clouds 15 1008 77 10000 3.09 160 21:29 20.10.2021
5855 Clear 16 1009 75 10000 3.6 180 20:49 20.10.2021
5856 Clouds 16 1009 76 10000 4.12 170 20:28 20.10.2021
5857 Clouds 16 1010 75 10000 4.63 160 19:40 20.10.2021
5858 Clouds 17 1010 72 10000 3.6 170 18:53 20.10.2021
5859 Clouds 18 1011 68 10000 3.6 170 17:41 20.10.2021
5860 Clear 19 1012 61 10000 4.63 190 15:26 20.10.2021
5861 Clear 11 1016 77 10000 3.6 130 10:25 20.10.2021
5862 Clear 8 1016 90 10000 3.6 110 08:36 20.10.2021
5863 Clear 8 1020 87 10000 3.6 100 02:58 20.10.2021
5864 Clear 10 1021 86 10000 4.12 100 00:43 20.10.2021
5865 Clear 10 1021 87 10000 3.6 110 23:45 19.10.2021
5866 Clear 11 1022 85 10000 3.09 110 21:41 19.10.2021
5867 Clear 12 1022 87 10000 2.57 120 20:48 19.10.2021
5868 Clear 12 1022 87 10000 3.09 110 20:22 19.10.2021
5869 Clear 12 1022 86 10000 3.09 120 19:40 19.10.2021
5870 Clouds 13 1022 85 10000 3.09 130 18:52 19.10.2021
5871 Clouds 13 1022 85 10000 3.09 140 17:57 19.10.2021
5872 Clouds 12 1023 87 4000 3.09 160 15:38 19.10.2021
5873 Clouds 12 1023 87 5000 4.12 180 15:18 19.10.2021
5874 Clouds 11 1024 86 9000 3.09 150 14:23 19.10.2021
5875 Rain 10 1025 84 10000 3.6 140 12:34 19.10.2021
5876 Rain 9 1025 84 9000 3.6 140 11:31 19.10.2021
5877 Rain 8 1025 89 8000 2.57 100 09:56 19.10.2021
5878 Mist 6 1024 93 5000 3.09 100 08:57 19.10.2021
5879 Fog 5 1025 89 3200 3.6 120 05:23 19.10.2021
5880 Clouds 6 1026 90 9000 2.57 90 00:23 19.10.2021
5881 Clear 6 1026 90 10000 2.57 100 23:49 18.10.2021
5882 Clear 7 1026 88 10000 2.57 100 23:18 18.10.2021
5883 Clouds 7 1026 87 10000 1.54 160 22:31 18.10.2021
5884 Clouds 7 1026 87 10000 1.54 160 22:31 18.10.2021
5885 Clear 8 1025 87 10000 3.09 180 20:57 18.10.2021
5886 Clear 8 1025 87 10000 3.09 180 20:33 18.10.2021
5887 Clear 9 1025 85 10000 3.09 190 19:50 18.10.2021
5888 Clear 9 1025 82 10000 2.57 160 19:28 18.10.2021
5889 Clear 10 1025 78 10000 3.09 160 18:50 18.10.2021
5890 Clouds 13 1026 75 10000 2.06 0 14:59 18.10.2021
5891 Clouds 11 1027 78 10000 2.06 160 12:53 18.10.2021
5892 Clouds 9 1026 84 7000 3.09 130 10:26 18.10.2021
5893 Clouds 8 1025 88 7000 2.06 80 09:26 18.10.2021
5894 Clouds 9 1022 86 10000 2.06 90 02:28 18.10.2021
5895 Clouds 9 1022 88 10000 3.6 100 23:20 17.10.2021
5896 Clouds 10 1021 86 10000 3.09 100 21:46 17.10.2021
5897 Clouds 10 1021 86 10000 1.54 80 20:59 17.10.2021
5898 Clouds 10 1021 84 10000 1.54 80 20:31 17.10.2021
5899 Clouds 10 1021 85 10000 1.54 60 19:39 17.10.2021
5900 Clouds 11 1021 83 10000 1.47 30 18:54 17.10.2021
5901 Clouds 12 1020 79 10000 1.54 20 17:32 17.10.2021
5902 Clouds 13 1021 76 10000 1.54 340 14:58 17.10.2021
5903 Clouds 13 1021 78 10000 1.54 320 14:24 17.10.2021
5904 Clouds 11 1021 80 10000 1.54 340 13:34 17.10.2021
5905 Clouds 7 1021 79 10000 0.51 0 11:54 17.10.2021
5906 Clouds 5 1021 83 10000 1.03 0 10:23 17.10.2021
5907 Clouds 4 1021 83 10000 2.06 100 09:28 17.10.2021
5908 Clouds 1 1021 90 10000 2.06 120 06:58 17.10.2021
5909 Clear 3 1021 92 10000 0.51 0 00:52 17.10.2021
5910 Clear 3 1021 92 10000 0.51 0 00:21 17.10.2021
5911 Clear 6 1021 85 10000 1.03 0 21:30 16.10.2021
5912 Clear 7 1021 79 10000 2.06 20 20:31 16.10.2021
5913 Clear 8 1021 79 10000 2.06 10 19:44 16.10.2021
5914 Clear 9 1021 75 10000 2.06 10 19:21 16.10.2021
5915 Clear 10 1020 73 10000 1.54 10 18:53 16.10.2021
5916 Clear 11 1020 65 10000 2.06 10 18:29 16.10.2021
5917 Clear 12 1020 61 10000 2.57 360 17:54 16.10.2021
5918 Clouds 12 1020 58 10000 2.06 320 17:22 16.10.2021
5919 Clouds 13 1021 57 10000 1.03 0 14:48 16.10.2021
5920 Fog 8 1022 88 400 0.51 0 11:52 16.10.2021
5921 Fog 7 1022 85 200 0.51 0 10:36 16.10.2021
5922 Fog 4 1021 90 250 0 0 07:50 16.10.2021
5923 Clouds 9 1020 88 10000 1.03 330 01:25 16.10.2021
5924 Clouds 10 1020 88 10000 1.54 320 23:53 15.10.2021
5925 Clouds 10 1020 89 10000 1.03 0 22:38 15.10.2021
5926 Clouds 10 1020 89 10000 1.54 340 22:18 15.10.2021
5927 Clouds 11 1019 86 10000 1.03 330 21:26 15.10.2021
5928 Clouds 11 1019 85 10000 1.03 0 20:46 15.10.2021
5929 Clouds 11 1018 83 10000 0.51 0 19:26 15.10.2021
5930 Clouds 11 1018 79 10000 2.06 280 18:40 15.10.2021
5931 Clouds 14 1018 68 10000 5.66 290 16:28 15.10.2021
5932 Clouds 15 1018 67 10000 4.12 300 15:28 15.10.2021
5933 Clear 13 1018 70 10000 2.06 230 12:41 15.10.2021
5934 Clear 11 1019 77 10000 1.54 170 11:31 15.10.2021
5935 Clear 10 1019 82 10000 2.06 130 10:43 15.10.2021
5936 Clear 4 1018 94 10000 4.12 100 08:59 15.10.2021
5937 Fog 4 1019 90 10000 2.57 100 05:31 15.10.2021
5938 Fog 7 1022 90 10000 2.57 110 00:48 15.10.2021
5939 Fog 7 1023 90 10000 2.06 110 00:21 15.10.2021
5940 Clouds 9 1023 89 10000 2.06 150 22:51 14.10.2021
5941 Clouds 9 1023 89 10000 2.06 150 22:51 14.10.2021
5942 Clouds 9 1024 89 10000 1.54 160 21:44 14.10.2021
5943 Clouds 9 1024 89 10000 1.03 0 20:38 14.10.2021
5944 Clouds 9 1024 87 10000 1.03 0 20:18 14.10.2021
5945 Clouds 9 1024 88 10000 1.54 160 19:33 14.10.2021
5946 Clouds 9 1024 88 4800 2.06 220 17:30 14.10.2021
5947 Clouds 10 1025 87 8000 2.57 270 16:49 14.10.2021
5948 Clouds 10 1025 86 10000 2.06 250 15:35 14.10.2021
5949 Drizzle 10 1025 85 10000 3.09 250 14:41 14.10.2021
5950 Clouds 9 1026 86 10000 3.6 260 13:37 14.10.2021
5951 Drizzle 8 1026 87 3100 3.09 230 11:44 14.10.2021
5952 Clouds 7 1026 87 9000 2.57 230 09:55 14.10.2021
5953 Clouds 6 1027 87 10000 1.92 242 06:55 14.10.2021
5954 Clouds 6 1027 84 10000 1.86 250 00:58 14.10.2021
5955 Clouds 5 1027 86 10000 2.01 252 00:22 14.10.2021
5956 Clouds 5 1026 85 10000 0.51 0 21:53 13.10.2021
5957 Clouds 5 1026 84 10000 0.51 0 21:32 13.10.2021
5958 Clouds 7 1025 81 10000 1.54 280 19:48 13.10.2021
5959 Clouds 8 1024 73 10000 2.57 300 18:49 13.10.2021
5960 Clouds 8 1024 73 10000 2.57 300 18:49 13.10.2021
5961 Clouds 10 1024 65 10000 3.09 280 17:49 13.10.2021
5962 Clouds 11 1024 65 10000 4.12 290 15:24 13.10.2021
5963 Clouds 10 1024 66 10000 2.06 340 14:44 13.10.2021
5964 Clouds 9 1024 77 10000 2.57 250 12:58 13.10.2021
5965 Clouds 8 1024 83 10000 1.54 0 11:59 13.10.2021
5966 Clouds 7 1024 85 10000 2.06 270 10:39 13.10.2021
5967 Clouds 5 1022 87 10000 2.06 280 07:58 13.10.2021
5968 Clouds 5 1021 87 10000 1.54 260 06:33 13.10.2021
5969 Clouds 6 1019 89 10000 3.09 310 02:24 13.10.2021
5970 Clouds 7 1018 87 10000 3.09 310 00:18 13.10.2021
5971 Clouds 7 1018 90 10000 2.57 320 23:29 12.10.2021
5972 Clouds 7 1017 90 10000 3.09 290 22:44 12.10.2021
5973 Clouds 7 1017 90 10000 1.54 270 21:30 12.10.2021
5974 Rain 8 1016 88 9000 3.09 360 20:34 12.10.2021
5975 Rain 8 1016 88 9000 3.6 250 19:52 12.10.2021
5976 Clouds 10 1016 86 10000 4.63 260 18:27 12.10.2021
5977 Rain 10 1016 86 10000 3.09 270 17:38 12.10.2021
5978 Clouds 10 1016 82 10000 4.12 260 16:38 12.10.2021
5979 Clouds 11 1017 79 10000 4.63 270 15:44 12.10.2021
5980 Clouds 11 1017 79 10000 5.14 260 14:30 12.10.2021
5981 Clouds 11 1018 78 10000 6.17 270 13:42 12.10.2021
5982 Clouds 10 1020 82 10000 5.66 260 11:36 12.10.2021
5983 Clouds 8 1020 88 10000 3.6 260 09:41 12.10.2021
5984 Rain 8 1020 90 6000 2.57 280 08:42 12.10.2021
5985 Mist 8 1021 88 5000 1.54 280 06:53 12.10.2021
5986 Drizzle 8 1022 88 5000 1.03 210 05:29 12.10.2021
5987 Clouds 8 1022 87 7000 1.03 200 04:31 12.10.2021
5988 Mist 7 1024 90 5000 1.54 230 00:18 12.10.2021
5989 Mist 8 1024 88 5000 1.03 0 23:39 11.10.2021
5990 Mist 8 1024 90 4000 2.06 270 22:56 11.10.2021
5991 Mist 8 1024 88 4000 1.03 0 21:43 11.10.2021
5992 Clouds 9 1024 87 6000 1.54 280 20:32 11.10.2021
5993 Clouds 9 1024 87 8000 2.06 290 19:38 11.10.2021
5994 Clouds 10 1024 88 7000 3.6 320 18:24 11.10.2021
5995 Clouds 12 1024 72 10000 4.63 330 16:49 11.10.2021
5996 Clouds 12 1024 69 10000 4.63 320 16:31 11.10.2021
5997 Clouds 13 1024 63 10000 4.63 300 15:45 11.10.2021
5998 Clouds 14 1024 60 10000 4.12 300 14:54 11.10.2021
5999 Clouds 14 1024 62 10000 1.54 320 14:22 11.10.2021
6000 Clouds 13 1024 64 10000 1.54 320 13:36 11.10.2021
6001 Clear 8 1026 74 10000 1.54 190 11:25 11.10.2021
6002 Clear 4 1025 79 10000 2.57 100 09:47 11.10.2021
6003 Clear 2 1025 80 10000 2.06 120 08:41 11.10.2021
6004 Clear 1 1026 92 10000 2.06 100 03:47 11.10.2021
6005 Clear 2 1026 95 10000 1.54 90 01:34 11.10.2021
6006 Clear 3 1026 92 10000 3.09 100 00:43 11.10.2021
6007 Clear 3 1026 89 10000 1.54 100 23:35 10.10.2021
6008 Clear 5 1026 83 10000 1.03 0 21:51 10.10.2021
6009 Clear 5 1026 82 10000 0.51 0 21:28 10.10.2021
6010 Clear 6 1026 76 10000 0.51 0 20:41 10.10.2021
6011 Clear 7 1026 72 10000 2.06 110 20:20 10.10.2021
6012 Clear 7 1026 66 10000 1.03 100 19:51 10.10.2021
6013 Clear 8 1026 67 10000 1.03 330 19:31 10.10.2021
6014 Clear 11 1025 55 10000 1.05 323 18:24 10.10.2021
6015 Clear 14 1026 46 10000 1.03 0 15:54 10.10.2021
6016 Clear 14 1026 43 10000 1.03 0 15:36 10.10.2021
6017 Clear 13 1027 51 10000 2.06 210 13:42 10.10.2021
6018 Clear 12 1027 53 10000 1.03 0 12:44 10.10.2021
6019 Clear 11 1027 58 10000 1.54 80 12:22 10.10.2021
6020 Clear 6 1027 77 10000 0.51 0 10:31 10.10.2021
6021 Clear 3 1027 84 10000 0.51 0 09:19 10.10.2021
6022 Clear 2 1027 96 10000 0.51 0 08:51 10.10.2021
6023 Clear 1 1027 88 10000 1.03 0 06:19 10.10.2021
6024 Clear 3 1028 86 10000 1.03 60 02:20 10.10.2021
6025 Clear 4 1028 80 10000 1.54 80 00:52 10.10.2021
6026 Clear 5 1028 78 10000 1.03 0 23:46 09.10.2021
6027 Clear 6 1028 75 10000 1.03 0 22:20 09.10.2021
6028 Clear 8 1028 67 10000 3.6 70 21:30 09.10.2021
6029 Clear 8 1028 67 10000 3.09 70 20:42 09.10.2021
6030 Clear 9 1028 67 10000 2.06 70 19:41 09.10.2021
6031 Clear 12 1027 59 10000 1.54 80 18:48 09.10.2021
6032 Clear 13 1027 53 10000 2.06 70 18:26 09.10.2021
6033 Clear 16 1027 43 10000 4.12 100 16:21 09.10.2021
6034 Clear 15 1028 51 10000 4.12 60 14:37 09.10.2021
6035 Clear 15 1028 58 10000 4.63 80 13:39 09.10.2021
6036 Clear 13 1028 64 10000 5.66 90 12:28 09.10.2021
6037 Clear 9 1028 75 10000 5.14 90 10:45 09.10.2021
6038 Clear 8 1028 82 10000 4.12 70 10:19 09.10.2021
6039 Clear 7 1028 84 10000 1.03 0 09:23 09.10.2021
6040 Clear 5 1028 89 10000 1.54 20 08:20 09.10.2021
6041 Clear 5 1027 88 10000 2.06 90 06:46 09.10.2021
6042 Clear 6 1027 86 10000 3.09 70 04:55 09.10.2021
6043 Clear 7 1028 84 10000 2.57 70 02:46 09.10.2021
6044 Clear 8 1028 84 10000 1.03 0 00:30 09.10.2021
6045 Clear 8 1028 86 10000 0.51 0 23:33 08.10.2021
6046 Clear 8 1028 82 10000 2.57 60 22:46 08.10.2021
6047 Clear 10 1028 81 10000 1.03 0 21:44 08.10.2021
6048 Clouds 12 1028 76 10000 2.06 30 20:27 08.10.2021
6049 Clouds 14 1027 63 10000 2.57 80 18:23 08.10.2021
6050 Clouds 16 1027 60 10000 5.14 60 16:56 08.10.2021
6051 Clouds 17 1027 60 10000 3.6 60 16:25 08.10.2021
6052 Clouds 16 1028 65 10000 3.6 70 14:57 08.10.2021
6053 Clouds 16 1028 71 10000 2.06 0 13:47 08.10.2021
6054 Clouds 12 1028 82 10000 1.54 300 11:56 08.10.2021
6055 Clouds 10 1029 84 10000 2.06 340 10:43 08.10.2021
6056 Clouds 10 1029 83 10000 0.51 0 09:47 08.10.2021
6057 Clouds 7 1028 91 10000 1.03 0 04:20 08.10.2021
6058 Clouds 9 1028 88 10000 1.54 360 23:25 07.10.2021
6059 Clouds 9 1028 87 10000 2.57 350 22:54 07.10.2021
6060 Clouds 11 1028 85 10000 1.54 360 21:29 07.10.2021
6061 Clear 11 1028 85 10000 1.54 360 20:41 07.10.2021
6062 Clouds 12 1028 81 10000 1.03 360 19:34 07.10.2021
6063 Clouds 13 1027 70 10000 1.03 0 18:41 07.10.2021
6064 Clouds 14 1028 68 10000 1.03 0 17:33 07.10.2021
6065 Clouds 15 1027 65 10000 1.54 0 16:42 07.10.2021
6066 Clouds 14 1027 69 10000 1.03 0 14:55 07.10.2021
6067 Clouds 14 1027 72 10000 2.57 280 13:43 07.10.2021
6068 Clouds 13 1028 78 10000 2.57 350 12:54 07.10.2021
6069 Clouds 11 1027 83 10000 1.03 0 10:59 07.10.2021
6070 Clouds 11 1027 83 10000 1.03 0 10:40 07.10.2021
6071 Clouds 10 1027 85 10000 1.54 320 09:43 07.10.2021
6072 Clouds 9 1026 90 10000 1.03 340 08:54 07.10.2021
6073 Clouds 8 1026 88 10000 1.03 0 07:58 07.10.2021
6074 Clouds 8 1026 88 10000 1.03 0 07:38 07.10.2021
6075 Clouds 8 1025 88 10000 0.51 0 06:38 07.10.2021
6076 Clouds 9 1024 86 10000 1.54 150 00:48 07.10.2021
6077 Clouds 8 1024 88 10000 1.54 120 23:18 06.10.2021
6078 Clear 8 1023 88 10000 2.06 180 22:24 06.10.2021
6079 Clouds 8 1023 86 10000 2.57 160 21:24 06.10.2021
6080 Clouds 9 1022 83 10000 1.54 190 20:28 06.10.2021
6081 Clouds 11 1021 72 10000 2.06 230 18:43 06.10.2021
6082 Clouds 14 1020 66 10000 3.6 200 17:19 06.10.2021
6083 Clouds 13 1020 74 10000 1.54 230 15:34 06.10.2021
6084 Clouds 12 1020 79 10000 4.63 220 14:41 06.10.2021
6085 Clouds 12 1020 76 10000 4.63 260 13:24 06.10.2021
6086 Clouds 12 1019 78 10000 4.63 280 12:46 06.10.2021
6087 Clouds 12 1019 81 10000 4.12 230 12:24 06.10.2021
6088 Clouds 11 1019 85 10000 3.09 210 10:37 06.10.2021
6089 Clouds 10 1018 86 10000 2.57 200 09:39 06.10.2021
6090 Clouds 10 1017 87 10000 2.57 250 08:57 06.10.2021
6091 Clouds 10 1017 86 10000 3.6 220 07:54 06.10.2021
6092 Clouds 10 1016 87 10000 1.54 150 05:38 06.10.2021
6093 Clouds 12 1014 86 10000 3.6 230 01:37 06.10.2021
6094 Rain 12 1012 86 10000 2.57 170 00:20 06.10.2021
6095 Clouds 12 1012 86 10000 3.6 170 23:50 05.10.2021
6096 Clouds 12 1012 87 10000 3.6 170 23:29 05.10.2021
6097 Clear 12 1011 87 10000 3.6 150 22:30 05.10.2021
6098 Clear 12 1011 87 10000 3.6 150 21:51 05.10.2021
6099 Clear 12 1011 88 10000 3.6 140 20:51 05.10.2021
6100 Clouds 12 1011 88 10000 3.6 140 20:25 05.10.2021
6101 Clouds 12 1011 88 10000 3.09 140 19:50 05.10.2021
6102 Clouds 13 1011 89 10000 3.09 140 19:21 05.10.2021
6103 Rain 14 1011 85 10000 1.54 160 17:23 05.10.2021
6104 Rain 14 1010 81 10000 1.03 0 15:27 05.10.2021
6105 Clouds 13 1011 85 10000 3.09 230 13:44 05.10.2021
6106 Clouds 12 1011 85 10000 3.6 260 12:57 05.10.2021
6107 Clouds 12 1011 85 10000 3.6 260 12:32 05.10.2021
6108 Clouds 12 1011 88 9000 3.09 270 11:22 05.10.2021
6109 Drizzle 11 1010 88 4500 3.6 300 10:21 05.10.2021
6110 Mist 11 1011 89 4100 2.57 320 05:56 05.10.2021
6111 Clouds 11 1016 88 10000 2.57 330 00:37 05.10.2021
6112 Clear 11 1017 89 10000 1.03 0 22:49 04.10.2021
6113 Clouds 12 1018 90 10000 1.03 10 20:45 04.10.2021
6114 Clouds 13 1019 87 10000 1.03 30 18:47 04.10.2021
6115 Clouds 13 1019 85 10000 0.51 0 16:44 04.10.2021
6116 Rain 13 1020 85 10000 2.06 320 15:32 04.10.2021
6117 Clouds 13 1020 85 10000 2.57 310 14:43 04.10.2021
6118 Clouds 13 1020 88 10000 3.6 300 13:58 04.10.2021
6119 Clouds 12 1020 88 9000 3.09 290 13:30 04.10.2021
6120 Clouds 13 1020 88 9000 3.09 300 12:30 04.10.2021
6121 Clouds 13 1019 84 10000 3.6 300 11:31 04.10.2021
6122 Clouds 13 1019 84 10000 3.6 280 10:41 04.10.2021
6123 Clouds 13 1018 85 10000 3.6 280 09:25 04.10.2021
6124 Clouds 13 1017 84 10000 3.6 290 07:52 04.10.2021
6125 Clouds 15 1016 79 10000 3.6 280 03:34 04.10.2021
6126 Clouds 17 1013 70 10000 5.14 280 22:44 03.10.2021
6127 Clear 18 1012 67 10000 2.57 300 21:43 03.10.2021
6128 Clear 18 1012 66 10000 3.6 300 21:24 03.10.2021
6129 Clear 19 1010 63 10000 3.6 300 20:25 03.10.2021
6130 Clear 19 1009 69 10000 1.54 30 19:31 03.10.2021
6131 Clear 20 1008 63 10000 1.54 0 18:28 03.10.2021
6132 Clear 22 1008 57 10000 3.6 140 17:29 03.10.2021
6133 Clear 22 1007 55 10000 5.14 130 14:49 03.10.2021
6134 Clear 22 1008 54 10000 4.12 130 14:27 03.10.2021
6135 Clear 21 1008 57 10000 6.17 120 13:34 03.10.2021
6136 Clear 20 1008 57 10000 5.66 130 12:41 03.10.2021
6137 Clear 18 1008 59 10000 5.14 130 10:52 03.10.2021
6138 Clear 14 1008 73 10000 4.12 130 08:53 03.10.2021
6139 Clear 14 1009 74 10000 5.14 120 03:29 03.10.2021
6140 Clear 16 1010 71 10000 5.14 150 22:46 02.10.2021
6141 Clear 16 1011 70 10000 6.17 130 21:30 02.10.2021
6142 Clear 17 1011 68 10000 3.6 130 19:51 02.10.2021
6143 Clear 19 1012 57 10000 5.14 130 18:55 02.10.2021
6144 Clear 20 1012 56 10000 6.17 140 17:57 02.10.2021
6145 Clear 21 1013 54 10000 6.69 130 17:26 02.10.2021
6146 Clear 21 1014 48 10000 5.14 180 15:38 02.10.2021
6147 Clear 5 1024 93 10000 1.54 110 06:59 01.10.2021
6148 Clouds 15 1028 47 10000 3.09 240 15:37 30.09.2021
6149 Clouds 14 1029 51 10000 3.09 230 13:45 30.09.2021
6150 Clouds 13 1029 70 10000 3.09 230 11:37 30.09.2021
6151 Clouds 11 1029 76 10000 2.57 230 10:44 30.09.2021
6152 Clouds 9 1029 83 10000 3.09 220 09:41 30.09.2021
6153 Clear 6 1028 87 10000 2.57 180 08:29 30.09.2021
6154 Clear 6 1028 88 10000 2.57 160 07:33 30.09.2021
6155 Clear 7 1027 84 10000 1.54 210 04:58 30.09.2021
6156 Clouds 10 1025 81 10000 3.09 240 01:20 30.09.2021
6157 Clear 11 1024 87 10000 3.09 230 23:55 29.09.2021
6158 Clear 11 1023 81 10000 3.09 240 22:28 29.09.2021
6159 Clear 12 1023 82 10000 3.6 250 21:24 29.09.2021
6160 Clear 12 1022 78 10000 3.6 250 20:26 29.09.2021
6161 Clear 13 1022 78 10000 4.63 260 19:50 29.09.2021
6162 Rain 14 1020 77 10000 6.69 250 18:29 29.09.2021
6163 Clouds 14 1020 81 10000 4.63 270 17:34 29.09.2021
6164 Clear 18 1019 59 10000 5.14 220 16:46 29.09.2021
6165 Clear 19 1019 52 10000 5.66 220 15:49 29.09.2021
6166 Clouds 18 1019 52 10000 5.66 240 14:39 29.09.2021
6167 Clouds 18 1020 54 10000 4.63 230 13:41 29.09.2021
6168 Clouds 18 1020 58 10000 6.69 230 12:50 29.09.2021
6169 Clouds 18 1020 64 10000 3.6 250 11:54 29.09.2021
6170 Clouds 15 1020 75 10000 3.6 260 10:39 29.09.2021
6171 Clouds 14 1020 82 10000 3.09 240 09:48 29.09.2021
6172 Clouds 12 1019 84 10000 2.06 170 08:45 29.09.2021
6173 Rain 11 1018 88 10000 1.03 0 06:55 29.09.2021
6174 Clouds 11 1019 86 10000 1.03 0 03:29 29.09.2021
6175 Clear 11 1020 89 10000 1.03 0 23:23 28.09.2021
6176 Clear 12 1021 85 10000 2.57 80 22:22 28.09.2021
6177 Clear 12 1021 85 10000 2.06 70 21:33 28.09.2021
6178 Clear 13 1021 78 10000 2.06 40 20:27 28.09.2021
6179 Clear 14 1021 75 10000 1.54 30 19:42 28.09.2021
6180 Clear 15 1021 68 10000 1.54 20 18:44 28.09.2021
6181 Clouds 17 1021 60 10000 2.06 10 17:53 28.09.2021
6182 Clouds 18 1023 56 10000 2.57 350 15:21 28.09.2021
6183 Clouds 17 1024 67 10000 2.06 330 13:30 28.09.2021
6184 Clouds 16 1024 72 10000 4.63 290 12:28 28.09.2021
6185 Clouds 16 1024 74 10000 3.09 280 11:57 28.09.2021
6186 Clouds 15 1024 75 10000 3.09 280 11:39 28.09.2021
6187 Clouds 14 1024 81 10000 3.6 300 10:47 28.09.2021
6188 Clouds 13 1024 84 10000 3.6 300 09:45 28.09.2021
6189 Clouds 13 1024 84 10000 4.12 280 08:44 28.09.2021
6190 Clouds 13 1024 84 10000 3.6 280 08:25 28.09.2021
6191 Clouds 13 1023 85 10000 4.12 260 06:47 28.09.2021
6192 Clouds 14 1022 87 10000 3.6 280 04:48 28.09.2021
6193 Clouds 15 1020 87 10000 2.57 100 01:22 28.09.2021
6194 Clouds 16 1020 86 10000 2.06 100 00:20 28.09.2021
6195 Clouds 16 1020 86 10000 1.54 100 23:30 27.09.2021
6196 Clear 16 1020 89 10000 2.06 100 22:45 27.09.2021
6197 Clear 17 1020 86 10000 2.06 110 21:41 27.09.2021
6198 Clear 17 1019 83 10000 1.54 90 20:38 27.09.2021
6199 Rain 18 1019 82 10000 0.51 120 19:43 27.09.2021
6200 Rain 19 1018 79 10000 0.51 0 19:23 27.09.2021
6201 Clouds 21 1018 69 10000 1.03 0 18:27 27.09.2021
6202 Clouds 21 1018 67 10000 0.51 0 17:22 27.09.2021
6203 Clouds 22 1018 66 10000 1.54 110 16:41 27.09.2021
6204 Clouds 22 1018 65 10000 0.51 0 15:42 27.09.2021
6205 Clouds 21 1018 74 10000 1.54 360 14:32 27.09.2021
6206 Clouds 21 1018 76 10000 1.54 280 12:59 27.09.2021
6207 Clouds 18 1019 77 10000 2.06 200 10:52 27.09.2021
6208 Clouds 17 1019 83 9000 1.03 0 09:53 27.09.2021
6209 Clouds 16 1019 85 6000 1.54 190 08:38 27.09.2021
6210 Mist 16 1019 86 4500 0.51 0 05:21 27.09.2021
6211 Rain 16 1019 87 7000 1.03 0 01:48 27.09.2021
6212 Rain 18 1018 82 10000 2.06 280 22:28 26.09.2021
6213 Rain 18 1018 88 10000 3.09 140 21:45 26.09.2021
6214 Rain 19 1017 74 10000 1.54 260 20:52 26.09.2021
6215 Clouds 19 1017 77 10000 1.03 300 20:20 26.09.2021
6216 Clouds 19 1017 77 10000 1.03 300 20:20 26.09.2021
6217 Clouds 20 1017 70 10000 1.54 250 19:37 26.09.2021
6218 Clear 21 1017 69 10000 3.09 240 18:45 26.09.2021
6219 Clear 23 1017 63 10000 1.03 0 17:50 26.09.2021
6220 Clear 23 1017 72 10000 1.54 260 17:21 26.09.2021
6221 Clouds 23 1017 72 10000 1.54 280 16:28 26.09.2021
6222 Clouds 23 1017 68 10000 3.6 270 15:57 26.09.2021
6223 Clouds 25 1018 54 10000 1.54 0 14:45 26.09.2021
6224 Clouds 25 1018 58 10000 1.54 0 13:45 26.09.2021
6225 Clear 24 1018 61 10000 1.54 0 12:33 26.09.2021
6226 Clear 23 1018 64 10000 2.57 120 11:59 26.09.2021
6227 Clear 22 1018 65 10000 2.57 120 11:37 26.09.2021
6228 Clear 19 1018 72 10000 2.06 120 10:22 26.09.2021
6229 Clear 16 1018 79 10000 2.06 110 08:55 26.09.2021
6230 Clear 14 1018 84 10000 2.57 110 03:26 26.09.2021
6231 Clear 14 1017 84 10000 1.54 110 00:20 26.09.2021
6232 Clear 14 1018 81 10000 2.06 100 23:22 25.09.2021
6233 Clear 15 1018 80 10000 2.06 150 22:36 25.09.2021
6234 Clear 15 1017 77 10000 3.09 100 21:55 25.09.2021
6235 Clear 15 1017 78 10000 2.06 100 21:19 25.09.2021
6236 Clear 16 1017 76 10000 1.54 70 20:37 25.09.2021
6237 Clear 21 1017 55 10000 2.06 40 18:40 25.09.2021
6238 Clear 23 1017 53 10000 2.06 40 17:47 25.09.2021
6239 Clear 24 1017 49 10000 1.54 0 15:35 25.09.2021
6240 Clear 23 1018 55 10000 1.54 0 13:57 25.09.2021
6241 Clear 22 1019 57 10000 1.54 0 13:27 25.09.2021
6242 Clear 19 1019 71 10000 1.54 0 11:40 25.09.2021
6243 Clear 16 1019 72 10000 2.06 130 10:33 25.09.2021
6244 Clear 12 1019 78 10000 2.57 130 09:26 25.09.2021
6245 Clear 10 1018 81 10000 2.57 110 07:52 25.09.2021
6246 Clear 9 1018 89 10000 2.57 110 05:19 25.09.2021
6247 Clear 12 1018 86 10000 2.06 100 23:45 24.09.2021
6248 Clear 13 1018 86 10000 1.54 100 21:41 24.09.2021
6249 Clear 15 1018 76 10000 0.51 0 20:33 24.09.2021
6250 Clear 17 1017 69 10000 1.03 280 19:47 24.09.2021
6251 Clouds 20 1017 60 10000 3.09 260 18:32 24.09.2021
6252 Clouds 20 1017 58 10000 4.63 250 17:53 24.09.2021
6253 Clouds 20 1017 56 10000 4.63 250 17:35 24.09.2021
6254 Clouds 20 1017 57 10000 4.12 260 16:55 24.09.2021
6255 Clouds 19 1019 63 10000 4.12 240 13:57 24.09.2021
6256 Clouds 18 1019 67 10000 3.6 250 12:45 24.09.2021
6257 Clouds 18 1019 68 10000 3.6 230 12:27 24.09.2021
6258 Clouds 17 1019 71 10000 3.09 260 11:59 24.09.2021
6259 Clouds 14 1019 82 10000 2.57 240 10:25 24.09.2021
6260 Clouds 12 1018 87 10000 2.57 200 08:29 24.09.2021
6261 Clouds 12 1018 87 10000 1.54 220 07:32 24.09.2021
6262 Clouds 12 1018 87 10000 1.03 0 06:44 24.09.2021
6263 Clouds 12 1017 87 10000 2.57 220 04:53 24.09.2021
6264 Clear 16 1017 67 10000 3.6 260 22:46 23.09.2021
6265 Clear 16 1017 63 10000 3.09 240 22:20 23.09.2021
6266 Clear 16 1016 59 10000 4.12 240 21:44 23.09.2021
6267 Clear 16 1016 59 10000 3.6 230 20:33 23.09.2021
6268 Clouds 18 1017 68 10000 3.2 249 19:28 23.09.2021
6269 Clear 22 1017 40 10000 5.66 250 17:45 23.09.2021
6270 Clear 22 1019 43 10000 4.63 220 15:21 23.09.2021
6271 Clear 21 1019 46 10000 4.12 240 14:59 23.09.2021
6272 Clear 20 1020 52 10000 2.06 210 13:45 23.09.2021
6273 Clear 19 1020 55 10000 2.06 230 13:18 23.09.2021
6274 Clear 18 1021 59 10000 2.57 190 12:47 23.09.2021
6275 Clear 17 1021 59 10000 3.6 180 12:22 23.09.2021
6276 Clear 15 1022 63 10000 2.57 180 11:23 23.09.2021
6277 Clear 12 1022 76 10000 2.06 120 10:20 23.09.2021
6278 Clear 11 1022 82 10000 2.06 120 09:49 23.09.2021
6279 Clear 6 1023 100 10000 3.09 100 06:49 23.09.2021
6280 Clear 8 1026 93 10000 3.6 110 01:18 23.09.2021
6281 Clear 10 1026 93 10000 1.03 0 22:58 22.09.2021
6282 Clear 10 1026 87 10000 1.03 0 22:24 22.09.2021
6283 Clear 11 1026 87 10000 1.54 120 21:46 22.09.2021
6284 Clear 11 1026 87 10000 1.54 120 21:46 22.09.2021
6285 Clear 12 1026 87 10000 1.03 330 20:59 22.09.2021
6286 Clear 12 1026 87 10000 1.03 330 20:38 22.09.2021
6287 Clouds 16 1026 63 10000 1.54 290 19:27 22.09.2021
6288 Clouds 17 1026 59 10000 1.03 0 18:36 22.09.2021
6289 Clouds 17 1026 63 10000 0.33 340 17:39 22.09.2021
6290 Clouds 17 1026 57 10000 1.27 6 16:36 22.09.2021
6291 Clouds 17 1028 59 10000 3.09 300 14:37 22.09.2021
6292 Clouds 15 1029 67 10000 2.57 320 13:24 22.09.2021
6293 Clouds 14 1029 67 10000 1.03 0 11:34 22.09.2021
6294 Clouds 11 1029 76 10000 0.51 230 10:18 22.09.2021
6295 Clouds 7 1029 93 10000 0.51 0 08:52 22.09.2021
6296 Clouds 6 1029 93 10000 1.54 100 07:49 22.09.2021
6297 Clouds 6 1029 93 10000 1.03 0 06:56 22.09.2021
6298 Clouds 4 1029 100 10000 1.54 110 05:49 22.09.2021
6299 Clear 4 1029 100 10000 0.51 0 05:18 22.09.2021
6300 Clear 5 1029 93 10000 0.51 0 03:34 22.09.2021
6301 Clear 7 1030 93 10000 0.51 0 00:19 22.09.2021
6302 Clear 8 1030 87 10000 0.51 0 22:28 21.09.2021
6303 Clouds 9 1029 87 10000 1.54 120 21:31 21.09.2021
6304 Clouds 13 1028 64 10000 1.56 349 19:38 21.09.2021
6305 Clouds 14 1029 58 10000 1.54 20 19:20 21.09.2021
6306 Clouds 15 1028 47 10000 2.06 350 16:59 21.09.2021
6307 Clouds 15 1028 47 10000 3.09 10 16:27 21.09.2021
6308 Clouds 15 1029 47 10000 2.57 360 15:25 21.09.2021
6309 Clouds 15 1028 47 10000 1.03 0 14:49 21.09.2021
6310 Clouds 15 1028 51 10000 1.54 350 13:40 21.09.2021
6311 Clouds 15 1028 51 10000 1.54 350 13:40 21.09.2021
6312 Clouds 14 1028 58 10000 2.57 30 12:58 21.09.2021
6313 Clouds 13 1028 53 10000 1.87 43 11:19 21.09.2021
6314 Clouds 11 1027 76 10000 1.03 0 09:54 21.09.2021
6315 Clouds 9 1026 81 10000 1.54 350 07:47 21.09.2021
6316 Clouds 9 1025 87 10000 1.54 360 05:42 21.09.2021
6317 Clouds 11 1023 71 10000 1.03 0 23:58 20.09.2021
6318 Clouds 12 1023 66 10000 2.06 40 21:53 20.09.2021
6319 Clouds 12 1023 66 10000 2.06 40 21:32 20.09.2021
6320 Clouds 13 1022 67 10000 1.54 30 20:26 20.09.2021
6321 Clouds 13 1021 67 10000 1.03 40 19:20 20.09.2021
6322 Clouds 15 1020 58 10000 1.54 0 17:31 20.09.2021
6323 Clouds 15 1020 55 10000 2.06 0 16:26 20.09.2021
6324 Clouds 15 1020 55 10000 2.06 340 15:47 20.09.2021
6325 Clouds 15 1020 55 10000 1.54 0 14:50 20.09.2021
6326 Clouds 15 1020 55 10000 1.54 0 13:36 20.09.2021
6327 Clouds 13 1020 62 10000 2.06 80 12:34 20.09.2021
6328 Clouds 11 1020 76 10000 2.57 50 10:57 20.09.2021
6329 Clouds 11 1019 82 10000 1.03 0 09:52 20.09.2021
6330 Clouds 11 1019 82 10000 1.03 0 09:33 20.09.2021
6331 Clouds 10 1019 81 10000 1.03 0 08:55 20.09.2021
6332 Clouds 10 1018 81 10000 2.06 20 06:34 20.09.2021
6333 Clouds 12 1017 82 10000 2.06 360 23:30 19.09.2021
6334 Clouds 12 1016 82 10000 1.54 350 21:53 19.09.2021
6335 Clouds 12 1016 82 10000 1.54 350 21:21 19.09.2021
6336 Clouds 13 1015 76 10000 3.09 20 20:32 19.09.2021
6337 Clouds 15 1014 77 10000 3.09 30 18:54 19.09.2021
6338 Clouds 16 1014 67 10000 4.12 40 17:57 19.09.2021
6339 Clouds 16 1014 67 10000 3.6 30 17:21 19.09.2021
6340 Clouds 16 1014 67 10000 3.6 20 15:44 19.09.2021
6341 Clouds 17 1014 67 10000 3.09 40 14:49 19.09.2021
6342 Clouds 17 1014 67 10000 3.09 20 14:24 19.09.2021
6343 Clouds 16 1015 72 10000 3.09 40 12:56 19.09.2021
6344 Clouds 15 1015 77 10000 3.6 50 12:30 19.09.2021
6345 Clouds 14 1015 82 10000 3.6 70 11:25 19.09.2021
6346 Clouds 11 1015 87 10000 0.51 0 09:52 19.09.2021
6347 Fog 10 1015 93 10000 1.03 0 09:26 19.09.2021
6348 Clouds 7 1014 100 10000 1.03 340 06:49 19.09.2021
6349 Clear 9 1016 93 10000 0.51 0 01:38 19.09.2021
6350 Clear 11 1016 93 10000 1.03 50 23:25 18.09.2021
6351 Clear 13 1016 82 10000 2.06 30 21:58 18.09.2021
6352 Clear 14 1016 77 10000 1.54 50 20:48 18.09.2021
6353 Clear 16 1015 72 10000 2.57 30 19:58 18.09.2021
6354 Clear 16 1015 72 10000 2.57 30 19:37 18.09.2021
6355 Clouds 18 1015 63 10000 2.57 360 19:19 18.09.2021
6356 Clouds 19 1016 55 10000 3.6 350 18:30 18.09.2021
6357 Clouds 19 1016 55 10000 4.63 340 16:35 18.09.2021
6358 Clouds 19 1016 59 10000 4.12 330 14:32 18.09.2021
6359 Clouds 18 1017 68 10000 3.6 310 13:45 18.09.2021
6360 Clouds 18 1017 68 10000 4.63 310 13:21 18.09.2021
6361 Clouds 18 1017 68 10000 3.6 310 12:18 18.09.2021
6362 Clouds 17 1017 82 10000 1.54 0 11:30 18.09.2021
6363 Clear 15 1017 82 10000 0.51 0 10:31 18.09.2021
6364 Clear 11 1016 100 10000 0.51 0 09:24 18.09.2021
6365 Fog 9 1016 100 10000 1.03 0 08:28 18.09.2021
6366 Clouds 12 1016 88 10000 0.84 212 00:53 18.09.2021
6367 Clouds 14 1016 87 10000 0.68 209 23:56 17.09.2021
6368 Clouds 14 1016 86 10000 0.44 210 22:54 17.09.2021
6369 Clouds 14 1016 84 10000 0.25 218 22:25 17.09.2021
6370 Clear 14 1016 88 10000 2.06 100 21:33 17.09.2021
6371 Clouds 16 1015 77 10000 0.51 50 19:52 17.09.2021
6372 Clouds 17 1015 72 10000 1.54 280 18:42 17.09.2021
6373 Clouds 19 1016 59 10000 2.06 20 16:42 17.09.2021
6374 Clouds 18 1016 59 10000 2.06 310 15:21 17.09.2021
6375 Clouds 15 1017 82 10000 1.03 0 11:53 17.09.2021
6376 Clouds 13 1017 94 10000 1.03 0 10:23 17.09.2021
6377 Fog 10 1017 100 10000 0.51 0 07:48 17.09.2021
6378 Clear 11 1017 100 10000 1.54 130 05:45 17.09.2021
6379 Clear 10 1017 100 10000 0.51 250 00:32 17.09.2021
6380 Clear 13 1017 88 10000 1.03 300 22:42 16.09.2021
6381 Clear 13 1017 88 10000 1.03 300 22:23 16.09.2021
6382 Clear 13 1017 88 10000 2.06 290 21:35 16.09.2021
6383 Clouds 16 1016 77 10000 3.6 300 20:30 16.09.2021
6384 Clouds 17 1016 77 10000 3.09 280 18:52 16.09.2021
6385 Clouds 17 1016 77 10000 3.6 300 18:18 16.09.2021
6386 Clouds 17 1015 82 10000 5.14 300 16:37 16.09.2021
6387 Rain 17 1016 88 10000 3.6 290 14:49 16.09.2021
6388 Drizzle 17 1016 88 8000 3.6 310 13:34 16.09.2021
6389 Drizzle 17 1016 94 8000 4.12 310 12:45 16.09.2021
6390 Clouds 16 1015 94 10000 6.17 310 11:49 16.09.2021
6391 Clouds 17 1015 100 2500 2.06 210 10:54 16.09.2021
6392 Rain 17 1015 94 10000 1.54 190 10:21 16.09.2021
6393 Clouds 18 1015 88 10000 2.57 210 09:18 16.09.2021
6394 Clouds 17 1014 94 10000 2.57 190 07:48 16.09.2021
6395 Clouds 18 1014 88 10000 1.54 200 06:56 16.09.2021
6396 Rain 18 1014 88 10000 1.54 200 06:37 16.09.2021
6397 Clouds 18 1014 82 10000 1.54 200 03:22 16.09.2021
6398 Clouds 19 1014 77 10000 1.54 210 00:46 16.09.2021
6399 Clouds 19 1014 82 10000 1.54 180 23:24 15.09.2021
6400 Clouds 20 1014 77 10000 2.06 210 22:26 15.09.2021
6401 Clouds 20 1014 77 10000 3.09 200 21:30 15.09.2021
6402 Clouds 20 1013 77 10000 3.6 180 20:26 15.09.2021
6403 Clouds 21 1013 73 10000 3.09 180 19:31 15.09.2021
6404 Clouds 21 1013 73 10000 3.09 190 18:37 15.09.2021
6405 Clouds 22 1013 73 10000 3.09 190 17:33 15.09.2021
6406 Clouds 22 1014 68 10000 3.09 190 16:28 15.09.2021
6407 Rain 21 1015 83 10000 2.57 170 14:53 15.09.2021
6408 Rain 21 1015 83 10000 2.57 170 14:33 15.09.2021
6409 Rain 21 1015 83 10000 2.57 180 13:42 15.09.2021
6410 Rain 21 1015 83 10000 1.03 0 13:23 15.09.2021
6411 Clouds 20 1015 83 10000 2.06 260 12:23 15.09.2021
6412 Rain 20 1015 78 10000 1.03 0 11:49 15.09.2021
6413 Rain 20 1015 77 10000 2.57 170 10:56 15.09.2021
6414 Rain 19 1014 82 10000 3.09 130 09:44 15.09.2021
6415 Rain 18 1014 82 10000 3.09 130 08:41 15.09.2021
6416 Clear 18 1014 77 10000 2.06 90 05:55 15.09.2021
6417 Clear 19 1016 77 10000 2.06 110 00:37 15.09.2021
6418 Clear 20 1015 77 10000 4.12 100 21:59 14.09.2021
6419 Clear 21 1015 73 10000 3.09 100 20:56 14.09.2021
6420 Clear 23 1015 60 10000 2.06 120 19:54 14.09.2021
6421 Clear 26 1015 50 10000 2.57 170 18:24 14.09.2021
6422 Clear 27 1015 47 10000 2.57 200 17:28 14.09.2021
6423 Clouds 26 1016 50 10000 4.12 160 15:58 14.09.2021
6424 Clouds 27 1016 47 10000 5.66 140 14:32 14.09.2021
6425 Clouds 26 1016 53 10000 5.14 140 13:20 14.09.2021
6426 Clear 21 1017 68 10000 4.63 130 10:55 14.09.2021
6427 Clear 18 1017 77 10000 3.6 110 09:51 14.09.2021
6428 Clear 15 1017 88 10000 3.09 110 08:49 14.09.2021
6429 Clear 13 1017 94 10000 1.54 120 07:25 14.09.2021
6430 Clear 14 1018 94 10000 0.51 0 00:53 14.09.2021
6431 Clear 16 1018 82 10000 2.06 90 22:58 13.09.2021
6432 Clear 16 1018 82 10000 1.54 100 22:24 13.09.2021
6433 Clear 16 1018 82 10000 3.09 100 21:53 13.09.2021
6434 Clear 19 1017 72 10000 2.57 50 20:51 13.09.2021
6435 Clear 21 1017 64 10000 1.54 20 19:29 13.09.2021
6436 Clouds 22 1017 60 10000 1.54 50 18:43 13.09.2021
6437 Clouds 24 1018 50 10000 1.54 0 16:58 13.09.2021
6438 Clouds 24 1018 50 10000 3.09 360 15:39 13.09.2021
6439 Clouds 22 1019 53 10000 2.06 0 13:32 13.09.2021
6440 Clouds 20 1019 68 10000 0.51 0 11:20 13.09.2021
6441 Clear 15 1019 82 10000 1.03 0 09:42 13.09.2021
6442 Clear 10 1018 100 10000 2.57 100 07:28 13.09.2021
6443 Clouds 13 1018 94 10000 0.51 0 23:44 12.09.2021
6444 Clear 14 1018 88 10000 1.03 90 22:26 12.09.2021
6445 Clear 15 1018 82 10000 0.51 0 21:37 12.09.2021
6446 Clear 18 1017 72 10000 1.03 350 20:34 12.09.2021
6447 Clear 20 1017 64 10000 2.57 310 19:54 12.09.2021
6448 Clouds 21 1017 56 10000 3.09 310 19:28 12.09.2021
6449 Clouds 22 1017 53 10000 2.06 280 18:29 12.09.2021
6450 Clouds 23 1018 49 10000 3.09 300 16:33 12.09.2021
6451 Clouds 22 1018 60 10000 2.57 180 14:59 12.09.2021
6452 Clouds 20 1019 68 10000 2.06 250 13:49 12.09.2021
6453 Clouds 17 1020 88 10000 1.54 270 11:31 12.09.2021
6454 Clouds 16 1019 94 7000 1.54 280 09:35 12.09.2021
6455 Clouds 16 1019 94 10000 2.06 280 08:38 12.09.2021
6456 Clouds 17 1019 88 10000 1.03 0 02:39 12.09.2021
6457 Clouds 17 1019 94 10000 1.03 0 23:38 11.09.2021
6458 Clouds 18 1019 88 10000 1.54 120 21:56 11.09.2021
6459 Clouds 19 1018 82 10000 2.06 100 20:59 11.09.2021
6460 Clouds 22 1018 68 10000 1.54 180 19:25 11.09.2021
6461 Clouds 23 1018 64 10000 1.54 0 17:38 11.09.2021
6462 Clouds 22 1018 64 10000 2.57 290 15:51 11.09.2021
6463 Clouds 21 1019 73 10000 2.06 230 13:49 11.09.2021
6464 Clouds 20 1019 77 10000 3.09 230 12:50 11.09.2021
6465 Clouds 19 1019 82 10000 2.57 210 11:19 11.09.2021
6466 Clouds 19 1019 82 10000 2.57 210 09:38 11.09.2021
6467 Rain 18 1018 82 10000 1.54 200 07:45 11.09.2021
6468 Clouds 18 1018 82 10000 1.54 220 06:50 11.09.2021
6469 Clear 19 1017 82 10000 1.03 0 23:37 10.09.2021
6470 Clear 19 1017 82 10000 1.03 220 22:25 10.09.2021
6471 Clear 19 1017 82 10000 1.03 0 21:54 10.09.2021
6472 Rain 20 1016 77 10000 1.03 0 20:24 10.09.2021
6473 Clouds 25 1015 50 10000 2.57 250 18:27 10.09.2021
6474 Clouds 26 1015 47 10000 2.57 230 16:51 10.09.2021
6475 Clouds 26 1016 50 10000 3.6 240 14:41 10.09.2021
6476 Clear 23 1017 56 10000 2.06 240 11:56 10.09.2021
6477 Clear 17 1016 88 10000 1.54 100 08:36 10.09.2021
6478 Clear 14 1016 100 10000 3.09 110 07:49 10.09.2021
6479 Clear 18 1015 88 10000 2.06 110 00:42 10.09.2021
6480 Clouds 19 1015 88 10000 0.51 0 22:31 09.09.2021
6481 Clouds 19 1014 88 10000 1.03 0 21:45 09.09.2021
6482 Clouds 19 1014 88 10000 1.03 0 21:45 09.09.2021
6483 Clouds 19 1014 94 10000 1.54 340 20:46 09.09.2021
6484 Clouds 22 1013 68 9000 10.29 240 19:33 09.09.2021
6485 Clear 26 1013 50 10000 3.6 200 18:26 09.09.2021
6486 Clear 27 1013 47 10000 2.57 170 16:40 09.09.2021
6487 Clouds 27 1014 50 10000 2.57 210 15:27 09.09.2021
6488 Clear 25 1014 53 10000 1.54 0 12:48 09.09.2021
6489 Clear 22 1014 60 10000 3.6 130 11:33 09.09.2021
6490 Clear 17 1014 67 10000 4.12 120 09:50 09.09.2021
6491 Clear 13 1014 88 10000 2.06 110 08:32 09.09.2021
6492 Clear 12 1014 94 10000 2.57 110 06:24 09.09.2021
6493 Clear 13 1015 94 10000 1.54 100 02:18 09.09.2021
6494 Clear 17 1015 72 10000 1.54 90 22:39 08.09.2021
6495 Clear 18 1015 68 10000 1.54 80 21:22 08.09.2021
6496 Clear 22 1015 53 10000 2.06 100 19:56 08.09.2021
6497 Clear 25 1015 44 10000 3.09 90 18:50 08.09.2021
6498 Clear 25 1016 41 10000 3.6 100 18:27 08.09.2021
6499 Clear 25 1016 41 10000 4.12 90 17:55 08.09.2021
6500 Clear 25 1017 41 10000 4.12 120 16:28 08.09.2021
6501 Clear 24 1018 46 10000 3.6 0 13:56 08.09.2021
6502 Clear 23 1019 56 10000 2.06 80 12:42 08.09.2021
6503 Clear 22 1019 60 10000 1.54 0 12:24 08.09.2021
6504 Clear 20 1020 64 10000 2.06 90 11:29 08.09.2021
6505 Clear 20 1020 64 10000 2.06 120 10:32 08.09.2021
6506 Clear 17 1020 77 10000 2.57 100 09:58 08.09.2021
6507 Fog 11 1020 93 8000 0.51 0 07:55 08.09.2021
6508 Fog 11 1020 93 8000 0.51 0 07:32 08.09.2021
6509 Clear 12 1021 94 10000 1.03 0 03:41 08.09.2021
6510 Clear 17 1022 77 10000 1.54 90 22:35 07.09.2021
6511 Clear 17 1022 77 10000 2.06 80 21:46 07.09.2021
6512 Clear 21 1022 64 10000 2.06 50 19:47 07.09.2021
6513 Clear 22 1022 56 10000 2.06 10 18:39 07.09.2021
6514 Clear 24 1022 50 10000 2.06 20 17:43 07.09.2021
6515 Clear 26 1023 41 10000 1.54 0 15:57 07.09.2021
6516 Clear 25 1023 41 10000 1.54 180 15:33 07.09.2021
6517 Clouds 24 1024 46 10000 1.54 280 13:54 07.09.2021
6518 Clear 22 1024 56 10000 1.54 310 12:28 07.09.2021
6519 Clear 20 1025 60 10000 1.03 0 11:26 07.09.2021
6520 Clear 18 1025 68 10000 1.03 0 10:40 07.09.2021
6521 Clear 12 1024 94 10000 3.09 100 08:18 07.09.2021
6522 Clear 12 1024 94 10000 2.57 90 06:43 07.09.2021
6523 Clear 13 1024 100 10000 2.57 110 02:43 07.09.2021
6524 Clear 13 1024 94 10000 0.51 0 02:25 07.09.2021
6525 Clear 15 1024 88 10000 3.09 100 00:23 07.09.2021
6526 Clear 15 1024 88 10000 2.06 110 23:31 06.09.2021
6527 Clear 16 1024 88 10000 2.57 90 22:53 06.09.2021
6528 Clear 17 1024 82 10000 3.09 100 22:25 06.09.2021
6529 Clear 20 1023 64 10000 1.03 20 20:37 06.09.2021
6530 Clear 23 1023 56 10000 0.51 0 19:22 06.09.2021
6531 Clear 25 1023 44 10000 1.54 300 18:36 06.09.2021
6532 Clear 26 1024 36 10000 1.54 290 17:58 06.09.2021
6533 Clear 26 1024 36 10000 1.54 240 16:35 06.09.2021
6534 Clear 25 1024 41 10000 1.03 0 15:34 06.09.2021
6535 Clear 24 1024 46 10000 1.54 0 13:45 06.09.2021
6536 Clouds 23 1025 49 10000 1.54 0 12:45 06.09.2021
6537 Clear 20 1025 64 10000 2.57 120 10:37 06.09.2021
6538 Clear 11 1024 93 10000 1.03 110 07:54 06.09.2021
6539 Fog 11 1023 100 10000 2.57 100 04:38 06.09.2021
6540 Clear 15 1022 94 10000 1.03 0 23:24 05.09.2021
6541 Clear 16 1022 88 10000 1.03 0 22:33 05.09.2021
6542 Clear 16 1022 88 10000 0.51 0 21:56 05.09.2021
6543 Clear 17 1021 82 10000 1.03 0 21:21 05.09.2021
6544 Clear 22 1021 64 10000 1.03 40 19:47 05.09.2021
6545 Clear 25 1021 47 10000 1.03 0 17:53 05.09.2021
6546 Clear 26 1021 38 10000 2.06 0 16:53 05.09.2021
6547 Clear 25 1021 44 10000 2.06 0 15:21 05.09.2021
6548 Clouds 23 1021 53 10000 1.03 0 12:45 05.09.2021
6549 Clear 21 1021 64 10000 1.54 0 11:44 05.09.2021
6550 Clear 19 1021 68 10000 1.54 110 10:42 05.09.2021
6551 Clear 15 1021 82 10000 2.06 140 09:35 05.09.2021
6552 Clear 12 1020 100 10000 0.51 0 08:34 05.09.2021
6553 Clear 10 1019 93 10000 1.03 70 06:33 05.09.2021
6554 Clear 13 1018 94 10000 1.03 0 00:41 05.09.2021
6555 Clear 15 1018 94 10000 1.54 80 23:56 04.09.2021
6556 Clear 15 1018 88 10000 1.54 40 23:25 04.09.2021
6557 Clear 15 1018 88 10000 1.03 0 22:35 04.09.2021
6558 Clear 17 1017 82 10000 0 0 21:18 04.09.2021
6559 Clear 22 1016 56 10000 1.54 60 19:33 04.09.2021
6560 Clear 25 1017 41 10000 2.06 120 17:25 04.09.2021
6561 Clear 24 1018 43 10000 2.06 0 14:37 04.09.2021
6562 Clear 21 1018 60 10000 1.54 0 11:37 04.09.2021
6563 Clear 19 1018 68 10000 1.03 0 10:38 04.09.2021
6564 Clear 11 1018 100 10000 0.51 0 08:18 04.09.2021
6565 Clear 12 1019 94 10000 1.03 0 00:50 04.09.2021
6566 Clear 12 1019 94 10000 1.03 0 00:50 04.09.2021
6567 Clear 13 1019 88 10000 1.54 90 00:19 04.09.2021
6568 Clear 14 1019 88 10000 0.51 0 23:21 03.09.2021
6569 Clear 15 1018 94 10000 0.51 340 21:43 03.09.2021
6570 Clear 18 1018 72 10000 1.54 40 20:58 03.09.2021
6571 Clear 19 1018 72 10000 1.54 50 20:28 03.09.2021
6572 Clear 22 1018 53 10000 1.54 40 19:35 03.09.2021
6573 Clear 24 1018 43 10000 2.06 30 18:27 03.09.2021
6574 Clear 24 1019 43 10000 2.06 360 16:50 03.09.2021
6575 Clear 24 1020 43 10000 1.54 0 15:39 03.09.2021
6576 Clouds 23 1021 46 10000 2.06 0 14:28 03.09.2021
6577 Clouds 23 1021 46 10000 2.06 0 14:28 03.09.2021
6578 Clear 19 1022 68 10000 1.03 0 11:21 03.09.2021
6579 Clear 15 1022 77 10000 0.51 0 09:21 03.09.2021
6580 Clear 10 1022 100 10000 1.03 0 08:18 03.09.2021
6581 Clear 9 1022 100 10000 0.51 240 06:49 03.09.2021
6582 Clear 14 1024 82 10000 1.54 100 23:56 02.09.2021
6583 Clear 15 1024 77 10000 1.54 90 22:21 02.09.2021
6584 Clear 17 1024 72 10000 2.06 50 20:46 02.09.2021
6585 Clear 23 1025 46 10000 3.6 80 18:27 02.09.2021
6586 Clear 23 1025 46 10000 3.6 90 16:39 02.09.2021
6587 Clouds 22 1026 49 10000 4.12 60 15:30 02.09.2021
6588 Clouds 21 1026 52 10000 2.06 0 13:33 02.09.2021
6589 Clouds 19 1027 68 10000 2.57 110 11:43 02.09.2021
6590 Clouds 17 1027 72 10000 2.57 60 10:53 02.09.2021
6591 Clear 10 1027 93 10000 1.54 330 08:57 02.09.2021
6592 Fog 8 1026 100 10000 0.51 0 07:23 02.09.2021
6593 Fog 8 1026 100 10000 0.51 0 07:22 02.09.2021
6594 Clear 8 1026 100 10000 1.03 10 05:32 02.09.2021
6595 Clear 9 1027 100 10000 1.54 350 02:37 02.09.2021
6596 Clear 9 1027 100 10000 0.51 0 01:49 02.09.2021
6597 Clear 12 1027 93 10000 0.51 0 23:41 01.09.2021
6598 Clear 12 1026 94 10000 1.54 150 22:44 01.09.2021
6599 Clear 13 1026 94 10000 1.54 20 21:58 01.09.2021
6600 Clouds 14 1026 88 10000 2.06 20 21:29 01.09.2021
6601 Clouds 18 1025 68 10000 1.54 360 19:33 01.09.2021
6602 Clouds 21 1026 49 10000 3.09 350 17:51 01.09.2021
6603 Clouds 21 1026 49 10000 2.57 360 16:58 01.09.2021
6604 Clouds 20 1026 56 10000 4.12 360 16:35 01.09.2021
6605 Clouds 19 1027 59 10000 3.6 0 13:57 01.09.2021
6606 Clouds 16 1027 82 10000 1.03 0 11:47 01.09.2021
6607 Clouds 16 1027 82 10000 1.03 0 11:47 01.09.2021
6608 Fog 12 1027 100 400 0.51 0 09:41 01.09.2021
6609 Fog 9 1026 100 300 0.51 0 07:58 01.09.2021
6610 Fog 9 1026 100 6000 0.51 0 06:42 01.09.2021
6611 Clouds 12 1024 93 10000 0.51 320 23:29 31.08.2021
6612 Clouds 13 1023 96 10000 0.51 0 21:45 31.08.2021
6613 Clouds 16 1022 86 10000 0.51 0 19:49 31.08.2021
6614 Clouds 17 1022 82 10000 3.6 340 18:56 31.08.2021
6615 Clouds 18 1022 74 10000 2.57 290 17:39 31.08.2021
6616 Clouds 18 1022 73 10000 4.63 320 17:21 31.08.2021
6617 Clouds 18 1022 69 10000 4.63 320 16:24 31.08.2021
6618 Clouds 18 1022 72 10000 4.12 340 14:28 31.08.2021
6619 Clouds 16 1021 81 10000 3.6 350 11:41 31.08.2021
6620 Clouds 15 1021 83 10000 3.6 340 11:18 31.08.2021
6621 Clouds 15 1021 90 10000 3.6 340 10:22 31.08.2021
6622 Clouds 14 1021 94 10000 3.6 330 09:40 31.08.2021
6623 Clouds 14 1020 94 10000 2.96 324 07:39 31.08.2021
6624 Clouds 14 1019 94 10000 2.06 320 05:55 31.08.2021
6625 Clouds 14 1018 97 10000 3.09 310 23:36 30.08.2021
6626 Clouds 15 1017 93 10000 2.57 310 21:53 30.08.2021
6627 Rain 15 1017 93 10000 2.57 310 21:35 30.08.2021
6628 Rain 15 1017 93 10000 3.6 310 20:32 30.08.2021
6629 Clouds 16 1016 88 10000 3.09 320 19:30 30.08.2021
6630 Clouds 16 1016 86 10000 3.6 310 18:57 30.08.2021
6631 Clouds 19 1015 71 10000 1.54 300 17:48 30.08.2021
6632 Clouds 18 1015 76 10000 2.06 310 16:25 30.08.2021
6633 Clouds 19 1015 69 10000 2.06 0 15:39 30.08.2021
6634 Clouds 17 1015 81 10000 2.06 360 13:46 30.08.2021
6635 Clouds 16 1015 88 10000 2.57 330 12:40 30.08.2021
6636 Rain 15 1014 91 10000 3.09 330 10:34 30.08.2021
6637 Rain 14 1013 97 10000 2.57 300 02:37 30.08.2021
6638 Clouds 14 1014 97 10000 2.06 230 21:33 29.08.2021
6639 Clouds 14 1014 97 8000 2.06 160 20:27 29.08.2021
6640 Drizzle 14 1014 96 9000 2.06 100 19:20 29.08.2021
6641 Drizzle 14 1015 88 3500 1.54 270 17:58 29.08.2021
6642 Clouds 16 1015 82 10000 3.6 250 15:49 29.08.2021
6643 Drizzle 16 1015 80 10000 4.12 250 14:21 29.08.2021
6644 Rain 16 1015 78 10000 3.09 270 13:44 29.08.2021
6645 Clouds 16 1016 78 10000 2.06 290 12:40 29.08.2021
6646 Clouds 16 1016 81 10000 3.09 270 11:50 29.08.2021
6647 Clouds 15 1016 84 10000 1.54 0 11:23 29.08.2021
6648 Clouds 14 1016 91 10000 1.03 0 10:43 29.08.2021
6649 Clouds 14 1016 91 10000 1.03 0 10:24 29.08.2021
6650 Clouds 12 1016 94 10000 1.54 100 08:24 29.08.2021
6651 Clear 11 1017 93 10000 1.03 260 00:37 29.08.2021
6652 Clear 12 1018 92 10000 1.03 0 21:54 28.08.2021
6653 Clouds 13 1017 87 10000 0.51 0 20:28 28.08.2021
6654 Clouds 15 1017 84 10000 2.06 100 18:43 28.08.2021
6655 Clouds 15 1017 84 10000 1.54 70 18:19 28.08.2021
6656 Clouds 13 1017 89 10000 1.54 0 17:18 28.08.2021
6657 Clouds 18 1016 71 10000 5.14 290 15:46 28.08.2021
6658 Clouds 14 1017 89 10000 3.09 310 14:26 28.08.2021
6659 Rain 14 1016 81 10000 7.2 310 13:45 28.08.2021
6660 Rain 16 1016 80 10000 3.6 290 12:44 28.08.2021
6661 Clouds 16 1016 78 10000 2.57 290 11:54 28.08.2021
6662 Clouds 13 1016 90 10000 2.57 320 10:41 28.08.2021
6663 Clouds 12 1016 97 10000 3.09 300 08:40 28.08.2021
6664 Clouds 12 1016 94 10000 2.57 330 07:24 28.08.2021
6665 Rain 13 1015 94 7000 3.09 240 22:30 27.08.2021
6666 Rain 14 1015 90 10000 3.6 270 20:59 27.08.2021
6667 Clouds 14 1015 89 10000 3.6 260 20:30 27.08.2021
6668 Clouds 14 1014 88 10000 4.12 300 18:57 27.08.2021
6669 Rain 15 1014 84 10000 3.6 260 18:37 27.08.2021
6670 Clouds<